<?xml version='1.0' encoding='UTF-8'?><gpx version="1.1" creator="JPX - https://github.com/jenetics/jpx" xmlns="http://www.topografix.com/GPX/1/1"><trk><trkseg><trkpt lat="45.4012467" lon="10.9758535"><ele>55.8</ele><time>2026-05-04T09:24:46.227Z</time></trkpt><trkpt lat="45.4011916" lon="10.9758062"><ele>55.599999999999994</ele><time>2026-05-04T09:24:49.227Z</time></trkpt><trkpt lat="45.4011275" lon="10.975778"><ele>55.4</ele><time>2026-05-04T09:24:52.266Z</time></trkpt><trkpt lat="45.4011978" lon="10.9754818"><ele>55.2</ele><time>2026-05-04T09:24:54.253Z</time></trkpt><trkpt lat="45.4011686" lon="10.9755785"><ele>55.0</ele><time>2026-05-04T09:25:19.207Z</time></trkpt><trkpt lat="45.4011476" lon="10.9757434"><ele>55.2</ele><time>2026-05-04T09:25:20.208Z</time></trkpt><trkpt lat="45.401141" lon="10.975891"><ele>55.4</ele><time>2026-05-04T09:25:22.208Z</time></trkpt><trkpt lat="45.4011031" lon="10.9760533"><ele>55.599999999999994</ele><time>2026-05-04T09:25:25.207Z</time></trkpt><trkpt lat="45.40112" lon="10.9761733"><ele>55.8</ele><time>2026-05-04T09:25:27.212Z</time></trkpt><trkpt lat="45.4010933" lon="10.976255"><ele>56.0</ele><time>2026-05-04T09:25:54.216Z</time></trkpt><trkpt lat="45.4010967" lon="10.97639"><ele>56.00000000000001</ele><time>2026-05-04T09:25:56.208Z</time></trkpt><trkpt lat="45.4010967" lon="10.9765083"><ele>56.0</ele><time>2026-05-04T09:25:58.207Z</time></trkpt><trkpt lat="45.4010683" lon="10.9766"><ele>56.0</ele><time>2026-05-04T09:26:00.206Z</time></trkpt><trkpt lat="45.401" lon="10.9766433"><ele>56.0</ele><time>2026-05-04T09:26:02.221Z</time></trkpt><trkpt lat="45.400905" lon="10.9766517"><ele>56.00000000000001</ele><time>2026-05-04T09:26:04.21Z</time></trkpt><trkpt lat="45.400795" lon="10.9766533"><ele>56.0</ele><time>2026-05-04T09:26:06.21Z</time></trkpt><trkpt lat="45.4006817" lon="10.9766467"><ele>56.0</ele><time>2026-05-04T09:26:08.211Z</time></trkpt><trkpt lat="45.4005767" lon="10.9765967"><ele>55.99999999999999</ele><time>2026-05-04T09:26:10.207Z</time></trkpt><trkpt lat="45.4004783" lon="10.9765283"><ele>55.99999999999999</ele><time>2026-05-04T09:26:12.21Z</time></trkpt><trkpt lat="45.4003767" lon="10.9764583"><ele>56.0</ele><time>2026-05-04T09:26:14.208Z</time></trkpt><trkpt lat="45.4002767" lon="10.9763883"><ele>56.0</ele><time>2026-05-04T09:26:16.207Z</time></trkpt><trkpt lat="45.4001733" lon="10.976325"><ele>56.16666666666667</ele><time>2026-05-04T09:26:18.21Z</time></trkpt><trkpt lat="45.4000683" lon="10.9762517"><ele>56.333333333333336</ele><time>2026-05-04T09:26:20.209Z</time></trkpt><trkpt lat="45.4000117" lon="10.9762117"><ele>56.5</ele><time>2026-05-04T09:26:21.209Z</time></trkpt><trkpt lat="45.3999517" lon="10.97617"><ele>56.66666666666667</ele><time>2026-05-04T09:26:22.211Z</time></trkpt><trkpt lat="45.3998917" lon="10.9761233"><ele>56.833333333333336</ele><time>2026-05-04T09:26:23.211Z</time></trkpt><trkpt lat="45.3998317" lon="10.97608"><ele>57.0</ele><time>2026-05-04T09:26:24.209Z</time></trkpt><trkpt lat="45.3997183" lon="10.976005"><ele>56.2</ele><time>2026-05-04T09:26:26.21Z</time></trkpt><trkpt lat="45.399655" lon="10.97597"><ele>55.400000000000006</ele><time>2026-05-04T09:26:27.21Z</time></trkpt><trkpt lat="45.3995933" lon="10.9759317"><ele>54.599999999999994</ele><time>2026-05-04T09:26:28.207Z</time></trkpt><trkpt lat="45.39949" lon="10.9758683"><ele>53.8</ele><time>2026-05-04T09:26:30.207Z</time></trkpt><trkpt lat="45.3993883" lon="10.9758367"><ele>53.0</ele><time>2026-05-04T09:26:32.208Z</time></trkpt><trkpt lat="45.3992717" lon="10.97581"><ele>53.00000000000001</ele><time>2026-05-04T09:26:34.208Z</time></trkpt><trkpt lat="45.3992033" lon="10.9757983"><ele>53.0</ele><time>2026-05-04T09:26:35.218Z</time></trkpt><trkpt lat="45.39914" lon="10.9757983"><ele>53.0</ele><time>2026-05-04T09:26:36.211Z</time></trkpt><trkpt lat="45.39904" lon="10.9758467"><ele>53.0</ele><time>2026-05-04T09:26:38.208Z</time></trkpt><trkpt lat="45.3989767" lon="10.9759483"><ele>53.00000000000001</ele><time>2026-05-04T09:26:40.209Z</time></trkpt><trkpt lat="45.39895" lon="10.9760933"><ele>53.0</ele><time>2026-05-04T09:26:42.207Z</time></trkpt><trkpt lat="45.3989083" lon="10.9762567"><ele>53.0</ele><time>2026-05-04T09:26:44.209Z</time></trkpt><trkpt lat="45.3988583" lon="10.9764033"><ele>53.0</ele><time>2026-05-04T09:26:46.207Z</time></trkpt><trkpt lat="45.398805" lon="10.9765583"><ele>53.0</ele><time>2026-05-04T09:26:48.207Z</time></trkpt><trkpt lat="45.39875" lon="10.976715"><ele>53.0</ele><time>2026-05-04T09:26:50.211Z</time></trkpt><trkpt lat="45.3987033" lon="10.9768767"><ele>53.599999999999994</ele><time>2026-05-04T09:26:52.208Z</time></trkpt><trkpt lat="45.39868" lon="10.97696"><ele>54.199999999999996</ele><time>2026-05-04T09:26:53.213Z</time></trkpt><trkpt lat="45.3986567" lon="10.9770433"><ele>54.8</ele><time>2026-05-04T09:26:54.207Z</time></trkpt><trkpt lat="45.3986083" lon="10.9772017"><ele>55.4</ele><time>2026-05-04T09:26:56.208Z</time></trkpt><trkpt lat="45.398555" lon="10.9773633"><ele>56.0</ele><time>2026-05-04T09:26:58.209Z</time></trkpt><trkpt lat="45.3985017" lon="10.977505"><ele>56.0</ele><time>2026-05-04T09:27:00.212Z</time></trkpt><trkpt lat="45.3984517" lon="10.9776567"><ele>55.99999999999999</ele><time>2026-05-04T09:27:02.209Z</time></trkpt><trkpt lat="45.39841" lon="10.9778117"><ele>55.99999999999999</ele><time>2026-05-04T09:27:04.208Z</time></trkpt><trkpt lat="45.3983833" lon="10.9779233"><ele>56.0</ele><time>2026-05-04T09:27:06.212Z</time></trkpt><trkpt lat="45.3983583" lon="10.9780417"><ele>56.0</ele><time>2026-05-04T09:27:09.209Z</time></trkpt><trkpt lat="45.3983167" lon="10.9781633"><ele>56.0</ele><time>2026-05-04T09:27:12.208Z</time></trkpt><trkpt lat="45.39828" lon="10.9782917"><ele>55.99999999999999</ele><time>2026-05-04T09:27:14.209Z</time></trkpt><trkpt lat="45.3982333" lon="10.9784267"><ele>55.99999999999999</ele><time>2026-05-04T09:27:16.207Z</time></trkpt><trkpt lat="45.3981867" lon="10.97857"><ele>56.0</ele><time>2026-05-04T09:27:18.208Z</time></trkpt><trkpt lat="45.39814" lon="10.9787117"><ele>56.0</ele><time>2026-05-04T09:27:20.208Z</time></trkpt><trkpt lat="45.398095" lon="10.97884"><ele>56.199999999999996</ele><time>2026-05-04T09:27:22.21Z</time></trkpt><trkpt lat="45.3980533" lon="10.9789733"><ele>56.39999999999999</ele><time>2026-05-04T09:27:24.214Z</time></trkpt><trkpt lat="45.3980083" lon="10.97913"><ele>56.6</ele><time>2026-05-04T09:27:26.211Z</time></trkpt><trkpt lat="45.3979767" lon="10.9792383"><ele>56.8</ele><time>2026-05-04T09:27:28.211Z</time></trkpt><trkpt lat="45.3979517" lon="10.97933"><ele>57.0</ele><time>2026-05-04T09:27:31.21Z</time></trkpt><trkpt lat="45.39792" lon="10.9794517"><ele>57.0</ele><time>2026-05-04T09:28:01.206Z</time></trkpt><trkpt lat="45.3979" lon="10.9795417"><ele>57.0</ele><time>2026-05-04T09:28:04.208Z</time></trkpt><trkpt lat="45.397865" lon="10.9796317"><ele>57.0</ele><time>2026-05-04T09:28:07.207Z</time></trkpt><trkpt lat="45.3977983" lon="10.9797183"><ele>57.0</ele><time>2026-05-04T09:28:10.21Z</time></trkpt><trkpt lat="45.39773" lon="10.9797467"><ele>57.0</ele><time>2026-05-04T09:28:12.209Z</time></trkpt><trkpt lat="45.397665" lon="10.9797317"><ele>57.0</ele><time>2026-05-04T09:28:14.21Z</time></trkpt><trkpt lat="45.3975717" lon="10.9796833"><ele>57.0</ele><time>2026-05-04T09:28:16.208Z</time></trkpt><trkpt lat="45.3974633" lon="10.9796267"><ele>57.0</ele><time>2026-05-04T09:28:18.207Z</time></trkpt><trkpt lat="45.3974033" lon="10.9795983"><ele>57.0</ele><time>2026-05-04T09:28:19.214Z</time></trkpt><trkpt lat="45.3973383" lon="10.97957"><ele>57.0</ele><time>2026-05-04T09:28:20.208Z</time></trkpt><trkpt lat="45.3972683" lon="10.9795383"><ele>57.0</ele><time>2026-05-04T09:28:21.208Z</time></trkpt><trkpt lat="45.3971867" lon="10.9795"><ele>57.0</ele><time>2026-05-04T09:28:22.21Z</time></trkpt><trkpt lat="45.3971033" lon="10.9794633"><ele>55.6</ele><time>2026-05-04T09:28:23.209Z</time></trkpt><trkpt lat="45.3970217" lon="10.9794267"><ele>54.2</ele><time>2026-05-04T09:28:24.209Z</time></trkpt><trkpt lat="45.3969317" lon="10.9793817"><ele>52.8</ele><time>2026-05-04T09:28:25.217Z</time></trkpt><trkpt lat="45.3968383" lon="10.979335"><ele>51.4</ele><time>2026-05-04T09:28:26.212Z</time></trkpt><trkpt lat="45.3967383" lon="10.979285"><ele>50.0</ele><time>2026-05-04T09:28:27.209Z</time></trkpt><trkpt lat="45.3966317" lon="10.979235"><ele>50.5</ele><time>2026-05-04T09:28:28.21Z</time></trkpt><trkpt lat="45.396525" lon="10.9791833"><ele>51.0</ele><time>2026-05-04T09:28:29.208Z</time></trkpt><trkpt lat="45.3964167" lon="10.97913"><ele>51.5</ele><time>2026-05-04T09:28:30.209Z</time></trkpt><trkpt lat="45.3963083" lon="10.9790767"><ele>52.0</ele><time>2026-05-04T09:28:31.211Z</time></trkpt><trkpt lat="45.3961983" lon="10.97902"><ele>52.25</ele><time>2026-05-04T09:28:32.209Z</time></trkpt><trkpt lat="45.3960833" lon="10.9789617"><ele>52.5</ele><time>2026-05-04T09:28:33.211Z</time></trkpt><trkpt lat="45.395965" lon="10.9788967"><ele>52.75</ele><time>2026-05-04T09:28:34.21Z</time></trkpt><trkpt lat="45.3958517" lon="10.97882"><ele>53.0</ele><time>2026-05-04T09:28:35.207Z</time></trkpt><trkpt lat="45.3957417" lon="10.9787383"><ele>53.0</ele><time>2026-05-04T09:28:36.208Z</time></trkpt><trkpt lat="45.39564" lon="10.9786583"><ele>53.0</ele><time>2026-05-04T09:28:37.213Z</time></trkpt><trkpt lat="45.3955433" lon="10.97858"><ele>53.0</ele><time>2026-05-04T09:28:38.209Z</time></trkpt><trkpt lat="45.3954533" lon="10.978505"><ele>53.0</ele><time>2026-05-04T09:28:39.21Z</time></trkpt><trkpt lat="45.39537" lon="10.9784367"><ele>53.0</ele><time>2026-05-04T09:28:40.208Z</time></trkpt><trkpt lat="45.3952917" lon="10.9783817"><ele>52.57142857142858</ele><time>2026-05-04T09:28:41.209Z</time></trkpt><trkpt lat="45.3952233" lon="10.978335"><ele>52.14285714285714</ele><time>2026-05-04T09:28:42.212Z</time></trkpt><trkpt lat="45.3951633" lon="10.9782967"><ele>51.714285714285715</ele><time>2026-05-04T09:28:43.208Z</time></trkpt><trkpt lat="45.3950917" lon="10.97825"><ele>51.28571428571429</ele><time>2026-05-04T09:28:45.213Z</time></trkpt><trkpt lat="45.3950333" lon="10.978215"><ele>50.85714285714286</ele><time>2026-05-04T09:28:47.208Z</time></trkpt><trkpt lat="45.39496" lon="10.9781783"><ele>50.42857142857143</ele><time>2026-05-04T09:28:49.212Z</time></trkpt><trkpt lat="45.3948867" lon="10.9781483"><ele>50.0</ele><time>2026-05-04T09:28:51.211Z</time></trkpt><trkpt lat="45.3947867" lon="10.9782017"><ele>50.0</ele><time>2026-05-04T09:28:53.211Z</time></trkpt><trkpt lat="45.394725" lon="10.9783267"><ele>50.0</ele><time>2026-05-04T09:28:55.207Z</time></trkpt><trkpt lat="45.39467" lon="10.9784583"><ele>50.0</ele><time>2026-05-04T09:28:57.212Z</time></trkpt><trkpt lat="45.3946217" lon="10.9785833"><ele>50.0</ele><time>2026-05-04T09:28:59.207Z</time></trkpt><trkpt lat="45.39458" lon="10.9787167"><ele>50.0</ele><time>2026-05-04T09:29:01.207Z</time></trkpt><trkpt lat="45.3945433" lon="10.9788317"><ele>50.6</ele><time>2026-05-04T09:29:03.207Z</time></trkpt><trkpt lat="45.39451" lon="10.97894"><ele>51.2</ele><time>2026-05-04T09:29:05.213Z</time></trkpt><trkpt lat="45.39447" lon="10.97909"><ele>51.8</ele><time>2026-05-04T09:29:07.206Z</time></trkpt><trkpt lat="45.3944383" lon="10.979235"><ele>52.4</ele><time>2026-05-04T09:29:08.207Z</time></trkpt><trkpt lat="45.3944033" lon="10.9794"><ele>53.0</ele><time>2026-05-04T09:29:09.207Z</time></trkpt><trkpt lat="45.3943617" lon="10.9795967"><ele>53.0</ele><time>2026-05-04T09:29:10.207Z</time></trkpt><trkpt lat="45.3943183" lon="10.9797917"><ele>53.0</ele><time>2026-05-04T09:29:11.207Z</time></trkpt><trkpt lat="45.39428" lon="10.9799683"><ele>53.0</ele><time>2026-05-04T09:29:12.225Z</time></trkpt><trkpt lat="45.3942467" lon="10.9801267"><ele>53.0</ele><time>2026-05-04T09:29:13.209Z</time></trkpt><trkpt lat="45.3942133" lon="10.9802783"><ele>53.0</ele><time>2026-05-04T09:29:14.214Z</time></trkpt><trkpt lat="45.3941783" lon="10.9804167"><ele>53.0</ele><time>2026-05-04T09:29:15.21Z</time></trkpt><trkpt lat="45.394145" lon="10.98055"><ele>53.0</ele><time>2026-05-04T09:29:16.211Z</time></trkpt><trkpt lat="45.3941117" lon="10.980685"><ele>53.0</ele><time>2026-05-04T09:29:17.209Z</time></trkpt><trkpt lat="45.3940767" lon="10.980845"><ele>53.0</ele><time>2026-05-04T09:29:18.207Z</time></trkpt><trkpt lat="45.39404" lon="10.9810317"><ele>52.333333333333336</ele><time>2026-05-04T09:29:19.213Z</time></trkpt><trkpt lat="45.394005" lon="10.9812533"><ele>51.66666666666667</ele><time>2026-05-04T09:29:20.208Z</time></trkpt><trkpt lat="45.3939567" lon="10.981505"><ele>51.0</ele><time>2026-05-04T09:29:21.224Z</time></trkpt><trkpt lat="45.3939017" lon="10.98177"><ele>50.66666666666667</ele><time>2026-05-04T09:29:22.207Z</time></trkpt><trkpt lat="45.39385" lon="10.9820167"><ele>50.333333333333336</ele><time>2026-05-04T09:29:23.208Z</time></trkpt><trkpt lat="45.3938" lon="10.98225"><ele>50.0</ele><time>2026-05-04T09:29:24.208Z</time></trkpt><trkpt lat="45.39375" lon="10.982475"><ele>50.333333333333336</ele><time>2026-05-04T09:29:25.208Z</time></trkpt><trkpt lat="45.3937" lon="10.9826833"><ele>50.66666666666667</ele><time>2026-05-04T09:29:26.208Z</time></trkpt><trkpt lat="45.3936533" lon="10.9828867"><ele>51.0</ele><time>2026-05-04T09:29:27.207Z</time></trkpt><trkpt lat="45.3936067" lon="10.9830867"><ele>51.0</ele><time>2026-05-04T09:29:28.208Z</time></trkpt><trkpt lat="45.3935567" lon="10.98329"><ele>51.0</ele><time>2026-05-04T09:29:29.208Z</time></trkpt><trkpt lat="45.3935017" lon="10.9834917"><ele>51.0</ele><time>2026-05-04T09:29:30.226Z</time></trkpt><trkpt lat="45.3934483" lon="10.9836933"><ele>51.0</ele><time>2026-05-04T09:29:31.206Z</time></trkpt><trkpt lat="45.3933917" lon="10.9839"><ele>51.0</ele><time>2026-05-04T09:29:32.208Z</time></trkpt><trkpt lat="45.3933283" lon="10.9841117"><ele>51.0</ele><time>2026-05-04T09:29:33.207Z</time></trkpt><trkpt lat="45.3932617" lon="10.9843317"><ele>51.0</ele><time>2026-05-04T09:29:34.209Z</time></trkpt><trkpt lat="45.39319" lon="10.984555"><ele>51.0</ele><time>2026-05-04T09:29:35.208Z</time></trkpt><trkpt lat="45.3931167" lon="10.984785"><ele>51.0</ele><time>2026-05-04T09:29:36.207Z</time></trkpt><trkpt lat="45.3930417" lon="10.9850167"><ele>51.0</ele><time>2026-05-04T09:29:37.209Z</time></trkpt><trkpt lat="45.392965" lon="10.985255"><ele>51.0</ele><time>2026-05-04T09:29:38.212Z</time></trkpt><trkpt lat="45.3928883" lon="10.9854983"><ele>51.0</ele><time>2026-05-04T09:29:39.209Z</time></trkpt><trkpt lat="45.3928117" lon="10.985735"><ele>51.66666666666667</ele><time>2026-05-04T09:29:40.209Z</time></trkpt><trkpt lat="45.392735" lon="10.9859683"><ele>52.333333333333336</ele><time>2026-05-04T09:29:41.209Z</time></trkpt><trkpt lat="45.3926583" lon="10.986195"><ele>53.0</ele><time>2026-05-04T09:29:42.208Z</time></trkpt><trkpt lat="45.392585" lon="10.9864133"><ele>53.0</ele><time>2026-05-04T09:29:43.208Z</time></trkpt><trkpt lat="45.3925117" lon="10.986625"><ele>53.0</ele><time>2026-05-04T09:29:44.213Z</time></trkpt><trkpt lat="45.3924417" lon="10.9868267"><ele>53.0</ele><time>2026-05-04T09:29:45.208Z</time></trkpt><trkpt lat="45.3923733" lon="10.987025"><ele>53.0</ele><time>2026-05-04T09:29:46.207Z</time></trkpt><trkpt lat="45.3923117" lon="10.9872217"><ele>53.0</ele><time>2026-05-04T09:29:47.211Z</time></trkpt><trkpt lat="45.3922533" lon="10.98741"><ele>53.0</ele><time>2026-05-04T09:29:48.21Z</time></trkpt><trkpt lat="45.3921967" lon="10.987585"><ele>53.0</ele><time>2026-05-04T09:29:49.215Z</time></trkpt><trkpt lat="45.3921417" lon="10.9877483"><ele>53.0</ele><time>2026-05-04T09:29:50.21Z</time></trkpt><trkpt lat="45.392085" lon="10.9879017"><ele>53.0</ele><time>2026-05-04T09:29:51.207Z</time></trkpt><trkpt lat="45.39203" lon="10.9880417"><ele>53.0</ele><time>2026-05-04T09:29:52.208Z</time></trkpt><trkpt lat="45.3919733" lon="10.9881583"><ele>53.0</ele><time>2026-05-04T09:29:53.208Z</time></trkpt><trkpt lat="45.3919183" lon="10.98825"><ele>53.0</ele><time>2026-05-04T09:29:54.208Z</time></trkpt><trkpt lat="45.39187" lon="10.988325"><ele>52.333333333333336</ele><time>2026-05-04T09:29:55.214Z</time></trkpt><trkpt lat="45.3918283" lon="10.988405"><ele>51.66666666666667</ele><time>2026-05-04T09:29:56.21Z</time></trkpt><trkpt lat="45.3917967" lon="10.9884917"><ele>51.0</ele><time>2026-05-04T09:29:57.209Z</time></trkpt><trkpt lat="45.3917733" lon="10.9885967"><ele>50.33333333333333</ele><time>2026-05-04T09:29:58.212Z</time></trkpt><trkpt lat="45.391755" lon="10.9887133"><ele>49.666666666666664</ele><time>2026-05-04T09:29:59.208Z</time></trkpt><trkpt lat="45.3917367" lon="10.9888433"><ele>49.0</ele><time>2026-05-04T09:30:00.208Z</time></trkpt><trkpt lat="45.3917183" lon="10.9889717"><ele>48.99999999999999</ele><time>2026-05-04T09:30:01.208Z</time></trkpt><trkpt lat="45.391695" lon="10.9890933"><ele>49.0</ele><time>2026-05-04T09:30:02.211Z</time></trkpt><trkpt lat="45.39166" lon="10.989205"><ele>49.0</ele><time>2026-05-04T09:30:03.21Z</time></trkpt><trkpt lat="45.3916167" lon="10.98931"><ele>49.0</ele><time>2026-05-04T09:30:04.209Z</time></trkpt><trkpt lat="45.3915633" lon="10.989415"><ele>48.99999999999999</ele><time>2026-05-04T09:30:05.209Z</time></trkpt><trkpt lat="45.391505" lon="10.9895267"><ele>49.0</ele><time>2026-05-04T09:30:06.21Z</time></trkpt><trkpt lat="45.391445" lon="10.9896383"><ele>49.2</ele><time>2026-05-04T09:30:07.224Z</time></trkpt><trkpt lat="45.3913867" lon="10.9897567"><ele>49.400000000000006</ele><time>2026-05-04T09:30:08.21Z</time></trkpt><trkpt lat="45.391335" lon="10.9898767"><ele>49.6</ele><time>2026-05-04T09:30:09.21Z</time></trkpt><trkpt lat="45.3912867" lon="10.9899883"><ele>49.8</ele><time>2026-05-04T09:30:10.21Z</time></trkpt><trkpt lat="45.391245" lon="10.9900917"><ele>50.0</ele><time>2026-05-04T09:30:11.21Z</time></trkpt><trkpt lat="45.3912083" lon="10.9901867"><ele>50.00000000000001</ele><time>2026-05-04T09:30:12.215Z</time></trkpt><trkpt lat="45.3911717" lon="10.9902767"><ele>50.0</ele><time>2026-05-04T09:30:13.208Z</time></trkpt><trkpt lat="45.3911283" lon="10.99037"><ele>50.0</ele><time>2026-05-04T09:30:14.209Z</time></trkpt><trkpt lat="45.391085" lon="10.9904667"><ele>50.0</ele><time>2026-05-04T09:30:15.207Z</time></trkpt><trkpt lat="45.3910367" lon="10.9905667"><ele>50.00000000000001</ele><time>2026-05-04T09:30:16.207Z</time></trkpt><trkpt lat="45.3909833" lon="10.9906667"><ele>50.0</ele><time>2026-05-04T09:30:17.207Z</time></trkpt><trkpt lat="45.3909317" lon="10.99076"><ele>49.8</ele><time>2026-05-04T09:30:18.211Z</time></trkpt><trkpt lat="45.390875" lon="10.9908567"><ele>49.6</ele><time>2026-05-04T09:30:19.218Z</time></trkpt><trkpt lat="45.3908167" lon="10.9909583"><ele>49.400000000000006</ele><time>2026-05-04T09:30:20.209Z</time></trkpt><trkpt lat="45.390755" lon="10.99106"><ele>49.2</ele><time>2026-05-04T09:30:21.21Z</time></trkpt><trkpt lat="45.39069" lon="10.9911617"><ele>49.0</ele><time>2026-05-04T09:30:22.208Z</time></trkpt><trkpt lat="45.3906217" lon="10.99126"><ele>49.0</ele><time>2026-05-04T09:30:23.212Z</time></trkpt><trkpt lat="45.39055" lon="10.9913617"><ele>49.0</ele><time>2026-05-04T09:30:24.208Z</time></trkpt><trkpt lat="45.3904767" lon="10.99146"><ele>49.0</ele><time>2026-05-04T09:30:25.212Z</time></trkpt><trkpt lat="45.390405" lon="10.9915633"><ele>49.0</ele><time>2026-05-04T09:30:26.213Z</time></trkpt><trkpt lat="45.3903333" lon="10.99166"><ele>49.0</ele><time>2026-05-04T09:30:27.207Z</time></trkpt><trkpt lat="45.3902583" lon="10.9917583"><ele>49.2</ele><time>2026-05-04T09:30:28.207Z</time></trkpt><trkpt lat="45.3901883" lon="10.9918583"><ele>49.400000000000006</ele><time>2026-05-04T09:30:29.208Z</time></trkpt><trkpt lat="45.3901167" lon="10.9919533"><ele>49.6</ele><time>2026-05-04T09:30:30.219Z</time></trkpt><trkpt lat="45.3900417" lon="10.9920417"><ele>49.8</ele><time>2026-05-04T09:30:31.21Z</time></trkpt><trkpt lat="45.389965" lon="10.9921233"><ele>50.0</ele><time>2026-05-04T09:30:32.211Z</time></trkpt><trkpt lat="45.389885" lon="10.9922017"><ele>50.0</ele><time>2026-05-04T09:30:33.209Z</time></trkpt><trkpt lat="45.3898067" lon="10.9922783"><ele>50.0</ele><time>2026-05-04T09:30:34.208Z</time></trkpt><trkpt lat="45.3897267" lon="10.992355"><ele>50.0</ele><time>2026-05-04T09:30:35.209Z</time></trkpt><trkpt lat="45.3896483" lon="10.9924333"><ele>50.0</ele><time>2026-05-04T09:30:36.209Z</time></trkpt><trkpt lat="45.38957" lon="10.9925133"><ele>50.0</ele><time>2026-05-04T09:30:37.209Z</time></trkpt><trkpt lat="45.3894933" lon="10.9925983"><ele>50.0</ele><time>2026-05-04T09:30:38.211Z</time></trkpt><trkpt lat="45.3894183" lon="10.9926833"><ele>50.0</ele><time>2026-05-04T09:30:39.207Z</time></trkpt><trkpt lat="45.3893417" lon="10.9927683"><ele>50.0</ele><time>2026-05-04T09:30:40.208Z</time></trkpt><trkpt lat="45.3892683" lon="10.992855"><ele>50.0</ele><time>2026-05-04T09:30:41.208Z</time></trkpt><trkpt lat="45.3891967" lon="10.9929433"><ele>50.0</ele><time>2026-05-04T09:30:42.207Z</time></trkpt><trkpt lat="45.389125" lon="10.9930383"><ele>50.0</ele><time>2026-05-04T09:30:43.209Z</time></trkpt><trkpt lat="45.389055" lon="10.9931383"><ele>50.0</ele><time>2026-05-04T09:30:44.211Z</time></trkpt><trkpt lat="45.38899" lon="10.9932383"><ele>50.0</ele><time>2026-05-04T09:30:45.208Z</time></trkpt><trkpt lat="45.3889233" lon="10.993335"><ele>50.0</ele><time>2026-05-04T09:30:46.207Z</time></trkpt><trkpt lat="45.38886" lon="10.9934283"><ele>50.0</ele><time>2026-05-04T09:30:47.208Z</time></trkpt><trkpt lat="45.3888" lon="10.9935117"><ele>50.00000000000001</ele><time>2026-05-04T09:30:48.207Z</time></trkpt><trkpt lat="45.388745" lon="10.99359"><ele>50.0</ele><time>2026-05-04T09:30:49.209Z</time></trkpt><trkpt lat="45.3886933" lon="10.9936583"><ele>50.0</ele><time>2026-05-04T09:30:50.207Z</time></trkpt><trkpt lat="45.3886283" lon="10.99376"><ele>50.0</ele><time>2026-05-04T09:30:52.207Z</time></trkpt><trkpt lat="45.38857" lon="10.9938067"><ele>50.00000000000001</ele><time>2026-05-04T09:31:06.21Z</time></trkpt><trkpt lat="45.3885067" lon="10.9938317"><ele>50.0</ele><time>2026-05-04T09:31:07.209Z</time></trkpt><trkpt lat="45.3884083" lon="10.9938583"><ele>50.0</ele><time>2026-05-04T09:31:08.214Z</time></trkpt><trkpt lat="45.3882783" lon="10.9938867"><ele>50.0</ele><time>2026-05-04T09:31:09.211Z</time></trkpt><trkpt lat="45.3881267" lon="10.9939267"><ele>50.0</ele><time>2026-05-04T09:31:10.206Z</time></trkpt><trkpt lat="45.3879783" lon="10.9939633"><ele>50.0</ele><time>2026-05-04T09:31:11.207Z</time></trkpt><trkpt lat="45.3878467" lon="10.9939933"><ele>50.0</ele><time>2026-05-04T09:31:12.208Z</time></trkpt><trkpt lat="45.387715" lon="10.9940183"><ele>50.0</ele><time>2026-05-04T09:31:13.208Z</time></trkpt><trkpt lat="45.3875833" lon="10.994045"><ele>50.0</ele><time>2026-05-04T09:31:14.208Z</time></trkpt><trkpt lat="45.387445" lon="10.994075"><ele>50.0</ele><time>2026-05-04T09:31:15.207Z</time></trkpt><trkpt lat="45.3873133" lon="10.9941067"><ele>50.0</ele><time>2026-05-04T09:31:16.21Z</time></trkpt><trkpt lat="45.387185" lon="10.994135"><ele>50.0</ele><time>2026-05-04T09:31:17.206Z</time></trkpt><trkpt lat="45.387065" lon="10.9941633"><ele>50.0</ele><time>2026-05-04T09:31:18.207Z</time></trkpt><trkpt lat="45.3869583" lon="10.9941833"><ele>50.0</ele><time>2026-05-04T09:31:19.208Z</time></trkpt><trkpt lat="45.3868633" lon="10.9942067"><ele>49.6</ele><time>2026-05-04T09:31:20.208Z</time></trkpt><trkpt lat="45.386775" lon="10.994225"><ele>49.2</ele><time>2026-05-04T09:31:21.207Z</time></trkpt><trkpt lat="45.3866933" lon="10.9942417"><ele>48.8</ele><time>2026-05-04T09:31:22.218Z</time></trkpt><trkpt lat="45.3866067" lon="10.9942667"><ele>48.4</ele><time>2026-05-04T09:31:23.207Z</time></trkpt><trkpt lat="45.38644" lon="10.9943117"><ele>48.0</ele><time>2026-05-04T09:31:25.221Z</time></trkpt><trkpt lat="45.3863533" lon="10.9943267"><ele>48.0</ele><time>2026-05-04T09:31:26.207Z</time></trkpt><trkpt lat="45.3862667" lon="10.994345"><ele>48.0</ele><time>2026-05-04T09:31:27.206Z</time></trkpt><trkpt lat="45.3861767" lon="10.994365"><ele>48.0</ele><time>2026-05-04T09:31:28.207Z</time></trkpt><trkpt lat="45.3860867" lon="10.994385"><ele>48.0</ele><time>2026-05-04T09:31:29.208Z</time></trkpt><trkpt lat="45.38599" lon="10.9944083"><ele>48.0</ele><time>2026-05-04T09:31:30.21Z</time></trkpt><trkpt lat="45.3858883" lon="10.9944333"><ele>48.0</ele><time>2026-05-04T09:31:31.219Z</time></trkpt><trkpt lat="45.385785" lon="10.99446"><ele>48.0</ele><time>2026-05-04T09:31:32.216Z</time></trkpt><trkpt lat="45.3856767" lon="10.9944833"><ele>48.0</ele><time>2026-05-04T09:31:33.208Z</time></trkpt><trkpt lat="45.385565" lon="10.99451"><ele>48.0</ele><time>2026-05-04T09:31:34.216Z</time></trkpt><trkpt lat="45.3854617" lon="10.994535"><ele>48.0</ele><time>2026-05-04T09:31:35.21Z</time></trkpt><trkpt lat="45.3853667" lon="10.9945583"><ele>48.0</ele><time>2026-05-04T09:31:36.207Z</time></trkpt><trkpt lat="45.3852817" lon="10.9945783"><ele>48.0</ele><time>2026-05-04T09:31:37.207Z</time></trkpt><trkpt lat="45.3852017" lon="10.994595"><ele>48.0</ele><time>2026-05-04T09:31:38.209Z</time></trkpt><trkpt lat="45.38512" lon="10.9946117"><ele>48.0</ele><time>2026-05-04T09:31:39.21Z</time></trkpt><trkpt lat="45.3850367" lon="10.9946283"><ele>48.0</ele><time>2026-05-04T09:31:40.22Z</time></trkpt><trkpt lat="45.3849567" lon="10.994645"><ele>48.0</ele><time>2026-05-04T09:31:41.218Z</time></trkpt><trkpt lat="45.38488" lon="10.9946633"><ele>47.99999999999999</ele><time>2026-05-04T09:31:42.209Z</time></trkpt><trkpt lat="45.3848033" lon="10.99468"><ele>48.0</ele><time>2026-05-04T09:31:43.209Z</time></trkpt><trkpt lat="45.3847317" lon="10.994695"><ele>48.0</ele><time>2026-05-04T09:31:44.216Z</time></trkpt><trkpt lat="45.3846617" lon="10.9947117"><ele>48.0</ele><time>2026-05-04T09:31:45.212Z</time></trkpt><trkpt lat="45.3845917" lon="10.9947267"><ele>48.0</ele><time>2026-05-04T09:31:46.211Z</time></trkpt><trkpt lat="45.3845233" lon="10.9947417"><ele>47.99999999999999</ele><time>2026-05-04T09:31:47.213Z</time></trkpt><trkpt lat="45.3844583" lon="10.9947567"><ele>48.0</ele><time>2026-05-04T09:31:48.209Z</time></trkpt><trkpt lat="45.3843917" lon="10.9947733"><ele>48.0</ele><time>2026-05-04T09:31:49.208Z</time></trkpt><trkpt lat="45.3843283" lon="10.9947917"><ele>48.0</ele><time>2026-05-04T09:31:50.209Z</time></trkpt><trkpt lat="45.3842567" lon="10.9948167"><ele>48.0</ele><time>2026-05-04T09:31:51.207Z</time></trkpt><trkpt lat="45.38417" lon="10.994835"><ele>48.0</ele><time>2026-05-04T09:31:52.207Z</time></trkpt><trkpt lat="45.38407" lon="10.9948567"><ele>48.0</ele><time>2026-05-04T09:31:53.208Z</time></trkpt><trkpt lat="45.3839683" lon="10.99488"><ele>48.0</ele><time>2026-05-04T09:31:54.209Z</time></trkpt><trkpt lat="45.3838717" lon="10.9949017"><ele>48.166666666666664</ele><time>2026-05-04T09:31:55.208Z</time></trkpt><trkpt lat="45.3837867" lon="10.9949217"><ele>48.33333333333333</ele><time>2026-05-04T09:31:56.215Z</time></trkpt><trkpt lat="45.38371" lon="10.9949367"><ele>48.5</ele><time>2026-05-04T09:31:57.208Z</time></trkpt><trkpt lat="45.3836417" lon="10.99495"><ele>48.666666666666664</ele><time>2026-05-04T09:31:58.211Z</time></trkpt><trkpt lat="45.383575" lon="10.9949633"><ele>48.83333333333333</ele><time>2026-05-04T09:31:59.207Z</time></trkpt><trkpt lat="45.3835117" lon="10.9949767"><ele>49.0</ele><time>2026-05-04T09:32:00.211Z</time></trkpt><trkpt lat="45.3834217" lon="10.9949933"><ele>49.0</ele><time>2026-05-04T09:32:02.211Z</time></trkpt><trkpt lat="45.3832983" lon="10.9950133"><ele>49.0</ele><time>2026-05-04T09:32:19.208Z</time></trkpt><trkpt lat="45.3832167" lon="10.9950267"><ele>49.0</ele><time>2026-05-04T09:32:22.207Z</time></trkpt><trkpt lat="45.383125" lon="10.995035"><ele>49.0</ele><time>2026-05-04T09:32:25.213Z</time></trkpt><trkpt lat="45.38305" lon="10.9950633"><ele>49.0</ele><time>2026-05-04T09:32:28.211Z</time></trkpt><trkpt lat="45.3829233" lon="10.9951"><ele>49.0</ele><time>2026-05-04T09:32:48.208Z</time></trkpt><trkpt lat="45.3828167" lon="10.9951033"><ele>49.0</ele><time>2026-05-04T09:32:51.218Z</time></trkpt><trkpt lat="45.3827217" lon="10.9951183"><ele>49.0</ele><time>2026-05-04T09:32:53.209Z</time></trkpt><trkpt lat="45.3826367" lon="10.99513"><ele>49.0</ele><time>2026-05-04T09:32:55.214Z</time></trkpt><trkpt lat="45.3825617" lon="10.9951633"><ele>49.0</ele><time>2026-05-04T09:32:57.209Z</time></trkpt><trkpt lat="45.3825067" lon="10.9952883"><ele>48.99999999999999</ele><time>2026-05-04T09:32:59.208Z</time></trkpt><trkpt lat="45.3824933" lon="10.9954667"><ele>49.0</ele><time>2026-05-04T09:33:01.207Z</time></trkpt><trkpt lat="45.382485" lon="10.9955667"><ele>49.0</ele><time>2026-05-04T09:33:02.208Z</time></trkpt><trkpt lat="45.382475" lon="10.9956667"><ele>49.0</ele><time>2026-05-04T09:33:03.213Z</time></trkpt><trkpt lat="45.3824683" lon="10.9957617"><ele>48.99999999999999</ele><time>2026-05-04T09:33:04.208Z</time></trkpt><trkpt lat="45.3824683" lon="10.995865"><ele>49.0</ele><time>2026-05-04T09:33:05.21Z</time></trkpt><trkpt lat="45.3824733" lon="10.9959833"><ele>49.0</ele><time>2026-05-04T09:33:06.208Z</time></trkpt><trkpt lat="45.38248" lon="10.996115"><ele>49.0</ele><time>2026-05-04T09:33:07.208Z</time></trkpt><trkpt lat="45.3824933" lon="10.9962967"><ele>49.0</ele><time>2026-05-04T09:33:08.209Z</time></trkpt><trkpt lat="45.38249" lon="10.9964967"><ele>49.0</ele><time>2026-05-04T09:33:09.209Z</time></trkpt><trkpt lat="45.38248" lon="10.9966967"><ele>49.0</ele><time>2026-05-04T09:33:10.207Z</time></trkpt><trkpt lat="45.38247" lon="10.996885"><ele>49.0</ele><time>2026-05-04T09:33:11.209Z</time></trkpt><trkpt lat="45.3824617" lon="10.997065"><ele>49.0</ele><time>2026-05-04T09:33:12.207Z</time></trkpt><trkpt lat="45.3824567" lon="10.9972333"><ele>49.0</ele><time>2026-05-04T09:33:13.208Z</time></trkpt><trkpt lat="45.3824483" lon="10.9973983"><ele>48.800000000000004</ele><time>2026-05-04T09:33:14.209Z</time></trkpt><trkpt lat="45.3824367" lon="10.9975583"><ele>48.6</ele><time>2026-05-04T09:33:15.209Z</time></trkpt><trkpt lat="45.38243" lon="10.997715"><ele>48.4</ele><time>2026-05-04T09:33:16.206Z</time></trkpt><trkpt lat="45.382425" lon="10.9978633"><ele>48.2</ele><time>2026-05-04T09:33:17.209Z</time></trkpt><trkpt lat="45.38242" lon="10.9979967"><ele>48.0</ele><time>2026-05-04T09:33:18.208Z</time></trkpt><trkpt lat="45.3824183" lon="10.9981083"><ele>48.0</ele><time>2026-05-04T09:33:19.216Z</time></trkpt><trkpt lat="45.3824167" lon="10.9982733"><ele>48.0</ele><time>2026-05-04T09:33:21.211Z</time></trkpt><trkpt lat="45.3823617" lon="10.998365"><ele>48.0</ele><time>2026-05-04T09:33:23.212Z</time></trkpt><trkpt lat="45.382245" lon="10.9983833"><ele>48.0</ele><time>2026-05-04T09:33:25.207Z</time></trkpt><trkpt lat="45.38215" lon="10.9983967"><ele>48.0</ele><time>2026-05-04T09:33:26.213Z</time></trkpt><trkpt lat="45.3820367" lon="10.9984217"><ele>48.599999999999994</ele><time>2026-05-04T09:33:27.208Z</time></trkpt><trkpt lat="45.3819283" lon="10.99844"><ele>49.199999999999996</ele><time>2026-05-04T09:33:28.208Z</time></trkpt><trkpt lat="45.3818233" lon="10.9984567"><ele>49.8</ele><time>2026-05-04T09:33:29.218Z</time></trkpt><trkpt lat="45.3817167" lon="10.998475"><ele>50.4</ele><time>2026-05-04T09:33:30.208Z</time></trkpt><trkpt lat="45.3815917" lon="10.9984933"><ele>51.0</ele><time>2026-05-04T09:33:31.208Z</time></trkpt><trkpt lat="45.3814467" lon="10.99851"><ele>52.66666666666667</ele><time>2026-05-04T09:33:32.21Z</time></trkpt><trkpt lat="45.3812917" lon="10.9985233"><ele>54.333333333333336</ele><time>2026-05-04T09:33:33.215Z</time></trkpt><trkpt lat="45.3811233" lon="10.9985267"><ele>56.0</ele><time>2026-05-04T09:33:34.206Z</time></trkpt><trkpt lat="45.3809483" lon="10.9985233"><ele>56.0</ele><time>2026-05-04T09:33:35.206Z</time></trkpt><trkpt lat="45.38078" lon="10.9985183"><ele>56.0</ele><time>2026-05-04T09:33:36.206Z</time></trkpt><trkpt lat="45.3806217" lon="10.9985117"><ele>56.0</ele><time>2026-05-04T09:33:37.205Z</time></trkpt><trkpt lat="45.3804633" lon="10.998505"><ele>56.25</ele><time>2026-05-04T09:33:38.21Z</time></trkpt><trkpt lat="45.3803083" lon="10.9985017"><ele>56.5</ele><time>2026-05-04T09:33:39.207Z</time></trkpt><trkpt lat="45.38016" lon="10.9984983"><ele>56.75</ele><time>2026-05-04T09:33:40.214Z</time></trkpt><trkpt lat="45.3800233" lon="10.998495"><ele>57.0</ele><time>2026-05-04T09:33:41.211Z</time></trkpt><trkpt lat="45.37989" lon="10.9984933"><ele>57.0</ele><time>2026-05-04T09:33:42.215Z</time></trkpt><trkpt lat="45.3797583" lon="10.99849"><ele>57.0</ele><time>2026-05-04T09:33:43.21Z</time></trkpt><trkpt lat="45.3796217" lon="10.9984883"><ele>57.0</ele><time>2026-05-04T09:33:44.209Z</time></trkpt><trkpt lat="45.3794933" lon="10.9984867"><ele>57.0</ele><time>2026-05-04T09:33:45.208Z</time></trkpt><trkpt lat="45.379365" lon="10.9984917"><ele>54.75</ele><time>2026-05-04T09:33:46.211Z</time></trkpt><trkpt lat="45.3792333" lon="10.9985"><ele>52.5</ele><time>2026-05-04T09:33:47.207Z</time></trkpt><trkpt lat="45.3790967" lon="10.9985"><ele>50.25</ele><time>2026-05-04T09:33:48.209Z</time></trkpt><trkpt lat="45.3789517" lon="10.9984917"><ele>48.0</ele><time>2026-05-04T09:33:49.208Z</time></trkpt><trkpt lat="45.378805" lon="10.9984817"><ele>47.0</ele><time>2026-05-04T09:33:50.22Z</time></trkpt><trkpt lat="45.3786567" lon="10.9984767"><ele>46.0</ele><time>2026-05-04T09:33:51.208Z</time></trkpt><trkpt lat="45.3785067" lon="10.998475"><ele>45.0</ele><time>2026-05-04T09:33:52.205Z</time></trkpt><trkpt lat="45.378355" lon="10.998475"><ele>45.0</ele><time>2026-05-04T09:33:53.211Z</time></trkpt><trkpt lat="45.3782083" lon="10.9984683"><ele>45.0</ele><time>2026-05-04T09:33:54.207Z</time></trkpt><trkpt lat="45.3780667" lon="10.9984583"><ele>45.0</ele><time>2026-05-04T09:33:55.212Z</time></trkpt><trkpt lat="45.3779233" lon="10.9984483"><ele>45.0</ele><time>2026-05-04T09:33:56.207Z</time></trkpt><trkpt lat="45.3777767" lon="10.99844"><ele>45.0</ele><time>2026-05-04T09:33:57.207Z</time></trkpt><trkpt lat="45.3776283" lon="10.9984333"><ele>45.0</ele><time>2026-05-04T09:33:58.208Z</time></trkpt><trkpt lat="45.377475" lon="10.9984317"><ele>45.0</ele><time>2026-05-04T09:33:59.211Z</time></trkpt><trkpt lat="45.3773233" lon="10.9984267"><ele>44.5</ele><time>2026-05-04T09:34:00.211Z</time></trkpt><trkpt lat="45.3771733" lon="10.9984217"><ele>44.0</ele><time>2026-05-04T09:34:01.213Z</time></trkpt><trkpt lat="45.3770233" lon="10.998425"><ele>43.5</ele><time>2026-05-04T09:34:02.211Z</time></trkpt><trkpt lat="45.3768767" lon="10.9984233"><ele>43.0</ele><time>2026-05-04T09:34:03.207Z</time></trkpt><trkpt lat="45.3767317" lon="10.9984217"><ele>43.0</ele><time>2026-05-04T09:34:04.207Z</time></trkpt><trkpt lat="45.3765883" lon="10.9984183"><ele>43.0</ele><time>2026-05-04T09:34:05.21Z</time></trkpt><trkpt lat="45.3764467" lon="10.9984133"><ele>43.0</ele><time>2026-05-04T09:34:06.208Z</time></trkpt><trkpt lat="45.3763067" lon="10.9984083"><ele>43.0</ele><time>2026-05-04T09:34:07.215Z</time></trkpt><trkpt lat="45.3761667" lon="10.998405"><ele>43.75</ele><time>2026-05-04T09:34:08.212Z</time></trkpt><trkpt lat="45.3760333" lon="10.9983983"><ele>44.5</ele><time>2026-05-04T09:34:09.208Z</time></trkpt><trkpt lat="45.3759" lon="10.9983967"><ele>45.25</ele><time>2026-05-04T09:34:10.21Z</time></trkpt><trkpt lat="45.3757733" lon="10.9983933"><ele>46.0</ele><time>2026-05-04T09:34:11.209Z</time></trkpt><trkpt lat="45.3756483" lon="10.9983883"><ele>46.0</ele><time>2026-05-04T09:34:12.218Z</time></trkpt><trkpt lat="45.3755283" lon="10.9983833"><ele>46.0</ele><time>2026-05-04T09:34:13.215Z</time></trkpt><trkpt lat="45.3754133" lon="10.9983783"><ele>46.0</ele><time>2026-05-04T09:34:14.21Z</time></trkpt><trkpt lat="45.375305" lon="10.998385"><ele>46.0</ele><time>2026-05-04T09:34:15.212Z</time></trkpt><trkpt lat="45.3752017" lon="10.9984033"><ele>46.0</ele><time>2026-05-04T09:34:16.213Z</time></trkpt><trkpt lat="45.3750967" lon="10.9984333"><ele>46.0</ele><time>2026-05-04T09:34:17.21Z</time></trkpt><trkpt lat="45.37499" lon="10.99846"><ele>46.0</ele><time>2026-05-04T09:34:18.215Z</time></trkpt><trkpt lat="45.3748833" lon="10.9984683"><ele>46.0</ele><time>2026-05-04T09:34:19.211Z</time></trkpt><trkpt lat="45.3747717" lon="10.99846"><ele>46.0</ele><time>2026-05-04T09:34:20.207Z</time></trkpt><trkpt lat="45.3746533" lon="10.99845"><ele>46.0</ele><time>2026-05-04T09:34:21.207Z</time></trkpt><trkpt lat="45.3745383" lon="10.9984283"><ele>45.75</ele><time>2026-05-04T09:34:22.207Z</time></trkpt><trkpt lat="45.3744133" lon="10.998425"><ele>45.5</ele><time>2026-05-04T09:34:23.21Z</time></trkpt><trkpt lat="45.37428" lon="10.9984233"><ele>45.25</ele><time>2026-05-04T09:34:24.208Z</time></trkpt><trkpt lat="45.37414" lon="10.9984183"><ele>45.0</ele><time>2026-05-04T09:34:25.218Z</time></trkpt><trkpt lat="45.373995" lon="10.998405"><ele>44.333333333333336</ele><time>2026-05-04T09:34:26.208Z</time></trkpt><trkpt lat="45.3738467" lon="10.9983933"><ele>43.66666666666667</ele><time>2026-05-04T09:34:27.206Z</time></trkpt><trkpt lat="45.3736933" lon="10.998385"><ele>43.0</ele><time>2026-05-04T09:34:28.206Z</time></trkpt><trkpt lat="45.37354" lon="10.9983783"><ele>43.0</ele><time>2026-05-04T09:34:29.208Z</time></trkpt><trkpt lat="45.3733833" lon="10.9983683"><ele>43.0</ele><time>2026-05-04T09:34:30.208Z</time></trkpt><trkpt lat="45.3732233" lon="10.9983617"><ele>43.0</ele><time>2026-05-04T09:34:31.207Z</time></trkpt><trkpt lat="45.3730617" lon="10.9983533"><ele>43.333333333333336</ele><time>2026-05-04T09:34:32.216Z</time></trkpt><trkpt lat="45.3728983" lon="10.9983483"><ele>43.666666666666664</ele><time>2026-05-04T09:34:33.208Z</time></trkpt><trkpt lat="45.3727333" lon="10.9983433"><ele>44.0</ele><time>2026-05-04T09:34:34.22Z</time></trkpt><trkpt lat="45.3725683" lon="10.99834"><ele>44.0</ele><time>2026-05-04T09:34:35.209Z</time></trkpt><trkpt lat="45.3724067" lon="10.998335"><ele>44.0</ele><time>2026-05-04T09:34:36.209Z</time></trkpt><trkpt lat="45.3722517" lon="10.9983283"><ele>44.0</ele><time>2026-05-04T09:34:37.21Z</time></trkpt><trkpt lat="45.3721033" lon="10.9983217"><ele>44.25</ele><time>2026-05-04T09:34:38.213Z</time></trkpt><trkpt lat="45.3719633" lon="10.9983183"><ele>44.5</ele><time>2026-05-04T09:34:39.211Z</time></trkpt><trkpt lat="45.3718317" lon="10.998315"><ele>44.75</ele><time>2026-05-04T09:34:40.209Z</time></trkpt><trkpt lat="45.3717017" lon="10.9983117"><ele>45.0</ele><time>2026-05-04T09:34:41.227Z</time></trkpt><trkpt lat="45.37157" lon="10.9983033"><ele>45.0</ele><time>2026-05-04T09:34:42.21Z</time></trkpt><trkpt lat="45.3714383" lon="10.99829"><ele>45.0</ele><time>2026-05-04T09:34:43.209Z</time></trkpt><trkpt lat="45.371305" lon="10.9982733"><ele>45.0</ele><time>2026-05-04T09:34:44.207Z</time></trkpt><trkpt lat="45.37117" lon="10.998255"><ele>45.0</ele><time>2026-05-04T09:34:45.208Z</time></trkpt><trkpt lat="45.3710367" lon="10.9982333"><ele>45.0</ele><time>2026-05-04T09:34:46.206Z</time></trkpt><trkpt lat="45.3709" lon="10.99822"><ele>45.0</ele><time>2026-05-04T09:34:47.208Z</time></trkpt><trkpt lat="45.37076" lon="10.9982017"><ele>45.0</ele><time>2026-05-04T09:34:48.209Z</time></trkpt><trkpt lat="45.3706183" lon="10.9981817"><ele>45.0</ele><time>2026-05-04T09:34:49.209Z</time></trkpt><trkpt lat="45.370475" lon="10.99816"><ele>46.0</ele><time>2026-05-04T09:34:50.21Z</time></trkpt><trkpt lat="45.3703283" lon="10.9981333"><ele>47.0</ele><time>2026-05-04T09:34:51.21Z</time></trkpt><trkpt lat="45.3701817" lon="10.9981017"><ele>48.0</ele><time>2026-05-04T09:34:52.217Z</time></trkpt><trkpt lat="45.370035" lon="10.9980633"><ele>49.0</ele><time>2026-05-04T09:34:53.207Z</time></trkpt><trkpt lat="45.369885" lon="10.9980167"><ele>49.0</ele><time>2026-05-04T09:34:54.207Z</time></trkpt><trkpt lat="45.369735" lon="10.9979733"><ele>49.0</ele><time>2026-05-04T09:34:55.207Z</time></trkpt><trkpt lat="45.3695883" lon="10.9979317"><ele>49.0</ele><time>2026-05-04T09:34:56.211Z</time></trkpt><trkpt lat="45.369445" lon="10.9978867"><ele>49.0</ele><time>2026-05-04T09:34:57.21Z</time></trkpt><trkpt lat="45.3693067" lon="10.9978383"><ele>48.0</ele><time>2026-05-04T09:34:58.209Z</time></trkpt><trkpt lat="45.369175" lon="10.9977867"><ele>47.0</ele><time>2026-05-04T09:34:59.207Z</time></trkpt><trkpt lat="45.3690483" lon="10.997725"><ele>46.0</ele><time>2026-05-04T09:35:00.207Z</time></trkpt><trkpt lat="45.3689317" lon="10.99765"><ele>45.0</ele><time>2026-05-04T09:35:01.207Z</time></trkpt><trkpt lat="45.368815" lon="10.9975667"><ele>44.5</ele><time>2026-05-04T09:35:02.21Z</time></trkpt><trkpt lat="45.3686983" lon="10.9974717"><ele>44.0</ele><time>2026-05-04T09:35:03.208Z</time></trkpt><trkpt lat="45.3685733" lon="10.997375"><ele>43.5</ele><time>2026-05-04T09:35:04.208Z</time></trkpt><trkpt lat="45.3684433" lon="10.997275"><ele>43.0</ele><time>2026-05-04T09:35:05.209Z</time></trkpt><trkpt lat="45.36831" lon="10.9971767"><ele>43.0</ele><time>2026-05-04T09:35:06.207Z</time></trkpt><trkpt lat="45.36818" lon="10.9970783"><ele>43.0</ele><time>2026-05-04T09:35:07.207Z</time></trkpt><trkpt lat="45.3680567" lon="10.9969867"><ele>43.0</ele><time>2026-05-04T09:35:08.207Z</time></trkpt><trkpt lat="45.36795" lon="10.996905"><ele>43.0</ele><time>2026-05-04T09:35:09.208Z</time></trkpt><trkpt lat="45.3678617" lon="10.9968333"><ele>43.0</ele><time>2026-05-04T09:35:10.206Z</time></trkpt><trkpt lat="45.3677867" lon="10.9967683"><ele>43.0</ele><time>2026-05-04T09:35:11.208Z</time></trkpt><trkpt lat="45.3677217" lon="10.996705"><ele>43.0</ele><time>2026-05-04T09:35:12.213Z</time></trkpt><trkpt lat="45.3676583" lon="10.996645"><ele>43.0</ele><time>2026-05-04T09:35:13.211Z</time></trkpt><trkpt lat="45.36759" lon="10.9965767"><ele>43.0</ele><time>2026-05-04T09:35:14.21Z</time></trkpt><trkpt lat="45.3675083" lon="10.9965"><ele>43.0</ele><time>2026-05-04T09:35:15.21Z</time></trkpt><trkpt lat="45.36742" lon="10.996415"><ele>43.0</ele><time>2026-05-04T09:35:16.207Z</time></trkpt><trkpt lat="45.367325" lon="10.99632"><ele>43.0</ele><time>2026-05-04T09:35:17.207Z</time></trkpt><trkpt lat="45.367225" lon="10.99622"><ele>43.0</ele><time>2026-05-04T09:35:18.207Z</time></trkpt><trkpt lat="45.367125" lon="10.99612"><ele>43.0</ele><time>2026-05-04T09:35:19.214Z</time></trkpt><trkpt lat="45.3670283" lon="10.99602"><ele>43.0</ele><time>2026-05-04T09:35:20.21Z</time></trkpt><trkpt lat="45.3669317" lon="10.9959233"><ele>43.0</ele><time>2026-05-04T09:35:21.209Z</time></trkpt><trkpt lat="45.3668383" lon="10.9958283"><ele>43.0</ele><time>2026-05-04T09:35:22.213Z</time></trkpt><trkpt lat="45.3667483" lon="10.9957417"><ele>43.0</ele><time>2026-05-04T09:35:23.22Z</time></trkpt><trkpt lat="45.366665" lon="10.9956633"><ele>43.0</ele><time>2026-05-04T09:35:24.213Z</time></trkpt><trkpt lat="45.3665833" lon="10.99559"><ele>43.0</ele><time>2026-05-04T09:35:25.213Z</time></trkpt><trkpt lat="45.3665033" lon="10.995515"><ele>43.0</ele><time>2026-05-04T09:35:26.207Z</time></trkpt><trkpt lat="45.36642" lon="10.9954283"><ele>43.0</ele><time>2026-05-04T09:35:27.209Z</time></trkpt><trkpt lat="45.366335" lon="10.9953233"><ele>43.0</ele><time>2026-05-04T09:35:28.208Z</time></trkpt><trkpt lat="45.3662533" lon="10.9952083"><ele>43.0</ele><time>2026-05-04T09:35:29.207Z</time></trkpt><trkpt lat="45.366175" lon="10.9950917"><ele>42.8</ele><time>2026-05-04T09:35:30.211Z</time></trkpt><trkpt lat="45.366095" lon="10.9949767"><ele>42.599999999999994</ele><time>2026-05-04T09:35:31.207Z</time></trkpt><trkpt lat="45.3660183" lon="10.9948617"><ele>42.400000000000006</ele><time>2026-05-04T09:35:32.214Z</time></trkpt><trkpt lat="45.3659433" lon="10.99475"><ele>42.2</ele><time>2026-05-04T09:35:33.209Z</time></trkpt><trkpt lat="45.365865" lon="10.9946417"><ele>42.0</ele><time>2026-05-04T09:35:34.209Z</time></trkpt><trkpt lat="45.3657867" lon="10.9945267"><ele>42.0</ele><time>2026-05-04T09:35:35.213Z</time></trkpt><trkpt lat="45.36571" lon="10.994405"><ele>42.0</ele><time>2026-05-04T09:35:36.209Z</time></trkpt><trkpt lat="45.3656367" lon="10.9942783"><ele>42.0</ele><time>2026-05-04T09:35:37.209Z</time></trkpt><trkpt lat="45.36556" lon="10.9941467"><ele>42.0</ele><time>2026-05-04T09:35:38.208Z</time></trkpt><trkpt lat="45.36548" lon="10.994015"><ele>41.5</ele><time>2026-05-04T09:35:39.207Z</time></trkpt><trkpt lat="45.3653967" lon="10.99388"><ele>41.0</ele><time>2026-05-04T09:35:40.208Z</time></trkpt><trkpt lat="45.3653117" lon="10.99374"><ele>40.5</ele><time>2026-05-04T09:35:41.209Z</time></trkpt><trkpt lat="45.365225" lon="10.9936"><ele>40.0</ele><time>2026-05-04T09:35:42.211Z</time></trkpt><trkpt lat="45.3651383" lon="10.9934617"><ele>39.75</ele><time>2026-05-04T09:35:43.208Z</time></trkpt><trkpt lat="45.3650467" lon="10.9933233"><ele>39.5</ele><time>2026-05-04T09:35:44.208Z</time></trkpt><trkpt lat="45.3649567" lon="10.9931867"><ele>39.25</ele><time>2026-05-04T09:35:45.207Z</time></trkpt><trkpt lat="45.3648667" lon="10.9930517"><ele>39.0</ele><time>2026-05-04T09:35:46.207Z</time></trkpt><trkpt lat="45.3647783" lon="10.9929183"><ele>39.4</ele><time>2026-05-04T09:35:47.212Z</time></trkpt><trkpt lat="45.3646933" lon="10.9927883"><ele>39.8</ele><time>2026-05-04T09:35:48.221Z</time></trkpt><trkpt lat="45.3646167" lon="10.9926683"><ele>40.199999999999996</ele><time>2026-05-04T09:35:49.209Z</time></trkpt><trkpt lat="45.3645433" lon="10.9925567"><ele>40.599999999999994</ele><time>2026-05-04T09:35:50.209Z</time></trkpt><trkpt lat="45.364475" lon="10.9924583"><ele>41.0</ele><time>2026-05-04T09:35:51.209Z</time></trkpt><trkpt lat="45.3644167" lon="10.99237"><ele>41.0</ele><time>2026-05-04T09:35:52.209Z</time></trkpt><trkpt lat="45.3643583" lon="10.9923"><ele>41.0</ele><time>2026-05-04T09:35:53.21Z</time></trkpt><trkpt lat="45.36429" lon="10.9922533"><ele>41.0</ele><time>2026-05-04T09:35:54.215Z</time></trkpt><trkpt lat="45.3642167" lon="10.9922217"><ele>41.0</ele><time>2026-05-04T09:35:55.208Z</time></trkpt><trkpt lat="45.36415" lon="10.9922017"><ele>41.0</ele><time>2026-05-04T09:35:56.21Z</time></trkpt><trkpt lat="45.364045" lon="10.992155"><ele>41.0</ele><time>2026-05-04T09:35:58.208Z</time></trkpt><trkpt lat="45.363985" lon="10.9921033"><ele>41.0</ele><time>2026-05-04T09:36:00.211Z</time></trkpt><trkpt lat="45.3638633" lon="10.9920933"><ele>41.0</ele><time>2026-05-04T09:36:09.209Z</time></trkpt><trkpt lat="45.363775" lon="10.99213"><ele>41.0</ele><time>2026-05-04T09:36:10.207Z</time></trkpt><trkpt lat="45.3636417" lon="10.9922017"><ele>41.0</ele><time>2026-05-04T09:36:11.209Z</time></trkpt><trkpt lat="45.3635133" lon="10.9922733"><ele>41.0</ele><time>2026-05-04T09:36:12.215Z</time></trkpt><trkpt lat="45.363385" lon="10.9923483"><ele>41.0</ele><time>2026-05-04T09:36:13.214Z</time></trkpt><trkpt lat="45.36325" lon="10.9924267"><ele>41.0</ele><time>2026-05-04T09:36:14.211Z</time></trkpt><trkpt lat="45.3631183" lon="10.992505"><ele>41.0</ele><time>2026-05-04T09:36:15.208Z</time></trkpt><trkpt lat="45.3629833" lon="10.9925833"><ele>40.75</ele><time>2026-05-04T09:36:16.207Z</time></trkpt><trkpt lat="45.3628483" lon="10.9926583"><ele>40.5</ele><time>2026-05-04T09:36:17.211Z</time></trkpt><trkpt lat="45.3627117" lon="10.992725"><ele>40.25</ele><time>2026-05-04T09:36:18.211Z</time></trkpt><trkpt lat="45.3625717" lon="10.99278"><ele>40.0</ele><time>2026-05-04T09:36:19.208Z</time></trkpt><trkpt lat="45.3624233" lon="10.9928233"><ele>40.0</ele><time>2026-05-04T09:36:20.213Z</time></trkpt><trkpt lat="45.3622683" lon="10.9928567"><ele>40.0</ele><time>2026-05-04T09:36:21.213Z</time></trkpt><trkpt lat="45.362105" lon="10.9928733"><ele>40.0</ele><time>2026-05-04T09:36:22.209Z</time></trkpt><trkpt lat="45.3619367" lon="10.99287"><ele>39.66666666666667</ele><time>2026-05-04T09:36:23.208Z</time></trkpt><trkpt lat="45.3617683" lon="10.9928533"><ele>39.333333333333336</ele><time>2026-05-04T09:36:24.207Z</time></trkpt><trkpt lat="45.3615983" lon="10.9928317"><ele>39.0</ele><time>2026-05-04T09:36:25.211Z</time></trkpt><trkpt lat="45.36143" lon="10.99281"><ele>39.333333333333336</ele><time>2026-05-04T09:36:26.215Z</time></trkpt><trkpt lat="45.36126" lon="10.9927983"><ele>39.66666666666667</ele><time>2026-05-04T09:36:27.212Z</time></trkpt><trkpt lat="45.361085" lon="10.9928033"><ele>40.0</ele><time>2026-05-04T09:36:28.214Z</time></trkpt><trkpt lat="45.3609083" lon="10.9928217"><ele>40.0</ele><time>2026-05-04T09:36:29.213Z</time></trkpt><trkpt lat="45.36073" lon="10.9928483"><ele>40.0</ele><time>2026-05-04T09:36:30.209Z</time></trkpt><trkpt lat="45.36055" lon="10.9928783"><ele>40.0</ele><time>2026-05-04T09:36:31.21Z</time></trkpt><trkpt lat="45.36037" lon="10.9929117"><ele>40.333333333333336</ele><time>2026-05-04T09:36:32.212Z</time></trkpt><trkpt lat="45.3601883" lon="10.992945"><ele>40.666666666666664</ele><time>2026-05-04T09:36:33.219Z</time></trkpt><trkpt lat="45.3600033" lon="10.9929833"><ele>41.0</ele><time>2026-05-04T09:36:34.215Z</time></trkpt><trkpt lat="45.3598167" lon="10.9930167"><ele>40.33333333333333</ele><time>2026-05-04T09:36:35.212Z</time></trkpt><trkpt lat="45.3596317" lon="10.99305"><ele>39.666666666666664</ele><time>2026-05-04T09:36:36.214Z</time></trkpt><trkpt lat="45.3594433" lon="10.9930867"><ele>39.0</ele><time>2026-05-04T09:36:37.207Z</time></trkpt><trkpt lat="45.359255" lon="10.993125"><ele>39.0</ele><time>2026-05-04T09:36:38.214Z</time></trkpt><trkpt lat="45.3590667" lon="10.99317"><ele>39.0</ele><time>2026-05-04T09:36:39.21Z</time></trkpt><trkpt lat="45.3588783" lon="10.99322"><ele>39.0</ele><time>2026-05-04T09:36:40.21Z</time></trkpt><trkpt lat="45.3586867" lon="10.993275"><ele>38.666666666666664</ele><time>2026-05-04T09:36:41.213Z</time></trkpt><trkpt lat="45.3584967" lon="10.993335"><ele>38.33333333333333</ele><time>2026-05-04T09:36:42.209Z</time></trkpt><trkpt lat="45.3583067" lon="10.993395"><ele>38.0</ele><time>2026-05-04T09:36:43.21Z</time></trkpt><trkpt lat="45.3581133" lon="10.993455"><ele>38.33333333333333</ele><time>2026-05-04T09:36:44.215Z</time></trkpt><trkpt lat="45.3579183" lon="10.9935167"><ele>38.666666666666664</ele><time>2026-05-04T09:36:45.209Z</time></trkpt><trkpt lat="45.3577233" lon="10.9935817"><ele>39.0</ele><time>2026-05-04T09:36:46.22Z</time></trkpt><trkpt lat="45.3575283" lon="10.9936467"><ele>39.0</ele><time>2026-05-04T09:36:47.212Z</time></trkpt><trkpt lat="45.3573317" lon="10.9937117"><ele>39.0</ele><time>2026-05-04T09:36:48.218Z</time></trkpt><trkpt lat="45.3571333" lon="10.9937783"><ele>39.0</ele><time>2026-05-04T09:36:49.213Z</time></trkpt><trkpt lat="45.356935" lon="10.9938417"><ele>39.0</ele><time>2026-05-04T09:36:50.21Z</time></trkpt><trkpt lat="45.356735" lon="10.993905"><ele>39.0</ele><time>2026-05-04T09:36:51.219Z</time></trkpt><trkpt lat="45.3565333" lon="10.99397"><ele>39.0</ele><time>2026-05-04T09:36:52.209Z</time></trkpt><trkpt lat="45.3563317" lon="10.9940367"><ele>39.0</ele><time>2026-05-04T09:36:53.211Z</time></trkpt><trkpt lat="45.3561283" lon="10.9941033"><ele>39.0</ele><time>2026-05-04T09:36:54.218Z</time></trkpt><trkpt lat="45.355925" lon="10.99417"><ele>39.0</ele><time>2026-05-04T09:36:55.213Z</time></trkpt><trkpt lat="45.3557217" lon="10.9942367"><ele>38.0</ele><time>2026-05-04T09:36:56.206Z</time></trkpt><trkpt lat="45.3555183" lon="10.994305"><ele>37.0</ele><time>2026-05-04T09:36:57.211Z</time></trkpt><trkpt lat="45.35531" lon="10.9943767"><ele>36.0</ele><time>2026-05-04T09:36:58.206Z</time></trkpt><trkpt lat="45.3551017" lon="10.9944467"><ele>36.0</ele><time>2026-05-04T09:36:59.22Z</time></trkpt><trkpt lat="45.3548967" lon="10.9945133"><ele>36.0</ele><time>2026-05-04T09:37:00.209Z</time></trkpt><trkpt lat="45.35469" lon="10.99458"><ele>36.0</ele><time>2026-05-04T09:37:01.21Z</time></trkpt><trkpt lat="45.3544833" lon="10.99465"><ele>36.333333333333336</ele><time>2026-05-04T09:37:02.208Z</time></trkpt><trkpt lat="45.3542817" lon="10.9947183"><ele>36.66666666666667</ele><time>2026-05-04T09:37:03.21Z</time></trkpt><trkpt lat="45.3540817" lon="10.9947833"><ele>37.0</ele><time>2026-05-04T09:37:04.216Z</time></trkpt><trkpt lat="45.353885" lon="10.9948467"><ele>37.333333333333336</ele><time>2026-05-04T09:37:05.21Z</time></trkpt><trkpt lat="45.3536917" lon="10.99491"><ele>37.666666666666664</ele><time>2026-05-04T09:37:06.208Z</time></trkpt><trkpt lat="45.3535" lon="10.994975"><ele>38.0</ele><time>2026-05-04T09:37:07.21Z</time></trkpt><trkpt lat="45.3533133" lon="10.995035"><ele>38.0</ele><time>2026-05-04T09:37:08.208Z</time></trkpt><trkpt lat="45.3531317" lon="10.995095"><ele>38.0</ele><time>2026-05-04T09:37:09.207Z</time></trkpt><trkpt lat="45.3529517" lon="10.9951533"><ele>38.0</ele><time>2026-05-04T09:37:10.205Z</time></trkpt><trkpt lat="45.3527733" lon="10.99521"><ele>37.666666666666664</ele><time>2026-05-04T09:37:11.207Z</time></trkpt><trkpt lat="45.352595" lon="10.995265"><ele>37.333333333333336</ele><time>2026-05-04T09:37:12.21Z</time></trkpt><trkpt lat="45.3524133" lon="10.9953233"><ele>37.0</ele><time>2026-05-04T09:37:13.219Z</time></trkpt><trkpt lat="45.35223" lon="10.9953833"><ele>37.333333333333336</ele><time>2026-05-04T09:37:14.207Z</time></trkpt><trkpt lat="45.3520433" lon="10.99544"><ele>37.666666666666664</ele><time>2026-05-04T09:37:15.207Z</time></trkpt><trkpt lat="45.3518533" lon="10.9954983"><ele>38.0</ele><time>2026-05-04T09:37:16.207Z</time></trkpt><trkpt lat="45.35166" lon="10.995555"><ele>38.0</ele><time>2026-05-04T09:37:17.211Z</time></trkpt><trkpt lat="45.3514667" lon="10.995615"><ele>38.0</ele><time>2026-05-04T09:37:18.208Z</time></trkpt><trkpt lat="45.35127" lon="10.99568"><ele>38.0</ele><time>2026-05-04T09:37:19.21Z</time></trkpt><trkpt lat="45.351075" lon="10.99574"><ele>38.0</ele><time>2026-05-04T09:37:20.217Z</time></trkpt><trkpt lat="45.3508783" lon="10.9958033"><ele>38.0</ele><time>2026-05-04T09:37:21.217Z</time></trkpt><trkpt lat="45.3506817" lon="10.9958667"><ele>38.0</ele><time>2026-05-04T09:37:22.209Z</time></trkpt><trkpt lat="45.350485" lon="10.9959283"><ele>38.0</ele><time>2026-05-04T09:37:23.207Z</time></trkpt><trkpt lat="45.3502883" lon="10.9959883"><ele>38.0</ele><time>2026-05-04T09:37:24.209Z</time></trkpt><trkpt lat="45.3500883" lon="10.99605"><ele>38.0</ele><time>2026-05-04T09:37:25.209Z</time></trkpt><trkpt lat="45.3498867" lon="10.9961083"><ele>38.0</ele><time>2026-05-04T09:37:26.218Z</time></trkpt><trkpt lat="45.3496867" lon="10.996165"><ele>38.0</ele><time>2026-05-04T09:37:27.21Z</time></trkpt><trkpt lat="45.3494867" lon="10.9962217"><ele>38.0</ele><time>2026-05-04T09:37:28.214Z</time></trkpt><trkpt lat="45.349285" lon="10.9962817"><ele>38.0</ele><time>2026-05-04T09:37:29.209Z</time></trkpt><trkpt lat="45.349085" lon="10.99634"><ele>38.0</ele><time>2026-05-04T09:37:30.21Z</time></trkpt><trkpt lat="45.34889" lon="10.9963967"><ele>38.0</ele><time>2026-05-04T09:37:31.206Z</time></trkpt><trkpt lat="45.348695" lon="10.9964533"><ele>38.33333333333333</ele><time>2026-05-04T09:37:32.213Z</time></trkpt><trkpt lat="45.3485017" lon="10.99651"><ele>38.666666666666664</ele><time>2026-05-04T09:37:33.209Z</time></trkpt><trkpt lat="45.34831" lon="10.9965683"><ele>39.0</ele><time>2026-05-04T09:37:34.21Z</time></trkpt><trkpt lat="45.34812" lon="10.9966267"><ele>38.333333333333336</ele><time>2026-05-04T09:37:35.215Z</time></trkpt><trkpt lat="45.3479333" lon="10.9966817"><ele>37.66666666666667</ele><time>2026-05-04T09:37:36.213Z</time></trkpt><trkpt lat="45.3477433" lon="10.9967383"><ele>37.0</ele><time>2026-05-04T09:37:37.211Z</time></trkpt><trkpt lat="45.347555" lon="10.9967917"><ele>37.0</ele><time>2026-05-04T09:37:38.21Z</time></trkpt><trkpt lat="45.34737" lon="10.996845"><ele>37.0</ele><time>2026-05-04T09:37:39.206Z</time></trkpt><trkpt lat="45.347185" lon="10.9968983"><ele>37.0</ele><time>2026-05-04T09:37:40.214Z</time></trkpt><trkpt lat="45.3469983" lon="10.9969533"><ele>37.0</ele><time>2026-05-04T09:37:41.21Z</time></trkpt><trkpt lat="45.346815" lon="10.9970033"><ele>37.0</ele><time>2026-05-04T09:37:42.216Z</time></trkpt><trkpt lat="45.3466317" lon="10.997055"><ele>37.0</ele><time>2026-05-04T09:37:43.209Z</time></trkpt><trkpt lat="45.34645" lon="10.9971033"><ele>37.66666666666667</ele><time>2026-05-04T09:37:44.21Z</time></trkpt><trkpt lat="45.3462667" lon="10.9971533"><ele>38.333333333333336</ele><time>2026-05-04T09:37:45.212Z</time></trkpt><trkpt lat="45.346085" lon="10.9972033"><ele>39.0</ele><time>2026-05-04T09:37:46.215Z</time></trkpt><trkpt lat="45.3459033" lon="10.9972517"><ele>39.0</ele><time>2026-05-04T09:37:47.216Z</time></trkpt><trkpt lat="45.3457217" lon="10.9973017"><ele>39.0</ele><time>2026-05-04T09:37:48.214Z</time></trkpt><trkpt lat="45.34554" lon="10.9973533"><ele>39.0</ele><time>2026-05-04T09:37:49.215Z</time></trkpt><trkpt lat="45.34536" lon="10.9974033"><ele>38.333333333333336</ele><time>2026-05-04T09:37:50.208Z</time></trkpt><trkpt lat="45.34518" lon="10.9974567"><ele>37.66666666666667</ele><time>2026-05-04T09:37:51.208Z</time></trkpt><trkpt lat="45.345" lon="10.9975067"><ele>37.0</ele><time>2026-05-04T09:37:52.211Z</time></trkpt><trkpt lat="45.34482" lon="10.9975583"><ele>37.0</ele><time>2026-05-04T09:37:53.215Z</time></trkpt><trkpt lat="45.3446383" lon="10.9976083"><ele>37.0</ele><time>2026-05-04T09:37:54.208Z</time></trkpt><trkpt lat="45.34446" lon="10.997655"><ele>37.0</ele><time>2026-05-04T09:37:55.208Z</time></trkpt><trkpt lat="45.34428" lon="10.9977033"><ele>37.0</ele><time>2026-05-04T09:37:56.211Z</time></trkpt><trkpt lat="45.3441" lon="10.9977517"><ele>37.0</ele><time>2026-05-04T09:37:57.208Z</time></trkpt><trkpt lat="45.34392" lon="10.9978033"><ele>37.0</ele><time>2026-05-04T09:37:58.218Z</time></trkpt><trkpt lat="45.3437417" lon="10.99786"><ele>36.66666666666667</ele><time>2026-05-04T09:37:59.21Z</time></trkpt><trkpt lat="45.343565" lon="10.9979133"><ele>36.333333333333336</ele><time>2026-05-04T09:38:00.205Z</time></trkpt><trkpt lat="45.34339" lon="10.99797"><ele>36.0</ele><time>2026-05-04T09:38:01.206Z</time></trkpt><trkpt lat="45.3432183" lon="10.9980267"><ele>36.0</ele><time>2026-05-04T09:38:02.21Z</time></trkpt><trkpt lat="45.3430317" lon="10.9980883"><ele>36.0</ele><time>2026-05-04T09:38:03.215Z</time></trkpt><trkpt lat="45.3428767" lon="10.9981517"><ele>36.0</ele><time>2026-05-04T09:38:04.208Z</time></trkpt><trkpt lat="45.3427333" lon="10.9982167"><ele>36.0</ele><time>2026-05-04T09:38:05.209Z</time></trkpt><trkpt lat="45.3425983" lon="10.9982683"><ele>36.0</ele><time>2026-05-04T09:38:06.21Z</time></trkpt><trkpt lat="45.3424867" lon="10.9983083"><ele>36.0</ele><time>2026-05-04T09:38:07.207Z</time></trkpt><trkpt lat="45.3423717" lon="10.998335"><ele>36.0</ele><time>2026-05-04T09:38:08.21Z</time></trkpt><trkpt lat="45.342255" lon="10.9983633"><ele>36.5</ele><time>2026-05-04T09:38:09.219Z</time></trkpt><trkpt lat="45.3421367" lon="10.9984"><ele>37.0</ele><time>2026-05-04T09:38:10.209Z</time></trkpt><trkpt lat="45.3420183" lon="10.9984417"><ele>37.5</ele><time>2026-05-04T09:38:11.209Z</time></trkpt><trkpt lat="45.3419" lon="10.998495"><ele>38.0</ele><time>2026-05-04T09:38:12.213Z</time></trkpt><trkpt lat="45.34179" lon="10.99856"><ele>38.0</ele><time>2026-05-04T09:38:13.209Z</time></trkpt><trkpt lat="45.341675" lon="10.9986367"><ele>38.0</ele><time>2026-05-04T09:38:14.209Z</time></trkpt><trkpt lat="45.341565" lon="10.9987283"><ele>38.0</ele><time>2026-05-04T09:38:15.209Z</time></trkpt><trkpt lat="45.341465" lon="10.998825"><ele>38.0</ele><time>2026-05-04T09:38:16.221Z</time></trkpt><trkpt lat="45.3413783" lon="10.9989217"><ele>37.666666666666664</ele><time>2026-05-04T09:38:17.212Z</time></trkpt><trkpt lat="45.3413083" lon="10.999015"><ele>37.33333333333333</ele><time>2026-05-04T09:38:18.21Z</time></trkpt><trkpt lat="45.3412417" lon="10.9991"><ele>37.0</ele><time>2026-05-04T09:38:19.211Z</time></trkpt><trkpt lat="45.34118" lon="10.9991767"><ele>36.666666666666664</ele><time>2026-05-04T09:38:20.214Z</time></trkpt><trkpt lat="45.341115" lon="10.99925"><ele>36.333333333333336</ele><time>2026-05-04T09:38:21.214Z</time></trkpt><trkpt lat="45.3410483" lon="10.9993283"><ele>36.0</ele><time>2026-05-04T09:38:22.214Z</time></trkpt><trkpt lat="45.3409767" lon="10.9994117"><ele>35.8</ele><time>2026-05-04T09:38:23.205Z</time></trkpt><trkpt lat="45.3408983" lon="10.9995"><ele>35.6</ele><time>2026-05-04T09:38:24.205Z</time></trkpt><trkpt lat="45.3408167" lon="10.9995983"><ele>35.4</ele><time>2026-05-04T09:38:25.213Z</time></trkpt><trkpt lat="45.3407333" lon="10.999705"><ele>35.2</ele><time>2026-05-04T09:38:26.211Z</time></trkpt><trkpt lat="45.3406483" lon="10.9998183"><ele>35.0</ele><time>2026-05-04T09:38:27.207Z</time></trkpt><trkpt lat="45.3405633" lon="10.9999383"><ele>35.2</ele><time>2026-05-04T09:38:28.217Z</time></trkpt><trkpt lat="45.3404867" lon="11.0000367"><ele>35.4</ele><time>2026-05-04T09:38:29.207Z</time></trkpt><trkpt lat="45.3404267" lon="11.0001133"><ele>35.6</ele><time>2026-05-04T09:38:30.207Z</time></trkpt><trkpt lat="45.340345" lon="11.0002233"><ele>35.8</ele><time>2026-05-04T09:38:32.208Z</time></trkpt><trkpt lat="45.3402767" lon="11.000305"><ele>36.0</ele><time>2026-05-04T09:38:34.211Z</time></trkpt><trkpt lat="45.3401583" lon="11.000425"><ele>36.0</ele><time>2026-05-04T09:38:36.208Z</time></trkpt><trkpt lat="45.3400517" lon="11.0005117"><ele>36.0</ele><time>2026-05-04T09:38:37.208Z</time></trkpt><trkpt lat="45.339925" lon="11.0005983"><ele>36.0</ele><time>2026-05-04T09:38:38.213Z</time></trkpt><trkpt lat="45.3397733" lon="11.00069"><ele>36.0</ele><time>2026-05-04T09:38:39.216Z</time></trkpt><trkpt lat="45.3396267" lon="11.0007783"><ele>36.333333333333336</ele><time>2026-05-04T09:38:40.207Z</time></trkpt><trkpt lat="45.33947" lon="11.00086"><ele>36.66666666666667</ele><time>2026-05-04T09:38:41.223Z</time></trkpt><trkpt lat="45.3393117" lon="11.0009333"><ele>37.0</ele><time>2026-05-04T09:38:42.208Z</time></trkpt><trkpt lat="45.3391617" lon="11.001"><ele>37.0</ele><time>2026-05-04T09:38:43.208Z</time></trkpt><trkpt lat="45.33902" lon="11.0010633"><ele>37.0</ele><time>2026-05-04T09:38:44.217Z</time></trkpt><trkpt lat="45.3388817" lon="11.001125"><ele>37.0</ele><time>2026-05-04T09:38:45.209Z</time></trkpt><trkpt lat="45.33874" lon="11.00118"><ele>37.0</ele><time>2026-05-04T09:38:46.206Z</time></trkpt><trkpt lat="45.3385883" lon="11.0012217"><ele>37.0</ele><time>2026-05-04T09:38:47.212Z</time></trkpt><trkpt lat="45.3384383" lon="11.0012467"><ele>37.0</ele><time>2026-05-04T09:38:48.214Z</time></trkpt><trkpt lat="45.33829" lon="11.001265"><ele>37.0</ele><time>2026-05-04T09:38:49.214Z</time></trkpt><trkpt lat="45.3381367" lon="11.00128"><ele>36.333333333333336</ele><time>2026-05-04T09:38:50.223Z</time></trkpt><trkpt lat="45.3379817" lon="11.0012983"><ele>35.666666666666664</ele><time>2026-05-04T09:38:51.207Z</time></trkpt><trkpt lat="45.3378217" lon="11.001315"><ele>35.0</ele><time>2026-05-04T09:38:52.216Z</time></trkpt><trkpt lat="45.33766" lon="11.0013333"><ele>35.0</ele><time>2026-05-04T09:38:53.212Z</time></trkpt><trkpt lat="45.3374967" lon="11.0013533"><ele>35.0</ele><time>2026-05-04T09:38:54.209Z</time></trkpt><trkpt lat="45.3373317" lon="11.0013717"><ele>35.0</ele><time>2026-05-04T09:38:55.207Z</time></trkpt><trkpt lat="45.3371667" lon="11.0013883"><ele>35.0</ele><time>2026-05-04T09:38:56.211Z</time></trkpt><trkpt lat="45.3370033" lon="11.0014067"><ele>35.0</ele><time>2026-05-04T09:38:57.212Z</time></trkpt><trkpt lat="45.3368383" lon="11.0014267"><ele>35.0</ele><time>2026-05-04T09:38:58.21Z</time></trkpt><trkpt lat="45.3366717" lon="11.001445"><ele>35.0</ele><time>2026-05-04T09:38:59.211Z</time></trkpt><trkpt lat="45.336505" lon="11.0014633"><ele>35.0</ele><time>2026-05-04T09:39:00.215Z</time></trkpt><trkpt lat="45.3363383" lon="11.0014833"><ele>35.0</ele><time>2026-05-04T09:39:01.21Z</time></trkpt><trkpt lat="45.3361733" lon="11.0015017"><ele>34.666666666666664</ele><time>2026-05-04T09:39:02.211Z</time></trkpt><trkpt lat="45.3360083" lon="11.00152"><ele>34.333333333333336</ele><time>2026-05-04T09:39:03.211Z</time></trkpt><trkpt lat="45.3358467" lon="11.0015383"><ele>34.0</ele><time>2026-05-04T09:39:04.212Z</time></trkpt><trkpt lat="45.3356867" lon="11.0015583"><ele>34.333333333333336</ele><time>2026-05-04T09:39:05.211Z</time></trkpt><trkpt lat="45.3355283" lon="11.0015767"><ele>34.666666666666664</ele><time>2026-05-04T09:39:06.211Z</time></trkpt><trkpt lat="45.3353733" lon="11.00159"><ele>35.0</ele><time>2026-05-04T09:39:07.207Z</time></trkpt><trkpt lat="45.3352183" lon="11.001605"><ele>35.0</ele><time>2026-05-04T09:39:08.209Z</time></trkpt><trkpt lat="45.335065" lon="11.001625"><ele>35.0</ele><time>2026-05-04T09:39:09.208Z</time></trkpt><trkpt lat="45.334915" lon="11.0016417"><ele>35.0</ele><time>2026-05-04T09:39:10.207Z</time></trkpt><trkpt lat="45.3347717" lon="11.00166"><ele>35.0</ele><time>2026-05-04T09:39:11.208Z</time></trkpt><trkpt lat="45.3346367" lon="11.0016783"><ele>35.0</ele><time>2026-05-04T09:39:12.207Z</time></trkpt><trkpt lat="45.33451" lon="11.0016967"><ele>35.0</ele><time>2026-05-04T09:39:13.208Z</time></trkpt><trkpt lat="45.33439" lon="11.0017117"><ele>35.0</ele><time>2026-05-04T09:39:14.208Z</time></trkpt><trkpt lat="45.334275" lon="11.00173"><ele>35.0</ele><time>2026-05-04T09:39:15.207Z</time></trkpt><trkpt lat="45.3341717" lon="11.00174"><ele>35.0</ele><time>2026-05-04T09:39:16.217Z</time></trkpt><trkpt lat="45.3340783" lon="11.0017383"><ele>35.0</ele><time>2026-05-04T09:39:17.207Z</time></trkpt><trkpt lat="45.3339933" lon="11.0017117"><ele>35.0</ele><time>2026-05-04T09:39:18.21Z</time></trkpt><trkpt lat="45.333905" lon="11.0016683"><ele>35.0</ele><time>2026-05-04T09:39:19.208Z</time></trkpt><trkpt lat="45.3338167" lon="11.0016383"><ele>35.0</ele><time>2026-05-04T09:39:20.209Z</time></trkpt><trkpt lat="45.333735" lon="11.0016367"><ele>35.0</ele><time>2026-05-04T09:39:21.209Z</time></trkpt><trkpt lat="45.3336533" lon="11.00168"><ele>34.8</ele><time>2026-05-04T09:39:22.211Z</time></trkpt><trkpt lat="45.3335867" lon="11.001755"><ele>34.6</ele><time>2026-05-04T09:39:23.209Z</time></trkpt><trkpt lat="45.333575" lon="11.00189"><ele>34.4</ele><time>2026-05-04T09:39:24.218Z</time></trkpt><trkpt lat="45.3336033" lon="11.0020483"><ele>34.2</ele><time>2026-05-04T09:39:25.209Z</time></trkpt><trkpt lat="45.3336633" lon="11.0022033"><ele>34.0</ele><time>2026-05-04T09:39:26.215Z</time></trkpt><trkpt lat="45.3337117" lon="11.0023733"><ele>33.66666666666667</ele><time>2026-05-04T09:39:27.219Z</time></trkpt><trkpt lat="45.3337567" lon="11.0025983"><ele>33.333333333333336</ele><time>2026-05-04T09:39:28.207Z</time></trkpt><trkpt lat="45.3337883" lon="11.00285"><ele>33.0</ele><time>2026-05-04T09:39:29.215Z</time></trkpt><trkpt lat="45.3338117" lon="11.00311"><ele>33.333333333333336</ele><time>2026-05-04T09:39:30.215Z</time></trkpt><trkpt lat="45.333835" lon="11.0033717"><ele>33.66666666666667</ele><time>2026-05-04T09:39:31.207Z</time></trkpt><trkpt lat="45.3338617" lon="11.0036267"><ele>34.0</ele><time>2026-05-04T09:39:32.208Z</time></trkpt><trkpt lat="45.3338867" lon="11.0038783"><ele>34.66666666666667</ele><time>2026-05-04T09:39:33.208Z</time></trkpt><trkpt lat="45.33391" lon="11.00413"><ele>35.333333333333336</ele><time>2026-05-04T09:39:34.207Z</time></trkpt><trkpt lat="45.333935" lon="11.0043833"><ele>36.0</ele><time>2026-05-04T09:39:35.208Z</time></trkpt><trkpt lat="45.3339583" lon="11.004635"><ele>36.0</ele><time>2026-05-04T09:39:36.214Z</time></trkpt><trkpt lat="45.3339817" lon="11.0048817"><ele>36.0</ele><time>2026-05-04T09:39:37.209Z</time></trkpt><trkpt lat="45.3340033" lon="11.0051233"><ele>36.0</ele><time>2026-05-04T09:39:38.208Z</time></trkpt><trkpt lat="45.3340233" lon="11.0053583"><ele>35.5</ele><time>2026-05-04T09:39:39.212Z</time></trkpt><trkpt lat="45.3340517" lon="11.0058"><ele>35.0</ele><time>2026-05-04T09:39:41.207Z</time></trkpt><trkpt lat="45.3340467" lon="11.0060017"><ele>34.75</ele><time>2026-05-04T09:39:42.208Z</time></trkpt><trkpt lat="45.3340233" lon="11.006195"><ele>34.5</ele><time>2026-05-04T09:39:43.208Z</time></trkpt><trkpt lat="45.3339733" lon="11.00637"><ele>34.25</ele><time>2026-05-04T09:39:44.208Z</time></trkpt><trkpt lat="45.3339117" lon="11.006535"><ele>34.0</ele><time>2026-05-04T09:39:45.209Z</time></trkpt><trkpt lat="45.3338417" lon="11.006695"><ele>34.5</ele><time>2026-05-04T09:39:46.208Z</time></trkpt><trkpt lat="45.33377" lon="11.0068517"><ele>35.0</ele><time>2026-05-04T09:39:47.207Z</time></trkpt><trkpt lat="45.3336967" lon="11.0070133"><ele>35.5</ele><time>2026-05-04T09:39:48.211Z</time></trkpt><trkpt lat="45.333625" lon="11.0071783"><ele>36.0</ele><time>2026-05-04T09:39:49.209Z</time></trkpt><trkpt lat="45.3335483" lon="11.0073417"><ele>36.0</ele><time>2026-05-04T09:39:50.21Z</time></trkpt><trkpt lat="45.333475" lon="11.0075067"><ele>36.0</ele><time>2026-05-04T09:39:51.211Z</time></trkpt><trkpt lat="45.3334017" lon="11.0076717"><ele>36.0</ele><time>2026-05-04T09:39:52.211Z</time></trkpt><trkpt lat="45.3333283" lon="11.0078367"><ele>36.0</ele><time>2026-05-04T09:39:53.21Z</time></trkpt><trkpt lat="45.33325" lon="11.0080017"><ele>36.0</ele><time>2026-05-04T09:39:54.221Z</time></trkpt><trkpt lat="45.3331683" lon="11.0081667"><ele>36.0</ele><time>2026-05-04T09:39:55.209Z</time></trkpt><trkpt lat="45.333085" lon="11.0083317"><ele>36.0</ele><time>2026-05-04T09:39:56.208Z</time></trkpt><trkpt lat="45.3329983" lon="11.008505"><ele>36.0</ele><time>2026-05-04T09:39:57.218Z</time></trkpt><trkpt lat="45.3329067" lon="11.0086783"><ele>35.666666666666664</ele><time>2026-05-04T09:39:58.207Z</time></trkpt><trkpt lat="45.3328133" lon="11.008855"><ele>35.33333333333333</ele><time>2026-05-04T09:39:59.211Z</time></trkpt><trkpt lat="45.3327183" lon="11.0090383"><ele>35.0</ele><time>2026-05-04T09:40:00.208Z</time></trkpt><trkpt lat="45.3326167" lon="11.0092217"><ele>35.0</ele><time>2026-05-04T09:40:01.222Z</time></trkpt><trkpt lat="45.3325183" lon="11.009415"><ele>35.0</ele><time>2026-05-04T09:40:02.207Z</time></trkpt><trkpt lat="45.3324217" lon="11.0096167"><ele>35.0</ele><time>2026-05-04T09:40:03.212Z</time></trkpt><trkpt lat="45.332325" lon="11.00982"><ele>35.0</ele><time>2026-05-04T09:40:04.208Z</time></trkpt><trkpt lat="45.3322333" lon="11.01002"><ele>35.0</ele><time>2026-05-04T09:40:05.208Z</time></trkpt><trkpt lat="45.3321433" lon="11.0102233"><ele>35.0</ele><time>2026-05-04T09:40:06.211Z</time></trkpt><trkpt lat="45.3320467" lon="11.0104283"><ele>35.0</ele><time>2026-05-04T09:40:07.207Z</time></trkpt><trkpt lat="45.3319517" lon="11.01063"><ele>35.0</ele><time>2026-05-04T09:40:08.206Z</time></trkpt><trkpt lat="45.3318583" lon="11.0108267"><ele>35.0</ele><time>2026-05-04T09:40:09.215Z</time></trkpt><trkpt lat="45.3317683" lon="11.0110167"><ele>35.0</ele><time>2026-05-04T09:40:10.208Z</time></trkpt><trkpt lat="45.3316767" lon="11.0112067"><ele>35.0</ele><time>2026-05-04T09:40:11.213Z</time></trkpt><trkpt lat="45.3315817" lon="11.0114"><ele>35.0</ele><time>2026-05-04T09:40:12.206Z</time></trkpt><trkpt lat="45.3314833" lon="11.0115867"><ele>35.33333333333333</ele><time>2026-05-04T09:40:13.208Z</time></trkpt><trkpt lat="45.33138" lon="11.0117767"><ele>35.666666666666664</ele><time>2026-05-04T09:40:14.206Z</time></trkpt><trkpt lat="45.3312733" lon="11.01197"><ele>36.0</ele><time>2026-05-04T09:40:15.207Z</time></trkpt><trkpt lat="45.3311667" lon="11.0121633"><ele>36.0</ele><time>2026-05-04T09:40:16.207Z</time></trkpt><trkpt lat="45.3310567" lon="11.0123583"><ele>36.0</ele><time>2026-05-04T09:40:17.209Z</time></trkpt><trkpt lat="45.3309433" lon="11.012555"><ele>36.0</ele><time>2026-05-04T09:40:18.209Z</time></trkpt><trkpt lat="45.3308267" lon="11.012755"><ele>35.666666666666664</ele><time>2026-05-04T09:40:19.211Z</time></trkpt><trkpt lat="45.3307067" lon="11.012955"><ele>35.33333333333333</ele><time>2026-05-04T09:40:20.209Z</time></trkpt><trkpt lat="45.330585" lon="11.0131583"><ele>35.0</ele><time>2026-05-04T09:40:21.213Z</time></trkpt><trkpt lat="45.3304617" lon="11.013365"><ele>36.0</ele><time>2026-05-04T09:40:22.218Z</time></trkpt><trkpt lat="45.330335" lon="11.0135717"><ele>37.0</ele><time>2026-05-04T09:40:23.207Z</time></trkpt><trkpt lat="45.330205" lon="11.01378"><ele>38.0</ele><time>2026-05-04T09:40:24.208Z</time></trkpt><trkpt lat="45.3300717" lon="11.013985"><ele>37.33333333333333</ele><time>2026-05-04T09:40:25.21Z</time></trkpt><trkpt lat="45.329935" lon="11.0141917"><ele>36.666666666666664</ele><time>2026-05-04T09:40:26.21Z</time></trkpt><trkpt lat="45.3297933" lon="11.0144"><ele>36.0</ele><time>2026-05-04T09:40:27.215Z</time></trkpt><trkpt lat="45.32965" lon="11.01461"><ele>35.666666666666664</ele><time>2026-05-04T09:40:28.211Z</time></trkpt><trkpt lat="45.3295067" lon="11.014825"><ele>35.33333333333333</ele><time>2026-05-04T09:40:29.209Z</time></trkpt><trkpt lat="45.32936" lon="11.0150417"><ele>35.0</ele><time>2026-05-04T09:40:30.213Z</time></trkpt><trkpt lat="45.3292133" lon="11.0152617"><ele>35.0</ele><time>2026-05-04T09:40:31.216Z</time></trkpt><trkpt lat="45.3290633" lon="11.0154833"><ele>35.0</ele><time>2026-05-04T09:40:32.213Z</time></trkpt><trkpt lat="45.3289133" lon="11.0157067"><ele>35.0</ele><time>2026-05-04T09:40:33.212Z</time></trkpt><trkpt lat="45.3287617" lon="11.0159367"><ele>33.5</ele><time>2026-05-04T09:40:34.211Z</time></trkpt><trkpt lat="45.3286067" lon="11.0161667"><ele>32.0</ele><time>2026-05-04T09:40:35.207Z</time></trkpt><trkpt lat="45.3284517" lon="11.0164"><ele>32.0</ele><time>2026-05-04T09:40:36.207Z</time></trkpt><trkpt lat="45.3282967" lon="11.0166383"><ele>32.0</ele><time>2026-05-04T09:40:37.207Z</time></trkpt><trkpt lat="45.32814" lon="11.0168733"><ele>32.5</ele><time>2026-05-04T09:40:38.208Z</time></trkpt><trkpt lat="45.3279817" lon="11.01711"><ele>33.0</ele><time>2026-05-04T09:40:39.209Z</time></trkpt><trkpt lat="45.327825" lon="11.0173467"><ele>33.0</ele><time>2026-05-04T09:40:40.208Z</time></trkpt><trkpt lat="45.3276683" lon="11.0175833"><ele>33.0</ele><time>2026-05-04T09:40:41.213Z</time></trkpt><trkpt lat="45.3275117" lon="11.0178183"><ele>33.0</ele><time>2026-05-04T09:40:42.212Z</time></trkpt><trkpt lat="45.327355" lon="11.018055"><ele>33.0</ele><time>2026-05-04T09:40:43.212Z</time></trkpt><trkpt lat="45.3271967" lon="11.0182917"><ele>32.5</ele><time>2026-05-04T09:40:44.209Z</time></trkpt><trkpt lat="45.32704" lon="11.0185267"><ele>32.0</ele><time>2026-05-04T09:40:45.207Z</time></trkpt><trkpt lat="45.3268833" lon="11.0187583"><ele>32.0</ele><time>2026-05-04T09:40:46.211Z</time></trkpt><trkpt lat="45.3267317" lon="11.0189867"><ele>32.0</ele><time>2026-05-04T09:40:47.21Z</time></trkpt><trkpt lat="45.3265867" lon="11.0192083"><ele>32.0</ele><time>2026-05-04T09:40:48.217Z</time></trkpt><trkpt lat="45.326445" lon="11.0194233"><ele>32.0</ele><time>2026-05-04T09:40:49.212Z</time></trkpt><trkpt lat="45.3262983" lon="11.019635"><ele>32.0</ele><time>2026-05-04T09:40:50.21Z</time></trkpt><trkpt lat="45.3261483" lon="11.0198417"><ele>32.0</ele><time>2026-05-04T09:40:51.209Z</time></trkpt><trkpt lat="45.3259883" lon="11.0200317"><ele>32.0</ele><time>2026-05-04T09:40:52.212Z</time></trkpt><trkpt lat="45.3258183" lon="11.0201983"><ele>32.0</ele><time>2026-05-04T09:40:53.209Z</time></trkpt><trkpt lat="45.325635" lon="11.02034"><ele>32.0</ele><time>2026-05-04T09:40:54.217Z</time></trkpt><trkpt lat="45.3254433" lon="11.0204617"><ele>32.0</ele><time>2026-05-04T09:40:55.216Z</time></trkpt><trkpt lat="45.3252483" lon="11.0205717"><ele>32.0</ele><time>2026-05-04T09:40:56.21Z</time></trkpt><trkpt lat="45.32505" lon="11.0206767"><ele>32.0</ele><time>2026-05-04T09:40:57.212Z</time></trkpt><trkpt lat="45.3248533" lon="11.0207833"><ele>33.0</ele><time>2026-05-04T09:40:58.21Z</time></trkpt><trkpt lat="45.3246583" lon="11.0208883"><ele>34.0</ele><time>2026-05-04T09:40:59.207Z</time></trkpt><trkpt lat="45.3244633" lon="11.0209933"><ele>35.0</ele><time>2026-05-04T09:41:00.207Z</time></trkpt><trkpt lat="45.32427" lon="11.0210983"><ele>35.0</ele><time>2026-05-04T09:41:01.211Z</time></trkpt><trkpt lat="45.32408" lon="11.0212067"><ele>35.0</ele><time>2026-05-04T09:41:02.208Z</time></trkpt><trkpt lat="45.3238917" lon="11.0213183"><ele>35.0</ele><time>2026-05-04T09:41:03.207Z</time></trkpt><trkpt lat="45.3237067" lon="11.021445"><ele>36.5</ele><time>2026-05-04T09:41:04.228Z</time></trkpt><trkpt lat="45.323355" lon="11.02175"><ele>38.0</ele><time>2026-05-04T09:41:06.21Z</time></trkpt><trkpt lat="45.3231883" lon="11.021925"><ele>37.33333333333333</ele><time>2026-05-04T09:41:07.206Z</time></trkpt><trkpt lat="45.3230267" lon="11.022115"><ele>36.666666666666664</ele><time>2026-05-04T09:41:08.209Z</time></trkpt><trkpt lat="45.3228667" lon="11.0223133"><ele>36.0</ele><time>2026-05-04T09:41:09.216Z</time></trkpt><trkpt lat="45.322705" lon="11.0225133"><ele>35.666666666666664</ele><time>2026-05-04T09:41:10.214Z</time></trkpt><trkpt lat="45.32254" lon="11.02272"><ele>35.33333333333333</ele><time>2026-05-04T09:41:11.213Z</time></trkpt><trkpt lat="45.3223767" lon="11.0229283"><ele>35.0</ele><time>2026-05-04T09:41:12.21Z</time></trkpt><trkpt lat="45.3222133" lon="11.0231333"><ele>34.666666666666664</ele><time>2026-05-04T09:41:13.207Z</time></trkpt><trkpt lat="45.3220533" lon="11.0233333"><ele>34.333333333333336</ele><time>2026-05-04T09:41:14.214Z</time></trkpt><trkpt lat="45.3218917" lon="11.0235283"><ele>34.0</ele><time>2026-05-04T09:41:15.21Z</time></trkpt><trkpt lat="45.3217233" lon="11.02371"><ele>34.0</ele><time>2026-05-04T09:41:16.216Z</time></trkpt><trkpt lat="45.3215517" lon="11.0238783"><ele>34.0</ele><time>2026-05-04T09:41:17.213Z</time></trkpt><trkpt lat="45.3213783" lon="11.024035"><ele>34.0</ele><time>2026-05-04T09:41:18.214Z</time></trkpt><trkpt lat="45.3212067" lon="11.0241883"><ele>34.333333333333336</ele><time>2026-05-04T09:41:19.212Z</time></trkpt><trkpt lat="45.3210333" lon="11.0243367"><ele>34.666666666666664</ele><time>2026-05-04T09:41:20.21Z</time></trkpt><trkpt lat="45.32086" lon="11.0244817"><ele>35.0</ele><time>2026-05-04T09:41:21.208Z</time></trkpt><trkpt lat="45.320685" lon="11.0246183"><ele>34.666666666666664</ele><time>2026-05-04T09:41:22.211Z</time></trkpt><trkpt lat="45.320505" lon="11.0247467"><ele>34.333333333333336</ele><time>2026-05-04T09:41:23.213Z</time></trkpt><trkpt lat="45.32032" lon="11.0248617"><ele>34.0</ele><time>2026-05-04T09:41:24.212Z</time></trkpt><trkpt lat="45.32013" lon="11.0249633"><ele>34.333333333333336</ele><time>2026-05-04T09:41:25.218Z</time></trkpt><trkpt lat="45.3199333" lon="11.0250617"><ele>34.666666666666664</ele><time>2026-05-04T09:41:26.21Z</time></trkpt><trkpt lat="45.3197333" lon="11.0251533"><ele>35.0</ele><time>2026-05-04T09:41:27.211Z</time></trkpt><trkpt lat="45.319535" lon="11.025245"><ele>35.0</ele><time>2026-05-04T09:41:28.207Z</time></trkpt><trkpt lat="45.319335" lon="11.02534"><ele>35.0</ele><time>2026-05-04T09:41:29.208Z</time></trkpt><trkpt lat="45.3191333" lon="11.025435"><ele>35.0</ele><time>2026-05-04T09:41:30.207Z</time></trkpt><trkpt lat="45.3189333" lon="11.0255383"><ele>35.0</ele><time>2026-05-04T09:41:31.209Z</time></trkpt><trkpt lat="45.3187317" lon="11.0256417"><ele>35.0</ele><time>2026-05-04T09:41:32.208Z</time></trkpt><trkpt lat="45.3185283" lon="11.0257467"><ele>35.0</ele><time>2026-05-04T09:41:33.214Z</time></trkpt><trkpt lat="45.318325" lon="11.0258517"><ele>35.0</ele><time>2026-05-04T09:41:34.213Z</time></trkpt><trkpt lat="45.31812" lon="11.0259517"><ele>35.0</ele><time>2026-05-04T09:41:35.21Z</time></trkpt><trkpt lat="45.3179117" lon="11.0260517"><ele>35.0</ele><time>2026-05-04T09:41:36.206Z</time></trkpt><trkpt lat="45.317705" lon="11.0261517"><ele>34.33333333333333</ele><time>2026-05-04T09:41:37.207Z</time></trkpt><trkpt lat="45.3174983" lon="11.0262533"><ele>33.666666666666664</ele><time>2026-05-04T09:41:38.207Z</time></trkpt><trkpt lat="45.3172917" lon="11.0263567"><ele>33.0</ele><time>2026-05-04T09:41:39.209Z</time></trkpt><trkpt lat="45.3170867" lon="11.0264617"><ele>33.0</ele><time>2026-05-04T09:41:40.216Z</time></trkpt><trkpt lat="45.3168833" lon="11.02657"><ele>33.0</ele><time>2026-05-04T09:41:41.209Z</time></trkpt><trkpt lat="45.3166783" lon="11.026675"><ele>33.0</ele><time>2026-05-04T09:41:42.216Z</time></trkpt><trkpt lat="45.3164733" lon="11.0267767"><ele>32.666666666666664</ele><time>2026-05-04T09:41:43.207Z</time></trkpt><trkpt lat="45.3162667" lon="11.0268767"><ele>32.33333333333333</ele><time>2026-05-04T09:41:44.208Z</time></trkpt><trkpt lat="45.3160617" lon="11.0269767"><ele>32.0</ele><time>2026-05-04T09:41:45.218Z</time></trkpt><trkpt lat="45.31586" lon="11.02708"><ele>32.0</ele><time>2026-05-04T09:41:46.211Z</time></trkpt><trkpt lat="45.3156617" lon="11.02719"><ele>32.0</ele><time>2026-05-04T09:41:47.22Z</time></trkpt><trkpt lat="45.3154683" lon="11.0273133"><ele>32.0</ele><time>2026-05-04T09:41:48.213Z</time></trkpt><trkpt lat="45.31528" lon="11.02746"><ele>32.33333333333333</ele><time>2026-05-04T09:41:49.212Z</time></trkpt><trkpt lat="45.315095" lon="11.02763"><ele>32.666666666666664</ele><time>2026-05-04T09:41:50.212Z</time></trkpt><trkpt lat="45.314915" lon="11.027815"><ele>33.0</ele><time>2026-05-04T09:41:51.208Z</time></trkpt><trkpt lat="45.3147367" lon="11.0280067"><ele>33.0</ele><time>2026-05-04T09:41:52.221Z</time></trkpt><trkpt lat="45.314555" lon="11.0281917"><ele>33.0</ele><time>2026-05-04T09:41:53.209Z</time></trkpt><trkpt lat="45.314365" lon="11.0283617"><ele>33.0</ele><time>2026-05-04T09:41:54.213Z</time></trkpt><trkpt lat="45.314165" lon="11.02851"><ele>33.0</ele><time>2026-05-04T09:41:55.21Z</time></trkpt><trkpt lat="45.3139567" lon="11.0286433"><ele>33.0</ele><time>2026-05-04T09:41:56.211Z</time></trkpt><trkpt lat="45.3137433" lon="11.028765"><ele>33.0</ele><time>2026-05-04T09:41:57.21Z</time></trkpt><trkpt lat="45.3135267" lon="11.028875"><ele>33.0</ele><time>2026-05-04T09:41:58.209Z</time></trkpt><trkpt lat="45.3133033" lon="11.02897"><ele>33.0</ele><time>2026-05-04T09:41:59.209Z</time></trkpt><trkpt lat="45.3130783" lon="11.0290517"><ele>33.0</ele><time>2026-05-04T09:42:00.213Z</time></trkpt><trkpt lat="45.312855" lon="11.0291333"><ele>33.0</ele><time>2026-05-04T09:42:01.209Z</time></trkpt><trkpt lat="45.3126267" lon="11.0292233"><ele>33.0</ele><time>2026-05-04T09:42:02.216Z</time></trkpt><trkpt lat="45.3124" lon="11.0293267"><ele>33.5</ele><time>2026-05-04T09:42:03.211Z</time></trkpt><trkpt lat="45.3121717" lon="11.0294417"><ele>34.0</ele><time>2026-05-04T09:42:04.207Z</time></trkpt><trkpt lat="45.3119483" lon="11.029565"><ele>34.0</ele><time>2026-05-04T09:42:05.206Z</time></trkpt><trkpt lat="45.3117233" lon="11.0296883"><ele>34.0</ele><time>2026-05-04T09:42:06.207Z</time></trkpt><trkpt lat="45.3115" lon="11.0298133"><ele>34.0</ele><time>2026-05-04T09:42:07.208Z</time></trkpt><trkpt lat="45.311275" lon="11.029935"><ele>34.0</ele><time>2026-05-04T09:42:08.21Z</time></trkpt><trkpt lat="45.3110483" lon="11.0300533"><ele>34.5</ele><time>2026-05-04T09:42:09.215Z</time></trkpt><trkpt lat="45.3108217" lon="11.0301683"><ele>35.0</ele><time>2026-05-04T09:42:10.209Z</time></trkpt><trkpt lat="45.310595" lon="11.0302817"><ele>34.5</ele><time>2026-05-04T09:42:11.208Z</time></trkpt><trkpt lat="45.3103683" lon="11.0303917"><ele>34.0</ele><time>2026-05-04T09:42:12.21Z</time></trkpt><trkpt lat="45.310145" lon="11.0305033"><ele>34.0</ele><time>2026-05-04T09:42:13.209Z</time></trkpt><trkpt lat="45.3099217" lon="11.030615"><ele>34.0</ele><time>2026-05-04T09:42:14.206Z</time></trkpt><trkpt lat="45.3097017" lon="11.0307217"><ele>32.5</ele><time>2026-05-04T09:42:15.225Z</time></trkpt><trkpt lat="45.3094833" lon="11.0308267"><ele>31.0</ele><time>2026-05-04T09:42:16.21Z</time></trkpt><trkpt lat="45.309265" lon="11.0309317"><ele>31.0</ele><time>2026-05-04T09:42:17.208Z</time></trkpt><trkpt lat="45.30905" lon="11.031035"><ele>31.0</ele><time>2026-05-04T09:42:18.214Z</time></trkpt><trkpt lat="45.3088383" lon="11.0311367"><ele>31.333333333333336</ele><time>2026-05-04T09:42:19.211Z</time></trkpt><trkpt lat="45.3086283" lon="11.031235"><ele>31.666666666666664</ele><time>2026-05-04T09:42:20.21Z</time></trkpt><trkpt lat="45.3084167" lon="11.0313283"><ele>32.0</ele><time>2026-05-04T09:42:21.208Z</time></trkpt><trkpt lat="45.3082067" lon="11.0314217"><ele>32.0</ele><time>2026-05-04T09:42:22.213Z</time></trkpt><trkpt lat="45.3079933" lon="11.0315067"><ele>32.0</ele><time>2026-05-04T09:42:23.208Z</time></trkpt><trkpt lat="45.3077833" lon="11.03158"><ele>32.0</ele><time>2026-05-04T09:42:24.207Z</time></trkpt><trkpt lat="45.3075733" lon="11.03165"><ele>32.0</ele><time>2026-05-04T09:42:25.21Z</time></trkpt><trkpt lat="45.3073633" lon="11.0317217"><ele>32.0</ele><time>2026-05-04T09:42:26.222Z</time></trkpt><trkpt lat="45.3071533" lon="11.0317867"><ele>32.0</ele><time>2026-05-04T09:42:27.21Z</time></trkpt><trkpt lat="45.3069433" lon="11.0318417"><ele>32.0</ele><time>2026-05-04T09:42:28.207Z</time></trkpt><trkpt lat="45.3067317" lon="11.0318883"><ele>32.0</ele><time>2026-05-04T09:42:29.212Z</time></trkpt><trkpt lat="45.3065217" lon="11.031935"><ele>32.0</ele><time>2026-05-04T09:42:30.209Z</time></trkpt><trkpt lat="45.3063083" lon="11.0319817"><ele>32.666666666666664</ele><time>2026-05-04T09:42:31.209Z</time></trkpt><trkpt lat="45.3060933" lon="11.0320333"><ele>33.333333333333336</ele><time>2026-05-04T09:42:32.21Z</time></trkpt><trkpt lat="45.3058767" lon="11.0320833"><ele>34.0</ele><time>2026-05-04T09:42:33.208Z</time></trkpt><trkpt lat="45.3056617" lon="11.0321367"><ele>33.66666666666667</ele><time>2026-05-04T09:42:34.221Z</time></trkpt><trkpt lat="45.3054517" lon="11.0321883"><ele>33.333333333333336</ele><time>2026-05-04T09:42:35.21Z</time></trkpt><trkpt lat="45.3052483" lon="11.0322383"><ele>33.0</ele><time>2026-05-04T09:42:36.211Z</time></trkpt><trkpt lat="45.30505" lon="11.032285"><ele>33.0</ele><time>2026-05-04T09:42:37.21Z</time></trkpt><trkpt lat="45.3048483" lon="11.03233"><ele>33.0</ele><time>2026-05-04T09:42:38.213Z</time></trkpt><trkpt lat="45.304645" lon="11.03238"><ele>33.0</ele><time>2026-05-04T09:42:39.216Z</time></trkpt><trkpt lat="45.3044433" lon="11.0324383"><ele>33.0</ele><time>2026-05-04T09:42:40.213Z</time></trkpt><trkpt lat="45.3042433" lon="11.0325233"><ele>33.0</ele><time>2026-05-04T09:42:41.217Z</time></trkpt><trkpt lat="45.3040417" lon="11.032655"><ele>33.0</ele><time>2026-05-04T09:42:42.216Z</time></trkpt><trkpt lat="45.30383" lon="11.0328117"><ele>33.0</ele><time>2026-05-04T09:42:43.209Z</time></trkpt><trkpt lat="45.303615" lon="11.0329683"><ele>33.0</ele><time>2026-05-04T09:42:44.219Z</time></trkpt><trkpt lat="45.3034" lon="11.0331217"><ele>33.0</ele><time>2026-05-04T09:42:45.211Z</time></trkpt><trkpt lat="45.3031867" lon="11.033275"><ele>33.0</ele><time>2026-05-04T09:42:46.215Z</time></trkpt><trkpt lat="45.3029733" lon="11.0334317"><ele>31.5</ele><time>2026-05-04T09:42:47.209Z</time></trkpt><trkpt lat="45.30276" lon="11.0335917"><ele>30.0</ele><time>2026-05-04T09:42:48.207Z</time></trkpt><trkpt lat="45.3025467" lon="11.0337517"><ele>30.0</ele><time>2026-05-04T09:42:49.215Z</time></trkpt><trkpt lat="45.3023367" lon="11.0339117"><ele>30.0</ele><time>2026-05-04T09:42:50.21Z</time></trkpt><trkpt lat="45.3021267" lon="11.0340683"><ele>30.0</ele><time>2026-05-04T09:42:51.207Z</time></trkpt><trkpt lat="45.30192" lon="11.034225"><ele>30.0</ele><time>2026-05-04T09:42:52.214Z</time></trkpt><trkpt lat="45.3017117" lon="11.0343783"><ele>30.0</ele><time>2026-05-04T09:42:53.207Z</time></trkpt><trkpt lat="45.301505" lon="11.0345283"><ele>30.0</ele><time>2026-05-04T09:42:54.207Z</time></trkpt><trkpt lat="45.3012983" lon="11.03468"><ele>30.0</ele><time>2026-05-04T09:42:55.206Z</time></trkpt><trkpt lat="45.3010917" lon="11.0348333"><ele>30.0</ele><time>2026-05-04T09:42:56.209Z</time></trkpt><trkpt lat="45.3008867" lon="11.0349867"><ele>30.0</ele><time>2026-05-04T09:42:57.207Z</time></trkpt><trkpt lat="45.3006817" lon="11.035135"><ele>30.0</ele><time>2026-05-04T09:42:58.208Z</time></trkpt><trkpt lat="45.3004783" lon="11.0352833"><ele>30.0</ele><time>2026-05-04T09:42:59.207Z</time></trkpt><trkpt lat="45.300275" lon="11.03543"><ele>30.0</ele><time>2026-05-04T09:43:00.208Z</time></trkpt><trkpt lat="45.3000733" lon="11.0355767"><ele>30.0</ele><time>2026-05-04T09:43:01.208Z</time></trkpt><trkpt lat="45.2998717" lon="11.035725"><ele>30.0</ele><time>2026-05-04T09:43:02.207Z</time></trkpt><trkpt lat="45.29967" lon="11.0358717"><ele>30.0</ele><time>2026-05-04T09:43:03.21Z</time></trkpt><trkpt lat="45.29947" lon="11.03602"><ele>30.0</ele><time>2026-05-04T09:43:04.21Z</time></trkpt><trkpt lat="45.2992683" lon="11.0361667"><ele>30.0</ele><time>2026-05-04T09:43:05.208Z</time></trkpt><trkpt lat="45.2990683" lon="11.0363167"><ele>30.0</ele><time>2026-05-04T09:43:06.217Z</time></trkpt><trkpt lat="45.298865" lon="11.0364683"><ele>29.5</ele><time>2026-05-04T09:43:07.208Z</time></trkpt><trkpt lat="45.2986617" lon="11.0366183"><ele>29.0</ele><time>2026-05-04T09:43:08.21Z</time></trkpt><trkpt lat="45.2984567" lon="11.0367667"><ele>29.0</ele><time>2026-05-04T09:43:09.209Z</time></trkpt><trkpt lat="45.29825" lon="11.0369167"><ele>29.0</ele><time>2026-05-04T09:43:10.211Z</time></trkpt><trkpt lat="45.2980417" lon="11.0370683"><ele>29.0</ele><time>2026-05-04T09:43:11.207Z</time></trkpt><trkpt lat="45.297835" lon="11.03722"><ele>29.0</ele><time>2026-05-04T09:43:12.216Z</time></trkpt><trkpt lat="45.29742" lon="11.0375317"><ele>28.5</ele><time>2026-05-04T09:43:14.212Z</time></trkpt><trkpt lat="45.2972133" lon="11.0376867"><ele>28.0</ele><time>2026-05-04T09:43:15.208Z</time></trkpt><trkpt lat="45.2970033" lon="11.0378417"><ele>28.0</ele><time>2026-05-04T09:43:16.208Z</time></trkpt><trkpt lat="45.2967933" lon="11.037995"><ele>28.0</ele><time>2026-05-04T09:43:17.208Z</time></trkpt><trkpt lat="45.2965833" lon="11.03815"><ele>28.0</ele><time>2026-05-04T09:43:18.207Z</time></trkpt><trkpt lat="45.296375" lon="11.0383017"><ele>28.0</ele><time>2026-05-04T09:43:19.212Z</time></trkpt><trkpt lat="45.2961667" lon="11.0384533"><ele>28.0</ele><time>2026-05-04T09:43:20.218Z</time></trkpt><trkpt lat="45.2959567" lon="11.0386033"><ele>28.0</ele><time>2026-05-04T09:43:21.207Z</time></trkpt><trkpt lat="45.29575" lon="11.0387567"><ele>28.0</ele><time>2026-05-04T09:43:22.217Z</time></trkpt><trkpt lat="45.2955417" lon="11.0389117"><ele>28.0</ele><time>2026-05-04T09:43:23.209Z</time></trkpt><trkpt lat="45.295335" lon="11.0390683"><ele>27.5</ele><time>2026-05-04T09:43:24.208Z</time></trkpt><trkpt lat="45.29513" lon="11.0392333"><ele>27.0</ele><time>2026-05-04T09:43:25.209Z</time></trkpt><trkpt lat="45.294925" lon="11.0394067"><ele>27.0</ele><time>2026-05-04T09:43:26.21Z</time></trkpt><trkpt lat="45.294725" lon="11.0395883"><ele>27.0</ele><time>2026-05-04T09:43:27.208Z</time></trkpt><trkpt lat="45.294525" lon="11.0397733"><ele>27.0</ele><time>2026-05-04T09:43:28.207Z</time></trkpt><trkpt lat="45.2943283" lon="11.0399533"><ele>27.0</ele><time>2026-05-04T09:43:29.213Z</time></trkpt><trkpt lat="45.2941317" lon="11.040135"><ele>27.5</ele><time>2026-05-04T09:43:30.207Z</time></trkpt><trkpt lat="45.293935" lon="11.0403133"><ele>28.0</ele><time>2026-05-04T09:43:31.215Z</time></trkpt><trkpt lat="45.29374" lon="11.0404967"><ele>28.0</ele><time>2026-05-04T09:43:32.207Z</time></trkpt><trkpt lat="45.2935433" lon="11.0406817"><ele>28.0</ele><time>2026-05-04T09:43:33.214Z</time></trkpt><trkpt lat="45.29335" lon="11.04087"><ele>28.0</ele><time>2026-05-04T09:43:34.207Z</time></trkpt><trkpt lat="45.2931583" lon="11.0410617"><ele>28.0</ele><time>2026-05-04T09:43:35.21Z</time></trkpt><trkpt lat="45.2929683" lon="11.04125"><ele>27.5</ele><time>2026-05-04T09:43:36.207Z</time></trkpt><trkpt lat="45.2927783" lon="11.0414367"><ele>27.0</ele><time>2026-05-04T09:43:37.207Z</time></trkpt><trkpt lat="45.29259" lon="11.0416233"><ele>27.0</ele><time>2026-05-04T09:43:38.222Z</time></trkpt><trkpt lat="45.292405" lon="11.0418117"><ele>27.0</ele><time>2026-05-04T09:43:39.21Z</time></trkpt><trkpt lat="45.2922233" lon="11.042"><ele>27.0</ele><time>2026-05-04T09:43:40.212Z</time></trkpt><trkpt lat="45.2920467" lon="11.0421833"><ele>27.0</ele><time>2026-05-04T09:43:41.21Z</time></trkpt><trkpt lat="45.29188" lon="11.0423533"><ele>27.0</ele><time>2026-05-04T09:43:42.213Z</time></trkpt><trkpt lat="45.291725" lon="11.0425117"><ele>27.0</ele><time>2026-05-04T09:43:43.216Z</time></trkpt><trkpt lat="45.291575" lon="11.042665"><ele>27.0</ele><time>2026-05-04T09:43:44.211Z</time></trkpt><trkpt lat="45.2914267" lon="11.0428167"><ele>27.0</ele><time>2026-05-04T09:43:45.208Z</time></trkpt><trkpt lat="45.2912767" lon="11.042965"><ele>27.0</ele><time>2026-05-04T09:43:46.209Z</time></trkpt><trkpt lat="45.29113" lon="11.0431117"><ele>27.0</ele><time>2026-05-04T09:43:47.208Z</time></trkpt><trkpt lat="45.29099" lon="11.0432517"><ele>27.0</ele><time>2026-05-04T09:43:48.209Z</time></trkpt><trkpt lat="45.2908583" lon="11.043385"><ele>27.0</ele><time>2026-05-04T09:43:49.207Z</time></trkpt><trkpt lat="45.290735" lon="11.04351"><ele>27.0</ele><time>2026-05-04T09:43:50.207Z</time></trkpt><trkpt lat="45.2906183" lon="11.04362"><ele>27.0</ele><time>2026-05-04T09:43:51.207Z</time></trkpt><trkpt lat="45.2905017" lon="11.0437067"><ele>27.0</ele><time>2026-05-04T09:43:52.207Z</time></trkpt><trkpt lat="45.29039" lon="11.0437717"><ele>26.75</ele><time>2026-05-04T09:43:53.207Z</time></trkpt><trkpt lat="45.2902817" lon="11.043855"><ele>26.5</ele><time>2026-05-04T09:43:54.207Z</time></trkpt><trkpt lat="45.290175" lon="11.0439833"><ele>26.25</ele><time>2026-05-04T09:43:55.206Z</time></trkpt><trkpt lat="45.29006" lon="11.0441367"><ele>26.0</ele><time>2026-05-04T09:43:56.208Z</time></trkpt><trkpt lat="45.28994" lon="11.044285"><ele>26.0</ele><time>2026-05-04T09:43:57.206Z</time></trkpt><trkpt lat="45.2898183" lon="11.0444183"><ele>26.0</ele><time>2026-05-04T09:43:58.206Z</time></trkpt><trkpt lat="45.2896983" lon="11.0445467"><ele>26.0</ele><time>2026-05-04T09:43:59.207Z</time></trkpt><trkpt lat="45.2895767" lon="11.044675"><ele>26.0</ele><time>2026-05-04T09:44:00.212Z</time></trkpt><trkpt lat="45.289455" lon="11.0448083"><ele>26.0</ele><time>2026-05-04T09:44:01.207Z</time></trkpt><trkpt lat="45.2893333" lon="11.04495"><ele>26.0</ele><time>2026-05-04T09:44:02.216Z</time></trkpt><trkpt lat="45.2892133" lon="11.0451"><ele>26.333333333333332</ele><time>2026-05-04T09:44:03.206Z</time></trkpt><trkpt lat="45.289095" lon="11.045255"><ele>26.666666666666664</ele><time>2026-05-04T09:44:04.214Z</time></trkpt><trkpt lat="45.2889767" lon="11.0454167"><ele>27.0</ele><time>2026-05-04T09:44:05.213Z</time></trkpt><trkpt lat="45.2888533" lon="11.0455867"><ele>27.0</ele><time>2026-05-04T09:44:06.207Z</time></trkpt><trkpt lat="45.2887283" lon="11.0457617"><ele>27.0</ele><time>2026-05-04T09:44:07.205Z</time></trkpt><trkpt lat="45.2886017" lon="11.0459383"><ele>27.0</ele><time>2026-05-04T09:44:08.209Z</time></trkpt><trkpt lat="45.2884733" lon="11.0461117"><ele>27.0</ele><time>2026-05-04T09:44:09.215Z</time></trkpt><trkpt lat="45.288335" lon="11.0462817"><ele>27.0</ele><time>2026-05-04T09:44:10.207Z</time></trkpt><trkpt lat="45.2881867" lon="11.0464383"><ele>27.0</ele><time>2026-05-04T09:44:11.207Z</time></trkpt><trkpt lat="45.2880283" lon="11.0465817"><ele>27.0</ele><time>2026-05-04T09:44:12.208Z</time></trkpt><trkpt lat="45.2878633" lon="11.0467183"><ele>27.0</ele><time>2026-05-04T09:44:13.213Z</time></trkpt><trkpt lat="45.2876967" lon="11.046845"><ele>27.0</ele><time>2026-05-04T09:44:14.206Z</time></trkpt><trkpt lat="45.2875333" lon="11.0469667"><ele>27.0</ele><time>2026-05-04T09:44:15.211Z</time></trkpt><trkpt lat="45.2873733" lon="11.0470767"><ele>27.0</ele><time>2026-05-04T09:44:16.212Z</time></trkpt><trkpt lat="45.2872117" lon="11.0471867"><ele>27.0</ele><time>2026-05-04T09:44:17.208Z</time></trkpt><trkpt lat="45.28704" lon="11.0472933"><ele>27.0</ele><time>2026-05-04T09:44:18.209Z</time></trkpt><trkpt lat="45.28685" lon="11.0473983"><ele>27.0</ele><time>2026-05-04T09:44:19.212Z</time></trkpt><trkpt lat="45.286645" lon="11.0475033"><ele>27.0</ele><time>2026-05-04T09:44:20.214Z</time></trkpt><trkpt lat="45.2864217" lon="11.047615"><ele>27.0</ele><time>2026-05-04T09:44:21.217Z</time></trkpt><trkpt lat="45.2861867" lon="11.047725"><ele>27.0</ele><time>2026-05-04T09:44:22.215Z</time></trkpt><trkpt lat="45.2859417" lon="11.0478383"><ele>27.0</ele><time>2026-05-04T09:44:23.208Z</time></trkpt><trkpt lat="45.285695" lon="11.047945"><ele>27.0</ele><time>2026-05-04T09:44:24.213Z</time></trkpt><trkpt lat="45.2854517" lon="11.04805"><ele>27.5</ele><time>2026-05-04T09:44:25.208Z</time></trkpt><trkpt lat="45.28521" lon="11.048155"><ele>28.0</ele><time>2026-05-04T09:44:26.209Z</time></trkpt><trkpt lat="45.28497" lon="11.04826"><ele>27.5</ele><time>2026-05-04T09:44:27.208Z</time></trkpt><trkpt lat="45.28473" lon="11.0483667"><ele>27.0</ele><time>2026-05-04T09:44:28.207Z</time></trkpt><trkpt lat="45.2844917" lon="11.0484733"><ele>27.0</ele><time>2026-05-04T09:44:29.21Z</time></trkpt><trkpt lat="45.284255" lon="11.0485767"><ele>27.0</ele><time>2026-05-04T09:44:30.209Z</time></trkpt><trkpt lat="45.2840183" lon="11.0486817"><ele>27.0</ele><time>2026-05-04T09:44:31.21Z</time></trkpt><trkpt lat="45.2837817" lon="11.0487883"><ele>27.0</ele><time>2026-05-04T09:44:32.212Z</time></trkpt><trkpt lat="45.2835483" lon="11.0488967"><ele>27.0</ele><time>2026-05-04T09:44:33.21Z</time></trkpt><trkpt lat="45.28331" lon="11.049005"><ele>27.0</ele><time>2026-05-04T09:44:34.213Z</time></trkpt><trkpt lat="45.2830683" lon="11.049115"><ele>27.5</ele><time>2026-05-04T09:44:35.207Z</time></trkpt><trkpt lat="45.2828183" lon="11.049225"><ele>28.0</ele><time>2026-05-04T09:44:36.206Z</time></trkpt><trkpt lat="45.282565" lon="11.0493317"><ele>28.0</ele><time>2026-05-04T09:44:37.207Z</time></trkpt><trkpt lat="45.28231" lon="11.049435"><ele>28.0</ele><time>2026-05-04T09:44:38.206Z</time></trkpt><trkpt lat="45.2820567" lon="11.0495367"><ele>27.0</ele><time>2026-05-04T09:44:39.208Z</time></trkpt><trkpt lat="45.281805" lon="11.0496367"><ele>26.0</ele><time>2026-05-04T09:44:40.208Z</time></trkpt><trkpt lat="45.281555" lon="11.049735"><ele>26.0</ele><time>2026-05-04T09:44:41.215Z</time></trkpt><trkpt lat="45.2813067" lon="11.049835"><ele>26.0</ele><time>2026-05-04T09:44:42.215Z</time></trkpt><trkpt lat="45.2810617" lon="11.049935"><ele>26.5</ele><time>2026-05-04T09:44:43.208Z</time></trkpt><trkpt lat="45.28082" lon="11.050035"><ele>27.0</ele><time>2026-05-04T09:44:44.218Z</time></trkpt><trkpt lat="45.28058" lon="11.0501367"><ele>27.0</ele><time>2026-05-04T09:44:45.209Z</time></trkpt><trkpt lat="45.2803433" lon="11.0502367"><ele>27.0</ele><time>2026-05-04T09:44:46.208Z</time></trkpt><trkpt lat="45.2801067" lon="11.05034"><ele>27.0</ele><time>2026-05-04T09:44:47.207Z</time></trkpt><trkpt lat="45.2798717" lon="11.0504467"><ele>27.0</ele><time>2026-05-04T09:44:48.209Z</time></trkpt><trkpt lat="45.2796367" lon="11.0505517"><ele>27.0</ele><time>2026-05-04T09:44:49.206Z</time></trkpt><trkpt lat="45.2794033" lon="11.0506567"><ele>27.0</ele><time>2026-05-04T09:44:50.216Z</time></trkpt><trkpt lat="45.27917" lon="11.0507633"><ele>27.0</ele><time>2026-05-04T09:44:51.215Z</time></trkpt><trkpt lat="45.2789383" lon="11.05087"><ele>27.0</ele><time>2026-05-04T09:44:52.212Z</time></trkpt><trkpt lat="45.278705" lon="11.0509783"><ele>27.0</ele><time>2026-05-04T09:44:53.206Z</time></trkpt><trkpt lat="45.2784717" lon="11.0510867"><ele>27.0</ele><time>2026-05-04T09:44:54.211Z</time></trkpt><trkpt lat="45.27824" lon="11.051195"><ele>26.0</ele><time>2026-05-04T09:44:55.209Z</time></trkpt><trkpt lat="45.2780083" lon="11.0513017"><ele>25.0</ele><time>2026-05-04T09:44:56.211Z</time></trkpt><trkpt lat="45.2777783" lon="11.0514067"><ele>25.0</ele><time>2026-05-04T09:44:57.212Z</time></trkpt><trkpt lat="45.277555" lon="11.0515083"><ele>25.0</ele><time>2026-05-04T09:44:58.209Z</time></trkpt><trkpt lat="45.277345" lon="11.051605"><ele>25.666666666666668</ele><time>2026-05-04T09:44:59.207Z</time></trkpt><trkpt lat="45.2771467" lon="11.0516933"><ele>26.333333333333336</ele><time>2026-05-04T09:45:00.207Z</time></trkpt><trkpt lat="45.27696" lon="11.0517767"><ele>27.0</ele><time>2026-05-04T09:45:01.21Z</time></trkpt><trkpt lat="45.27678" lon="11.0518583"><ele>27.0</ele><time>2026-05-04T09:45:02.208Z</time></trkpt><trkpt lat="45.276605" lon="11.0519433"><ele>27.0</ele><time>2026-05-04T09:45:03.211Z</time></trkpt><trkpt lat="45.2764333" lon="11.0520433"><ele>27.0</ele><time>2026-05-04T09:45:04.212Z</time></trkpt><trkpt lat="45.276255" lon="11.0521783"><ele>27.0</ele><time>2026-05-04T09:45:05.217Z</time></trkpt><trkpt lat="45.2760683" lon="11.0523383"><ele>27.0</ele><time>2026-05-04T09:45:06.214Z</time></trkpt><trkpt lat="45.2758783" lon="11.052505"><ele>27.0</ele><time>2026-05-04T09:45:07.205Z</time></trkpt><trkpt lat="45.27569" lon="11.0526717"><ele>26.333333333333336</ele><time>2026-05-04T09:45:08.209Z</time></trkpt><trkpt lat="45.2755" lon="11.052835"><ele>25.666666666666668</ele><time>2026-05-04T09:45:09.207Z</time></trkpt><trkpt lat="45.275315" lon="11.052995"><ele>25.0</ele><time>2026-05-04T09:45:10.207Z</time></trkpt><trkpt lat="45.2751317" lon="11.053155"><ele>25.666666666666668</ele><time>2026-05-04T09:45:11.209Z</time></trkpt><trkpt lat="45.27495" lon="11.0533117"><ele>26.333333333333336</ele><time>2026-05-04T09:45:12.208Z</time></trkpt><trkpt lat="45.27477" lon="11.053465"><ele>27.0</ele><time>2026-05-04T09:45:13.206Z</time></trkpt><trkpt lat="45.2745917" lon="11.05362"><ele>27.333333333333336</ele><time>2026-05-04T09:45:14.216Z</time></trkpt><trkpt lat="45.27442" lon="11.05377"><ele>27.666666666666668</ele><time>2026-05-04T09:45:15.206Z</time></trkpt><trkpt lat="45.2742567" lon="11.05391"><ele>28.0</ele><time>2026-05-04T09:45:16.208Z</time></trkpt><trkpt lat="45.2741033" lon="11.054045"><ele>27.666666666666668</ele><time>2026-05-04T09:45:17.21Z</time></trkpt><trkpt lat="45.2739567" lon="11.0541683"><ele>27.333333333333336</ele><time>2026-05-04T09:45:18.209Z</time></trkpt><trkpt lat="45.2738167" lon="11.0542867"><ele>27.0</ele><time>2026-05-04T09:45:19.207Z</time></trkpt><trkpt lat="45.2736767" lon="11.054405"><ele>27.0</ele><time>2026-05-04T09:45:20.208Z</time></trkpt><trkpt lat="45.2735333" lon="11.0545283"><ele>27.0</ele><time>2026-05-04T09:45:21.211Z</time></trkpt><trkpt lat="45.2733867" lon="11.0546483"><ele>27.0</ele><time>2026-05-04T09:45:22.208Z</time></trkpt><trkpt lat="45.2732367" lon="11.05476"><ele>27.0</ele><time>2026-05-04T09:45:23.206Z</time></trkpt><trkpt lat="45.2730817" lon="11.0548683"><ele>27.0</ele><time>2026-05-04T09:45:24.213Z</time></trkpt><trkpt lat="45.2729233" lon="11.054965"><ele>27.0</ele><time>2026-05-04T09:45:25.208Z</time></trkpt><trkpt lat="45.2727583" lon="11.0550467"><ele>26.666666666666664</ele><time>2026-05-04T09:45:26.206Z</time></trkpt><trkpt lat="45.272595" lon="11.0551267"><ele>26.333333333333332</ele><time>2026-05-04T09:45:27.207Z</time></trkpt><trkpt lat="45.2724317" lon="11.0552"><ele>26.0</ele><time>2026-05-04T09:45:28.207Z</time></trkpt><trkpt lat="45.27228" lon="11.0552717"><ele>26.25</ele><time>2026-05-04T09:45:29.208Z</time></trkpt><trkpt lat="45.2721367" lon="11.0553367"><ele>26.5</ele><time>2026-05-04T09:45:30.21Z</time></trkpt><trkpt lat="45.2720067" lon="11.0554"><ele>26.75</ele><time>2026-05-04T09:45:31.221Z</time></trkpt><trkpt lat="45.2718917" lon="11.0554533"><ele>27.0</ele><time>2026-05-04T09:45:32.217Z</time></trkpt><trkpt lat="45.2717967" lon="11.055485"><ele>27.0</ele><time>2026-05-04T09:45:33.209Z</time></trkpt><trkpt lat="45.271715" lon="11.0554883"><ele>27.0</ele><time>2026-05-04T09:45:34.207Z</time></trkpt><trkpt lat="45.2716417" lon="11.05546"><ele>27.0</ele><time>2026-05-04T09:45:35.207Z</time></trkpt><trkpt lat="45.27158" lon="11.0554083"><ele>27.0</ele><time>2026-05-04T09:45:36.212Z</time></trkpt><trkpt lat="45.27151" lon="11.0553617"><ele>27.0</ele><time>2026-05-04T09:45:37.207Z</time></trkpt><trkpt lat="45.27143" lon="11.055355"><ele>27.0</ele><time>2026-05-04T09:45:38.211Z</time></trkpt><trkpt lat="45.2713583" lon="11.055395"><ele>27.0</ele><time>2026-05-04T09:45:39.209Z</time></trkpt><trkpt lat="45.2713067" lon="11.0555217"><ele>27.0</ele><time>2026-05-04T09:45:40.207Z</time></trkpt><trkpt lat="45.271245" lon="11.05567"><ele>27.0</ele><time>2026-05-04T09:45:41.221Z</time></trkpt><trkpt lat="45.2711583" lon="11.0558283"><ele>27.0</ele><time>2026-05-04T09:45:42.209Z</time></trkpt><trkpt lat="45.2710433" lon="11.0559867"><ele>27.333333333333336</ele><time>2026-05-04T09:45:43.209Z</time></trkpt><trkpt lat="45.270915" lon="11.0561383"><ele>27.666666666666668</ele><time>2026-05-04T09:45:44.208Z</time></trkpt><trkpt lat="45.2707833" lon="11.0562717"><ele>28.0</ele><time>2026-05-04T09:45:45.208Z</time></trkpt><trkpt lat="45.2706517" lon="11.0563967"><ele>28.0</ele><time>2026-05-04T09:45:46.207Z</time></trkpt><trkpt lat="45.2705217" lon="11.0565233"><ele>28.0</ele><time>2026-05-04T09:45:47.207Z</time></trkpt><trkpt lat="45.2703917" lon="11.0566533"><ele>28.0</ele><time>2026-05-04T09:45:48.208Z</time></trkpt><trkpt lat="45.2702633" lon="11.05678"><ele>28.0</ele><time>2026-05-04T09:45:49.207Z</time></trkpt><trkpt lat="45.270135" lon="11.056905"><ele>28.0</ele><time>2026-05-04T09:45:50.209Z</time></trkpt><trkpt lat="45.2700067" lon="11.0570233"><ele>28.0</ele><time>2026-05-04T09:45:51.208Z</time></trkpt><trkpt lat="45.2698833" lon="11.05714"><ele>28.25</ele><time>2026-05-04T09:45:52.212Z</time></trkpt><trkpt lat="45.26976" lon="11.0572567"><ele>28.5</ele><time>2026-05-04T09:45:53.208Z</time></trkpt><trkpt lat="45.269645" lon="11.0573683"><ele>28.75</ele><time>2026-05-04T09:45:54.208Z</time></trkpt><trkpt lat="45.2695317" lon="11.0574767"><ele>29.0</ele><time>2026-05-04T09:45:55.207Z</time></trkpt><trkpt lat="45.2694217" lon="11.0575767"><ele>28.25</ele><time>2026-05-04T09:45:56.208Z</time></trkpt><trkpt lat="45.2693083" lon="11.0576633"><ele>27.5</ele><time>2026-05-04T09:45:57.208Z</time></trkpt><trkpt lat="45.2691917" lon="11.0577383"><ele>26.75</ele><time>2026-05-04T09:45:58.211Z</time></trkpt><trkpt lat="45.26908" lon="11.0578167"><ele>26.0</ele><time>2026-05-04T09:45:59.207Z</time></trkpt><trkpt lat="45.2689717" lon="11.05789"><ele>25.75</ele><time>2026-05-04T09:46:00.215Z</time></trkpt><trkpt lat="45.26886" lon="11.0579567"><ele>25.5</ele><time>2026-05-04T09:46:01.211Z</time></trkpt><trkpt lat="45.2687383" lon="11.0580133"><ele>25.25</ele><time>2026-05-04T09:46:02.21Z</time></trkpt><trkpt lat="45.2686083" lon="11.0580633"><ele>25.0</ele><time>2026-05-04T09:46:03.217Z</time></trkpt><trkpt lat="45.2684783" lon="11.0581033"><ele>25.0</ele><time>2026-05-04T09:46:04.208Z</time></trkpt><trkpt lat="45.2683533" lon="11.05814"><ele>25.0</ele><time>2026-05-04T09:46:05.209Z</time></trkpt><trkpt lat="45.2682367" lon="11.058175"><ele>25.0</ele><time>2026-05-04T09:46:06.208Z</time></trkpt><trkpt lat="45.2681283" lon="11.058205"><ele>25.0</ele><time>2026-05-04T09:46:07.208Z</time></trkpt><trkpt lat="45.26802" lon="11.0582417"><ele>25.0</ele><time>2026-05-04T09:46:08.208Z</time></trkpt><trkpt lat="45.267915" lon="11.0582733"><ele>25.0</ele><time>2026-05-04T09:46:09.208Z</time></trkpt><trkpt lat="45.2678067" lon="11.058305"><ele>25.0</ele><time>2026-05-04T09:46:10.206Z</time></trkpt><trkpt lat="45.2676967" lon="11.0583383"><ele>25.0</ele><time>2026-05-04T09:46:11.216Z</time></trkpt><trkpt lat="45.2675867" lon="11.0583717"><ele>25.0</ele><time>2026-05-04T09:46:12.215Z</time></trkpt><trkpt lat="45.267475" lon="11.058405"><ele>25.0</ele><time>2026-05-04T09:46:13.21Z</time></trkpt><trkpt lat="45.267365" lon="11.05844"><ele>25.0</ele><time>2026-05-04T09:46:14.206Z</time></trkpt><trkpt lat="45.2672533" lon="11.0584783"><ele>25.0</ele><time>2026-05-04T09:46:15.21Z</time></trkpt><trkpt lat="45.2671433" lon="11.05852"><ele>25.0</ele><time>2026-05-04T09:46:16.213Z</time></trkpt><trkpt lat="45.267035" lon="11.0585633"><ele>25.0</ele><time>2026-05-04T09:46:17.213Z</time></trkpt><trkpt lat="45.2669283" lon="11.0586083"><ele>25.0</ele><time>2026-05-04T09:46:18.209Z</time></trkpt><trkpt lat="45.2668233" lon="11.058655"><ele>25.0</ele><time>2026-05-04T09:46:19.207Z</time></trkpt><trkpt lat="45.2667183" lon="11.0586983"><ele>25.0</ele><time>2026-05-04T09:46:20.209Z</time></trkpt><trkpt lat="45.2666117" lon="11.0587417"><ele>25.0</ele><time>2026-05-04T09:46:21.209Z</time></trkpt><trkpt lat="45.266505" lon="11.0587783"><ele>24.666666666666668</ele><time>2026-05-04T09:46:22.215Z</time></trkpt><trkpt lat="45.266395" lon="11.0588117"><ele>24.333333333333336</ele><time>2026-05-04T09:46:23.214Z</time></trkpt><trkpt lat="45.2661583" lon="11.0588683"><ele>24.0</ele><time>2026-05-04T09:46:25.211Z</time></trkpt><trkpt lat="45.2660333" lon="11.0588883"><ele>24.0</ele><time>2026-05-04T09:46:26.208Z</time></trkpt><trkpt lat="45.2659033" lon="11.0589133"><ele>24.0</ele><time>2026-05-04T09:46:27.207Z</time></trkpt><trkpt lat="45.26577" lon="11.0589383"><ele>24.0</ele><time>2026-05-04T09:46:28.208Z</time></trkpt><trkpt lat="45.2656333" lon="11.0589633"><ele>24.0</ele><time>2026-05-04T09:46:29.213Z</time></trkpt><trkpt lat="45.265495" lon="11.0589983"><ele>24.0</ele><time>2026-05-04T09:46:30.207Z</time></trkpt><trkpt lat="45.265355" lon="11.0590417"><ele>24.0</ele><time>2026-05-04T09:46:31.207Z</time></trkpt><trkpt lat="45.265215" lon="11.0590867"><ele>24.0</ele><time>2026-05-04T09:46:32.21Z</time></trkpt><trkpt lat="45.2650783" lon="11.0591333"><ele>24.0</ele><time>2026-05-04T09:46:33.213Z</time></trkpt><trkpt lat="45.2649417" lon="11.0591833"><ele>24.0</ele><time>2026-05-04T09:46:34.21Z</time></trkpt><trkpt lat="45.2648017" lon="11.0592367"><ele>24.0</ele><time>2026-05-04T09:46:35.207Z</time></trkpt><trkpt lat="45.264655" lon="11.0592917"><ele>24.0</ele><time>2026-05-04T09:46:36.209Z</time></trkpt><trkpt lat="45.2645033" lon="11.059345"><ele>23.666666666666668</ele><time>2026-05-04T09:46:37.209Z</time></trkpt><trkpt lat="45.2643483" lon="11.0593933"><ele>23.333333333333336</ele><time>2026-05-04T09:46:38.208Z</time></trkpt><trkpt lat="45.2641867" lon="11.0594433"><ele>23.0</ele><time>2026-05-04T09:46:39.206Z</time></trkpt><trkpt lat="45.2640233" lon="11.0594933"><ele>23.333333333333336</ele><time>2026-05-04T09:46:40.208Z</time></trkpt><trkpt lat="45.2638567" lon="11.0595433"><ele>23.666666666666668</ele><time>2026-05-04T09:46:41.207Z</time></trkpt><trkpt lat="45.263685" lon="11.059585"><ele>24.0</ele><time>2026-05-04T09:46:42.213Z</time></trkpt><trkpt lat="45.2635133" lon="11.05962"><ele>24.0</ele><time>2026-05-04T09:46:43.211Z</time></trkpt><trkpt lat="45.2633383" lon="11.0596533"><ele>24.0</ele><time>2026-05-04T09:46:44.208Z</time></trkpt><trkpt lat="45.2631633" lon="11.0596933"><ele>24.0</ele><time>2026-05-04T09:46:45.207Z</time></trkpt><trkpt lat="45.2629883" lon="11.059745"><ele>23.666666666666668</ele><time>2026-05-04T09:46:46.211Z</time></trkpt><trkpt lat="45.2628133" lon="11.0597983"><ele>23.333333333333336</ele><time>2026-05-04T09:46:47.211Z</time></trkpt><trkpt lat="45.2626383" lon="11.0598533"><ele>23.0</ele><time>2026-05-04T09:46:48.212Z</time></trkpt><trkpt lat="45.2624633" lon="11.0599083"><ele>23.0</ele><time>2026-05-04T09:46:49.215Z</time></trkpt><trkpt lat="45.262285" lon="11.0599667"><ele>23.0</ele><time>2026-05-04T09:46:50.208Z</time></trkpt><trkpt lat="45.2620967" lon="11.0600283"><ele>23.0</ele><time>2026-05-04T09:46:51.207Z</time></trkpt><trkpt lat="45.2619067" lon="11.0600917"><ele>23.0</ele><time>2026-05-04T09:46:52.206Z</time></trkpt><trkpt lat="45.2617183" lon="11.060155"><ele>23.0</ele><time>2026-05-04T09:46:53.209Z</time></trkpt><trkpt lat="45.2615367" lon="11.060215"><ele>23.0</ele><time>2026-05-04T09:46:54.222Z</time></trkpt><trkpt lat="45.26137" lon="11.06027"><ele>23.333333333333336</ele><time>2026-05-04T09:46:55.211Z</time></trkpt><trkpt lat="45.2612167" lon="11.0603367"><ele>23.666666666666668</ele><time>2026-05-04T09:46:56.209Z</time></trkpt><trkpt lat="45.261065" lon="11.0604417"><ele>24.0</ele><time>2026-05-04T09:46:57.206Z</time></trkpt><trkpt lat="45.26091" lon="11.0605867"><ele>24.0</ele><time>2026-05-04T09:46:58.209Z</time></trkpt><trkpt lat="45.260755" lon="11.0607517"><ele>24.0</ele><time>2026-05-04T09:46:59.213Z</time></trkpt><trkpt lat="45.2606" lon="11.0609267"><ele>24.0</ele><time>2026-05-04T09:47:00.207Z</time></trkpt><trkpt lat="45.2604383" lon="11.0611133"><ele>24.333333333333336</ele><time>2026-05-04T09:47:01.215Z</time></trkpt><trkpt lat="45.2602733" lon="11.06131"><ele>24.666666666666668</ele><time>2026-05-04T09:47:02.215Z</time></trkpt><trkpt lat="45.2601067" lon="11.0615083"><ele>25.0</ele><time>2026-05-04T09:47:03.219Z</time></trkpt><trkpt lat="45.259945" lon="11.0617"><ele>25.0</ele><time>2026-05-04T09:47:04.208Z</time></trkpt><trkpt lat="45.2597883" lon="11.06188"><ele>25.0</ele><time>2026-05-04T09:47:05.207Z</time></trkpt><trkpt lat="45.259655" lon="11.0620433"><ele>25.0</ele><time>2026-05-04T09:47:06.206Z</time></trkpt><trkpt lat="45.2595533" lon="11.0622083"><ele>25.333333333333336</ele><time>2026-05-04T09:47:07.208Z</time></trkpt><trkpt lat="45.25949" lon="11.0624067"><ele>25.666666666666664</ele><time>2026-05-04T09:47:08.209Z</time></trkpt><trkpt lat="45.2594483" lon="11.0626417"><ele>26.0</ele><time>2026-05-04T09:47:09.211Z</time></trkpt><trkpt lat="45.25942" lon="11.062905"><ele>26.0</ele><time>2026-05-04T09:47:10.217Z</time></trkpt><trkpt lat="45.2593983" lon="11.0631833"><ele>26.0</ele><time>2026-05-04T09:47:11.209Z</time></trkpt><trkpt lat="45.2593717" lon="11.0634733"><ele>26.0</ele><time>2026-05-04T09:47:12.213Z</time></trkpt><trkpt lat="45.259345" lon="11.0637667"><ele>25.666666666666664</ele><time>2026-05-04T09:47:13.214Z</time></trkpt><trkpt lat="45.2593167" lon="11.0640617"><ele>25.333333333333336</ele><time>2026-05-04T09:47:14.212Z</time></trkpt><trkpt lat="45.2592883" lon="11.064355"><ele>25.0</ele><time>2026-05-04T09:47:15.212Z</time></trkpt><trkpt lat="45.2592467" lon="11.06464"><ele>24.666666666666668</ele><time>2026-05-04T09:47:16.208Z</time></trkpt><trkpt lat="45.2591833" lon="11.0649117"><ele>24.333333333333336</ele><time>2026-05-04T09:47:17.209Z</time></trkpt><trkpt lat="45.259105" lon="11.0651733"><ele>24.0</ele><time>2026-05-04T09:47:18.213Z</time></trkpt><trkpt lat="45.2590217" lon="11.0654283"><ele>23.666666666666668</ele><time>2026-05-04T09:47:19.208Z</time></trkpt><trkpt lat="45.2589333" lon="11.0656817"><ele>23.333333333333336</ele><time>2026-05-04T09:47:20.211Z</time></trkpt><trkpt lat="45.25884" lon="11.0659183"><ele>23.0</ele><time>2026-05-04T09:47:21.213Z</time></trkpt><trkpt lat="45.2587333" lon="11.06613"><ele>23.0</ele><time>2026-05-04T09:47:22.208Z</time></trkpt><trkpt lat="45.2586033" lon="11.066325"><ele>23.0</ele><time>2026-05-04T09:47:23.211Z</time></trkpt><trkpt lat="45.25844" lon="11.0665067"><ele>23.0</ele><time>2026-05-04T09:47:24.21Z</time></trkpt><trkpt lat="45.25825" lon="11.06668"><ele>23.5</ele><time>2026-05-04T09:47:25.211Z</time></trkpt><trkpt lat="45.2580433" lon="11.06684"><ele>24.0</ele><time>2026-05-04T09:47:26.212Z</time></trkpt><trkpt lat="45.2578317" lon="11.0669983"><ele>24.0</ele><time>2026-05-04T09:47:27.211Z</time></trkpt><trkpt lat="45.2576317" lon="11.06715"><ele>24.0</ele><time>2026-05-04T09:47:28.214Z</time></trkpt><trkpt lat="45.257455" lon="11.0672883"><ele>24.0</ele><time>2026-05-04T09:47:29.213Z</time></trkpt><trkpt lat="45.2573033" lon="11.0674233"><ele>23.666666666666668</ele><time>2026-05-04T09:47:30.208Z</time></trkpt><trkpt lat="45.2571783" lon="11.0675767"><ele>23.333333333333336</ele><time>2026-05-04T09:47:31.21Z</time></trkpt><trkpt lat="45.2570733" lon="11.0677733"><ele>23.0</ele><time>2026-05-04T09:47:32.215Z</time></trkpt><trkpt lat="45.2569883" lon="11.068015"><ele>23.5</ele><time>2026-05-04T09:47:33.209Z</time></trkpt><trkpt lat="45.2569183" lon="11.0682983"><ele>24.0</ele><time>2026-05-04T09:47:34.213Z</time></trkpt><trkpt lat="45.2567967" lon="11.0688983"><ele>23.666666666666668</ele><time>2026-05-04T09:47:36.208Z</time></trkpt><trkpt lat="45.2567417" lon="11.0691833"><ele>23.333333333333336</ele><time>2026-05-04T09:47:37.207Z</time></trkpt><trkpt lat="45.25669" lon="11.0694367"><ele>23.0</ele><time>2026-05-04T09:47:38.215Z</time></trkpt><trkpt lat="45.2566417" lon="11.0696517"><ele>23.0</ele><time>2026-05-04T09:47:39.213Z</time></trkpt><trkpt lat="45.2565767" lon="11.0698283"><ele>23.0</ele><time>2026-05-04T09:47:40.209Z</time></trkpt><trkpt lat="45.2564783" lon="11.0699683"><ele>23.0</ele><time>2026-05-04T09:47:41.209Z</time></trkpt><trkpt lat="45.2563383" lon="11.0700767"><ele>23.0</ele><time>2026-05-04T09:47:42.209Z</time></trkpt><trkpt lat="45.2561667" lon="11.0701533"><ele>23.0</ele><time>2026-05-04T09:47:43.208Z</time></trkpt><trkpt lat="45.2559717" lon="11.0702067"><ele>23.0</ele><time>2026-05-04T09:47:44.207Z</time></trkpt><trkpt lat="45.2557567" lon="11.07026"><ele>23.0</ele><time>2026-05-04T09:47:45.208Z</time></trkpt><trkpt lat="45.2555333" lon="11.07032"><ele>23.5</ele><time>2026-05-04T09:47:46.214Z</time></trkpt><trkpt lat="45.2553033" lon="11.070385"><ele>24.0</ele><time>2026-05-04T09:47:47.213Z</time></trkpt><trkpt lat="45.2550667" lon="11.0704533"><ele>24.0</ele><time>2026-05-04T09:47:48.208Z</time></trkpt><trkpt lat="45.2548317" lon="11.07052"><ele>24.0</ele><time>2026-05-04T09:47:49.325Z</time></trkpt><trkpt lat="45.254385" lon="11.0706533"><ele>24.0</ele><time>2026-05-04T09:47:51.207Z</time></trkpt><trkpt lat="45.25417" lon="11.0707183"><ele>24.0</ele><time>2026-05-04T09:47:52.206Z</time></trkpt><trkpt lat="45.25396" lon="11.07078"><ele>24.0</ele><time>2026-05-04T09:47:53.221Z</time></trkpt><trkpt lat="45.2537517" lon="11.0708433"><ele>23.666666666666668</ele><time>2026-05-04T09:47:54.211Z</time></trkpt><trkpt lat="45.253545" lon="11.0709183"><ele>23.333333333333336</ele><time>2026-05-04T09:47:55.213Z</time></trkpt><trkpt lat="45.2533433" lon="11.0710083"><ele>23.0</ele><time>2026-05-04T09:47:56.207Z</time></trkpt><trkpt lat="45.253145" lon="11.0711217"><ele>23.333333333333336</ele><time>2026-05-04T09:47:57.217Z</time></trkpt><trkpt lat="45.2529517" lon="11.0712617"><ele>23.666666666666668</ele><time>2026-05-04T09:47:58.217Z</time></trkpt><trkpt lat="45.252765" lon="11.0714233"><ele>24.0</ele><time>2026-05-04T09:47:59.211Z</time></trkpt><trkpt lat="45.252585" lon="11.0716067"><ele>23.5</ele><time>2026-05-04T09:48:00.208Z</time></trkpt><trkpt lat="45.2524083" lon="11.071805"><ele>23.0</ele><time>2026-05-04T09:48:01.208Z</time></trkpt><trkpt lat="45.2522317" lon="11.0720117"><ele>23.0</ele><time>2026-05-04T09:48:02.22Z</time></trkpt><trkpt lat="45.2520533" lon="11.07222"><ele>23.0</ele><time>2026-05-04T09:48:03.212Z</time></trkpt><trkpt lat="45.251875" lon="11.0724267"><ele>22.5</ele><time>2026-05-04T09:48:04.21Z</time></trkpt><trkpt lat="45.2516967" lon="11.0726333"><ele>22.0</ele><time>2026-05-04T09:48:05.208Z</time></trkpt><trkpt lat="45.2515167" lon="11.0728383"><ele>22.0</ele><time>2026-05-04T09:48:06.208Z</time></trkpt><trkpt lat="45.2513433" lon="11.0730433"><ele>22.0</ele><time>2026-05-04T09:48:07.206Z</time></trkpt><trkpt lat="45.25118" lon="11.0732433"><ele>22.0</ele><time>2026-05-04T09:48:08.21Z</time></trkpt><trkpt lat="45.251025" lon="11.0734317"><ele>22.0</ele><time>2026-05-04T09:48:09.209Z</time></trkpt><trkpt lat="45.2508733" lon="11.073615"><ele>22.0</ele><time>2026-05-04T09:48:10.214Z</time></trkpt><trkpt lat="45.250725" lon="11.0738117"><ele>22.0</ele><time>2026-05-04T09:48:11.214Z</time></trkpt><trkpt lat="45.2505917" lon="11.0740283"><ele>22.333333333333332</ele><time>2026-05-04T09:48:12.218Z</time></trkpt><trkpt lat="45.250475" lon="11.0742717"><ele>22.666666666666668</ele><time>2026-05-04T09:48:13.209Z</time></trkpt><trkpt lat="45.2503733" lon="11.0745417"><ele>23.0</ele><time>2026-05-04T09:48:14.208Z</time></trkpt><trkpt lat="45.2502767" lon="11.0748267"><ele>22.5</ele><time>2026-05-04T09:48:15.215Z</time></trkpt><trkpt lat="45.2501783" lon="11.0751167"><ele>22.0</ele><time>2026-05-04T09:48:16.211Z</time></trkpt><trkpt lat="45.2500783" lon="11.07541"><ele>22.0</ele><time>2026-05-04T09:48:17.22Z</time></trkpt><trkpt lat="45.2499767" lon="11.0757033"><ele>22.0</ele><time>2026-05-04T09:48:18.208Z</time></trkpt><trkpt lat="45.2498767" lon="11.0759933"><ele>22.5</ele><time>2026-05-04T09:48:19.209Z</time></trkpt><trkpt lat="45.249775" lon="11.07628"><ele>23.0</ele><time>2026-05-04T09:48:20.213Z</time></trkpt><trkpt lat="45.2496683" lon="11.0765667"><ele>23.0</ele><time>2026-05-04T09:48:21.209Z</time></trkpt><trkpt lat="45.249555" lon="11.0768533"><ele>23.0</ele><time>2026-05-04T09:48:22.213Z</time></trkpt><trkpt lat="45.2494483" lon="11.0771433"><ele>22.0</ele><time>2026-05-04T09:48:23.209Z</time></trkpt><trkpt lat="45.24935" lon="11.0774417"><ele>21.0</ele><time>2026-05-04T09:48:24.208Z</time></trkpt><trkpt lat="45.2492667" lon="11.077765"><ele>21.0</ele><time>2026-05-04T09:48:25.207Z</time></trkpt><trkpt lat="45.2491933" lon="11.078105"><ele>21.0</ele><time>2026-05-04T09:48:26.207Z</time></trkpt><trkpt lat="45.2491233" lon="11.0784517"><ele>21.0</ele><time>2026-05-04T09:48:27.207Z</time></trkpt><trkpt lat="45.2490533" lon="11.0787933"><ele>21.0</ele><time>2026-05-04T09:48:28.207Z</time></trkpt><trkpt lat="45.2489833" lon="11.0791267"><ele>21.5</ele><time>2026-05-04T09:48:29.216Z</time></trkpt><trkpt lat="45.2489133" lon="11.0794467"><ele>22.0</ele><time>2026-05-04T09:48:30.207Z</time></trkpt><trkpt lat="45.24884" lon="11.0797567"><ele>22.666666666666664</ele><time>2026-05-04T09:48:31.208Z</time></trkpt><trkpt lat="45.2487517" lon="11.0800517"><ele>23.333333333333332</ele><time>2026-05-04T09:48:32.21Z</time></trkpt><trkpt lat="45.24865" lon="11.08033"><ele>24.0</ele><time>2026-05-04T09:48:33.207Z</time></trkpt><trkpt lat="45.2485317" lon="11.0805933"><ele>24.0</ele><time>2026-05-04T09:48:34.213Z</time></trkpt><trkpt lat="45.2483983" lon="11.08084"><ele>24.0</ele><time>2026-05-04T09:48:35.208Z</time></trkpt><trkpt lat="45.248255" lon="11.0810733"><ele>24.0</ele><time>2026-05-04T09:48:36.209Z</time></trkpt><trkpt lat="45.2481083" lon="11.081295"><ele>24.0</ele><time>2026-05-04T09:48:37.21Z</time></trkpt><trkpt lat="45.2479633" lon="11.08151"><ele>24.0</ele><time>2026-05-04T09:48:38.21Z</time></trkpt><trkpt lat="45.24782" lon="11.0817167"><ele>24.0</ele><time>2026-05-04T09:48:39.215Z</time></trkpt><trkpt lat="45.2476767" lon="11.0819267"><ele>23.666666666666668</ele><time>2026-05-04T09:48:40.211Z</time></trkpt><trkpt lat="45.2475367" lon="11.0821267"><ele>23.333333333333336</ele><time>2026-05-04T09:48:41.207Z</time></trkpt><trkpt lat="45.2474033" lon="11.0823117"><ele>23.0</ele><time>2026-05-04T09:48:42.206Z</time></trkpt><trkpt lat="45.247275" lon="11.0824817"><ele>23.0</ele><time>2026-05-04T09:48:43.206Z</time></trkpt><trkpt lat="45.24715" lon="11.08263"><ele>23.0</ele><time>2026-05-04T09:48:44.212Z</time></trkpt><trkpt lat="45.2470267" lon="11.0827467"><ele>23.0</ele><time>2026-05-04T09:48:45.207Z</time></trkpt><trkpt lat="45.246905" lon="11.082835"><ele>23.0</ele><time>2026-05-04T09:48:46.211Z</time></trkpt><trkpt lat="45.2467867" lon="11.0829083"><ele>23.0</ele><time>2026-05-04T09:48:47.211Z</time></trkpt><trkpt lat="45.2466767" lon="11.0829683"><ele>23.0</ele><time>2026-05-04T09:48:48.209Z</time></trkpt><trkpt lat="45.2465717" lon="11.08301"><ele>23.0</ele><time>2026-05-04T09:48:49.217Z</time></trkpt><trkpt lat="45.246475" lon="11.08303"><ele>23.0</ele><time>2026-05-04T09:48:50.211Z</time></trkpt><trkpt lat="45.2463783" lon="11.0830217"><ele>23.0</ele><time>2026-05-04T09:48:51.207Z</time></trkpt><trkpt lat="45.2462767" lon="11.083005"><ele>22.5</ele><time>2026-05-04T09:48:52.213Z</time></trkpt><trkpt lat="45.2461683" lon="11.083015"><ele>22.0</ele><time>2026-05-04T09:48:53.207Z</time></trkpt><trkpt lat="45.2460533" lon="11.0830217"><ele>21.5</ele><time>2026-05-04T09:48:54.207Z</time></trkpt><trkpt lat="45.2459233" lon="11.0829867"><ele>21.0</ele><time>2026-05-04T09:48:55.212Z</time></trkpt><trkpt lat="45.2457783" lon="11.0829"><ele>21.0</ele><time>2026-05-04T09:48:56.213Z</time></trkpt><trkpt lat="45.2456333" lon="11.0827833"><ele>21.0</ele><time>2026-05-04T09:48:57.206Z</time></trkpt><trkpt lat="45.2454967" lon="11.0826633"><ele>21.0</ele><time>2026-05-04T09:48:58.207Z</time></trkpt><trkpt lat="45.2453683" lon="11.0825517"><ele>21.5</ele><time>2026-05-04T09:48:59.207Z</time></trkpt><trkpt lat="45.245245" lon="11.0824383"><ele>22.0</ele><time>2026-05-04T09:49:00.205Z</time></trkpt><trkpt lat="45.2451183" lon="11.0823333"><ele>22.5</ele><time>2026-05-04T09:49:01.211Z</time></trkpt><trkpt lat="45.2449833" lon="11.0822433"><ele>23.0</ele><time>2026-05-04T09:49:02.212Z</time></trkpt><trkpt lat="45.244845" lon="11.0821617"><ele>23.0</ele><time>2026-05-04T09:49:03.211Z</time></trkpt><trkpt lat="45.244705" lon="11.0820817"><ele>23.0</ele><time>2026-05-04T09:49:04.21Z</time></trkpt><trkpt lat="45.2445667" lon="11.0819983"><ele>23.0</ele><time>2026-05-04T09:49:05.206Z</time></trkpt><trkpt lat="45.244425" lon="11.08192"><ele>23.0</ele><time>2026-05-04T09:49:06.207Z</time></trkpt><trkpt lat="45.24428" lon="11.0818467"><ele>23.0</ele><time>2026-05-04T09:49:07.208Z</time></trkpt><trkpt lat="45.24413" lon="11.0817783"><ele>23.0</ele><time>2026-05-04T09:49:08.21Z</time></trkpt><trkpt lat="45.2439767" lon="11.08171"><ele>22.75</ele><time>2026-05-04T09:49:09.21Z</time></trkpt><trkpt lat="45.2438367" lon="11.0816517"><ele>22.5</ele><time>2026-05-04T09:49:10.208Z</time></trkpt><trkpt lat="45.243715" lon="11.0816217"><ele>22.25</ele><time>2026-05-04T09:49:11.208Z</time></trkpt><trkpt lat="45.2436017" lon="11.0816417"><ele>22.0</ele><time>2026-05-04T09:49:12.21Z</time></trkpt><trkpt lat="45.2435" lon="11.0817117"><ele>22.0</ele><time>2026-05-04T09:49:13.209Z</time></trkpt><trkpt lat="45.2434133" lon="11.081835"><ele>22.0</ele><time>2026-05-04T09:49:14.207Z</time></trkpt><trkpt lat="45.2433433" lon="11.08199"><ele>22.0</ele><time>2026-05-04T09:49:15.207Z</time></trkpt><trkpt lat="45.2432867" lon="11.0821567"><ele>22.0</ele><time>2026-05-04T09:49:16.211Z</time></trkpt><trkpt lat="45.2432317" lon="11.0823167"><ele>22.0</ele><time>2026-05-04T09:49:17.213Z</time></trkpt><trkpt lat="45.2431833" lon="11.0824717"><ele>22.0</ele><time>2026-05-04T09:49:18.209Z</time></trkpt><trkpt lat="45.243135" lon="11.0826233"><ele>22.0</ele><time>2026-05-04T09:49:19.209Z</time></trkpt><trkpt lat="45.2430867" lon="11.0827683"><ele>22.0</ele><time>2026-05-04T09:49:20.209Z</time></trkpt><trkpt lat="45.2430417" lon="11.0829133"><ele>22.200000000000003</ele><time>2026-05-04T09:49:21.21Z</time></trkpt><trkpt lat="45.242995" lon="11.08305"><ele>22.4</ele><time>2026-05-04T09:49:22.21Z</time></trkpt><trkpt lat="45.2429517" lon="11.0831833"><ele>22.6</ele><time>2026-05-04T09:49:23.208Z</time></trkpt><trkpt lat="45.2429083" lon="11.08331"><ele>22.799999999999997</ele><time>2026-05-04T09:49:24.206Z</time></trkpt><trkpt lat="45.2428667" lon="11.083425"><ele>23.0</ele><time>2026-05-04T09:49:25.207Z</time></trkpt><trkpt lat="45.2428283" lon="11.0835317"><ele>23.0</ele><time>2026-05-04T09:49:26.207Z</time></trkpt><trkpt lat="45.2427867" lon="11.0836233"><ele>23.0</ele><time>2026-05-04T09:49:27.208Z</time></trkpt><trkpt lat="45.2427417" lon="11.083695"><ele>23.0</ele><time>2026-05-04T09:49:28.207Z</time></trkpt><trkpt lat="45.2426983" lon="11.0837667"><ele>23.0</ele><time>2026-05-04T09:49:29.208Z</time></trkpt><trkpt lat="45.2426683" lon="11.0838517"><ele>23.0</ele><time>2026-05-04T09:49:30.207Z</time></trkpt><trkpt lat="45.2426517" lon="11.08396"><ele>23.0</ele><time>2026-05-04T09:49:31.208Z</time></trkpt><trkpt lat="45.2426567" lon="11.0840933"><ele>23.0</ele><time>2026-05-04T09:49:32.211Z</time></trkpt><trkpt lat="45.242665" lon="11.0842283"><ele>23.0</ele><time>2026-05-04T09:49:33.209Z</time></trkpt><trkpt lat="45.2426683" lon="11.0843617"><ele>23.0</ele><time>2026-05-04T09:49:34.208Z</time></trkpt><trkpt lat="45.2426717" lon="11.0844883"><ele>23.0</ele><time>2026-05-04T09:49:35.217Z</time></trkpt><trkpt lat="45.242675" lon="11.0846067"><ele>23.0</ele><time>2026-05-04T09:49:36.21Z</time></trkpt><trkpt lat="45.2426783" lon="11.0847083"><ele>23.0</ele><time>2026-05-04T09:49:37.208Z</time></trkpt><trkpt lat="45.2426867" lon="11.0848833"><ele>22.799999999999997</ele><time>2026-05-04T09:49:39.215Z</time></trkpt><trkpt lat="45.24269" lon="11.0849883"><ele>22.6</ele><time>2026-05-04T09:49:40.216Z</time></trkpt><trkpt lat="45.2426933" lon="11.085115"><ele>22.4</ele><time>2026-05-04T09:49:41.209Z</time></trkpt><trkpt lat="45.2426967" lon="11.08525"><ele>22.200000000000003</ele><time>2026-05-04T09:49:42.212Z</time></trkpt><trkpt lat="45.2427033" lon="11.0853933"><ele>22.0</ele><time>2026-05-04T09:49:43.208Z</time></trkpt><trkpt lat="45.2427117" lon="11.08554"><ele>22.0</ele><time>2026-05-04T09:49:44.214Z</time></trkpt><trkpt lat="45.2427217" lon="11.0856783"><ele>22.0</ele><time>2026-05-04T09:49:45.21Z</time></trkpt><trkpt lat="45.2427283" lon="11.0858033"><ele>22.0</ele><time>2026-05-04T09:49:46.208Z</time></trkpt><trkpt lat="45.2427333" lon="11.0859217"><ele>22.0</ele><time>2026-05-04T09:49:47.207Z</time></trkpt><trkpt lat="45.24274" lon="11.0860317"><ele>22.0</ele><time>2026-05-04T09:49:48.21Z</time></trkpt><trkpt lat="45.242745" lon="11.086135"><ele>22.0</ele><time>2026-05-04T09:49:49.207Z</time></trkpt><trkpt lat="45.2427583" lon="11.0862417"><ele>22.0</ele><time>2026-05-04T09:49:50.209Z</time></trkpt><trkpt lat="45.24277" lon="11.0863433"><ele>22.0</ele><time>2026-05-04T09:49:51.207Z</time></trkpt><trkpt lat="45.2427817" lon="11.086445"><ele>22.0</ele><time>2026-05-04T09:49:52.209Z</time></trkpt><trkpt lat="45.2427883" lon="11.0865417"><ele>22.0</ele><time>2026-05-04T09:49:53.207Z</time></trkpt><trkpt lat="45.2427967" lon="11.0866417"><ele>22.0</ele><time>2026-05-04T09:49:54.207Z</time></trkpt><trkpt lat="45.2428067" lon="11.086745"><ele>22.0</ele><time>2026-05-04T09:49:55.215Z</time></trkpt><trkpt lat="45.242815" lon="11.0868533"><ele>22.0</ele><time>2026-05-04T09:49:56.208Z</time></trkpt><trkpt lat="45.2428217" lon="11.0869733"><ele>22.0</ele><time>2026-05-04T09:49:57.207Z</time></trkpt><trkpt lat="45.2428317" lon="11.087105"><ele>22.0</ele><time>2026-05-04T09:49:58.213Z</time></trkpt><trkpt lat="45.2428417" lon="11.0872517"><ele>22.0</ele><time>2026-05-04T09:49:59.215Z</time></trkpt><trkpt lat="45.2428433" lon="11.0874267"><ele>22.0</ele><time>2026-05-04T09:50:00.218Z</time></trkpt><trkpt lat="45.242835" lon="11.0876333"><ele>22.0</ele><time>2026-05-04T09:50:01.209Z</time></trkpt><trkpt lat="45.242825" lon="11.0878767"><ele>22.0</ele><time>2026-05-04T09:50:02.207Z</time></trkpt><trkpt lat="45.2428183" lon="11.08811"><ele>22.0</ele><time>2026-05-04T09:50:03.208Z</time></trkpt><trkpt lat="45.242805" lon="11.0883683"><ele>22.0</ele><time>2026-05-04T09:50:04.21Z</time></trkpt><trkpt lat="45.2427917" lon="11.0886283"><ele>22.0</ele><time>2026-05-04T09:50:05.215Z</time></trkpt><trkpt lat="45.24278" lon="11.0888817"><ele>22.0</ele><time>2026-05-04T09:50:06.215Z</time></trkpt><trkpt lat="45.2427617" lon="11.0891417"><ele>22.333333333333332</ele><time>2026-05-04T09:50:07.209Z</time></trkpt><trkpt lat="45.2427267" lon="11.0894067"><ele>22.666666666666668</ele><time>2026-05-04T09:50:08.212Z</time></trkpt><trkpt lat="45.2426767" lon="11.0896783"><ele>23.0</ele><time>2026-05-04T09:50:09.209Z</time></trkpt><trkpt lat="45.242615" lon="11.0899383"><ele>23.0</ele><time>2026-05-04T09:50:10.207Z</time></trkpt><trkpt lat="45.2425433" lon="11.0901833"><ele>23.0</ele><time>2026-05-04T09:50:11.209Z</time></trkpt><trkpt lat="45.242465" lon="11.0904133"><ele>23.0</ele><time>2026-05-04T09:50:12.209Z</time></trkpt><trkpt lat="45.24239" lon="11.09064"><ele>23.0</ele><time>2026-05-04T09:50:13.206Z</time></trkpt><trkpt lat="45.2423133" lon="11.0908567"><ele>23.0</ele><time>2026-05-04T09:50:14.209Z</time></trkpt><trkpt lat="45.2422417" lon="11.091075"><ele>23.0</ele><time>2026-05-04T09:50:15.208Z</time></trkpt><trkpt lat="45.2421733" lon="11.091295"><ele>23.0</ele><time>2026-05-04T09:50:16.209Z</time></trkpt><trkpt lat="45.2421133" lon="11.091505"><ele>23.0</ele><time>2026-05-04T09:50:17.209Z</time></trkpt><trkpt lat="45.2420633" lon="11.091705"><ele>23.0</ele><time>2026-05-04T09:50:18.207Z</time></trkpt><trkpt lat="45.2420233" lon="11.09189"><ele>23.0</ele><time>2026-05-04T09:50:19.207Z</time></trkpt><trkpt lat="45.2419933" lon="11.0920517"><ele>22.799999999999997</ele><time>2026-05-04T09:50:20.212Z</time></trkpt><trkpt lat="45.241965" lon="11.0921883"><ele>22.6</ele><time>2026-05-04T09:50:21.206Z</time></trkpt><trkpt lat="45.2419267" lon="11.09231"><ele>22.4</ele><time>2026-05-04T09:50:22.207Z</time></trkpt><trkpt lat="45.2418617" lon="11.0923967"><ele>22.200000000000003</ele><time>2026-05-04T09:50:23.208Z</time></trkpt><trkpt lat="45.24177" lon="11.0924367"><ele>22.0</ele><time>2026-05-04T09:50:24.208Z</time></trkpt><trkpt lat="45.2416533" lon="11.0924283"><ele>22.0</ele><time>2026-05-04T09:50:25.209Z</time></trkpt><trkpt lat="45.2415133" lon="11.0924083"><ele>22.0</ele><time>2026-05-04T09:50:26.208Z</time></trkpt><trkpt lat="45.2413767" lon="11.0923867"><ele>22.0</ele><time>2026-05-04T09:50:27.208Z</time></trkpt><trkpt lat="45.2412517" lon="11.09237"><ele>22.0</ele><time>2026-05-04T09:50:28.208Z</time></trkpt><trkpt lat="45.2411417" lon="11.0923583"><ele>21.833333333333332</ele><time>2026-05-04T09:50:29.208Z</time></trkpt><trkpt lat="45.2410467" lon="11.092345"><ele>21.666666666666664</ele><time>2026-05-04T09:50:30.209Z</time></trkpt><trkpt lat="45.2409617" lon="11.0923283"><ele>21.5</ele><time>2026-05-04T09:50:31.208Z</time></trkpt><trkpt lat="45.2408783" lon="11.0923167"><ele>21.333333333333332</ele><time>2026-05-04T09:50:32.208Z</time></trkpt><trkpt lat="45.2407983" lon="11.092305"><ele>21.166666666666668</ele><time>2026-05-04T09:50:33.208Z</time></trkpt><trkpt lat="45.2407267" lon="11.09229"><ele>21.0</ele><time>2026-05-04T09:50:34.208Z</time></trkpt><trkpt lat="45.2406583" lon="11.0922717"><ele>20.857142857142858</ele><time>2026-05-04T09:50:35.208Z</time></trkpt><trkpt lat="45.240595" lon="11.092245"><ele>20.714285714285715</ele><time>2026-05-04T09:50:36.209Z</time></trkpt><trkpt lat="45.24053" lon="11.092205"><ele>20.57142857142857</ele><time>2026-05-04T09:50:37.208Z</time></trkpt><trkpt lat="45.2404583" lon="11.0921633"><ele>20.42857142857143</ele><time>2026-05-04T09:50:38.208Z</time></trkpt><trkpt lat="45.2403817" lon="11.09214"><ele>20.285714285714285</ele><time>2026-05-04T09:50:39.207Z</time></trkpt><trkpt lat="45.2403133" lon="11.0921467"><ele>20.142857142857142</ele><time>2026-05-04T09:50:40.207Z</time></trkpt><trkpt lat="45.2402417" lon="11.09217"><ele>20.0</ele><time>2026-05-04T09:50:41.207Z</time></trkpt><trkpt lat="45.24016" lon="11.0921917"><ele>20.0</ele><time>2026-05-04T09:50:42.212Z</time></trkpt><trkpt lat="45.2400683" lon="11.0921967"><ele>20.0</ele><time>2026-05-04T09:50:43.21Z</time></trkpt><trkpt lat="45.2399683" lon="11.0921833"><ele>20.0</ele><time>2026-05-04T09:50:44.21Z</time></trkpt><trkpt lat="45.2398617" lon="11.0921583"><ele>20.0</ele><time>2026-05-04T09:50:45.213Z</time></trkpt><trkpt lat="45.2397517" lon="11.0921233"><ele>20.0</ele><time>2026-05-04T09:50:46.209Z</time></trkpt><trkpt lat="45.23963" lon="11.09208"><ele>20.0</ele><time>2026-05-04T09:50:47.208Z</time></trkpt><trkpt lat="45.2394917" lon="11.0920233"><ele>20.0</ele><time>2026-05-04T09:50:48.212Z</time></trkpt><trkpt lat="45.239345" lon="11.0919667"><ele>20.0</ele><time>2026-05-04T09:50:49.213Z</time></trkpt><trkpt lat="45.2391983" lon="11.0919167"><ele>20.0</ele><time>2026-05-04T09:50:50.215Z</time></trkpt><trkpt lat="45.2390533" lon="11.0918783"><ele>20.333333333333336</ele><time>2026-05-04T09:50:51.213Z</time></trkpt><trkpt lat="45.238905" lon="11.0918483"><ele>20.666666666666668</ele><time>2026-05-04T09:50:52.207Z</time></trkpt><trkpt lat="45.23874" lon="11.0918283"><ele>21.0</ele><time>2026-05-04T09:50:53.215Z</time></trkpt><trkpt lat="45.2385383" lon="11.09182"><ele>21.0</ele><time>2026-05-04T09:50:54.209Z</time></trkpt><trkpt lat="45.23832" lon="11.0918067"><ele>21.0</ele><time>2026-05-04T09:50:55.214Z</time></trkpt><trkpt lat="45.2380833" lon="11.09179"><ele>20.5</ele><time>2026-05-04T09:50:56.212Z</time></trkpt><trkpt lat="45.2378317" lon="11.0917783"><ele>20.0</ele><time>2026-05-04T09:50:57.215Z</time></trkpt><trkpt lat="45.2375717" lon="11.0917733"><ele>20.0</ele><time>2026-05-04T09:50:58.215Z</time></trkpt><trkpt lat="45.2373083" lon="11.091775"><ele>20.0</ele><time>2026-05-04T09:50:59.215Z</time></trkpt><trkpt lat="45.2370517" lon="11.0917817"><ele>20.5</ele><time>2026-05-04T09:51:00.208Z</time></trkpt><trkpt lat="45.2368" lon="11.0917917"><ele>21.0</ele><time>2026-05-04T09:51:01.207Z</time></trkpt><trkpt lat="45.2365567" lon="11.0918017"><ele>20.5</ele><time>2026-05-04T09:51:02.209Z</time></trkpt><trkpt lat="45.2363217" lon="11.09181"><ele>20.0</ele><time>2026-05-04T09:51:03.209Z</time></trkpt><trkpt lat="45.23609" lon="11.0918167"><ele>20.0</ele><time>2026-05-04T09:51:04.209Z</time></trkpt><trkpt lat="45.2358633" lon="11.091825"><ele>20.0</ele><time>2026-05-04T09:51:05.211Z</time></trkpt><trkpt lat="45.2356367" lon="11.0918283"><ele>20.0</ele><time>2026-05-04T09:51:06.207Z</time></trkpt><trkpt lat="45.2354117" lon="11.0918283"><ele>20.0</ele><time>2026-05-04T09:51:07.209Z</time></trkpt><trkpt lat="45.23519" lon="11.0918217"><ele>20.0</ele><time>2026-05-04T09:51:08.211Z</time></trkpt><trkpt lat="45.2349717" lon="11.09181"><ele>20.333333333333336</ele><time>2026-05-04T09:51:09.213Z</time></trkpt><trkpt lat="45.2347533" lon="11.0918017"><ele>20.666666666666668</ele><time>2026-05-04T09:51:10.213Z</time></trkpt><trkpt lat="45.2345367" lon="11.0917983"><ele>21.0</ele><time>2026-05-04T09:51:11.207Z</time></trkpt><trkpt lat="45.2343167" lon="11.091805"><ele>21.0</ele><time>2026-05-04T09:51:12.209Z</time></trkpt><trkpt lat="45.2340967" lon="11.0918283"><ele>21.0</ele><time>2026-05-04T09:51:13.207Z</time></trkpt><trkpt lat="45.2338717" lon="11.0918667"><ele>21.0</ele><time>2026-05-04T09:51:14.208Z</time></trkpt><trkpt lat="45.23364" lon="11.0919233"><ele>21.0</ele><time>2026-05-04T09:51:15.212Z</time></trkpt><trkpt lat="45.2334017" lon="11.0919833"><ele>21.0</ele><time>2026-05-04T09:51:16.21Z</time></trkpt><trkpt lat="45.2331617" lon="11.0920383"><ele>20.5</ele><time>2026-05-04T09:51:17.215Z</time></trkpt><trkpt lat="45.23292" lon="11.0920917"><ele>20.0</ele><time>2026-05-04T09:51:18.209Z</time></trkpt><trkpt lat="45.2326783" lon="11.092145"><ele>20.0</ele><time>2026-05-04T09:51:19.208Z</time></trkpt><trkpt lat="45.2324367" lon="11.0921983"><ele>20.0</ele><time>2026-05-04T09:51:20.217Z</time></trkpt><trkpt lat="45.2321967" lon="11.09225"><ele>20.0</ele><time>2026-05-04T09:51:21.21Z</time></trkpt><trkpt lat="45.2319583" lon="11.0922983"><ele>20.0</ele><time>2026-05-04T09:51:22.217Z</time></trkpt><trkpt lat="45.2317233" lon="11.0923483"><ele>20.0</ele><time>2026-05-04T09:51:23.209Z</time></trkpt><trkpt lat="45.2314867" lon="11.0924017"><ele>20.0</ele><time>2026-05-04T09:51:24.209Z</time></trkpt><trkpt lat="45.2312533" lon="11.092455"><ele>19.0</ele><time>2026-05-04T09:51:25.211Z</time></trkpt><trkpt lat="45.23102" lon="11.09251"><ele>18.0</ele><time>2026-05-04T09:51:26.212Z</time></trkpt><trkpt lat="45.2307867" lon="11.092565"><ele>18.5</ele><time>2026-05-04T09:51:27.21Z</time></trkpt><trkpt lat="45.230555" lon="11.0926233"><ele>19.0</ele><time>2026-05-04T09:51:28.21Z</time></trkpt><trkpt lat="45.230325" lon="11.09268"><ele>19.0</ele><time>2026-05-04T09:51:29.212Z</time></trkpt><trkpt lat="45.2301017" lon="11.09274"><ele>19.0</ele><time>2026-05-04T09:51:30.207Z</time></trkpt><trkpt lat="45.2298883" lon="11.0927967"><ele>19.0</ele><time>2026-05-04T09:51:31.206Z</time></trkpt><trkpt lat="45.2296817" lon="11.09285"><ele>19.0</ele><time>2026-05-04T09:51:32.212Z</time></trkpt><trkpt lat="45.2294833" lon="11.092895"><ele>19.0</ele><time>2026-05-04T09:51:33.208Z</time></trkpt><trkpt lat="45.22929" lon="11.0929333"><ele>19.0</ele><time>2026-05-04T09:51:34.207Z</time></trkpt><trkpt lat="45.2290983" lon="11.0929583"><ele>19.0</ele><time>2026-05-04T09:51:35.205Z</time></trkpt><trkpt lat="45.2289017" lon="11.0929683"><ele>19.0</ele><time>2026-05-04T09:51:36.215Z</time></trkpt><trkpt lat="45.2286967" lon="11.0929633"><ele>19.0</ele><time>2026-05-04T09:51:37.207Z</time></trkpt><trkpt lat="45.2284867" lon="11.0929433"><ele>19.0</ele><time>2026-05-04T09:51:38.209Z</time></trkpt><trkpt lat="45.2282733" lon="11.0929217"><ele>19.0</ele><time>2026-05-04T09:51:39.209Z</time></trkpt><trkpt lat="45.228055" lon="11.0928983"><ele>19.0</ele><time>2026-05-04T09:51:40.208Z</time></trkpt><trkpt lat="45.2278367" lon="11.0928767"><ele>19.0</ele><time>2026-05-04T09:51:41.209Z</time></trkpt><trkpt lat="45.2276233" lon="11.092855"><ele>19.0</ele><time>2026-05-04T09:51:42.211Z</time></trkpt><trkpt lat="45.2274217" lon="11.0928317"><ele>19.0</ele><time>2026-05-04T09:51:43.207Z</time></trkpt><trkpt lat="45.22723" lon="11.09281"><ele>19.333333333333332</ele><time>2026-05-04T09:51:44.21Z</time></trkpt><trkpt lat="45.227045" lon="11.0927933"><ele>19.666666666666668</ele><time>2026-05-04T09:51:45.209Z</time></trkpt><trkpt lat="45.2268567" lon="11.0927917"><ele>20.0</ele><time>2026-05-04T09:51:46.208Z</time></trkpt><trkpt lat="45.2266583" lon="11.0928233"><ele>20.0</ele><time>2026-05-04T09:51:47.21Z</time></trkpt><trkpt lat="45.22645" lon="11.0928933"><ele>20.0</ele><time>2026-05-04T09:51:48.212Z</time></trkpt><trkpt lat="45.2262317" lon="11.09298"><ele>20.0</ele><time>2026-05-04T09:51:49.209Z</time></trkpt><trkpt lat="45.2260067" lon="11.0930733"><ele>20.0</ele><time>2026-05-04T09:51:50.214Z</time></trkpt><trkpt lat="45.2257867" lon="11.0931683"><ele>20.0</ele><time>2026-05-04T09:51:51.208Z</time></trkpt><trkpt lat="45.2255633" lon="11.0932583"><ele>20.0</ele><time>2026-05-04T09:51:52.213Z</time></trkpt><trkpt lat="45.2253367" lon="11.0933333"><ele>20.0</ele><time>2026-05-04T09:51:53.214Z</time></trkpt><trkpt lat="45.2251117" lon="11.093395"><ele>20.0</ele><time>2026-05-04T09:51:54.213Z</time></trkpt><trkpt lat="45.2248917" lon="11.09345"><ele>20.0</ele><time>2026-05-04T09:51:55.213Z</time></trkpt><trkpt lat="45.2246867" lon="11.0935"><ele>20.0</ele><time>2026-05-04T09:51:56.217Z</time></trkpt><trkpt lat="45.2244867" lon="11.0935617"><ele>19.666666666666668</ele><time>2026-05-04T09:51:57.212Z</time></trkpt><trkpt lat="45.2242917" lon="11.0936367"><ele>19.333333333333332</ele><time>2026-05-04T09:51:58.211Z</time></trkpt><trkpt lat="45.2241067" lon="11.0937217"><ele>19.0</ele><time>2026-05-04T09:51:59.212Z</time></trkpt><trkpt lat="45.2239233" lon="11.0938083"><ele>19.0</ele><time>2026-05-04T09:52:00.207Z</time></trkpt><trkpt lat="45.22374" lon="11.0938733"><ele>19.0</ele><time>2026-05-04T09:52:01.209Z</time></trkpt><trkpt lat="45.223555" lon="11.093895"><ele>19.0</ele><time>2026-05-04T09:52:02.212Z</time></trkpt><trkpt lat="45.2233633" lon="11.093865"><ele>19.0</ele><time>2026-05-04T09:52:03.216Z</time></trkpt><trkpt lat="45.223155" lon="11.0937983"><ele>19.0</ele><time>2026-05-04T09:52:04.214Z</time></trkpt><trkpt lat="45.2229417" lon="11.0937167"><ele>19.0</ele><time>2026-05-04T09:52:05.206Z</time></trkpt><trkpt lat="45.22273" lon="11.0936233"><ele>18.666666666666664</ele><time>2026-05-04T09:52:06.209Z</time></trkpt><trkpt lat="45.2225183" lon="11.09353"><ele>18.333333333333332</ele><time>2026-05-04T09:52:07.207Z</time></trkpt><trkpt lat="45.222315" lon="11.0934433"><ele>18.0</ele><time>2026-05-04T09:52:08.215Z</time></trkpt><trkpt lat="45.22212" lon="11.0933683"><ele>18.666666666666668</ele><time>2026-05-04T09:52:09.208Z</time></trkpt><trkpt lat="45.2219317" lon="11.093315"><ele>19.333333333333336</ele><time>2026-05-04T09:52:10.206Z</time></trkpt><trkpt lat="45.2217333" lon="11.0932883"><ele>20.0</ele><time>2026-05-04T09:52:11.208Z</time></trkpt><trkpt lat="45.221515" lon="11.0932883"><ele>19.5</ele><time>2026-05-04T09:52:12.208Z</time></trkpt><trkpt lat="45.221285" lon="11.093305"><ele>19.0</ele><time>2026-05-04T09:52:13.215Z</time></trkpt><trkpt lat="45.2210517" lon="11.0933317"><ele>19.0</ele><time>2026-05-04T09:52:14.211Z</time></trkpt><trkpt lat="45.2208217" lon="11.093355"><ele>19.0</ele><time>2026-05-04T09:52:15.212Z</time></trkpt><trkpt lat="45.2205967" lon="11.0933783"><ele>19.0</ele><time>2026-05-04T09:52:16.213Z</time></trkpt><trkpt lat="45.2203767" lon="11.0933967"><ele>19.0</ele><time>2026-05-04T09:52:17.209Z</time></trkpt><trkpt lat="45.2201617" lon="11.093415"><ele>19.0</ele><time>2026-05-04T09:52:18.209Z</time></trkpt><trkpt lat="45.2199467" lon="11.09343"><ele>19.0</ele><time>2026-05-04T09:52:19.21Z</time></trkpt><trkpt lat="45.2197233" lon="11.0934367"><ele>19.0</ele><time>2026-05-04T09:52:20.212Z</time></trkpt><trkpt lat="45.2194933" lon="11.0934183"><ele>19.0</ele><time>2026-05-04T09:52:21.215Z</time></trkpt><trkpt lat="45.2192583" lon="11.0933817"><ele>19.0</ele><time>2026-05-04T09:52:22.212Z</time></trkpt><trkpt lat="45.2190233" lon="11.09334"><ele>18.5</ele><time>2026-05-04T09:52:23.212Z</time></trkpt><trkpt lat="45.21879" lon="11.0932983"><ele>18.0</ele><time>2026-05-04T09:52:24.208Z</time></trkpt><trkpt lat="45.2185633" lon="11.0932567"><ele>18.333333333333332</ele><time>2026-05-04T09:52:25.212Z</time></trkpt><trkpt lat="45.21834" lon="11.0932167"><ele>18.666666666666664</ele><time>2026-05-04T09:52:26.207Z</time></trkpt><trkpt lat="45.21812" lon="11.0931833"><ele>19.0</ele><time>2026-05-04T09:52:27.216Z</time></trkpt><trkpt lat="45.2179017" lon="11.09316"><ele>19.0</ele><time>2026-05-04T09:52:28.208Z</time></trkpt><trkpt lat="45.21769" lon="11.0931483"><ele>19.0</ele><time>2026-05-04T09:52:29.216Z</time></trkpt><trkpt lat="45.217485" lon="11.0931433"><ele>19.0</ele><time>2026-05-04T09:52:30.215Z</time></trkpt><trkpt lat="45.21729" lon="11.0931333"><ele>19.0</ele><time>2026-05-04T09:52:31.213Z</time></trkpt><trkpt lat="45.2171" lon="11.0931267"><ele>19.0</ele><time>2026-05-04T09:52:32.209Z</time></trkpt><trkpt lat="45.2169083" lon="11.09313"><ele>19.0</ele><time>2026-05-04T09:52:33.206Z</time></trkpt><trkpt lat="45.2167083" lon="11.0931517"><ele>19.0</ele><time>2026-05-04T09:52:34.21Z</time></trkpt><trkpt lat="45.2164983" lon="11.0931767"><ele>19.0</ele><time>2026-05-04T09:52:35.207Z</time></trkpt><trkpt lat="45.2162767" lon="11.0932017"><ele>19.0</ele><time>2026-05-04T09:52:36.212Z</time></trkpt><trkpt lat="45.2160433" lon="11.0932333"><ele>18.5</ele><time>2026-05-04T09:52:37.214Z</time></trkpt><trkpt lat="45.2158017" lon="11.0932733"><ele>18.0</ele><time>2026-05-04T09:52:38.208Z</time></trkpt><trkpt lat="45.215555" lon="11.0933233"><ele>18.0</ele><time>2026-05-04T09:52:39.211Z</time></trkpt><trkpt lat="45.21531" lon="11.09337"><ele>18.0</ele><time>2026-05-04T09:52:40.207Z</time></trkpt><trkpt lat="45.2150767" lon="11.0934133"><ele>18.0</ele><time>2026-05-04T09:52:41.207Z</time></trkpt><trkpt lat="45.2148517" lon="11.0934583"><ele>18.0</ele><time>2026-05-04T09:52:42.206Z</time></trkpt><trkpt lat="45.214635" lon="11.0935017"><ele>18.0</ele><time>2026-05-04T09:52:43.207Z</time></trkpt><trkpt lat="45.2144333" lon="11.0935417"><ele>17.666666666666668</ele><time>2026-05-04T09:52:44.213Z</time></trkpt><trkpt lat="45.2142517" lon="11.0935783"><ele>17.333333333333336</ele><time>2026-05-04T09:52:45.207Z</time></trkpt><trkpt lat="45.21409" lon="11.09361"><ele>17.0</ele><time>2026-05-04T09:52:46.208Z</time></trkpt><trkpt lat="45.2139483" lon="11.093645"><ele>17.0</ele><time>2026-05-04T09:52:47.207Z</time></trkpt><trkpt lat="45.2138333" lon="11.093685"><ele>17.0</ele><time>2026-05-04T09:52:48.209Z</time></trkpt><trkpt lat="45.21374" lon="11.093735"><ele>17.0</ele><time>2026-05-04T09:52:49.207Z</time></trkpt><trkpt lat="45.213665" lon="11.0938067"><ele>17.0</ele><time>2026-05-04T09:52:50.21Z</time></trkpt><trkpt lat="45.2136067" lon="11.0939033"><ele>17.0</ele><time>2026-05-04T09:52:51.207Z</time></trkpt><trkpt lat="45.2135683" lon="11.0940283"><ele>16.75</ele><time>2026-05-04T09:52:52.207Z</time></trkpt><trkpt lat="45.21355" lon="11.0941833"><ele>16.5</ele><time>2026-05-04T09:52:53.209Z</time></trkpt><trkpt lat="45.2135533" lon="11.0943567"><ele>16.25</ele><time>2026-05-04T09:52:54.207Z</time></trkpt><trkpt lat="45.2135633" lon="11.0945467"><ele>16.0</ele><time>2026-05-04T09:52:55.211Z</time></trkpt><trkpt lat="45.21357" lon="11.0947383"><ele>16.0</ele><time>2026-05-04T09:52:56.211Z</time></trkpt><trkpt lat="45.21357" lon="11.094915"><ele>16.0</ele><time>2026-05-04T09:52:57.218Z</time></trkpt><trkpt lat="45.2135617" lon="11.0950767"><ele>16.0</ele><time>2026-05-04T09:52:58.214Z</time></trkpt><trkpt lat="45.2135217" lon="11.0952233"><ele>16.0</ele><time>2026-05-04T09:52:59.211Z</time></trkpt><trkpt lat="45.213445" lon="11.0953367"><ele>16.5</ele><time>2026-05-04T09:53:00.208Z</time></trkpt><trkpt lat="45.2133367" lon="11.0954233"><ele>17.0</ele><time>2026-05-04T09:53:01.206Z</time></trkpt><trkpt lat="45.2131933" lon="11.095475"><ele>17.5</ele><time>2026-05-04T09:53:02.21Z</time></trkpt><trkpt lat="45.21304" lon="11.0955083"><ele>18.0</ele><time>2026-05-04T09:53:03.206Z</time></trkpt><trkpt lat="45.2128817" lon="11.095535"><ele>18.666666666666668</ele><time>2026-05-04T09:53:04.207Z</time></trkpt><trkpt lat="45.212725" lon="11.0955583"><ele>19.333333333333336</ele><time>2026-05-04T09:53:05.206Z</time></trkpt><trkpt lat="45.2125733" lon="11.09558"><ele>20.0</ele><time>2026-05-04T09:53:06.208Z</time></trkpt><trkpt lat="45.2124283" lon="11.0955983"><ele>19.75</ele><time>2026-05-04T09:53:07.207Z</time></trkpt><trkpt lat="45.212295" lon="11.0956067"><ele>19.5</ele><time>2026-05-04T09:53:08.208Z</time></trkpt><trkpt lat="45.2121683" lon="11.095615"><ele>19.25</ele><time>2026-05-04T09:53:09.293Z</time></trkpt><trkpt lat="45.212045" lon="11.0956333"><ele>19.0</ele><time>2026-05-04T09:53:10.212Z</time></trkpt><trkpt lat="45.2119217" lon="11.0956633"><ele>19.0</ele><time>2026-05-04T09:53:11.213Z</time></trkpt><trkpt lat="45.2118017" lon="11.0957"><ele>19.0</ele><time>2026-05-04T09:53:12.207Z</time></trkpt><trkpt lat="45.2116833" lon="11.0957433"><ele>19.0</ele><time>2026-05-04T09:53:13.212Z</time></trkpt><trkpt lat="45.2115617" lon="11.09579"><ele>19.0</ele><time>2026-05-04T09:53:14.213Z</time></trkpt><trkpt lat="45.21144" lon="11.095845"><ele>19.0</ele><time>2026-05-04T09:53:15.207Z</time></trkpt><trkpt lat="45.2113167" lon="11.09591"><ele>19.0</ele><time>2026-05-04T09:53:16.214Z</time></trkpt><trkpt lat="45.2111933" lon="11.0959767"><ele>19.0</ele><time>2026-05-04T09:53:17.207Z</time></trkpt><trkpt lat="45.21107" lon="11.09604"><ele>19.0</ele><time>2026-05-04T09:53:18.206Z</time></trkpt><trkpt lat="45.210945" lon="11.0961033"><ele>19.0</ele><time>2026-05-04T09:53:19.207Z</time></trkpt><trkpt lat="45.2108217" lon="11.096165"><ele>19.0</ele><time>2026-05-04T09:53:20.208Z</time></trkpt><trkpt lat="45.2106983" lon="11.096235"><ele>19.0</ele><time>2026-05-04T09:53:21.207Z</time></trkpt><trkpt lat="45.2105733" lon="11.09631"><ele>19.0</ele><time>2026-05-04T09:53:22.207Z</time></trkpt><trkpt lat="45.2104517" lon="11.0963883"><ele>18.75</ele><time>2026-05-04T09:53:23.211Z</time></trkpt><trkpt lat="45.21033" lon="11.096465"><ele>18.5</ele><time>2026-05-04T09:53:24.208Z</time></trkpt><trkpt lat="45.21021" lon="11.0965433"><ele>18.25</ele><time>2026-05-04T09:53:25.214Z</time></trkpt><trkpt lat="45.21009" lon="11.09663"><ele>18.0</ele><time>2026-05-04T09:53:26.206Z</time></trkpt><trkpt lat="45.2099717" lon="11.0967133"><ele>18.0</ele><time>2026-05-04T09:53:27.213Z</time></trkpt><trkpt lat="45.209855" lon="11.0967917"><ele>18.0</ele><time>2026-05-04T09:53:28.207Z</time></trkpt><trkpt lat="45.2097383" lon="11.0968733"><ele>18.0</ele><time>2026-05-04T09:53:29.212Z</time></trkpt><trkpt lat="45.2096267" lon="11.0969483"><ele>18.0</ele><time>2026-05-04T09:53:30.211Z</time></trkpt><trkpt lat="45.20952" lon="11.0970133"><ele>18.0</ele><time>2026-05-04T09:53:31.208Z</time></trkpt><trkpt lat="45.20942" lon="11.097065"><ele>18.0</ele><time>2026-05-04T09:53:32.212Z</time></trkpt><trkpt lat="45.2093133" lon="11.097115"><ele>18.0</ele><time>2026-05-04T09:53:33.21Z</time></trkpt><trkpt lat="45.209195" lon="11.0971683"><ele>18.0</ele><time>2026-05-04T09:53:34.212Z</time></trkpt><trkpt lat="45.20906" lon="11.0972117"><ele>17.666666666666668</ele><time>2026-05-04T09:53:35.207Z</time></trkpt><trkpt lat="45.2089017" lon="11.09726"><ele>17.333333333333336</ele><time>2026-05-04T09:53:36.21Z</time></trkpt><trkpt lat="45.20873" lon="11.0973017"><ele>17.0</ele><time>2026-05-04T09:53:37.211Z</time></trkpt><trkpt lat="45.20854" lon="11.097325"><ele>17.0</ele><time>2026-05-04T09:53:38.209Z</time></trkpt><trkpt lat="45.2083283" lon="11.097315"><ele>17.0</ele><time>2026-05-04T09:53:39.216Z</time></trkpt><trkpt lat="45.208115" lon="11.097275"><ele>17.0</ele><time>2026-05-04T09:53:40.215Z</time></trkpt><trkpt lat="45.2079167" lon="11.0972133"><ele>17.0</ele><time>2026-05-04T09:53:41.209Z</time></trkpt><trkpt lat="45.2077317" lon="11.0971467"><ele>17.0</ele><time>2026-05-04T09:53:42.207Z</time></trkpt><trkpt lat="45.207565" lon="11.0970817"><ele>17.0</ele><time>2026-05-04T09:53:43.218Z</time></trkpt><trkpt lat="45.2074033" lon="11.09704"><ele>17.0</ele><time>2026-05-04T09:53:44.217Z</time></trkpt><trkpt lat="45.2072367" lon="11.097055"><ele>17.0</ele><time>2026-05-04T09:53:45.211Z</time></trkpt><trkpt lat="45.2070583" lon="11.0971217"><ele>17.0</ele><time>2026-05-04T09:53:46.214Z</time></trkpt><trkpt lat="45.206865" lon="11.0972133"><ele>17.0</ele><time>2026-05-04T09:53:47.209Z</time></trkpt><trkpt lat="45.2066583" lon="11.097295"><ele>17.0</ele><time>2026-05-04T09:53:48.213Z</time></trkpt><trkpt lat="45.2064367" lon="11.0973567"><ele>17.0</ele><time>2026-05-04T09:53:49.211Z</time></trkpt><trkpt lat="45.20621" lon="11.097395"><ele>17.0</ele><time>2026-05-04T09:53:50.211Z</time></trkpt><trkpt lat="45.2059867" lon="11.097415"><ele>17.0</ele><time>2026-05-04T09:53:51.207Z</time></trkpt><trkpt lat="45.205765" lon="11.0974367"><ele>17.0</ele><time>2026-05-04T09:53:52.21Z</time></trkpt><trkpt lat="45.205545" lon="11.0974617"><ele>17.333333333333336</ele><time>2026-05-04T09:53:53.216Z</time></trkpt><trkpt lat="45.2053317" lon="11.0975033"><ele>17.666666666666668</ele><time>2026-05-04T09:53:54.211Z</time></trkpt><trkpt lat="45.2051217" lon="11.0975683"><ele>18.0</ele><time>2026-05-04T09:53:55.215Z</time></trkpt><trkpt lat="45.2049133" lon="11.0976567"><ele>18.333333333333332</ele><time>2026-05-04T09:53:56.217Z</time></trkpt><trkpt lat="45.2047133" lon="11.0977633"><ele>18.666666666666664</ele><time>2026-05-04T09:53:57.209Z</time></trkpt><trkpt lat="45.2045333" lon="11.097865"><ele>19.0</ele><time>2026-05-04T09:53:58.221Z</time></trkpt><trkpt lat="45.2043733" lon="11.0979683"><ele>19.0</ele><time>2026-05-04T09:53:59.207Z</time></trkpt><trkpt lat="45.204225" lon="11.0980883"><ele>19.0</ele><time>2026-05-04T09:54:00.215Z</time></trkpt><trkpt lat="45.20408" lon="11.0982233"><ele>19.0</ele><time>2026-05-04T09:54:01.211Z</time></trkpt><trkpt lat="45.2039367" lon="11.09836"><ele>18.333333333333332</ele><time>2026-05-04T09:54:02.209Z</time></trkpt><trkpt lat="45.2037917" lon="11.09849"><ele>17.666666666666668</ele><time>2026-05-04T09:54:03.207Z</time></trkpt><trkpt lat="45.2036333" lon="11.0986083"><ele>17.0</ele><time>2026-05-04T09:54:04.207Z</time></trkpt><trkpt lat="45.2034567" lon="11.0987017"><ele>17.0</ele><time>2026-05-04T09:54:05.207Z</time></trkpt><trkpt lat="45.203255" lon="11.0987683"><ele>17.0</ele><time>2026-05-04T09:54:06.206Z</time></trkpt><trkpt lat="45.20304" lon="11.0988117"><ele>17.0</ele><time>2026-05-04T09:54:07.207Z</time></trkpt><trkpt lat="45.2028217" lon="11.0988433"><ele>17.0</ele><time>2026-05-04T09:54:08.206Z</time></trkpt><trkpt lat="45.2026117" lon="11.0988633"><ele>17.0</ele><time>2026-05-04T09:54:09.214Z</time></trkpt><trkpt lat="45.2024217" lon="11.0988817"><ele>17.0</ele><time>2026-05-04T09:54:10.208Z</time></trkpt><trkpt lat="45.2022483" lon="11.0989017"><ele>16.666666666666668</ele><time>2026-05-04T09:54:11.207Z</time></trkpt><trkpt lat="45.20208" lon="11.0989433"><ele>16.333333333333332</ele><time>2026-05-04T09:54:12.209Z</time></trkpt><trkpt lat="45.201905" lon="11.0990183"><ele>16.0</ele><time>2026-05-04T09:54:13.209Z</time></trkpt><trkpt lat="45.2017217" lon="11.09911"><ele>16.0</ele><time>2026-05-04T09:54:14.223Z</time></trkpt><trkpt lat="45.2015317" lon="11.0992017"><ele>16.0</ele><time>2026-05-04T09:54:15.207Z</time></trkpt><trkpt lat="45.20133" lon="11.099275"><ele>16.0</ele><time>2026-05-04T09:54:16.21Z</time></trkpt><trkpt lat="45.2011167" lon="11.09932"><ele>15.666666666666666</ele><time>2026-05-04T09:54:17.208Z</time></trkpt><trkpt lat="45.2009017" lon="11.0993517"><ele>15.333333333333332</ele><time>2026-05-04T09:54:18.207Z</time></trkpt><trkpt lat="45.20068" lon="11.0993867"><ele>15.0</ele><time>2026-05-04T09:54:19.208Z</time></trkpt><trkpt lat="45.20046" lon="11.0994233"><ele>15.0</ele><time>2026-05-04T09:54:20.215Z</time></trkpt><trkpt lat="45.20024" lon="11.0994567"><ele>15.0</ele><time>2026-05-04T09:54:21.214Z</time></trkpt><trkpt lat="45.2000233" lon="11.0994983"><ele>15.0</ele><time>2026-05-04T09:54:22.215Z</time></trkpt><trkpt lat="45.1998067" lon="11.0995517"><ele>15.333333333333332</ele><time>2026-05-04T09:54:23.211Z</time></trkpt><trkpt lat="45.1995917" lon="11.0996117"><ele>15.666666666666666</ele><time>2026-05-04T09:54:24.213Z</time></trkpt><trkpt lat="45.1993817" lon="11.0996717"><ele>16.0</ele><time>2026-05-04T09:54:25.207Z</time></trkpt><trkpt lat="45.1991733" lon="11.09973"><ele>16.0</ele><time>2026-05-04T09:54:26.21Z</time></trkpt><trkpt lat="45.1989683" lon="11.09978"><ele>16.0</ele><time>2026-05-04T09:54:27.213Z</time></trkpt><trkpt lat="45.198765" lon="11.0998217"><ele>16.0</ele><time>2026-05-04T09:54:28.207Z</time></trkpt><trkpt lat="45.198575" lon="11.0998583"><ele>16.0</ele><time>2026-05-04T09:54:29.207Z</time></trkpt><trkpt lat="45.1984033" lon="11.0998917"><ele>16.0</ele><time>2026-05-04T09:54:30.206Z</time></trkpt><trkpt lat="45.1982483" lon="11.0999217"><ele>16.0</ele><time>2026-05-04T09:54:31.207Z</time></trkpt><trkpt lat="45.1981017" lon="11.09997"><ele>16.0</ele><time>2026-05-04T09:54:32.217Z</time></trkpt><trkpt lat="45.1979633" lon="11.10006"><ele>16.0</ele><time>2026-05-04T09:54:33.21Z</time></trkpt><trkpt lat="45.1978367" lon="11.1001967"><ele>16.0</ele><time>2026-05-04T09:54:34.211Z</time></trkpt><trkpt lat="45.19772" lon="11.10038"><ele>16.0</ele><time>2026-05-04T09:54:35.207Z</time></trkpt><trkpt lat="45.1976" lon="11.1005983"><ele>16.0</ele><time>2026-05-04T09:54:36.209Z</time></trkpt><trkpt lat="45.1974717" lon="11.1008233"><ele>16.0</ele><time>2026-05-04T09:54:37.211Z</time></trkpt><trkpt lat="45.1973283" lon="11.10104"><ele>16.0</ele><time>2026-05-04T09:54:38.211Z</time></trkpt><trkpt lat="45.1971717" lon="11.10124"><ele>16.0</ele><time>2026-05-04T09:54:39.208Z</time></trkpt><trkpt lat="45.1970033" lon="11.1014267"><ele>16.0</ele><time>2026-05-04T09:54:40.21Z</time></trkpt><trkpt lat="45.1968167" lon="11.1015967"><ele>16.0</ele><time>2026-05-04T09:54:41.21Z</time></trkpt><trkpt lat="45.196615" lon="11.1017467"><ele>16.0</ele><time>2026-05-04T09:54:42.207Z</time></trkpt><trkpt lat="45.196405" lon="11.1018817"><ele>16.0</ele><time>2026-05-04T09:54:43.212Z</time></trkpt><trkpt lat="45.1961817" lon="11.1020017"><ele>16.0</ele><time>2026-05-04T09:54:44.209Z</time></trkpt><trkpt lat="45.1959567" lon="11.1021183"><ele>16.0</ele><time>2026-05-04T09:54:45.206Z</time></trkpt><trkpt lat="45.19573" lon="11.1022283"><ele>16.0</ele><time>2026-05-04T09:54:46.214Z</time></trkpt><trkpt lat="45.1955017" lon="11.1023333"><ele>15.5</ele><time>2026-05-04T09:54:47.21Z</time></trkpt><trkpt lat="45.1952717" lon="11.102435"><ele>15.0</ele><time>2026-05-04T09:54:48.211Z</time></trkpt><trkpt lat="45.19504" lon="11.102535"><ele>15.5</ele><time>2026-05-04T09:54:49.211Z</time></trkpt><trkpt lat="45.194805" lon="11.10264"><ele>16.0</ele><time>2026-05-04T09:54:50.211Z</time></trkpt><trkpt lat="45.1945683" lon="11.10275"><ele>16.0</ele><time>2026-05-04T09:54:51.21Z</time></trkpt><trkpt lat="45.1943317" lon="11.10287"><ele>16.0</ele><time>2026-05-04T09:54:52.212Z</time></trkpt><trkpt lat="45.1940933" lon="11.1029967"><ele>16.0</ele><time>2026-05-04T09:54:53.212Z</time></trkpt><trkpt lat="45.1938583" lon="11.1031233"><ele>16.0</ele><time>2026-05-04T09:54:54.207Z</time></trkpt><trkpt lat="45.1936367" lon="11.103245"><ele>16.0</ele><time>2026-05-04T09:54:55.216Z</time></trkpt><trkpt lat="45.1934317" lon="11.1033567"><ele>16.0</ele><time>2026-05-04T09:54:56.212Z</time></trkpt><trkpt lat="45.1932367" lon="11.10346"><ele>16.0</ele><time>2026-05-04T09:54:57.207Z</time></trkpt><trkpt lat="45.1930417" lon="11.1035533"><ele>16.0</ele><time>2026-05-04T09:54:58.208Z</time></trkpt><trkpt lat="45.1928317" lon="11.103635"><ele>16.0</ele><time>2026-05-04T09:54:59.212Z</time></trkpt><trkpt lat="45.1926083" lon="11.1037033"><ele>16.0</ele><time>2026-05-04T09:55:00.214Z</time></trkpt><trkpt lat="45.1923867" lon="11.103765"><ele>16.0</ele><time>2026-05-04T09:55:01.209Z</time></trkpt><trkpt lat="45.19217" lon="11.1038267"><ele>16.0</ele><time>2026-05-04T09:55:02.211Z</time></trkpt><trkpt lat="45.1919633" lon="11.1038933"><ele>16.0</ele><time>2026-05-04T09:55:03.207Z</time></trkpt><trkpt lat="45.19177" lon="11.1039717"><ele>16.0</ele><time>2026-05-04T09:55:04.209Z</time></trkpt><trkpt lat="45.1915933" lon="11.10406"><ele>16.0</ele><time>2026-05-04T09:55:05.213Z</time></trkpt><trkpt lat="45.1914183" lon="11.104145"><ele>16.0</ele><time>2026-05-04T09:55:06.212Z</time></trkpt><trkpt lat="45.1912433" lon="11.1042133"><ele>16.0</ele><time>2026-05-04T09:55:07.207Z</time></trkpt><trkpt lat="45.1910733" lon="11.1042567"><ele>16.0</ele><time>2026-05-04T09:55:08.207Z</time></trkpt><trkpt lat="45.19091" lon="11.1042883"><ele>16.0</ele><time>2026-05-04T09:55:09.215Z</time></trkpt><trkpt lat="45.1907483" lon="11.104315"><ele>16.0</ele><time>2026-05-04T09:55:10.214Z</time></trkpt><trkpt lat="45.19059" lon="11.1043383"><ele>16.0</ele><time>2026-05-04T09:55:11.207Z</time></trkpt><trkpt lat="45.1904317" lon="11.1043617"><ele>16.0</ele><time>2026-05-04T09:55:12.213Z</time></trkpt><trkpt lat="45.1902783" lon="11.104385"><ele>16.0</ele><time>2026-05-04T09:55:13.215Z</time></trkpt><trkpt lat="45.1901283" lon="11.1044067"><ele>16.0</ele><time>2026-05-04T09:55:14.21Z</time></trkpt><trkpt lat="45.1899783" lon="11.1044283"><ele>16.0</ele><time>2026-05-04T09:55:15.208Z</time></trkpt><trkpt lat="45.1898233" lon="11.1044583"><ele>16.0</ele><time>2026-05-04T09:55:16.207Z</time></trkpt><trkpt lat="45.1896633" lon="11.1045017"><ele>16.0</ele><time>2026-05-04T09:55:17.214Z</time></trkpt><trkpt lat="45.1894967" lon="11.1045533"><ele>16.0</ele><time>2026-05-04T09:55:18.209Z</time></trkpt><trkpt lat="45.1893133" lon="11.1046183"><ele>16.0</ele><time>2026-05-04T09:55:19.208Z</time></trkpt><trkpt lat="45.1891167" lon="11.1046933"><ele>16.0</ele><time>2026-05-04T09:55:20.214Z</time></trkpt><trkpt lat="45.188915" lon="11.104775"><ele>16.0</ele><time>2026-05-04T09:55:21.215Z</time></trkpt><trkpt lat="45.1887167" lon="11.1048517"><ele>15.666666666666666</ele><time>2026-05-04T09:55:22.208Z</time></trkpt><trkpt lat="45.18852" lon="11.1049283"><ele>15.333333333333332</ele><time>2026-05-04T09:55:23.214Z</time></trkpt><trkpt lat="45.1883233" lon="11.105005"><ele>15.0</ele><time>2026-05-04T09:55:24.212Z</time></trkpt><trkpt lat="45.1881283" lon="11.1050833"><ele>15.0</ele><time>2026-05-04T09:55:25.212Z</time></trkpt><trkpt lat="45.187935" lon="11.1051633"><ele>15.0</ele><time>2026-05-04T09:55:26.214Z</time></trkpt><trkpt lat="45.1877433" lon="11.105245"><ele>15.0</ele><time>2026-05-04T09:55:27.209Z</time></trkpt><trkpt lat="45.1875533" lon="11.105325"><ele>15.0</ele><time>2026-05-04T09:55:28.209Z</time></trkpt><trkpt lat="45.1873617" lon="11.1054083"><ele>15.0</ele><time>2026-05-04T09:55:29.209Z</time></trkpt><trkpt lat="45.1871717" lon="11.105495"><ele>15.0</ele><time>2026-05-04T09:55:30.215Z</time></trkpt><trkpt lat="45.186985" lon="11.105585"><ele>15.0</ele><time>2026-05-04T09:55:31.207Z</time></trkpt><trkpt lat="45.186805" lon="11.1056733"><ele>15.0</ele><time>2026-05-04T09:55:32.212Z</time></trkpt><trkpt lat="45.186635" lon="11.105755"><ele>15.0</ele><time>2026-05-04T09:55:33.21Z</time></trkpt><trkpt lat="45.1864733" lon="11.105835"><ele>15.333333333333332</ele><time>2026-05-04T09:55:34.211Z</time></trkpt><trkpt lat="45.1863233" lon="11.1059217"><ele>15.666666666666666</ele><time>2026-05-04T09:55:35.207Z</time></trkpt><trkpt lat="45.1861783" lon="11.1060217"><ele>16.0</ele><time>2026-05-04T09:55:36.21Z</time></trkpt><trkpt lat="45.1860433" lon="11.1061367"><ele>16.0</ele><time>2026-05-04T09:55:37.209Z</time></trkpt><trkpt lat="45.1859217" lon="11.1062633"><ele>16.0</ele><time>2026-05-04T09:55:38.208Z</time></trkpt><trkpt lat="45.18581" lon="11.1063917"><ele>16.0</ele><time>2026-05-04T09:55:39.208Z</time></trkpt><trkpt lat="45.185705" lon="11.106515"><ele>16.0</ele><time>2026-05-04T09:55:40.213Z</time></trkpt><trkpt lat="45.185605" lon="11.1066333"><ele>16.25</ele><time>2026-05-04T09:55:41.207Z</time></trkpt><trkpt lat="45.1855117" lon="11.1067417"><ele>16.5</ele><time>2026-05-04T09:55:42.207Z</time></trkpt><trkpt lat="45.1854167" lon="11.1068483"><ele>16.75</ele><time>2026-05-04T09:55:43.219Z</time></trkpt><trkpt lat="45.1853133" lon="11.1069617"><ele>17.0</ele><time>2026-05-04T09:55:44.214Z</time></trkpt><trkpt lat="45.1851983" lon="11.1070817"><ele>17.0</ele><time>2026-05-04T09:55:45.214Z</time></trkpt><trkpt lat="45.1850767" lon="11.107215"><ele>17.0</ele><time>2026-05-04T09:55:46.206Z</time></trkpt><trkpt lat="45.1849483" lon="11.1073533"><ele>17.0</ele><time>2026-05-04T09:55:47.209Z</time></trkpt><trkpt lat="45.1848117" lon="11.107515"><ele>16.666666666666668</ele><time>2026-05-04T09:55:48.209Z</time></trkpt><trkpt lat="45.1846617" lon="11.1076983"><ele>16.333333333333332</ele><time>2026-05-04T09:55:49.209Z</time></trkpt><trkpt lat="45.1845017" lon="11.1078967"><ele>16.0</ele><time>2026-05-04T09:55:50.218Z</time></trkpt><trkpt lat="45.184335" lon="11.1080967"><ele>15.666666666666666</ele><time>2026-05-04T09:55:51.206Z</time></trkpt><trkpt lat="45.184175" lon="11.10829"><ele>15.333333333333332</ele><time>2026-05-04T09:55:52.206Z</time></trkpt><trkpt lat="45.18402" lon="11.108485"><ele>15.0</ele><time>2026-05-04T09:55:53.207Z</time></trkpt><trkpt lat="45.1838717" lon="11.1086817"><ele>15.0</ele><time>2026-05-04T09:55:54.209Z</time></trkpt><trkpt lat="45.183725" lon="11.1088733"><ele>15.0</ele><time>2026-05-04T09:55:55.211Z</time></trkpt><trkpt lat="45.1835783" lon="11.109045"><ele>15.0</ele><time>2026-05-04T09:55:56.209Z</time></trkpt><trkpt lat="45.18343" lon="11.1091867"><ele>15.0</ele><time>2026-05-04T09:55:57.208Z</time></trkpt><trkpt lat="45.1832667" lon="11.1093"><ele>15.0</ele><time>2026-05-04T09:55:58.207Z</time></trkpt><trkpt lat="45.1830833" lon="11.1093833"><ele>15.0</ele><time>2026-05-04T09:55:59.209Z</time></trkpt><trkpt lat="45.182885" lon="11.1094533"><ele>15.0</ele><time>2026-05-04T09:56:00.206Z</time></trkpt><trkpt lat="45.18269" lon="11.1095133"><ele>15.0</ele><time>2026-05-04T09:56:01.206Z</time></trkpt><trkpt lat="45.18251" lon="11.1095667"><ele>15.0</ele><time>2026-05-04T09:56:02.21Z</time></trkpt><trkpt lat="45.182345" lon="11.1096133"><ele>15.0</ele><time>2026-05-04T09:56:03.208Z</time></trkpt><trkpt lat="45.1822017" lon="11.109655"><ele>15.0</ele><time>2026-05-04T09:56:04.207Z</time></trkpt><trkpt lat="45.1820767" lon="11.1096933"><ele>15.0</ele><time>2026-05-04T09:56:05.207Z</time></trkpt><trkpt lat="45.181975" lon="11.1097267"><ele>15.0</ele><time>2026-05-04T09:56:06.208Z</time></trkpt><trkpt lat="45.1818967" lon="11.109745"><ele>15.0</ele><time>2026-05-04T09:56:07.207Z</time></trkpt><trkpt lat="45.18181" lon="11.1097567"><ele>15.0</ele><time>2026-05-04T09:56:09.208Z</time></trkpt><trkpt lat="45.1817633" lon="11.1098233"><ele>15.0</ele><time>2026-05-04T09:56:11.207Z</time></trkpt><trkpt lat="45.18175" lon="11.10993"><ele>15.0</ele><time>2026-05-04T09:56:12.21Z</time></trkpt><trkpt lat="45.1817417" lon="11.1100883"><ele>15.0</ele><time>2026-05-04T09:56:13.209Z</time></trkpt><trkpt lat="45.18174" lon="11.1102983"><ele>15.0</ele><time>2026-05-04T09:56:14.207Z</time></trkpt><trkpt lat="45.1817367" lon="11.1105433"><ele>15.0</ele><time>2026-05-04T09:56:15.208Z</time></trkpt><trkpt lat="45.1817267" lon="11.110815"><ele>15.0</ele><time>2026-05-04T09:56:16.207Z</time></trkpt><trkpt lat="45.181715" lon="11.11111"><ele>15.0</ele><time>2026-05-04T09:56:17.209Z</time></trkpt><trkpt lat="45.181705" lon="11.1114317"><ele>15.0</ele><time>2026-05-04T09:56:18.209Z</time></trkpt><trkpt lat="45.1816983" lon="11.1117683"><ele>14.0</ele><time>2026-05-04T09:56:19.209Z</time></trkpt><trkpt lat="45.1816867" lon="11.1120967"><ele>13.0</ele><time>2026-05-04T09:56:20.207Z</time></trkpt><trkpt lat="45.181675" lon="11.11242"><ele>13.0</ele><time>2026-05-04T09:56:21.206Z</time></trkpt><trkpt lat="45.1816633" lon="11.112745"><ele>13.0</ele><time>2026-05-04T09:56:22.208Z</time></trkpt><trkpt lat="45.1816533" lon="11.113065"><ele>13.0</ele><time>2026-05-04T09:56:23.214Z</time></trkpt><trkpt lat="45.1816433" lon="11.11338"><ele>13.0</ele><time>2026-05-04T09:56:24.208Z</time></trkpt><trkpt lat="45.181635" lon="11.1136883"><ele>13.0</ele><time>2026-05-04T09:56:25.206Z</time></trkpt><trkpt lat="45.1816317" lon="11.11397"><ele>13.4</ele><time>2026-05-04T09:56:26.207Z</time></trkpt><trkpt lat="45.1816317" lon="11.1141967"><ele>13.8</ele><time>2026-05-04T09:56:27.208Z</time></trkpt><trkpt lat="45.181635" lon="11.1143583"><ele>14.2</ele><time>2026-05-04T09:56:28.206Z</time></trkpt><trkpt lat="45.1816333" lon="11.114455"><ele>14.6</ele><time>2026-05-04T09:56:29.208Z</time></trkpt><trkpt lat="45.1816" lon="11.1145533"><ele>15.0</ele><time>2026-05-04T09:56:31.211Z</time></trkpt><trkpt lat="45.1815083" lon="11.1146117"><ele>15.0</ele><time>2026-05-04T09:56:33.206Z</time></trkpt><trkpt lat="45.1814383" lon="11.114695"><ele>15.0</ele><time>2026-05-04T09:56:34.206Z</time></trkpt><trkpt lat="45.1813533" lon="11.1148283"><ele>15.0</ele><time>2026-05-04T09:56:35.208Z</time></trkpt><trkpt lat="45.1812567" lon="11.114975"><ele>15.0</ele><time>2026-05-04T09:56:36.216Z</time></trkpt><trkpt lat="45.181145" lon="11.1151233"><ele>15.0</ele><time>2026-05-04T09:56:37.207Z</time></trkpt><trkpt lat="45.181015" lon="11.1152683"><ele>15.0</ele><time>2026-05-04T09:56:38.209Z</time></trkpt><trkpt lat="45.1808683" lon="11.1154133"><ele>15.0</ele><time>2026-05-04T09:56:39.21Z</time></trkpt><trkpt lat="45.1807033" lon="11.1155567"><ele>15.0</ele><time>2026-05-04T09:56:40.208Z</time></trkpt><trkpt lat="45.1805317" lon="11.1156983"><ele>15.0</ele><time>2026-05-04T09:56:41.208Z</time></trkpt><trkpt lat="45.1803567" lon="11.1158433"><ele>15.0</ele><time>2026-05-04T09:56:42.207Z</time></trkpt><trkpt lat="45.1801867" lon="11.115985"><ele>15.0</ele><time>2026-05-04T09:56:43.207Z</time></trkpt><trkpt lat="45.1800283" lon="11.1161183"><ele>15.0</ele><time>2026-05-04T09:56:44.21Z</time></trkpt><trkpt lat="45.1798783" lon="11.1162483"><ele>15.0</ele><time>2026-05-04T09:56:45.211Z</time></trkpt><trkpt lat="45.1797333" lon="11.1163717"><ele>15.0</ele><time>2026-05-04T09:56:46.209Z</time></trkpt><trkpt lat="45.17959" lon="11.11649"><ele>15.0</ele><time>2026-05-04T09:56:47.211Z</time></trkpt><trkpt lat="45.1794483" lon="11.1166183"><ele>15.0</ele><time>2026-05-04T09:56:48.207Z</time></trkpt><trkpt lat="45.1793117" lon="11.116765"><ele>15.0</ele><time>2026-05-04T09:56:49.21Z</time></trkpt><trkpt lat="45.1791767" lon="11.1169433"><ele>15.0</ele><time>2026-05-04T09:56:50.207Z</time></trkpt><trkpt lat="45.1790433" lon="11.1171417"><ele>15.0</ele><time>2026-05-04T09:56:51.206Z</time></trkpt><trkpt lat="45.17891" lon="11.1173433"><ele>15.0</ele><time>2026-05-04T09:56:52.208Z</time></trkpt><trkpt lat="45.1787783" lon="11.1175383"><ele>15.0</ele><time>2026-05-04T09:56:53.215Z</time></trkpt><trkpt lat="45.1786517" lon="11.1177267"><ele>15.0</ele><time>2026-05-04T09:56:54.208Z</time></trkpt><trkpt lat="45.1785267" lon="11.11791"><ele>15.0</ele><time>2026-05-04T09:56:55.211Z</time></trkpt><trkpt lat="45.1783967" lon="11.118085"><ele>15.0</ele><time>2026-05-04T09:56:56.207Z</time></trkpt><trkpt lat="45.1782533" lon="11.1182467"><ele>15.0</ele><time>2026-05-04T09:56:57.208Z</time></trkpt><trkpt lat="45.1780983" lon="11.1183917"><ele>14.666666666666668</ele><time>2026-05-04T09:56:58.211Z</time></trkpt><trkpt lat="45.1779433" lon="11.1185217"><ele>14.333333333333334</ele><time>2026-05-04T09:56:59.219Z</time></trkpt><trkpt lat="45.1777967" lon="11.118645"><ele>14.0</ele><time>2026-05-04T09:57:00.206Z</time></trkpt><trkpt lat="45.1776617" lon="11.1187733"><ele>14.0</ele><time>2026-05-04T09:57:01.209Z</time></trkpt><trkpt lat="45.1775333" lon="11.118915"><ele>14.0</ele><time>2026-05-04T09:57:02.216Z</time></trkpt><trkpt lat="45.1774183" lon="11.1190733"><ele>14.0</ele><time>2026-05-04T09:57:03.211Z</time></trkpt><trkpt lat="45.1773117" lon="11.1192433"><ele>14.333333333333334</ele><time>2026-05-04T09:57:04.209Z</time></trkpt><trkpt lat="45.177205" lon="11.1194033"><ele>14.666666666666668</ele><time>2026-05-04T09:57:05.207Z</time></trkpt><trkpt lat="45.1770967" lon="11.1195617"><ele>15.0</ele><time>2026-05-04T09:57:06.208Z</time></trkpt><trkpt lat="45.17699" lon="11.1197167"><ele>15.0</ele><time>2026-05-04T09:57:07.208Z</time></trkpt><trkpt lat="45.17689" lon="11.1198733"><ele>15.0</ele><time>2026-05-04T09:57:08.209Z</time></trkpt><trkpt lat="45.1767833" lon="11.1200217"><ele>15.0</ele><time>2026-05-04T09:57:09.209Z</time></trkpt><trkpt lat="45.1766783" lon="11.1201683"><ele>15.0</ele><time>2026-05-04T09:57:10.21Z</time></trkpt><trkpt lat="45.17657" lon="11.1203117"><ele>14.666666666666668</ele><time>2026-05-04T09:57:11.209Z</time></trkpt><trkpt lat="45.17646" lon="11.120445"><ele>14.333333333333334</ele><time>2026-05-04T09:57:12.21Z</time></trkpt><trkpt lat="45.1763367" lon="11.1205633"><ele>14.0</ele><time>2026-05-04T09:57:13.215Z</time></trkpt><trkpt lat="45.1761967" lon="11.120665"><ele>14.0</ele><time>2026-05-04T09:57:14.208Z</time></trkpt><trkpt lat="45.1760517" lon="11.12075"><ele>14.0</ele><time>2026-05-04T09:57:15.211Z</time></trkpt><trkpt lat="45.175785" lon="11.12089"><ele>14.0</ele><time>2026-05-04T09:57:17.208Z</time></trkpt><trkpt lat="45.1756783" lon="11.12094"><ele>14.0</ele><time>2026-05-04T09:57:18.207Z</time></trkpt><trkpt lat="45.1755967" lon="11.1210133"><ele>13.999999999999998</ele><time>2026-05-04T09:57:19.206Z</time></trkpt><trkpt lat="45.1755433" lon="11.1211133"><ele>13.999999999999998</ele><time>2026-05-04T09:57:20.206Z</time></trkpt><trkpt lat="45.1755183" lon="11.1212617"><ele>14.0</ele><time>2026-05-04T09:57:21.208Z</time></trkpt><trkpt lat="45.1755067" lon="11.1214367"><ele>14.0</ele><time>2026-05-04T09:57:22.206Z</time></trkpt><trkpt lat="45.1755033" lon="11.12161"><ele>14.2</ele><time>2026-05-04T09:57:23.207Z</time></trkpt><trkpt lat="45.175495" lon="11.121755"><ele>14.399999999999999</ele><time>2026-05-04T09:57:24.207Z</time></trkpt><trkpt lat="45.1754717" lon="11.121875"><ele>14.6</ele><time>2026-05-04T09:57:25.206Z</time></trkpt><trkpt lat="45.1754267" lon="11.1219667"><ele>14.8</ele><time>2026-05-04T09:57:26.212Z</time></trkpt><trkpt lat="45.1753633" lon="11.12202"><ele>15.0</ele><time>2026-05-04T09:57:27.21Z</time></trkpt><trkpt lat="45.1752567" lon="11.12198"><ele>15.0</ele><time>2026-05-04T09:57:28.207Z</time></trkpt><trkpt lat="45.1751283" lon="11.12192"><ele>15.0</ele><time>2026-05-04T09:57:29.208Z</time></trkpt><trkpt lat="45.1749667" lon="11.121855"><ele>15.0</ele><time>2026-05-04T09:57:30.214Z</time></trkpt><trkpt lat="45.1747967" lon="11.1217917"><ele>14.666666666666668</ele><time>2026-05-04T09:57:31.205Z</time></trkpt><trkpt lat="45.17464" lon="11.1217483"><ele>14.333333333333334</ele><time>2026-05-04T09:57:32.207Z</time></trkpt><trkpt lat="45.17448" lon="11.1217433"><ele>14.0</ele><time>2026-05-04T09:57:33.207Z</time></trkpt><trkpt lat="45.1743033" lon="11.1217767"><ele>14.0</ele><time>2026-05-04T09:57:34.206Z</time></trkpt><trkpt lat="45.17411" lon="11.1218367"><ele>14.0</ele><time>2026-05-04T09:57:35.212Z</time></trkpt><trkpt lat="45.173905" lon="11.1219017"><ele>14.0</ele><time>2026-05-04T09:57:36.209Z</time></trkpt><trkpt lat="45.1736883" lon="11.121975"><ele>14.5</ele><time>2026-05-04T09:57:37.207Z</time></trkpt><trkpt lat="45.17346" lon="11.12205"><ele>15.0</ele><time>2026-05-04T09:57:38.207Z</time></trkpt><trkpt lat="45.17324" lon="11.1221267"><ele>14.666666666666668</ele><time>2026-05-04T09:57:39.208Z</time></trkpt><trkpt lat="45.17303" lon="11.1222017"><ele>14.333333333333334</ele><time>2026-05-04T09:57:40.215Z</time></trkpt><trkpt lat="45.17283" lon="11.1222733"><ele>14.0</ele><time>2026-05-04T09:57:41.209Z</time></trkpt><trkpt lat="45.17264" lon="11.1223417"><ele>13.666666666666668</ele><time>2026-05-04T09:57:42.207Z</time></trkpt><trkpt lat="45.17246" lon="11.1224033"><ele>13.333333333333332</ele><time>2026-05-04T09:57:43.209Z</time></trkpt><trkpt lat="45.17229" lon="11.12246"><ele>13.0</ele><time>2026-05-04T09:57:44.207Z</time></trkpt><trkpt lat="45.1721267" lon="11.1225117"><ele>13.0</ele><time>2026-05-04T09:57:45.209Z</time></trkpt><trkpt lat="45.17197" lon="11.122555"><ele>13.0</ele><time>2026-05-04T09:57:46.208Z</time></trkpt><trkpt lat="45.1718183" lon="11.1225983"><ele>13.0</ele><time>2026-05-04T09:57:47.212Z</time></trkpt><trkpt lat="45.1716733" lon="11.1226483"><ele>13.0</ele><time>2026-05-04T09:57:48.214Z</time></trkpt><trkpt lat="45.1715317" lon="11.1227167"><ele>13.0</ele><time>2026-05-04T09:57:49.213Z</time></trkpt><trkpt lat="45.171395" lon="11.1228217"><ele>13.0</ele><time>2026-05-04T09:57:50.207Z</time></trkpt><trkpt lat="45.1712617" lon="11.1229767"><ele>13.0</ele><time>2026-05-04T09:57:51.208Z</time></trkpt><trkpt lat="45.171135" lon="11.123155"><ele>13.0</ele><time>2026-05-04T09:57:52.211Z</time></trkpt><trkpt lat="45.1710117" lon="11.12332"><ele>13.0</ele><time>2026-05-04T09:57:53.211Z</time></trkpt><trkpt lat="45.1708783" lon="11.1234683"><ele>13.0</ele><time>2026-05-04T09:57:54.209Z</time></trkpt><trkpt lat="45.17072" lon="11.1235933"><ele>13.0</ele><time>2026-05-04T09:57:55.211Z</time></trkpt><trkpt lat="45.17055" lon="11.1237017"><ele>13.0</ele><time>2026-05-04T09:57:56.209Z</time></trkpt><trkpt lat="45.1703767" lon="11.123805"><ele>13.0</ele><time>2026-05-04T09:57:57.213Z</time></trkpt><trkpt lat="45.1702117" lon="11.1239117"><ele>13.0</ele><time>2026-05-04T09:57:58.209Z</time></trkpt><trkpt lat="45.1700567" lon="11.12401"><ele>13.0</ele><time>2026-05-04T09:57:59.207Z</time></trkpt><trkpt lat="45.16992" lon="11.124095"><ele>13.0</ele><time>2026-05-04T09:58:00.207Z</time></trkpt><trkpt lat="45.1697983" lon="11.1241767"><ele>13.0</ele><time>2026-05-04T09:58:01.208Z</time></trkpt><trkpt lat="45.1696967" lon="11.1242433"><ele>13.0</ele><time>2026-05-04T09:58:02.207Z</time></trkpt><trkpt lat="45.1696117" lon="11.124295"><ele>13.0</ele><time>2026-05-04T09:58:03.208Z</time></trkpt><trkpt lat="45.16954" lon="11.12433"><ele>13.0</ele><time>2026-05-04T09:58:04.213Z</time></trkpt><trkpt lat="45.1694317" lon="11.1243767"><ele>13.0</ele><time>2026-05-04T09:58:06.208Z</time></trkpt><trkpt lat="45.1693417" lon="11.1245017"><ele>13.0</ele><time>2026-05-04T09:58:08.207Z</time></trkpt><trkpt lat="45.1692983" lon="11.1245867"><ele>13.0</ele><time>2026-05-04T09:58:09.212Z</time></trkpt><trkpt lat="45.169245" lon="11.1246683"><ele>13.0</ele><time>2026-05-04T09:58:10.207Z</time></trkpt><trkpt lat="45.1691783" lon="11.12474"><ele>13.0</ele><time>2026-05-04T09:58:11.207Z</time></trkpt><trkpt lat="45.1691" lon="11.1248"><ele>13.2</ele><time>2026-05-04T09:58:12.209Z</time></trkpt><trkpt lat="45.1690117" lon="11.1248617"><ele>13.4</ele><time>2026-05-04T09:58:13.21Z</time></trkpt><trkpt lat="45.1689167" lon="11.1249317"><ele>13.599999999999998</ele><time>2026-05-04T09:58:14.207Z</time></trkpt><trkpt lat="45.1688167" lon="11.1249967"><ele>13.799999999999999</ele><time>2026-05-04T09:58:15.207Z</time></trkpt><trkpt lat="45.1687167" lon="11.1250617"><ele>14.0</ele><time>2026-05-04T09:58:16.207Z</time></trkpt><trkpt lat="45.168615" lon="11.1251267"><ele>14.0</ele><time>2026-05-04T09:58:17.208Z</time></trkpt><trkpt lat="45.1685033" lon="11.1251967"><ele>14.0</ele><time>2026-05-04T09:58:18.208Z</time></trkpt><trkpt lat="45.16838" lon="11.125275"><ele>14.0</ele><time>2026-05-04T09:58:19.209Z</time></trkpt><trkpt lat="45.1682483" lon="11.1253583"><ele>14.0</ele><time>2026-05-04T09:58:20.208Z</time></trkpt><trkpt lat="45.1681" lon="11.125455"><ele>13.666666666666668</ele><time>2026-05-04T09:58:21.207Z</time></trkpt><trkpt lat="45.16794" lon="11.1255617"><ele>13.333333333333332</ele><time>2026-05-04T09:58:22.207Z</time></trkpt><trkpt lat="45.1677783" lon="11.125665"><ele>13.0</ele><time>2026-05-04T09:58:23.223Z</time></trkpt><trkpt lat="45.167615" lon="11.1257683"><ele>13.0</ele><time>2026-05-04T09:58:24.209Z</time></trkpt><trkpt lat="45.16745" lon="11.125875"><ele>13.0</ele><time>2026-05-04T09:58:25.208Z</time></trkpt><trkpt lat="45.1672833" lon="11.125985"><ele>13.0</ele><time>2026-05-04T09:58:26.209Z</time></trkpt><trkpt lat="45.1671117" lon="11.126095"><ele>12.666666666666666</ele><time>2026-05-04T09:58:27.207Z</time></trkpt><trkpt lat="45.1669383" lon="11.126205"><ele>12.333333333333332</ele><time>2026-05-04T09:58:28.214Z</time></trkpt><trkpt lat="45.1667733" lon="11.1263133"><ele>12.0</ele><time>2026-05-04T09:58:29.211Z</time></trkpt><trkpt lat="45.1666167" lon="11.12642"><ele>12.333333333333332</ele><time>2026-05-04T09:58:30.21Z</time></trkpt><trkpt lat="45.16645" lon="11.1265283"><ele>12.666666666666666</ele><time>2026-05-04T09:58:31.217Z</time></trkpt><trkpt lat="45.1662633" lon="11.1266467"><ele>13.0</ele><time>2026-05-04T09:58:32.207Z</time></trkpt><trkpt lat="45.1660533" lon="11.1267767"><ele>13.0</ele><time>2026-05-04T09:58:33.209Z</time></trkpt><trkpt lat="45.165835" lon="11.1269133"><ele>13.0</ele><time>2026-05-04T09:58:34.208Z</time></trkpt><trkpt lat="45.1656133" lon="11.1270383"><ele>12.5</ele><time>2026-05-04T09:58:35.217Z</time></trkpt><trkpt lat="45.1653967" lon="11.1271617"><ele>12.0</ele><time>2026-05-04T09:58:36.208Z</time></trkpt><trkpt lat="45.1651833" lon="11.1272833"><ele>12.0</ele><time>2026-05-04T09:58:37.21Z</time></trkpt><trkpt lat="45.1649733" lon="11.1274067"><ele>12.0</ele><time>2026-05-04T09:58:38.208Z</time></trkpt><trkpt lat="45.1647667" lon="11.1275283"><ele>12.0</ele><time>2026-05-04T09:58:39.21Z</time></trkpt><trkpt lat="45.1645683" lon="11.1276483"><ele>12.0</ele><time>2026-05-04T09:58:40.214Z</time></trkpt><trkpt lat="45.1643717" lon="11.1277633"><ele>12.0</ele><time>2026-05-04T09:58:41.21Z</time></trkpt><trkpt lat="45.16418" lon="11.1278783"><ele>12.333333333333332</ele><time>2026-05-04T09:58:42.214Z</time></trkpt><trkpt lat="45.163995" lon="11.1279917"><ele>12.666666666666666</ele><time>2026-05-04T09:58:43.208Z</time></trkpt><trkpt lat="45.1638133" lon="11.1281067"><ele>13.0</ele><time>2026-05-04T09:58:44.21Z</time></trkpt><trkpt lat="45.1636367" lon="11.1282167"><ele>12.666666666666666</ele><time>2026-05-04T09:58:45.206Z</time></trkpt><trkpt lat="45.1634633" lon="11.128325"><ele>12.333333333333332</ele><time>2026-05-04T09:58:46.207Z</time></trkpt><trkpt lat="45.1632933" lon="11.1284333"><ele>12.0</ele><time>2026-05-04T09:58:47.212Z</time></trkpt><trkpt lat="45.1631267" lon="11.1285383"><ele>11.666666666666666</ele><time>2026-05-04T09:58:48.223Z</time></trkpt><trkpt lat="45.1629583" lon="11.1286433"><ele>11.333333333333332</ele><time>2026-05-04T09:58:49.211Z</time></trkpt><trkpt lat="45.1627917" lon="11.1287483"><ele>11.0</ele><time>2026-05-04T09:58:50.208Z</time></trkpt><trkpt lat="45.1626233" lon="11.1288517"><ele>11.0</ele><time>2026-05-04T09:58:51.209Z</time></trkpt><trkpt lat="45.162455" lon="11.1289567"><ele>11.0</ele><time>2026-05-04T09:58:52.22Z</time></trkpt><trkpt lat="45.1622867" lon="11.1290633"><ele>11.0</ele><time>2026-05-04T09:58:53.212Z</time></trkpt><trkpt lat="45.1621183" lon="11.12917"><ele>11.666666666666666</ele><time>2026-05-04T09:58:54.21Z</time></trkpt><trkpt lat="45.161955" lon="11.1292717"><ele>12.333333333333332</ele><time>2026-05-04T09:58:55.207Z</time></trkpt><trkpt lat="45.1618017" lon="11.129365"><ele>13.0</ele><time>2026-05-04T09:58:56.212Z</time></trkpt><trkpt lat="45.1616567" lon="11.1294533"><ele>13.0</ele><time>2026-05-04T09:58:57.207Z</time></trkpt><trkpt lat="45.1615217" lon="11.1295283"><ele>13.0</ele><time>2026-05-04T09:58:58.207Z</time></trkpt><trkpt lat="45.1613983" lon="11.1295917"><ele>13.0</ele><time>2026-05-04T09:58:59.207Z</time></trkpt><trkpt lat="45.1612817" lon="11.1296333"><ele>13.0</ele><time>2026-05-04T09:59:00.208Z</time></trkpt><trkpt lat="45.1611667" lon="11.1296383"><ele>13.0</ele><time>2026-05-04T09:59:01.214Z</time></trkpt><trkpt lat="45.1610517" lon="11.1296283"><ele>13.0</ele><time>2026-05-04T09:59:02.209Z</time></trkpt><trkpt lat="45.1609367" lon="11.129645"><ele>13.0</ele><time>2026-05-04T09:59:03.207Z</time></trkpt><trkpt lat="45.16081" lon="11.1297117"><ele>13.0</ele><time>2026-05-04T09:59:04.208Z</time></trkpt><trkpt lat="45.1606633" lon="11.12981"><ele>13.0</ele><time>2026-05-04T09:59:05.206Z</time></trkpt><trkpt lat="45.1604967" lon="11.1299183"><ele>13.0</ele><time>2026-05-04T09:59:06.207Z</time></trkpt><trkpt lat="45.16032" lon="11.1300267"><ele>13.0</ele><time>2026-05-04T09:59:07.214Z</time></trkpt><trkpt lat="45.16013" lon="11.13014"><ele>13.0</ele><time>2026-05-04T09:59:08.215Z</time></trkpt><trkpt lat="45.1599317" lon="11.1302567"><ele>13.0</ele><time>2026-05-04T09:59:09.208Z</time></trkpt><trkpt lat="45.159735" lon="11.1303767"><ele>13.0</ele><time>2026-05-04T09:59:10.209Z</time></trkpt><trkpt lat="45.15954" lon="11.130495"><ele>12.666666666666666</ele><time>2026-05-04T09:59:11.207Z</time></trkpt><trkpt lat="45.15934" lon="11.130615"><ele>12.333333333333332</ele><time>2026-05-04T09:59:12.212Z</time></trkpt><trkpt lat="45.15914" lon="11.130735"><ele>12.0</ele><time>2026-05-04T09:59:13.21Z</time></trkpt><trkpt lat="45.15894" lon="11.130855"><ele>11.666666666666666</ele><time>2026-05-04T09:59:14.212Z</time></trkpt><trkpt lat="45.15874" lon="11.130975"><ele>11.333333333333332</ele><time>2026-05-04T09:59:15.212Z</time></trkpt><trkpt lat="45.15854" lon="11.1310933"><ele>11.0</ele><time>2026-05-04T09:59:16.206Z</time></trkpt><trkpt lat="45.1583433" lon="11.1312117"><ele>11.0</ele><time>2026-05-04T09:59:17.211Z</time></trkpt><trkpt lat="45.1581483" lon="11.1313283"><ele>11.0</ele><time>2026-05-04T09:59:18.214Z</time></trkpt><trkpt lat="45.157955" lon="11.131445"><ele>11.0</ele><time>2026-05-04T09:59:19.214Z</time></trkpt><trkpt lat="45.157765" lon="11.1315583"><ele>11.0</ele><time>2026-05-04T09:59:20.214Z</time></trkpt><trkpt lat="45.1575783" lon="11.1316683"><ele>11.0</ele><time>2026-05-04T09:59:21.216Z</time></trkpt><trkpt lat="45.1573983" lon="11.1317783"><ele>11.0</ele><time>2026-05-04T09:59:22.209Z</time></trkpt><trkpt lat="45.1572217" lon="11.1318867"><ele>11.0</ele><time>2026-05-04T09:59:23.208Z</time></trkpt><trkpt lat="45.1570483" lon="11.131995"><ele>11.0</ele><time>2026-05-04T09:59:24.209Z</time></trkpt><trkpt lat="45.1568783" lon="11.1320983"><ele>11.0</ele><time>2026-05-04T09:59:25.214Z</time></trkpt><trkpt lat="45.1567083" lon="11.1322017"><ele>11.0</ele><time>2026-05-04T09:59:26.209Z</time></trkpt><trkpt lat="45.1565383" lon="11.132305"><ele>11.0</ele><time>2026-05-04T09:59:27.213Z</time></trkpt><trkpt lat="45.1563667" lon="11.13241"><ele>11.0</ele><time>2026-05-04T09:59:28.216Z</time></trkpt><trkpt lat="45.156195" lon="11.1325133"><ele>11.0</ele><time>2026-05-04T09:59:29.211Z</time></trkpt><trkpt lat="45.156025" lon="11.1326183"><ele>11.0</ele><time>2026-05-04T09:59:30.209Z</time></trkpt><trkpt lat="45.1558517" lon="11.1327217"><ele>11.0</ele><time>2026-05-04T09:59:31.21Z</time></trkpt><trkpt lat="45.15568" lon="11.1328283"><ele>10.666666666666666</ele><time>2026-05-04T09:59:32.214Z</time></trkpt><trkpt lat="45.1555067" lon="11.1329333"><ele>10.333333333333334</ele><time>2026-05-04T09:59:33.207Z</time></trkpt><trkpt lat="45.1553367" lon="11.1330367"><ele>10.0</ele><time>2026-05-04T09:59:34.207Z</time></trkpt><trkpt lat="45.1551667" lon="11.1331417"><ele>10.333333333333334</ele><time>2026-05-04T09:59:35.207Z</time></trkpt><trkpt lat="45.1549983" lon="11.13324"><ele>10.666666666666666</ele><time>2026-05-04T09:59:36.212Z</time></trkpt><trkpt lat="45.1548317" lon="11.1333367"><ele>11.0</ele><time>2026-05-04T09:59:37.21Z</time></trkpt><trkpt lat="45.1546667" lon="11.1334367"><ele>11.0</ele><time>2026-05-04T09:59:38.207Z</time></trkpt><trkpt lat="45.1545017" lon="11.1335367"><ele>11.0</ele><time>2026-05-04T09:59:39.211Z</time></trkpt><trkpt lat="45.1543367" lon="11.13364"><ele>11.0</ele><time>2026-05-04T09:59:40.208Z</time></trkpt><trkpt lat="45.1541717" lon="11.1337417"><ele>11.333333333333332</ele><time>2026-05-04T09:59:41.212Z</time></trkpt><trkpt lat="45.1540067" lon="11.1338417"><ele>11.666666666666666</ele><time>2026-05-04T09:59:42.208Z</time></trkpt><trkpt lat="45.15384" lon="11.13394"><ele>12.0</ele><time>2026-05-04T09:59:43.207Z</time></trkpt><trkpt lat="45.153675" lon="11.134035"><ele>12.0</ele><time>2026-05-04T09:59:44.207Z</time></trkpt><trkpt lat="45.1535117" lon="11.13412"><ele>12.0</ele><time>2026-05-04T09:59:45.207Z</time></trkpt><trkpt lat="45.1533517" lon="11.1341967"><ele>12.0</ele><time>2026-05-04T09:59:46.206Z</time></trkpt><trkpt lat="45.1531933" lon="11.13426"><ele>12.0</ele><time>2026-05-04T09:59:47.21Z</time></trkpt><trkpt lat="45.1530383" lon="11.1343133"><ele>12.0</ele><time>2026-05-04T09:59:48.214Z</time></trkpt><trkpt lat="45.1528883" lon="11.1343467"><ele>12.0</ele><time>2026-05-04T09:59:49.208Z</time></trkpt><trkpt lat="45.1527517" lon="11.13436"><ele>12.0</ele><time>2026-05-04T09:59:50.207Z</time></trkpt><trkpt lat="45.1526217" lon="11.134365"><ele>12.0</ele><time>2026-05-04T09:59:51.221Z</time></trkpt><trkpt lat="45.1524967" lon="11.1343683"><ele>12.0</ele><time>2026-05-04T09:59:52.206Z</time></trkpt><trkpt lat="45.1523767" lon="11.1343633"><ele>12.0</ele><time>2026-05-04T09:59:53.206Z</time></trkpt><trkpt lat="45.1522667" lon="11.1343533"><ele>12.0</ele><time>2026-05-04T09:59:54.208Z</time></trkpt><trkpt lat="45.1521783" lon="11.134345"><ele>12.0</ele><time>2026-05-04T09:59:55.206Z</time></trkpt><trkpt lat="45.1521133" lon="11.1343367"><ele>12.0</ele><time>2026-05-04T09:59:56.207Z</time></trkpt><trkpt lat="45.1520433" lon="11.13431"><ele>12.0</ele><time>2026-05-04T09:59:58.206Z</time></trkpt><trkpt lat="45.1519733" lon="11.1342767"><ele>12.0</ele><time>2026-05-04T10:00:04.209Z</time></trkpt><trkpt lat="45.1518533" lon="11.1342817"><ele>12.0</ele><time>2026-05-04T10:00:06.206Z</time></trkpt><trkpt lat="45.15175" lon="11.134285"><ele>12.0</ele><time>2026-05-04T10:00:07.209Z</time></trkpt><trkpt lat="45.1516233" lon="11.1342833"><ele>12.25</ele><time>2026-05-04T10:00:08.209Z</time></trkpt><trkpt lat="45.15149" lon="11.1342733"><ele>12.5</ele><time>2026-05-04T10:00:09.207Z</time></trkpt><trkpt lat="45.1513533" lon="11.1342583"><ele>12.75</ele><time>2026-05-04T10:00:10.206Z</time></trkpt><trkpt lat="45.1512017" lon="11.1342467"><ele>13.0</ele><time>2026-05-04T10:00:11.211Z</time></trkpt><trkpt lat="45.151045" lon="11.1342317"><ele>13.0</ele><time>2026-05-04T10:00:12.207Z</time></trkpt><trkpt lat="45.1508817" lon="11.134215"><ele>13.0</ele><time>2026-05-04T10:00:13.206Z</time></trkpt><trkpt lat="45.1507017" lon="11.1342017"><ele>13.0</ele><time>2026-05-04T10:00:14.209Z</time></trkpt><trkpt lat="45.15052" lon="11.1341867"><ele>13.0</ele><time>2026-05-04T10:00:15.207Z</time></trkpt><trkpt lat="45.150335" lon="11.1341767"><ele>13.0</ele><time>2026-05-04T10:00:16.205Z</time></trkpt><trkpt lat="45.15015" lon="11.134165"><ele>13.0</ele><time>2026-05-04T10:00:17.206Z</time></trkpt><trkpt lat="45.1499633" lon="11.13415"><ele>13.0</ele><time>2026-05-04T10:00:18.211Z</time></trkpt><trkpt lat="45.1497783" lon="11.13413"><ele>13.0</ele><time>2026-05-04T10:00:19.207Z</time></trkpt><trkpt lat="45.149595" lon="11.1341133"><ele>13.0</ele><time>2026-05-04T10:00:20.208Z</time></trkpt><trkpt lat="45.149415" lon="11.1340983"><ele>13.0</ele><time>2026-05-04T10:00:21.215Z</time></trkpt><trkpt lat="45.149235" lon="11.134085"><ele>13.0</ele><time>2026-05-04T10:00:22.207Z</time></trkpt><trkpt lat="45.1490583" lon="11.134075"><ele>13.0</ele><time>2026-05-04T10:00:23.216Z</time></trkpt><trkpt lat="45.1488783" lon="11.1340767"><ele>13.333333333333332</ele><time>2026-05-04T10:00:24.213Z</time></trkpt><trkpt lat="45.1486983" lon="11.1340917"><ele>13.666666666666668</ele><time>2026-05-04T10:00:25.215Z</time></trkpt><trkpt lat="45.14852" lon="11.1341217"><ele>14.0</ele><time>2026-05-04T10:00:26.217Z</time></trkpt><trkpt lat="45.1483417" lon="11.13416"><ele>13.666666666666668</ele><time>2026-05-04T10:00:27.207Z</time></trkpt><trkpt lat="45.1481617" lon="11.1342067"><ele>13.333333333333332</ele><time>2026-05-04T10:00:28.218Z</time></trkpt><trkpt lat="45.1479783" lon="11.1342517"><ele>13.0</ele><time>2026-05-04T10:00:29.215Z</time></trkpt><trkpt lat="45.1477933" lon="11.1342967"><ele>13.0</ele><time>2026-05-04T10:00:30.206Z</time></trkpt><trkpt lat="45.1476067" lon="11.13434"><ele>13.0</ele><time>2026-05-04T10:00:31.214Z</time></trkpt><trkpt lat="45.14742" lon="11.1343817"><ele>13.0</ele><time>2026-05-04T10:00:32.211Z</time></trkpt><trkpt lat="45.147235" lon="11.1344217"><ele>13.0</ele><time>2026-05-04T10:00:33.207Z</time></trkpt><trkpt lat="45.1470483" lon="11.1344583"><ele>13.0</ele><time>2026-05-04T10:00:34.215Z</time></trkpt><trkpt lat="45.1468617" lon="11.134495"><ele>13.0</ele><time>2026-05-04T10:00:35.214Z</time></trkpt><trkpt lat="45.1466767" lon="11.1345317"><ele>12.666666666666666</ele><time>2026-05-04T10:00:36.211Z</time></trkpt><trkpt lat="45.1464933" lon="11.1345633"><ele>12.333333333333332</ele><time>2026-05-04T10:00:37.208Z</time></trkpt><trkpt lat="45.1463133" lon="11.134595"><ele>12.0</ele><time>2026-05-04T10:00:38.21Z</time></trkpt><trkpt lat="45.1461433" lon="11.1346283"><ele>12.0</ele><time>2026-05-04T10:00:39.215Z</time></trkpt><trkpt lat="45.1459767" lon="11.1346617"><ele>12.0</ele><time>2026-05-04T10:00:40.209Z</time></trkpt><trkpt lat="45.145815" lon="11.1346933"><ele>12.0</ele><time>2026-05-04T10:00:41.212Z</time></trkpt><trkpt lat="45.145655" lon="11.1347217"><ele>11.666666666666666</ele><time>2026-05-04T10:00:42.208Z</time></trkpt><trkpt lat="45.1454983" lon="11.1347483"><ele>11.333333333333332</ele><time>2026-05-04T10:00:43.209Z</time></trkpt><trkpt lat="45.14534" lon="11.1347733"><ele>11.0</ele><time>2026-05-04T10:00:44.216Z</time></trkpt><trkpt lat="45.1451817" lon="11.1348"><ele>11.0</ele><time>2026-05-04T10:00:45.213Z</time></trkpt><trkpt lat="45.1450233" lon="11.1348267"><ele>11.0</ele><time>2026-05-04T10:00:46.206Z</time></trkpt><trkpt lat="45.14487" lon="11.134855"><ele>11.0</ele><time>2026-05-04T10:00:47.216Z</time></trkpt><trkpt lat="45.144725" lon="11.1348783"><ele>11.5</ele><time>2026-05-04T10:00:48.207Z</time></trkpt><trkpt lat="45.1445883" lon="11.1348983"><ele>12.0</ele><time>2026-05-04T10:00:49.209Z</time></trkpt><trkpt lat="45.1444633" lon="11.1349167"><ele>12.5</ele><time>2026-05-04T10:00:50.211Z</time></trkpt><trkpt lat="45.1443417" lon="11.13494"><ele>13.0</ele><time>2026-05-04T10:00:51.21Z</time></trkpt><trkpt lat="45.14422" lon="11.1349617"><ele>13.0</ele><time>2026-05-04T10:00:52.209Z</time></trkpt><trkpt lat="45.1440983" lon="11.1349817"><ele>13.0</ele><time>2026-05-04T10:00:53.218Z</time></trkpt><trkpt lat="45.143975" lon="11.1350083"><ele>13.0</ele><time>2026-05-04T10:00:54.21Z</time></trkpt><trkpt lat="45.1438433" lon="11.13504"><ele>13.0</ele><time>2026-05-04T10:00:55.209Z</time></trkpt><trkpt lat="45.143705" lon="11.1350717"><ele>13.0</ele><time>2026-05-04T10:00:56.211Z</time></trkpt><trkpt lat="45.1435617" lon="11.1351067"><ele>13.0</ele><time>2026-05-04T10:00:57.209Z</time></trkpt><trkpt lat="45.1434217" lon="11.1351367"><ele>13.0</ele><time>2026-05-04T10:00:58.208Z</time></trkpt><trkpt lat="45.1432917" lon="11.135165"><ele>13.0</ele><time>2026-05-04T10:00:59.215Z</time></trkpt><trkpt lat="45.14317" lon="11.135195"><ele>13.166666666666666</ele><time>2026-05-04T10:01:00.207Z</time></trkpt><trkpt lat="45.143065" lon="11.1352183"><ele>13.333333333333332</ele><time>2026-05-04T10:01:01.207Z</time></trkpt><trkpt lat="45.14298" lon="11.1352367"><ele>13.5</ele><time>2026-05-04T10:01:02.208Z</time></trkpt><trkpt lat="45.1429167" lon="11.1352517"><ele>13.666666666666668</ele><time>2026-05-04T10:01:03.217Z</time></trkpt><trkpt lat="45.14281" lon="11.1352833"><ele>13.833333333333334</ele><time>2026-05-04T10:01:05.219Z</time></trkpt><trkpt lat="45.142745" lon="11.1353133"><ele>14.0</ele><time>2026-05-04T10:01:06.207Z</time></trkpt><trkpt lat="45.1426667" lon="11.1353717"><ele>14.0</ele><time>2026-05-04T10:01:07.211Z</time></trkpt><trkpt lat="45.1425817" lon="11.1354683"><ele>14.0</ele><time>2026-05-04T10:01:08.21Z</time></trkpt><trkpt lat="45.1424983" lon="11.1356017"><ele>14.0</ele><time>2026-05-04T10:01:09.208Z</time></trkpt><trkpt lat="45.14242" lon="11.1357567"><ele>14.0</ele><time>2026-05-04T10:01:10.207Z</time></trkpt><trkpt lat="45.1423467" lon="11.1359167"><ele>14.0</ele><time>2026-05-04T10:01:11.209Z</time></trkpt><trkpt lat="45.1422733" lon="11.1360867"><ele>14.0</ele><time>2026-05-04T10:01:12.217Z</time></trkpt><trkpt lat="45.1422067" lon="11.1362683"><ele>14.0</ele><time>2026-05-04T10:01:13.211Z</time></trkpt><trkpt lat="45.1421367" lon="11.1364533"><ele>14.0</ele><time>2026-05-04T10:01:14.207Z</time></trkpt><trkpt lat="45.1420667" lon="11.1366433"><ele>14.0</ele><time>2026-05-04T10:01:15.207Z</time></trkpt><trkpt lat="45.141995" lon="11.13684"><ele>14.0</ele><time>2026-05-04T10:01:16.212Z</time></trkpt><trkpt lat="45.141925" lon="11.1370333"><ele>14.0</ele><time>2026-05-04T10:01:17.21Z</time></trkpt><trkpt lat="45.14186" lon="11.1372233"><ele>14.0</ele><time>2026-05-04T10:01:18.209Z</time></trkpt><trkpt lat="45.1417917" lon="11.1374117"><ele>14.0</ele><time>2026-05-04T10:01:19.207Z</time></trkpt><trkpt lat="45.1417267" lon="11.1375967"><ele>14.0</ele><time>2026-05-04T10:01:20.21Z</time></trkpt><trkpt lat="45.14166" lon="11.1377833"><ele>14.0</ele><time>2026-05-04T10:01:21.211Z</time></trkpt><trkpt lat="45.1415917" lon="11.1379767"><ele>13.666666666666668</ele><time>2026-05-04T10:01:22.209Z</time></trkpt><trkpt lat="45.1415217" lon="11.1381717"><ele>13.333333333333332</ele><time>2026-05-04T10:01:23.212Z</time></trkpt><trkpt lat="45.14145" lon="11.1383683"><ele>13.0</ele><time>2026-05-04T10:01:24.206Z</time></trkpt><trkpt lat="45.1413767" lon="11.1385733"><ele>13.0</ele><time>2026-05-04T10:01:25.208Z</time></trkpt><trkpt lat="45.1413017" lon="11.13878"><ele>13.0</ele><time>2026-05-04T10:01:26.21Z</time></trkpt><trkpt lat="45.1412233" lon="11.1389867"><ele>13.0</ele><time>2026-05-04T10:01:27.21Z</time></trkpt><trkpt lat="45.1411467" lon="11.1391983"><ele>12.75</ele><time>2026-05-04T10:01:28.207Z</time></trkpt><trkpt lat="45.1410683" lon="11.1394133"><ele>12.5</ele><time>2026-05-04T10:01:29.208Z</time></trkpt><trkpt lat="45.1410283" lon="11.1395167"><ele>12.25</ele><time>2026-05-04T10:01:29.708Z</time></trkpt><trkpt lat="45.14099" lon="11.1396217"><ele>12.0</ele><time>2026-05-04T10:01:30.209Z</time></trkpt><trkpt lat="45.1408667" lon="11.139965"><ele>12.0</ele><time>2026-05-04T10:01:32.212Z</time></trkpt><trkpt lat="45.1408183" lon="11.1400767"><ele>12.0</ele><time>2026-05-04T10:01:33.21Z</time></trkpt><trkpt lat="45.1407783" lon="11.1401683"><ele>12.0</ele><time>2026-05-04T10:01:34.208Z</time></trkpt><trkpt lat="45.1407467" lon="11.1402483"><ele>12.0</ele><time>2026-05-04T10:01:35.207Z</time></trkpt><trkpt lat="45.1406883" lon="11.1404033"><ele>12.0</ele><time>2026-05-04T10:01:37.21Z</time></trkpt><trkpt lat="45.1406367" lon="11.1405467"><ele>12.2</ele><time>2026-05-04T10:01:39.219Z</time></trkpt><trkpt lat="45.1405833" lon="11.1406933"><ele>12.399999999999999</ele><time>2026-05-04T10:01:41.208Z</time></trkpt><trkpt lat="45.140525" lon="11.1408517"><ele>12.600000000000001</ele><time>2026-05-04T10:01:43.206Z</time></trkpt><trkpt lat="45.1404983" lon="11.140935"><ele>12.8</ele><time>2026-05-04T10:01:44.213Z</time></trkpt><trkpt lat="45.1404567" lon="11.14104"><ele>13.0</ele><time>2026-05-04T10:01:46.206Z</time></trkpt><trkpt lat="45.1405233" lon="11.140965"><ele>13.0</ele><time>2026-05-04T10:01:54.218Z</time></trkpt><trkpt lat="45.14055" lon="11.1408817"><ele>13.0</ele><time>2026-05-04T10:01:55.21Z</time></trkpt><trkpt lat="45.1405933" lon="11.1407683"><ele>13.0</ele><time>2026-05-04T10:01:56.213Z</time></trkpt><trkpt lat="45.140645" lon="11.1406317"><ele>13.0</ele><time>2026-05-04T10:01:57.207Z</time></trkpt><trkpt lat="45.1406967" lon="11.1404867"><ele>13.0</ele><time>2026-05-04T10:01:58.207Z</time></trkpt><trkpt lat="45.1407483" lon="11.1403417"><ele>12.8</ele><time>2026-05-04T10:01:59.207Z</time></trkpt><trkpt lat="45.1407983" lon="11.1402"><ele>12.600000000000001</ele><time>2026-05-04T10:02:00.207Z</time></trkpt><trkpt lat="45.14085" lon="11.1400633"><ele>12.399999999999999</ele><time>2026-05-04T10:02:01.213Z</time></trkpt><trkpt lat="45.1408933" lon="11.1399467"><ele>12.2</ele><time>2026-05-04T10:02:02.207Z</time></trkpt><trkpt lat="45.140925" lon="11.1398567"><ele>12.0</ele><time>2026-05-04T10:02:03.208Z</time></trkpt><trkpt lat="45.14092" lon="11.1397317"><ele>12.0</ele><time>2026-05-04T10:02:05.211Z</time></trkpt><trkpt lat="45.1407867" lon="11.1396517"><ele>12.0</ele><time>2026-05-04T10:02:07.214Z</time></trkpt><trkpt lat="45.14067" lon="11.139625"><ele>12.0</ele><time>2026-05-04T10:02:08.21Z</time></trkpt><trkpt lat="45.1405283" lon="11.1395983"><ele>12.0</ele><time>2026-05-04T10:02:09.21Z</time></trkpt><trkpt lat="45.1403867" lon="11.1395683"><ele>12.0</ele><time>2026-05-04T10:02:10.208Z</time></trkpt><trkpt lat="45.14024" lon="11.1395383"><ele>12.0</ele><time>2026-05-04T10:02:11.206Z</time></trkpt><trkpt lat="45.1400917" lon="11.139505"><ele>12.0</ele><time>2026-05-04T10:02:12.207Z</time></trkpt><trkpt lat="45.1399417" lon="11.1394717"><ele>11.75</ele><time>2026-05-04T10:02:13.208Z</time></trkpt><trkpt lat="45.139795" lon="11.1394383"><ele>11.5</ele><time>2026-05-04T10:02:14.208Z</time></trkpt><trkpt lat="45.139645" lon="11.139405"><ele>11.25</ele><time>2026-05-04T10:02:15.207Z</time></trkpt><trkpt lat="45.1394983" lon="11.13937"><ele>11.0</ele><time>2026-05-04T10:02:16.208Z</time></trkpt><trkpt lat="45.1393517" lon="11.1393383"><ele>11.0</ele><time>2026-05-04T10:02:17.209Z</time></trkpt><trkpt lat="45.1392133" lon="11.1393083"><ele>11.0</ele><time>2026-05-04T10:02:18.209Z</time></trkpt><trkpt lat="45.13909" lon="11.1392833"><ele>11.0</ele><time>2026-05-04T10:02:19.209Z</time></trkpt><trkpt lat="45.1389867" lon="11.1392633"><ele>11.0</ele><time>2026-05-04T10:02:20.207Z</time></trkpt><trkpt lat="45.1388967" lon="11.1392533"><ele>10.8</ele><time>2026-05-04T10:02:21.206Z</time></trkpt><trkpt lat="45.1388167" lon="11.1392667"><ele>10.600000000000001</ele><time>2026-05-04T10:02:22.209Z</time></trkpt><trkpt lat="45.1387467" lon="11.13931"><ele>10.4</ele><time>2026-05-04T10:02:23.21Z</time></trkpt><trkpt lat="45.138705" lon="11.1394133"><ele>10.2</ele><time>2026-05-04T10:02:24.207Z</time></trkpt><trkpt lat="45.1386717" lon="11.13955"><ele>10.0</ele><time>2026-05-04T10:02:25.207Z</time></trkpt><trkpt lat="45.138635" lon="11.1397133"><ele>10.0</ele><time>2026-05-04T10:02:26.212Z</time></trkpt><trkpt lat="45.1385917" lon="11.13988"><ele>10.0</ele><time>2026-05-04T10:02:27.208Z</time></trkpt><trkpt lat="45.13854" lon="11.1400483"><ele>10.0</ele><time>2026-05-04T10:02:28.212Z</time></trkpt><trkpt lat="45.1384833" lon="11.1402083"><ele>10.0</ele><time>2026-05-04T10:02:29.212Z</time></trkpt><trkpt lat="45.1384183" lon="11.1403467"><ele>10.0</ele><time>2026-05-04T10:02:30.216Z</time></trkpt><trkpt lat="45.1383367" lon="11.140465"><ele>10.0</ele><time>2026-05-04T10:02:31.207Z</time></trkpt><trkpt lat="45.1382283" lon="11.1405617"><ele>10.0</ele><time>2026-05-04T10:02:32.218Z</time></trkpt><trkpt lat="45.13808" lon="11.140635"><ele>10.0</ele><time>2026-05-04T10:02:33.214Z</time></trkpt><trkpt lat="45.137915" lon="11.1406967"><ele>10.0</ele><time>2026-05-04T10:02:34.207Z</time></trkpt><trkpt lat="45.1377467" lon="11.1407567"><ele>10.0</ele><time>2026-05-04T10:02:35.21Z</time></trkpt><trkpt lat="45.1375783" lon="11.1408183"><ele>10.0</ele><time>2026-05-04T10:02:36.207Z</time></trkpt><trkpt lat="45.1374167" lon="11.1408767"><ele>10.333333333333334</ele><time>2026-05-04T10:02:37.206Z</time></trkpt><trkpt lat="45.1372617" lon="11.1409333"><ele>10.666666666666666</ele><time>2026-05-04T10:02:38.211Z</time></trkpt><trkpt lat="45.137115" lon="11.1409817"><ele>11.0</ele><time>2026-05-04T10:02:39.207Z</time></trkpt><trkpt lat="45.13697" lon="11.1410267"><ele>11.0</ele><time>2026-05-04T10:02:40.207Z</time></trkpt><trkpt lat="45.1368267" lon="11.1410717"><ele>11.0</ele><time>2026-05-04T10:02:41.21Z</time></trkpt><trkpt lat="45.1366867" lon="11.1411133"><ele>11.0</ele><time>2026-05-04T10:02:42.21Z</time></trkpt><trkpt lat="45.1365533" lon="11.141155"><ele>11.0</ele><time>2026-05-04T10:02:43.218Z</time></trkpt><trkpt lat="45.1364317" lon="11.141195"><ele>11.25</ele><time>2026-05-04T10:02:44.209Z</time></trkpt><trkpt lat="45.1363167" lon="11.1412333"><ele>11.5</ele><time>2026-05-04T10:02:45.215Z</time></trkpt><trkpt lat="45.1362067" lon="11.141275"><ele>11.75</ele><time>2026-05-04T10:02:46.207Z</time></trkpt><trkpt lat="45.1361" lon="11.1413217"><ele>12.0</ele><time>2026-05-04T10:02:47.208Z</time></trkpt><trkpt lat="45.135995" lon="11.1413633"><ele>12.0</ele><time>2026-05-04T10:02:48.211Z</time></trkpt><trkpt lat="45.1358967" lon="11.1414067"><ele>12.0</ele><time>2026-05-04T10:02:49.213Z</time></trkpt><trkpt lat="45.1358133" lon="11.141445"><ele>12.0</ele><time>2026-05-04T10:02:50.208Z</time></trkpt><trkpt lat="45.13575" lon="11.1414833"><ele>12.0</ele><time>2026-05-04T10:02:51.206Z</time></trkpt><trkpt lat="45.1356717" lon="11.141515"><ele>12.0</ele><time>2026-05-04T10:02:54.21Z</time></trkpt><trkpt lat="45.1356117" lon="11.1414683"><ele>12.0</ele><time>2026-05-04T10:02:57.214Z</time></trkpt><trkpt lat="45.135585" lon="11.1413433"><ele>11.666666666666666</ele><time>2026-05-04T10:03:00.213Z</time></trkpt><trkpt lat="45.135575" lon="11.1412417"><ele>11.333333333333334</ele><time>2026-05-04T10:03:02.22Z</time></trkpt><trkpt lat="45.1355567" lon="11.14112"><ele>11.0</ele><time>2026-05-04T10:03:04.209Z</time></trkpt><trkpt lat="45.1355367" lon="11.1410033"><ele>10.666666666666668</ele><time>2026-05-04T10:03:06.209Z</time></trkpt><trkpt lat="45.1355167" lon="11.140895"><ele>10.333333333333334</ele><time>2026-05-04T10:03:08.212Z</time></trkpt><trkpt lat="45.1354917" lon="11.1407717"><ele>10.0</ele><time>2026-05-04T10:03:10.208Z</time></trkpt><trkpt lat="45.1354617" lon="11.140635"><ele>10.0</ele><time>2026-05-04T10:03:12.212Z</time></trkpt><trkpt lat="45.13542" lon="11.1404633"><ele>10.0</ele><time>2026-05-04T10:03:14.221Z</time></trkpt><trkpt lat="45.135395" lon="11.140355"><ele>10.0</ele><time>2026-05-04T10:03:15.207Z</time></trkpt><trkpt lat="45.1353783" lon="11.1402583"><ele>10.0</ele><time>2026-05-04T10:03:16.208Z</time></trkpt><trkpt lat="45.1353617" lon="11.1401683"><ele>10.0</ele><time>2026-05-04T10:03:17.21Z</time></trkpt><trkpt lat="45.1353433" lon="11.1400783"><ele>10.0</ele><time>2026-05-04T10:03:18.208Z</time></trkpt><trkpt lat="45.135305" lon="11.13992"><ele>10.0</ele><time>2026-05-04T10:03:20.21Z</time></trkpt><trkpt lat="45.135285" lon="11.1398333"><ele>10.0</ele><time>2026-05-04T10:03:21.212Z</time></trkpt><trkpt lat="45.1352683" lon="11.1397383"><ele>10.0</ele><time>2026-05-04T10:03:22.209Z</time></trkpt><trkpt lat="45.1352483" lon="11.13964"><ele>10.0</ele><time>2026-05-04T10:03:23.214Z</time></trkpt><trkpt lat="45.13523" lon="11.13954"><ele>10.0</ele><time>2026-05-04T10:03:24.211Z</time></trkpt><trkpt lat="45.13521" lon="11.1394367"><ele>10.0</ele><time>2026-05-04T10:03:25.21Z</time></trkpt><trkpt lat="45.1351917" lon="11.1393367"><ele>10.0</ele><time>2026-05-04T10:03:26.21Z</time></trkpt><trkpt lat="45.1351733" lon="11.1392367"><ele>10.0</ele><time>2026-05-04T10:03:27.215Z</time></trkpt><trkpt lat="45.1351567" lon="11.139135"><ele>10.0</ele><time>2026-05-04T10:03:28.212Z</time></trkpt><trkpt lat="45.1351417" lon="11.1390467"><ele>10.0</ele><time>2026-05-04T10:03:29.219Z</time></trkpt><trkpt lat="45.1351167" lon="11.1389"><ele>10.0</ele><time>2026-05-04T10:03:31.21Z</time></trkpt><trkpt lat="45.1350833" lon="11.1387767"><ele>10.0</ele><time>2026-05-04T10:03:33.207Z</time></trkpt><trkpt lat="45.135025" lon="11.1386983"><ele>10.0</ele><time>2026-05-04T10:03:35.206Z</time></trkpt><trkpt lat="45.1349317" lon="11.1386683"><ele>10.0</ele><time>2026-05-04T10:03:37.205Z</time></trkpt><trkpt lat="45.1348267" lon="11.1386833"><ele>10.0</ele><time>2026-05-04T10:03:39.208Z</time></trkpt><trkpt lat="45.1347317" lon="11.1387483"><ele>10.0</ele><time>2026-05-04T10:03:41.206Z</time></trkpt><trkpt lat="45.134665" lon="11.1388283"><ele>10.0</ele><time>2026-05-04T10:03:43.206Z</time></trkpt><trkpt lat="45.1345783" lon="11.1389417"><ele>10.0</ele><time>2026-05-04T10:03:54.21Z</time></trkpt><trkpt lat="45.1344767" lon="11.1390133"><ele>10.0</ele><time>2026-05-04T10:03:56.207Z</time></trkpt><trkpt lat="45.134415" lon="11.1390317"><ele>10.0</ele><time>2026-05-04T10:03:57.214Z</time></trkpt><trkpt lat="45.13435" lon="11.1390283"><ele>10.0</ele><time>2026-05-04T10:03:58.207Z</time></trkpt><trkpt lat="45.1342767" lon="11.139015"><ele>10.0</ele><time>2026-05-04T10:03:59.207Z</time></trkpt><trkpt lat="45.1342083" lon="11.1389967"><ele>10.0</ele><time>2026-05-04T10:04:00.207Z</time></trkpt><trkpt lat="45.13414" lon="11.13898"><ele>10.0</ele><time>2026-05-04T10:04:01.209Z</time></trkpt><trkpt lat="45.1340683" lon="11.1389617"><ele>10.0</ele><time>2026-05-04T10:04:02.216Z</time></trkpt><trkpt lat="45.1340067" lon="11.13894"><ele>9.8</ele><time>2026-05-04T10:04:03.208Z</time></trkpt><trkpt lat="45.1338933" lon="11.138875"><ele>9.6</ele><time>2026-05-04T10:04:05.215Z</time></trkpt><trkpt lat="45.1338317" lon="11.1388183"><ele>9.4</ele><time>2026-05-04T10:04:06.209Z</time></trkpt><trkpt lat="45.1337633" lon="11.138745"><ele>9.2</ele><time>2026-05-04T10:04:07.208Z</time></trkpt><trkpt lat="45.13369" lon="11.13867"><ele>9.0</ele><time>2026-05-04T10:04:08.206Z</time></trkpt><trkpt lat="45.1336233" lon="11.1386133"><ele>9.0</ele><time>2026-05-04T10:04:09.211Z</time></trkpt><trkpt lat="45.1335517" lon="11.1385567"><ele>9.0</ele><time>2026-05-04T10:04:10.207Z</time></trkpt><trkpt lat="45.1334783" lon="11.1385033"><ele>9.0</ele><time>2026-05-04T10:04:11.207Z</time></trkpt><trkpt lat="45.1334083" lon="11.1384583"><ele>9.0</ele><time>2026-05-04T10:04:12.211Z</time></trkpt><trkpt lat="45.133335" lon="11.138415"><ele>9.0</ele><time>2026-05-04T10:04:13.209Z</time></trkpt><trkpt lat="45.13327" lon="11.1383767"><ele>9.0</ele><time>2026-05-04T10:04:14.217Z</time></trkpt><trkpt lat="45.1332117" lon="11.1383417"><ele>9.0</ele><time>2026-05-04T10:04:15.208Z</time></trkpt><trkpt lat="45.1331067" lon="11.1382633"><ele>9.0</ele><time>2026-05-04T10:04:17.206Z</time></trkpt><trkpt lat="45.1330283" lon="11.13816"><ele>9.0</ele><time>2026-05-04T10:04:19.206Z</time></trkpt><trkpt lat="45.1329817" lon="11.1380983"><ele>9.0</ele><time>2026-05-04T10:04:20.212Z</time></trkpt><trkpt lat="45.1328867" lon="11.1379917"><ele>9.0</ele><time>2026-05-04T10:04:22.207Z</time></trkpt><trkpt lat="45.1328333" lon="11.1379417"><ele>9.0</ele><time>2026-05-04T10:04:23.21Z</time></trkpt><trkpt lat="45.1327717" lon="11.137885"><ele>9.0</ele><time>2026-05-04T10:04:24.212Z</time></trkpt><trkpt lat="45.1327083" lon="11.1378283"><ele>9.0</ele><time>2026-05-04T10:04:25.209Z</time></trkpt><trkpt lat="45.1326417" lon="11.1377767"><ele>9.0</ele><time>2026-05-04T10:04:26.212Z</time></trkpt><trkpt lat="45.1325667" lon="11.1377217"><ele>9.0</ele><time>2026-05-04T10:04:27.211Z</time></trkpt><trkpt lat="45.1324983" lon="11.1376717"><ele>9.0</ele><time>2026-05-04T10:04:28.206Z</time></trkpt><trkpt lat="45.1324383" lon="11.1376317"><ele>9.0</ele><time>2026-05-04T10:04:29.206Z</time></trkpt><trkpt lat="45.1323433" lon="11.1375567"><ele>9.0</ele><time>2026-05-04T10:04:31.217Z</time></trkpt><trkpt lat="45.1322883" lon="11.1374717"><ele>9.0</ele><time>2026-05-04T10:04:33.208Z</time></trkpt><trkpt lat="45.132255" lon="11.13738"><ele>9.0</ele><time>2026-05-04T10:04:35.213Z</time></trkpt><trkpt lat="45.1322767" lon="11.1372567"><ele>9.0</ele><time>2026-05-04T10:04:38.213Z</time></trkpt><trkpt lat="45.1323333" lon="11.1371617"><ele>9.0</ele><time>2026-05-04T10:04:40.207Z</time></trkpt><trkpt lat="45.13235" lon="11.1370683"><ele>9.0</ele><time>2026-05-04T10:04:42.21Z</time></trkpt><trkpt lat="45.1323283" lon="11.1369833"><ele>9.0</ele><time>2026-05-04T10:04:44.211Z</time></trkpt><trkpt lat="45.1322717" lon="11.1369083"><ele>9.0</ele><time>2026-05-04T10:04:46.206Z</time></trkpt><trkpt lat="45.1322217" lon="11.1368517"><ele>9.0</ele><time>2026-05-04T10:04:47.209Z</time></trkpt><trkpt lat="45.132115" lon="11.136735"><ele>9.0</ele><time>2026-05-04T10:04:49.207Z</time></trkpt><trkpt lat="45.1320617" lon="11.136675"><ele>9.0</ele><time>2026-05-04T10:04:50.207Z</time></trkpt><trkpt lat="45.132" lon="11.1366017"><ele>9.0</ele><time>2026-05-04T10:04:51.21Z</time></trkpt><trkpt lat="45.1319367" lon="11.1365233"><ele>9.0</ele><time>2026-05-04T10:04:52.21Z</time></trkpt><trkpt lat="45.1318717" lon="11.1364417"><ele>9.0</ele><time>2026-05-04T10:04:53.209Z</time></trkpt><trkpt lat="45.1317983" lon="11.136355"><ele>9.0</ele><time>2026-05-04T10:04:54.21Z</time></trkpt><trkpt lat="45.1317133" lon="11.136265"><ele>9.0</ele><time>2026-05-04T10:04:55.212Z</time></trkpt><trkpt lat="45.13164" lon="11.1361833"><ele>9.0</ele><time>2026-05-04T10:04:56.209Z</time></trkpt><trkpt lat="45.1315683" lon="11.1361083"><ele>9.0</ele><time>2026-05-04T10:04:57.216Z</time></trkpt><trkpt lat="45.1314917" lon="11.1360317"><ele>9.0</ele><time>2026-05-04T10:04:58.21Z</time></trkpt><trkpt lat="45.1314167" lon="11.13595"><ele>9.0</ele><time>2026-05-04T10:04:59.207Z</time></trkpt><trkpt lat="45.13134" lon="11.13587"><ele>9.0</ele><time>2026-05-04T10:05:00.206Z</time></trkpt><trkpt lat="45.1312717" lon="11.135795"><ele>9.166666666666666</ele><time>2026-05-04T10:05:01.22Z</time></trkpt><trkpt lat="45.1312" lon="11.1357083"><ele>9.333333333333334</ele><time>2026-05-04T10:05:02.208Z</time></trkpt><trkpt lat="45.1311333" lon="11.1356283"><ele>9.5</ele><time>2026-05-04T10:05:03.22Z</time></trkpt><trkpt lat="45.131065" lon="11.1355483"><ele>9.666666666666668</ele><time>2026-05-04T10:05:04.21Z</time></trkpt><trkpt lat="45.1309967" lon="11.135465"><ele>9.833333333333334</ele><time>2026-05-04T10:05:05.211Z</time></trkpt><trkpt lat="45.1309367" lon="11.135385"><ele>10.0</ele><time>2026-05-04T10:05:06.213Z</time></trkpt><trkpt lat="45.1308717" lon="11.13531"><ele>10.0</ele><time>2026-05-04T10:05:07.209Z</time></trkpt><trkpt lat="45.1308033" lon="11.1352417"><ele>10.0</ele><time>2026-05-04T10:05:08.214Z</time></trkpt><trkpt lat="45.1307267" lon="11.1351817"><ele>10.0</ele><time>2026-05-04T10:05:09.207Z</time></trkpt><trkpt lat="45.130665" lon="11.1351283"><ele>10.0</ele><time>2026-05-04T10:05:10.207Z</time></trkpt><trkpt lat="45.1305767" lon="11.1350317"><ele>10.0</ele><time>2026-05-04T10:05:12.208Z</time></trkpt><trkpt lat="45.130525" lon="11.1349417"><ele>10.0</ele><time>2026-05-04T10:05:14.209Z</time></trkpt><trkpt lat="45.1304917" lon="11.1348467"><ele>9.666666666666668</ele><time>2026-05-04T10:05:16.217Z</time></trkpt><trkpt lat="45.13046" lon="11.1347017"><ele>9.333333333333334</ele><time>2026-05-04T10:05:18.209Z</time></trkpt><trkpt lat="45.130435" lon="11.1346167"><ele>9.0</ele><time>2026-05-04T10:05:19.207Z</time></trkpt><trkpt lat="45.1304067" lon="11.1345183"><ele>8.666666666666666</ele><time>2026-05-04T10:05:20.213Z</time></trkpt><trkpt lat="45.1303767" lon="11.1344183"><ele>8.333333333333332</ele><time>2026-05-04T10:05:21.208Z</time></trkpt><trkpt lat="45.130345" lon="11.1343083"><ele>8.0</ele><time>2026-05-04T10:05:22.217Z</time></trkpt><trkpt lat="45.1303117" lon="11.1341983"><ele>7.999999999999999</ele><time>2026-05-04T10:05:23.208Z</time></trkpt><trkpt lat="45.13028" lon="11.13409"><ele>8.0</ele><time>2026-05-04T10:05:24.207Z</time></trkpt><trkpt lat="45.1302483" lon="11.1339817"><ele>8.0</ele><time>2026-05-04T10:05:25.208Z</time></trkpt><trkpt lat="45.1302167" lon="11.1338717"><ele>8.0</ele><time>2026-05-04T10:05:26.207Z</time></trkpt><trkpt lat="45.13019" lon="11.1337683"><ele>7.999999999999999</ele><time>2026-05-04T10:05:27.208Z</time></trkpt><trkpt lat="45.1301667" lon="11.1336817"><ele>8.0</ele><time>2026-05-04T10:05:28.21Z</time></trkpt><trkpt lat="45.1301383" lon="11.1335783"><ele>8.0</ele><time>2026-05-04T10:05:29.214Z</time></trkpt><trkpt lat="45.1301133" lon="11.1334833"><ele>7.999999999999999</ele><time>2026-05-04T10:05:30.207Z</time></trkpt><trkpt lat="45.13009" lon="11.1333917"><ele>8.0</ele><time>2026-05-04T10:05:31.209Z</time></trkpt><trkpt lat="45.1300617" lon="11.1332933"><ele>8.0</ele><time>2026-05-04T10:05:32.211Z</time></trkpt><trkpt lat="45.130035" lon="11.1331933"><ele>7.999999999999999</ele><time>2026-05-04T10:05:33.211Z</time></trkpt><trkpt lat="45.1300083" lon="11.1330933"><ele>8.0</ele><time>2026-05-04T10:05:34.214Z</time></trkpt><trkpt lat="45.1299817" lon="11.1329867"><ele>8.0</ele><time>2026-05-04T10:05:35.211Z</time></trkpt><trkpt lat="45.129955" lon="11.1328683"><ele>8.166666666666666</ele><time>2026-05-04T10:05:36.21Z</time></trkpt><trkpt lat="45.129925" lon="11.132755"><ele>8.333333333333332</ele><time>2026-05-04T10:05:37.209Z</time></trkpt><trkpt lat="45.1298917" lon="11.1326517"><ele>8.5</ele><time>2026-05-04T10:05:38.211Z</time></trkpt><trkpt lat="45.1298617" lon="11.13255"><ele>8.666666666666666</ele><time>2026-05-04T10:05:39.211Z</time></trkpt><trkpt lat="45.129835" lon="11.132445"><ele>8.833333333333334</ele><time>2026-05-04T10:05:40.207Z</time></trkpt><trkpt lat="45.1298133" lon="11.132335"><ele>9.0</ele><time>2026-05-04T10:05:41.21Z</time></trkpt><trkpt lat="45.1297967" lon="11.1322233"><ele>9.166666666666666</ele><time>2026-05-04T10:05:42.21Z</time></trkpt><trkpt lat="45.129785" lon="11.1321133"><ele>9.333333333333334</ele><time>2026-05-04T10:05:43.209Z</time></trkpt><trkpt lat="45.1297667" lon="11.132"><ele>9.5</ele><time>2026-05-04T10:05:44.208Z</time></trkpt><trkpt lat="45.1297533" lon="11.1319017"><ele>9.666666666666668</ele><time>2026-05-04T10:05:45.207Z</time></trkpt><trkpt lat="45.1297417" lon="11.1318133"><ele>9.833333333333334</ele><time>2026-05-04T10:05:46.207Z</time></trkpt><trkpt lat="45.129725" lon="11.1316617"><ele>10.0</ele><time>2026-05-04T10:05:48.209Z</time></trkpt><trkpt lat="45.129725" lon="11.13155"><ele>10.0</ele><time>2026-05-04T10:05:50.209Z</time></trkpt><trkpt lat="45.1297217" lon="11.131455"><ele>10.0</ele><time>2026-05-04T10:05:52.208Z</time></trkpt><trkpt lat="45.1296767" lon="11.1313417"><ele>10.0</ele><time>2026-05-04T10:05:54.207Z</time></trkpt><trkpt lat="45.12963" lon="11.1312633"><ele>10.0</ele><time>2026-05-04T10:05:55.209Z</time></trkpt><trkpt lat="45.1295733" lon="11.13118"><ele>10.0</ele><time>2026-05-04T10:05:56.217Z</time></trkpt><trkpt lat="45.1295183" lon="11.1311"><ele>10.0</ele><time>2026-05-04T10:05:57.21Z</time></trkpt><trkpt lat="45.1294567" lon="11.1310117"><ele>10.0</ele><time>2026-05-04T10:05:58.206Z</time></trkpt><trkpt lat="45.12939" lon="11.130915"><ele>10.0</ele><time>2026-05-04T10:05:59.207Z</time></trkpt><trkpt lat="45.1293233" lon="11.1308133"><ele>10.0</ele><time>2026-05-04T10:06:00.22Z</time></trkpt><trkpt lat="45.1292533" lon="11.130705"><ele>10.0</ele><time>2026-05-04T10:06:01.207Z</time></trkpt><trkpt lat="45.1291817" lon="11.130595"><ele>10.0</ele><time>2026-05-04T10:06:02.217Z</time></trkpt><trkpt lat="45.129105" lon="11.1304833"><ele>9.75</ele><time>2026-05-04T10:06:03.207Z</time></trkpt><trkpt lat="45.1290217" lon="11.1303617"><ele>9.5</ele><time>2026-05-04T10:06:04.21Z</time></trkpt><trkpt lat="45.1289333" lon="11.1302317"><ele>9.25</ele><time>2026-05-04T10:06:05.208Z</time></trkpt><trkpt lat="45.128845" lon="11.1301"><ele>9.0</ele><time>2026-05-04T10:06:06.209Z</time></trkpt><trkpt lat="45.1287533" lon="11.1299667"><ele>9.0</ele><time>2026-05-04T10:06:07.209Z</time></trkpt><trkpt lat="45.12866" lon="11.1298417"><ele>9.0</ele><time>2026-05-04T10:06:08.207Z</time></trkpt><trkpt lat="45.1285667" lon="11.1297133"><ele>9.0</ele><time>2026-05-04T10:06:09.221Z</time></trkpt><trkpt lat="45.1284683" lon="11.12958"><ele>9.0</ele><time>2026-05-04T10:06:10.209Z</time></trkpt><trkpt lat="45.1283633" lon="11.1294317"><ele>9.0</ele><time>2026-05-04T10:06:11.21Z</time></trkpt><trkpt lat="45.1282533" lon="11.129275"><ele>9.0</ele><time>2026-05-04T10:06:12.212Z</time></trkpt><trkpt lat="45.1281433" lon="11.129115"><ele>9.0</ele><time>2026-05-04T10:06:13.209Z</time></trkpt><trkpt lat="45.1280283" lon="11.12895"><ele>9.666666666666666</ele><time>2026-05-04T10:06:14.21Z</time></trkpt><trkpt lat="45.12791" lon="11.128785"><ele>10.333333333333332</ele><time>2026-05-04T10:06:15.207Z</time></trkpt><trkpt lat="45.1277933" lon="11.1286217"><ele>11.0</ele><time>2026-05-04T10:06:16.208Z</time></trkpt><trkpt lat="45.1276833" lon="11.1284667"><ele>11.0</ele><time>2026-05-04T10:06:17.206Z</time></trkpt><trkpt lat="45.1275783" lon="11.1283217"><ele>11.0</ele><time>2026-05-04T10:06:18.207Z</time></trkpt><trkpt lat="45.127475" lon="11.128175"><ele>11.0</ele><time>2026-05-04T10:06:19.207Z</time></trkpt><trkpt lat="45.127375" lon="11.1280267"><ele>11.0</ele><time>2026-05-04T10:06:20.21Z</time></trkpt><trkpt lat="45.1272717" lon="11.1278767"><ele>11.666666666666666</ele><time>2026-05-04T10:06:21.217Z</time></trkpt><trkpt lat="45.12717" lon="11.127725"><ele>12.333333333333332</ele><time>2026-05-04T10:06:22.207Z</time></trkpt><trkpt lat="45.1270583" lon="11.1275717"><ele>13.0</ele><time>2026-05-04T10:06:23.207Z</time></trkpt><trkpt lat="45.12695" lon="11.1274167"><ele>12.75</ele><time>2026-05-04T10:06:24.207Z</time></trkpt><trkpt lat="45.12684" lon="11.1272633"><ele>12.5</ele><time>2026-05-04T10:06:25.214Z</time></trkpt><trkpt lat="45.12673" lon="11.1271167"><ele>12.25</ele><time>2026-05-04T10:06:26.211Z</time></trkpt><trkpt lat="45.12663" lon="11.12698"><ele>12.0</ele><time>2026-05-04T10:06:27.205Z</time></trkpt><trkpt lat="45.12653" lon="11.1268467"><ele>11.75</ele><time>2026-05-04T10:06:28.207Z</time></trkpt><trkpt lat="45.1264283" lon="11.1267083"><ele>11.5</ele><time>2026-05-04T10:06:29.21Z</time></trkpt><trkpt lat="45.126325" lon="11.1265633"><ele>11.25</ele><time>2026-05-04T10:06:30.207Z</time></trkpt><trkpt lat="45.126225" lon="11.1264167"><ele>11.0</ele><time>2026-05-04T10:06:31.21Z</time></trkpt><trkpt lat="45.1261283" lon="11.1262783"><ele>11.0</ele><time>2026-05-04T10:06:32.22Z</time></trkpt><trkpt lat="45.12604" lon="11.1261517"><ele>11.0</ele><time>2026-05-04T10:06:33.208Z</time></trkpt><trkpt lat="45.1259567" lon="11.126035"><ele>11.0</ele><time>2026-05-04T10:06:34.209Z</time></trkpt><trkpt lat="45.125885" lon="11.1259283"><ele>11.0</ele><time>2026-05-04T10:06:35.208Z</time></trkpt><trkpt lat="45.1258217" lon="11.1258333"><ele>11.0</ele><time>2026-05-04T10:06:36.208Z</time></trkpt><trkpt lat="45.1257733" lon="11.1257583"><ele>11.0</ele><time>2026-05-04T10:06:37.207Z</time></trkpt><trkpt lat="45.12573" lon="11.1256883"><ele>11.0</ele><time>2026-05-04T10:06:39.21Z</time></trkpt><trkpt lat="45.125655" lon="11.1256717"><ele>11.0</ele><time>2026-05-04T10:06:45.213Z</time></trkpt><trkpt lat="45.1255767" lon="11.1257017"><ele>11.0</ele><time>2026-05-04T10:06:46.208Z</time></trkpt><trkpt lat="45.1254833" lon="11.125775"><ele>11.0</ele><time>2026-05-04T10:06:47.21Z</time></trkpt><trkpt lat="45.12536" lon="11.1258833"><ele>11.0</ele><time>2026-05-04T10:06:48.216Z</time></trkpt><trkpt lat="45.1252217" lon="11.1259917"><ele>11.0</ele><time>2026-05-04T10:06:49.208Z</time></trkpt><trkpt lat="45.1250617" lon="11.1261367"><ele>11.0</ele><time>2026-05-04T10:06:50.211Z</time></trkpt><trkpt lat="45.1248933" lon="11.1262917"><ele>11.0</ele><time>2026-05-04T10:06:51.206Z</time></trkpt><trkpt lat="45.1247117" lon="11.1264633"><ele>11.0</ele><time>2026-05-04T10:06:52.207Z</time></trkpt><trkpt lat="45.1245233" lon="11.1266617"><ele>11.0</ele><time>2026-05-04T10:06:53.206Z</time></trkpt><trkpt lat="45.1243317" lon="11.126885"><ele>11.0</ele><time>2026-05-04T10:06:54.208Z</time></trkpt><trkpt lat="45.1241383" lon="11.127145"><ele>11.5</ele><time>2026-05-04T10:06:55.207Z</time></trkpt><trkpt lat="45.123945" lon="11.1274267"><ele>12.0</ele><time>2026-05-04T10:06:56.212Z</time></trkpt><trkpt lat="45.12375" lon="11.1277183"><ele>12.0</ele><time>2026-05-04T10:06:57.219Z</time></trkpt><trkpt lat="45.1235533" lon="11.12803"><ele>12.0</ele><time>2026-05-04T10:06:58.207Z</time></trkpt><trkpt lat="45.1233533" lon="11.128355"><ele>11.5</ele><time>2026-05-04T10:06:59.21Z</time></trkpt><trkpt lat="45.1231467" lon="11.1286883"><ele>11.0</ele><time>2026-05-04T10:07:00.207Z</time></trkpt><trkpt lat="45.122935" lon="11.1290317"><ele>11.5</ele><time>2026-05-04T10:07:01.208Z</time></trkpt><trkpt lat="45.1227167" lon="11.1293817"><ele>12.0</ele><time>2026-05-04T10:07:02.212Z</time></trkpt><trkpt lat="45.1224933" lon="11.1297383"><ele>11.5</ele><time>2026-05-04T10:07:03.207Z</time></trkpt><trkpt lat="45.1222683" lon="11.1301017"><ele>11.0</ele><time>2026-05-04T10:07:04.209Z</time></trkpt><trkpt lat="45.1220417" lon="11.1304733"><ele>10.5</ele><time>2026-05-04T10:07:05.208Z</time></trkpt><trkpt lat="45.1218167" lon="11.1308567"><ele>10.0</ele><time>2026-05-04T10:07:06.21Z</time></trkpt><trkpt lat="45.1215933" lon="11.1312417"><ele>11.0</ele><time>2026-05-04T10:07:07.209Z</time></trkpt><trkpt lat="45.1213833" lon="11.1316"><ele>12.0</ele><time>2026-05-04T10:07:08.213Z</time></trkpt><trkpt lat="45.12119" lon="11.1319333"><ele>12.0</ele><time>2026-05-04T10:07:09.207Z</time></trkpt><trkpt lat="45.1210083" lon="11.13225"><ele>12.0</ele><time>2026-05-04T10:07:10.211Z</time></trkpt><trkpt lat="45.120835" lon="11.13256"><ele>12.0</ele><time>2026-05-04T10:07:11.208Z</time></trkpt><trkpt lat="45.1206633" lon="11.1328667"><ele>12.0</ele><time>2026-05-04T10:07:12.216Z</time></trkpt><trkpt lat="45.120495" lon="11.133155"><ele>12.5</ele><time>2026-05-04T10:07:13.208Z</time></trkpt><trkpt lat="45.12033" lon="11.1334133"><ele>13.0</ele><time>2026-05-04T10:07:14.21Z</time></trkpt><trkpt lat="45.12017" lon="11.133645"><ele>13.0</ele><time>2026-05-04T10:07:15.208Z</time></trkpt><trkpt lat="45.1200217" lon="11.1338567"><ele>13.0</ele><time>2026-05-04T10:07:16.212Z</time></trkpt><trkpt lat="45.1198817" lon="11.1340583"><ele>13.0</ele><time>2026-05-04T10:07:17.206Z</time></trkpt><trkpt lat="45.1197483" lon="11.1342483"><ele>12.666666666666666</ele><time>2026-05-04T10:07:18.206Z</time></trkpt><trkpt lat="45.1196217" lon="11.1344233"><ele>12.333333333333332</ele><time>2026-05-04T10:07:19.215Z</time></trkpt><trkpt lat="45.1195017" lon="11.1345883"><ele>12.0</ele><time>2026-05-04T10:07:20.208Z</time></trkpt><trkpt lat="45.1193867" lon="11.1347433"><ele>11.75</ele><time>2026-05-04T10:07:21.212Z</time></trkpt><trkpt lat="45.11928" lon="11.1348883"><ele>11.5</ele><time>2026-05-04T10:07:22.212Z</time></trkpt><trkpt lat="45.1191767" lon="11.1350267"><ele>11.25</ele><time>2026-05-04T10:07:23.212Z</time></trkpt><trkpt lat="45.11908" lon="11.135155"><ele>11.0</ele><time>2026-05-04T10:07:24.207Z</time></trkpt><trkpt lat="45.11899" lon="11.1352767"><ele>10.8</ele><time>2026-05-04T10:07:25.209Z</time></trkpt><trkpt lat="45.118905" lon="11.1353917"><ele>10.600000000000001</ele><time>2026-05-04T10:07:26.214Z</time></trkpt><trkpt lat="45.1188233" lon="11.135505"><ele>10.4</ele><time>2026-05-04T10:07:27.214Z</time></trkpt><trkpt lat="45.118745" lon="11.135615"><ele>10.2</ele><time>2026-05-04T10:07:28.208Z</time></trkpt><trkpt lat="45.11868" lon="11.1357067"><ele>10.0</ele><time>2026-05-04T10:07:29.205Z</time></trkpt><trkpt lat="45.1186217" lon="11.13579"><ele>9.833333333333334</ele><time>2026-05-04T10:07:30.207Z</time></trkpt><trkpt lat="45.11857" lon="11.1358733"><ele>9.666666666666668</ele><time>2026-05-04T10:07:31.21Z</time></trkpt><trkpt lat="45.1185183" lon="11.1359533"><ele>9.5</ele><time>2026-05-04T10:07:32.207Z</time></trkpt><trkpt lat="45.1184683" lon="11.1360217"><ele>9.333333333333334</ele><time>2026-05-04T10:07:33.216Z</time></trkpt><trkpt lat="45.11839" lon="11.1361283"><ele>9.166666666666666</ele><time>2026-05-04T10:07:35.206Z</time></trkpt><trkpt lat="45.118335" lon="11.1362"><ele>9.0</ele><time>2026-05-04T10:07:37.206Z</time></trkpt><trkpt lat="45.1182667" lon="11.1363817"><ele>9.25</ele><time>2026-05-04T10:08:26.206Z</time></trkpt><trkpt lat="45.1181833" lon="11.1365217"><ele>9.5</ele><time>2026-05-04T10:08:27.208Z</time></trkpt><trkpt lat="45.1181117" lon="11.1366333"><ele>9.75</ele><time>2026-05-04T10:08:28.206Z</time></trkpt><trkpt lat="45.11803" lon="11.1367583"><ele>10.0</ele><time>2026-05-04T10:08:29.214Z</time></trkpt><trkpt lat="45.1179367" lon="11.1368783"><ele>11.0</ele><time>2026-05-04T10:08:30.207Z</time></trkpt><trkpt lat="45.1178267" lon="11.1370017"><ele>12.0</ele><time>2026-05-04T10:08:31.21Z</time></trkpt><trkpt lat="45.1176883" lon="11.137135"><ele>13.0</ele><time>2026-05-04T10:08:32.21Z</time></trkpt><trkpt lat="45.1175333" lon="11.1372767"><ele>13.333333333333332</ele><time>2026-05-04T10:08:33.207Z</time></trkpt><trkpt lat="45.1173733" lon="11.137425"><ele>13.666666666666668</ele><time>2026-05-04T10:08:34.218Z</time></trkpt><trkpt lat="45.1172183" lon="11.137585"><ele>14.0</ele><time>2026-05-04T10:08:35.207Z</time></trkpt><trkpt lat="45.1170633" lon="11.1377433"><ele>14.0</ele><time>2026-05-04T10:08:36.208Z</time></trkpt><trkpt lat="45.1169" lon="11.1378983"><ele>14.0</ele><time>2026-05-04T10:08:37.216Z</time></trkpt><trkpt lat="45.11673" lon="11.1380367"><ele>14.0</ele><time>2026-05-04T10:08:38.208Z</time></trkpt><trkpt lat="45.1165517" lon="11.1381683"><ele>11.5</ele><time>2026-05-04T10:08:39.206Z</time></trkpt><trkpt lat="45.116345" lon="11.1383117"><ele>9.0</ele><time>2026-05-04T10:08:40.207Z</time></trkpt><trkpt lat="45.116125" lon="11.1384433"><ele>9.0</ele><time>2026-05-04T10:08:41.209Z</time></trkpt><trkpt lat="45.1158917" lon="11.1385483"><ele>9.0</ele><time>2026-05-04T10:08:42.215Z</time></trkpt><trkpt lat="45.1156383" lon="11.1386517"><ele>9.0</ele><time>2026-05-04T10:08:43.207Z</time></trkpt><trkpt lat="45.115375" lon="11.138745"><ele>9.0</ele><time>2026-05-04T10:08:44.212Z</time></trkpt><trkpt lat="45.1151017" lon="11.138835"><ele>9.5</ele><time>2026-05-04T10:08:45.207Z</time></trkpt><trkpt lat="45.1148283" lon="11.1389233"><ele>10.0</ele><time>2026-05-04T10:08:46.206Z</time></trkpt><trkpt lat="45.1145583" lon="11.13901"><ele>10.0</ele><time>2026-05-04T10:08:47.206Z</time></trkpt><trkpt lat="45.114295" lon="11.1390917"><ele>10.0</ele><time>2026-05-04T10:08:48.211Z</time></trkpt><trkpt lat="45.1140333" lon="11.1391767"><ele>11.5</ele><time>2026-05-04T10:08:49.207Z</time></trkpt><trkpt lat="45.113775" lon="11.139265"><ele>13.0</ele><time>2026-05-04T10:08:50.213Z</time></trkpt><trkpt lat="45.1135217" lon="11.1393533"><ele>13.0</ele><time>2026-05-04T10:08:51.213Z</time></trkpt><trkpt lat="45.1132733" lon="11.1394467"><ele>13.0</ele><time>2026-05-04T10:08:52.21Z</time></trkpt><trkpt lat="45.1130233" lon="11.1395517"><ele>12.5</ele><time>2026-05-04T10:08:53.208Z</time></trkpt><trkpt lat="45.1127633" lon="11.13967"><ele>12.0</ele><time>2026-05-04T10:08:54.209Z</time></trkpt><trkpt lat="45.1124933" lon="11.1398033"><ele>12.5</ele><time>2026-05-04T10:08:55.21Z</time></trkpt><trkpt lat="45.1122133" lon="11.1399517"><ele>13.0</ele><time>2026-05-04T10:08:56.207Z</time></trkpt><trkpt lat="45.1119267" lon="11.14012"><ele>13.0</ele><time>2026-05-04T10:08:57.209Z</time></trkpt><trkpt lat="45.1116317" lon="11.1402983"><ele>13.0</ele><time>2026-05-04T10:08:58.208Z</time></trkpt><trkpt lat="45.1113283" lon="11.1404917"><ele>12.0</ele><time>2026-05-04T10:08:59.211Z</time></trkpt><trkpt lat="45.1110183" lon="11.1406867"><ele>11.0</ele><time>2026-05-04T10:09:00.21Z</time></trkpt><trkpt lat="45.110705" lon="11.140885"><ele>10.5</ele><time>2026-05-04T10:09:01.207Z</time></trkpt><trkpt lat="45.1103833" lon="11.1410883"><ele>10.0</ele><time>2026-05-04T10:09:02.21Z</time></trkpt><trkpt lat="45.1100583" lon="11.1412917"><ele>11.0</ele><time>2026-05-04T10:09:03.207Z</time></trkpt><trkpt lat="45.109735" lon="11.141495"><ele>12.0</ele><time>2026-05-04T10:09:04.223Z</time></trkpt><trkpt lat="45.1094267" lon="11.1416883"><ele>12.5</ele><time>2026-05-04T10:09:05.206Z</time></trkpt><trkpt lat="45.1091383" lon="11.1418683"><ele>13.0</ele><time>2026-05-04T10:09:06.214Z</time></trkpt><trkpt lat="45.10886" lon="11.1420467"><ele>12.0</ele><time>2026-05-04T10:09:07.208Z</time></trkpt><trkpt lat="45.1085883" lon="11.1422183"><ele>11.0</ele><time>2026-05-04T10:09:08.207Z</time></trkpt><trkpt lat="45.1083267" lon="11.1423833"><ele>11.0</ele><time>2026-05-04T10:09:09.208Z</time></trkpt><trkpt lat="45.10807" lon="11.1425433"><ele>11.0</ele><time>2026-05-04T10:09:10.211Z</time></trkpt><trkpt lat="45.107815" lon="11.142695"><ele>11.0</ele><time>2026-05-04T10:09:11.208Z</time></trkpt><trkpt lat="45.10756" lon="11.1428417"><ele>11.0</ele><time>2026-05-04T10:09:12.207Z</time></trkpt><trkpt lat="45.1072917" lon="11.142975"><ele>11.0</ele><time>2026-05-04T10:09:13.208Z</time></trkpt><trkpt lat="45.1070083" lon="11.1430917"><ele>11.0</ele><time>2026-05-04T10:09:14.209Z</time></trkpt><trkpt lat="45.10671" lon="11.1432"><ele>10.5</ele><time>2026-05-04T10:09:15.212Z</time></trkpt><trkpt lat="45.1063967" lon="11.1432967"><ele>10.0</ele><time>2026-05-04T10:09:16.215Z</time></trkpt><trkpt lat="45.1060767" lon="11.143395"><ele>10.0</ele><time>2026-05-04T10:09:17.209Z</time></trkpt><trkpt lat="45.10575" lon="11.1434883"><ele>10.0</ele><time>2026-05-04T10:09:18.207Z</time></trkpt><trkpt lat="45.1054167" lon="11.1435833"><ele>10.0</ele><time>2026-05-04T10:09:19.217Z</time></trkpt><trkpt lat="45.1050767" lon="11.1436817"><ele>10.0</ele><time>2026-05-04T10:09:20.207Z</time></trkpt><trkpt lat="45.1047367" lon="11.1437783"><ele>10.0</ele><time>2026-05-04T10:09:21.208Z</time></trkpt><trkpt lat="45.1043933" lon="11.143875"><ele>10.0</ele><time>2026-05-04T10:09:22.207Z</time></trkpt><trkpt lat="45.104055" lon="11.1439667"><ele>10.5</ele><time>2026-05-04T10:09:23.212Z</time></trkpt><trkpt lat="45.1037233" lon="11.1440533"><ele>11.0</ele><time>2026-05-04T10:09:24.207Z</time></trkpt><trkpt lat="45.1033983" lon="11.1441333"><ele>10.5</ele><time>2026-05-04T10:09:25.212Z</time></trkpt><trkpt lat="45.1030833" lon="11.1442067"><ele>10.0</ele><time>2026-05-04T10:09:26.208Z</time></trkpt><trkpt lat="45.102775" lon="11.1442667"><ele>10.0</ele><time>2026-05-04T10:09:27.206Z</time></trkpt><trkpt lat="45.1024733" lon="11.144315"><ele>10.0</ele><time>2026-05-04T10:09:28.207Z</time></trkpt><trkpt lat="45.1021717" lon="11.1443533"><ele>9.5</ele><time>2026-05-04T10:09:29.207Z</time></trkpt><trkpt lat="45.1018717" lon="11.14438"><ele>9.0</ele><time>2026-05-04T10:09:30.207Z</time></trkpt><trkpt lat="45.1015717" lon="11.1443983"><ele>9.0</ele><time>2026-05-04T10:09:31.21Z</time></trkpt><trkpt lat="45.1012717" lon="11.144405"><ele>9.0</ele><time>2026-05-04T10:09:32.207Z</time></trkpt><trkpt lat="45.100975" lon="11.1444"><ele>10.0</ele><time>2026-05-04T10:09:33.212Z</time></trkpt><trkpt lat="45.10068" lon="11.1443867"><ele>11.0</ele><time>2026-05-04T10:09:34.207Z</time></trkpt><trkpt lat="45.1003883" lon="11.144365"><ele>11.0</ele><time>2026-05-04T10:09:35.213Z</time></trkpt><trkpt lat="45.1000967" lon="11.1443367"><ele>11.0</ele><time>2026-05-04T10:09:36.208Z</time></trkpt><trkpt lat="45.0998033" lon="11.1442967"><ele>11.5</ele><time>2026-05-04T10:09:37.207Z</time></trkpt><trkpt lat="45.09951" lon="11.1442517"><ele>12.0</ele><time>2026-05-04T10:09:38.213Z</time></trkpt><trkpt lat="45.0992117" lon="11.144195"><ele>11.5</ele><time>2026-05-04T10:09:39.213Z</time></trkpt><trkpt lat="45.09891" lon="11.1441267"><ele>11.0</ele><time>2026-05-04T10:09:40.214Z</time></trkpt><trkpt lat="45.0986067" lon="11.1440483"><ele>10.5</ele><time>2026-05-04T10:09:41.207Z</time></trkpt><trkpt lat="45.0983033" lon="11.1439617"><ele>10.0</ele><time>2026-05-04T10:09:42.21Z</time></trkpt><trkpt lat="45.0980033" lon="11.1438667"><ele>11.0</ele><time>2026-05-04T10:09:43.208Z</time></trkpt><trkpt lat="45.0977117" lon="11.14377"><ele>12.0</ele><time>2026-05-04T10:09:44.209Z</time></trkpt><trkpt lat="45.0974267" lon="11.1436733"><ele>11.5</ele><time>2026-05-04T10:09:45.207Z</time></trkpt><trkpt lat="45.0971467" lon="11.143575"><ele>11.0</ele><time>2026-05-04T10:09:46.207Z</time></trkpt><trkpt lat="45.0968717" lon="11.1434783"><ele>11.0</ele><time>2026-05-04T10:09:47.208Z</time></trkpt><trkpt lat="45.0966033" lon="11.1433833"><ele>11.0</ele><time>2026-05-04T10:09:48.21Z</time></trkpt><trkpt lat="45.0963383" lon="11.14329"><ele>11.0</ele><time>2026-05-04T10:09:49.219Z</time></trkpt><trkpt lat="45.096075" lon="11.1431983"><ele>11.0</ele><time>2026-05-04T10:09:50.207Z</time></trkpt><trkpt lat="45.0958083" lon="11.1431033"><ele>12.0</ele><time>2026-05-04T10:09:51.21Z</time></trkpt><trkpt lat="45.0955383" lon="11.1430067"><ele>13.0</ele><time>2026-05-04T10:09:52.211Z</time></trkpt><trkpt lat="45.0952633" lon="11.1429067"><ele>13.0</ele><time>2026-05-04T10:09:53.221Z</time></trkpt><trkpt lat="45.0949867" lon="11.142805"><ele>13.0</ele><time>2026-05-04T10:09:54.211Z</time></trkpt><trkpt lat="45.09471" lon="11.1427033"><ele>12.0</ele><time>2026-05-04T10:09:55.216Z</time></trkpt><trkpt lat="45.0944333" lon="11.142605"><ele>11.0</ele><time>2026-05-04T10:09:56.213Z</time></trkpt><trkpt lat="45.09416" lon="11.1425083"><ele>11.5</ele><time>2026-05-04T10:09:57.213Z</time></trkpt><trkpt lat="45.0939033" lon="11.1424167"><ele>12.0</ele><time>2026-05-04T10:09:58.213Z</time></trkpt><trkpt lat="45.0936583" lon="11.14233"><ele>12.0</ele><time>2026-05-04T10:09:59.215Z</time></trkpt><trkpt lat="45.0934267" lon="11.1422467"><ele>12.0</ele><time>2026-05-04T10:10:00.209Z</time></trkpt><trkpt lat="45.0931983" lon="11.1421683"><ele>12.333333333333332</ele><time>2026-05-04T10:10:01.207Z</time></trkpt><trkpt lat="45.0929783" lon="11.14209"><ele>12.666666666666666</ele><time>2026-05-04T10:10:02.208Z</time></trkpt><trkpt lat="45.0927667" lon="11.1420133"><ele>13.0</ele><time>2026-05-04T10:10:03.207Z</time></trkpt><trkpt lat="45.0925767" lon="11.1419417"><ele>13.25</ele><time>2026-05-04T10:10:04.207Z</time></trkpt><trkpt lat="45.0924167" lon="11.1418767"><ele>13.5</ele><time>2026-05-04T10:10:05.207Z</time></trkpt><trkpt lat="45.0922833" lon="11.1418167"><ele>13.75</ele><time>2026-05-04T10:10:06.206Z</time></trkpt><trkpt lat="45.092165" lon="11.1417517"><ele>14.0</ele><time>2026-05-04T10:10:07.207Z</time></trkpt><trkpt lat="45.0920583" lon="11.14166"><ele>14.0</ele><time>2026-05-04T10:10:08.208Z</time></trkpt><trkpt lat="45.091965" lon="11.1415517"><ele>14.0</ele><time>2026-05-04T10:10:09.208Z</time></trkpt><trkpt lat="45.0918633" lon="11.1414483"><ele>14.0</ele><time>2026-05-04T10:10:10.207Z</time></trkpt><trkpt lat="45.0917417" lon="11.1413767"><ele>14.0</ele><time>2026-05-04T10:10:11.206Z</time></trkpt><trkpt lat="45.0916017" lon="11.14134"><ele>13.666666666666668</ele><time>2026-05-04T10:10:12.209Z</time></trkpt><trkpt lat="45.0914483" lon="11.1413133"><ele>13.333333333333332</ele><time>2026-05-04T10:10:13.212Z</time></trkpt><trkpt lat="45.0912883" lon="11.1412717"><ele>13.0</ele><time>2026-05-04T10:10:14.21Z</time></trkpt><trkpt lat="45.0911133" lon="11.1411983"><ele>13.0</ele><time>2026-05-04T10:10:15.209Z</time></trkpt><trkpt lat="45.0909267" lon="11.1411"><ele>13.0</ele><time>2026-05-04T10:10:16.209Z</time></trkpt><trkpt lat="45.0907417" lon="11.1409783"><ele>13.0</ele><time>2026-05-04T10:10:17.21Z</time></trkpt><trkpt lat="45.090555" lon="11.1408467"><ele>13.0</ele><time>2026-05-04T10:10:18.21Z</time></trkpt><trkpt lat="45.0903683" lon="11.1407133"><ele>13.0</ele><time>2026-05-04T10:10:19.209Z</time></trkpt><trkpt lat="45.0901817" lon="11.1405783"><ele>13.0</ele><time>2026-05-04T10:10:20.21Z</time></trkpt><trkpt lat="45.0899983" lon="11.1404433"><ele>13.333333333333332</ele><time>2026-05-04T10:10:21.208Z</time></trkpt><trkpt lat="45.0898183" lon="11.14031"><ele>13.666666666666668</ele><time>2026-05-04T10:10:22.213Z</time></trkpt><trkpt lat="45.08964" lon="11.14018"><ele>14.0</ele><time>2026-05-04T10:10:23.209Z</time></trkpt><trkpt lat="45.0894617" lon="11.140055"><ele>14.0</ele><time>2026-05-04T10:10:24.208Z</time></trkpt><trkpt lat="45.08928" lon="11.139935"><ele>14.0</ele><time>2026-05-04T10:10:25.208Z</time></trkpt><trkpt lat="45.0890967" lon="11.1398183"><ele>14.0</ele><time>2026-05-04T10:10:26.208Z</time></trkpt><trkpt lat="45.0889083" lon="11.1397083"><ele>14.0</ele><time>2026-05-04T10:10:27.212Z</time></trkpt><trkpt lat="45.0887183" lon="11.1395983"><ele>14.0</ele><time>2026-05-04T10:10:28.206Z</time></trkpt><trkpt lat="45.088525" lon="11.139495"><ele>14.0</ele><time>2026-05-04T10:10:29.211Z</time></trkpt><trkpt lat="45.0883267" lon="11.1394"><ele>13.0</ele><time>2026-05-04T10:10:30.214Z</time></trkpt><trkpt lat="45.088125" lon="11.1393117"><ele>12.0</ele><time>2026-05-04T10:10:31.207Z</time></trkpt><trkpt lat="45.0879217" lon="11.1392283"><ele>11.0</ele><time>2026-05-04T10:10:32.217Z</time></trkpt><trkpt lat="45.0877233" lon="11.1391517"><ele>11.0</ele><time>2026-05-04T10:10:33.21Z</time></trkpt><trkpt lat="45.0875383" lon="11.1390817"><ele>11.0</ele><time>2026-05-04T10:10:34.209Z</time></trkpt><trkpt lat="45.0873633" lon="11.139015"><ele>11.0</ele><time>2026-05-04T10:10:35.207Z</time></trkpt><trkpt lat="45.0871933" lon="11.1389533"><ele>11.333333333333332</ele><time>2026-05-04T10:10:36.209Z</time></trkpt><trkpt lat="45.0870333" lon="11.138895"><ele>11.666666666666666</ele><time>2026-05-04T10:10:37.209Z</time></trkpt><trkpt lat="45.0868833" lon="11.1388417"><ele>12.0</ele><time>2026-05-04T10:10:38.208Z</time></trkpt><trkpt lat="45.0867417" lon="11.1387933"><ele>12.0</ele><time>2026-05-04T10:10:39.211Z</time></trkpt><trkpt lat="45.08661" lon="11.1387467"><ele>12.0</ele><time>2026-05-04T10:10:40.208Z</time></trkpt><trkpt lat="45.0864917" lon="11.138705"><ele>12.0</ele><time>2026-05-04T10:10:41.211Z</time></trkpt><trkpt lat="45.0863767" lon="11.138665"><ele>12.0</ele><time>2026-05-04T10:10:42.208Z</time></trkpt><trkpt lat="45.0862717" lon="11.1386283"><ele>12.0</ele><time>2026-05-04T10:10:43.209Z</time></trkpt><trkpt lat="45.0861867" lon="11.1385967"><ele>12.0</ele><time>2026-05-04T10:10:44.211Z</time></trkpt><trkpt lat="45.086085" lon="11.1385483"><ele>12.0</ele><time>2026-05-04T10:10:46.211Z</time></trkpt><trkpt lat="45.0860167" lon="11.1385033"><ele>12.0</ele><time>2026-05-04T10:10:49.214Z</time></trkpt><trkpt lat="45.0859533" lon="11.1384433"><ele>12.0</ele><time>2026-05-04T10:10:52.212Z</time></trkpt><trkpt lat="45.08588" lon="11.138315"><ele>12.0</ele><time>2026-05-04T10:10:54.208Z</time></trkpt><trkpt lat="45.0858467" lon="11.1382283"><ele>12.0</ele><time>2026-05-04T10:10:55.207Z</time></trkpt><trkpt lat="45.0857983" lon="11.13814"><ele>12.0</ele><time>2026-05-04T10:10:56.207Z</time></trkpt><trkpt lat="45.085725" lon="11.13807"><ele>12.0</ele><time>2026-05-04T10:10:57.206Z</time></trkpt><trkpt lat="45.08564" lon="11.1380367"><ele>12.0</ele><time>2026-05-04T10:10:58.206Z</time></trkpt><trkpt lat="45.0855433" lon="11.1380383"><ele>12.0</ele><time>2026-05-04T10:10:59.212Z</time></trkpt><trkpt lat="45.0854483" lon="11.1380767"><ele>14.0</ele><time>2026-05-04T10:11:00.206Z</time></trkpt><trkpt lat="45.0853533" lon="11.1381283"><ele>16.0</ele><time>2026-05-04T10:11:01.215Z</time></trkpt><trkpt lat="45.0852583" lon="11.1381617"><ele>18.0</ele><time>2026-05-04T10:11:02.214Z</time></trkpt><trkpt lat="45.0851667" lon="11.1381667"><ele>20.0</ele><time>2026-05-04T10:11:03.207Z</time></trkpt><trkpt lat="45.0850783" lon="11.1381517"><ele>22.0</ele><time>2026-05-04T10:11:04.206Z</time></trkpt><trkpt lat="45.0849883" lon="11.1381283"><ele>20.8</ele><time>2026-05-04T10:11:05.206Z</time></trkpt><trkpt lat="45.0848983" lon="11.1381017"><ele>19.6</ele><time>2026-05-04T10:11:06.208Z</time></trkpt><trkpt lat="45.084805" lon="11.138075"><ele>18.400000000000002</ele><time>2026-05-04T10:11:07.206Z</time></trkpt><trkpt lat="45.0847083" lon="11.1380483"><ele>17.200000000000003</ele><time>2026-05-04T10:11:08.213Z</time></trkpt><trkpt lat="45.0846083" lon="11.1380183"><ele>16.0</ele><time>2026-05-04T10:11:09.206Z</time></trkpt><trkpt lat="45.084505" lon="11.13799"><ele>16.0</ele><time>2026-05-04T10:11:10.207Z</time></trkpt><trkpt lat="45.0844017" lon="11.1379517"><ele>16.0</ele><time>2026-05-04T10:11:11.206Z</time></trkpt><trkpt lat="45.0842933" lon="11.13791"><ele>16.0</ele><time>2026-05-04T10:11:12.207Z</time></trkpt><trkpt lat="45.08418" lon="11.1378683"><ele>16.0</ele><time>2026-05-04T10:11:13.214Z</time></trkpt><trkpt lat="45.0840683" lon="11.1378167"><ele>15.0</ele><time>2026-05-04T10:11:14.208Z</time></trkpt><trkpt lat="45.0839533" lon="11.1377617"><ele>14.0</ele><time>2026-05-04T10:11:15.209Z</time></trkpt><trkpt lat="45.0838333" lon="11.1377033"><ele>13.0</ele><time>2026-05-04T10:11:16.206Z</time></trkpt><trkpt lat="45.08371" lon="11.137645"><ele>12.0</ele><time>2026-05-04T10:11:17.21Z</time></trkpt><trkpt lat="45.0835817" lon="11.1375867"><ele>12.0</ele><time>2026-05-04T10:11:18.209Z</time></trkpt><trkpt lat="45.0834483" lon="11.1375217"><ele>12.0</ele><time>2026-05-04T10:11:19.215Z</time></trkpt><trkpt lat="45.0833017" lon="11.1374483"><ele>12.0</ele><time>2026-05-04T10:11:20.207Z</time></trkpt><trkpt lat="45.0831533" lon="11.13737"><ele>12.333333333333332</ele><time>2026-05-04T10:11:21.208Z</time></trkpt><trkpt lat="45.0830033" lon="11.1372983"><ele>12.666666666666666</ele><time>2026-05-04T10:11:22.206Z</time></trkpt><trkpt lat="45.0828533" lon="11.1372183"><ele>13.0</ele><time>2026-05-04T10:11:23.206Z</time></trkpt><trkpt lat="45.082695" lon="11.1371583"><ele>13.0</ele><time>2026-05-04T10:11:24.207Z</time></trkpt><trkpt lat="45.0825383" lon="11.1370867"><ele>13.0</ele><time>2026-05-04T10:11:25.211Z</time></trkpt><trkpt lat="45.0823817" lon="11.1370067"><ele>13.0</ele><time>2026-05-04T10:11:26.214Z</time></trkpt><trkpt lat="45.0822267" lon="11.1369217"><ele>12.666666666666666</ele><time>2026-05-04T10:11:27.207Z</time></trkpt><trkpt lat="45.082075" lon="11.1368383"><ele>12.333333333333332</ele><time>2026-05-04T10:11:28.206Z</time></trkpt><trkpt lat="45.08193" lon="11.136755"><ele>12.0</ele><time>2026-05-04T10:11:29.206Z</time></trkpt><trkpt lat="45.0817783" lon="11.1366817"><ele>12.0</ele><time>2026-05-04T10:11:30.209Z</time></trkpt><trkpt lat="45.0816333" lon="11.1366067"><ele>12.0</ele><time>2026-05-04T10:11:31.214Z</time></trkpt><trkpt lat="45.0814917" lon="11.1365283"><ele>12.0</ele><time>2026-05-04T10:11:32.208Z</time></trkpt><trkpt lat="45.0813517" lon="11.1364383"><ele>13.0</ele><time>2026-05-04T10:11:33.208Z</time></trkpt><trkpt lat="45.0812033" lon="11.13636"><ele>14.0</ele><time>2026-05-04T10:11:34.209Z</time></trkpt><trkpt lat="45.0810533" lon="11.13628"><ele>15.0</ele><time>2026-05-04T10:11:35.209Z</time></trkpt><trkpt lat="45.0809017" lon="11.1362017"><ele>14.333333333333332</ele><time>2026-05-04T10:11:36.211Z</time></trkpt><trkpt lat="45.08075" lon="11.1361267"><ele>13.666666666666666</ele><time>2026-05-04T10:11:37.207Z</time></trkpt><trkpt lat="45.0806033" lon="11.1360417"><ele>13.0</ele><time>2026-05-04T10:11:38.208Z</time></trkpt><trkpt lat="45.080455" lon="11.1359517"><ele>13.0</ele><time>2026-05-04T10:11:39.211Z</time></trkpt><trkpt lat="45.0802967" lon="11.13589"><ele>13.0</ele><time>2026-05-04T10:11:40.205Z</time></trkpt><trkpt lat="45.0801433" lon="11.1358083"><ele>13.0</ele><time>2026-05-04T10:11:41.21Z</time></trkpt><trkpt lat="45.079985" lon="11.1357367"><ele>13.0</ele><time>2026-05-04T10:11:42.207Z</time></trkpt><trkpt lat="45.0798283" lon="11.13567"><ele>13.0</ele><time>2026-05-04T10:11:43.211Z</time></trkpt><trkpt lat="45.0796733" lon="11.1356083"><ele>13.0</ele><time>2026-05-04T10:11:44.217Z</time></trkpt><trkpt lat="45.0795183" lon="11.1355583"><ele>13.0</ele><time>2026-05-04T10:11:45.218Z</time></trkpt><trkpt lat="45.0793617" lon="11.1355183"><ele>13.0</ele><time>2026-05-04T10:11:46.207Z</time></trkpt><trkpt lat="45.079205" lon="11.1354917"><ele>13.0</ele><time>2026-05-04T10:11:47.208Z</time></trkpt><trkpt lat="45.0790433" lon="11.1354683"><ele>13.0</ele><time>2026-05-04T10:11:48.21Z</time></trkpt><trkpt lat="45.0788783" lon="11.1354533"><ele>13.0</ele><time>2026-05-04T10:11:49.211Z</time></trkpt><trkpt lat="45.0787083" lon="11.1354467"><ele>13.0</ele><time>2026-05-04T10:11:50.209Z</time></trkpt><trkpt lat="45.07854" lon="11.1354467"><ele>13.0</ele><time>2026-05-04T10:11:51.208Z</time></trkpt><trkpt lat="45.078375" lon="11.1354483"><ele>13.0</ele><time>2026-05-04T10:11:52.21Z</time></trkpt><trkpt lat="45.07821" lon="11.1354533"><ele>13.0</ele><time>2026-05-04T10:11:53.208Z</time></trkpt><trkpt lat="45.0780517" lon="11.135455"><ele>13.25</ele><time>2026-05-04T10:11:54.211Z</time></trkpt><trkpt lat="45.0778983" lon="11.1354567"><ele>13.5</ele><time>2026-05-04T10:11:55.22Z</time></trkpt><trkpt lat="45.07775" lon="11.1354583"><ele>13.75</ele><time>2026-05-04T10:11:56.207Z</time></trkpt><trkpt lat="45.077605" lon="11.1354617"><ele>14.0</ele><time>2026-05-04T10:11:57.211Z</time></trkpt><trkpt lat="45.0774633" lon="11.1354633"><ele>13.75</ele><time>2026-05-04T10:11:58.211Z</time></trkpt><trkpt lat="45.0773183" lon="11.13547"><ele>13.5</ele><time>2026-05-04T10:11:59.206Z</time></trkpt><trkpt lat="45.07717" lon="11.135475"><ele>13.25</ele><time>2026-05-04T10:12:00.211Z</time></trkpt><trkpt lat="45.0770267" lon="11.1354767"><ele>13.0</ele><time>2026-05-04T10:12:01.218Z</time></trkpt><trkpt lat="45.07689" lon="11.1354783"><ele>13.0</ele><time>2026-05-04T10:12:02.212Z</time></trkpt><trkpt lat="45.076765" lon="11.13548"><ele>13.0</ele><time>2026-05-04T10:12:03.218Z</time></trkpt><trkpt lat="45.0766417" lon="11.1354833"><ele>13.0</ele><time>2026-05-04T10:12:04.206Z</time></trkpt><trkpt lat="45.0765117" lon="11.1354833"><ele>13.0</ele><time>2026-05-04T10:12:05.209Z</time></trkpt><trkpt lat="45.0763733" lon="11.13547"><ele>13.333333333333332</ele><time>2026-05-04T10:12:06.207Z</time></trkpt><trkpt lat="45.076225" lon="11.1354417"><ele>13.666666666666668</ele><time>2026-05-04T10:12:07.206Z</time></trkpt><trkpt lat="45.07607" lon="11.1354033"><ele>14.0</ele><time>2026-05-04T10:12:08.213Z</time></trkpt><trkpt lat="45.075905" lon="11.1353583"><ele>13.666666666666668</ele><time>2026-05-04T10:12:09.21Z</time></trkpt><trkpt lat="45.0757367" lon="11.1353067"><ele>13.333333333333332</ele><time>2026-05-04T10:12:10.208Z</time></trkpt><trkpt lat="45.0755683" lon="11.135255"><ele>13.0</ele><time>2026-05-04T10:12:11.209Z</time></trkpt><trkpt lat="45.0754033" lon="11.1352067"><ele>13.0</ele><time>2026-05-04T10:12:12.209Z</time></trkpt><trkpt lat="45.0752467" lon="11.1351617"><ele>13.0</ele><time>2026-05-04T10:12:13.211Z</time></trkpt><trkpt lat="45.0750983" lon="11.135115"><ele>13.0</ele><time>2026-05-04T10:12:14.208Z</time></trkpt><trkpt lat="45.0749533" lon="11.13507"><ele>13.333333333333332</ele><time>2026-05-04T10:12:15.207Z</time></trkpt><trkpt lat="45.074665" lon="11.13499"><ele>13.666666666666668</ele><time>2026-05-04T10:12:17.206Z</time></trkpt><trkpt lat="45.0745217" lon="11.1349517"><ele>14.0</ele><time>2026-05-04T10:12:18.207Z</time></trkpt><trkpt lat="45.0743817" lon="11.134915"><ele>14.0</ele><time>2026-05-04T10:12:19.21Z</time></trkpt><trkpt lat="45.0742433" lon="11.1348767"><ele>14.0</ele><time>2026-05-04T10:12:20.207Z</time></trkpt><trkpt lat="45.0741067" lon="11.1348433"><ele>14.0</ele><time>2026-05-04T10:12:21.211Z</time></trkpt><trkpt lat="45.0739717" lon="11.1348117"><ele>14.0</ele><time>2026-05-04T10:12:22.209Z</time></trkpt><trkpt lat="45.0738367" lon="11.13478"><ele>14.0</ele><time>2026-05-04T10:12:23.22Z</time></trkpt><trkpt lat="45.073705" lon="11.1347483"><ele>14.0</ele><time>2026-05-04T10:12:24.205Z</time></trkpt><trkpt lat="45.0735733" lon="11.1347167"><ele>14.0</ele><time>2026-05-04T10:12:25.208Z</time></trkpt><trkpt lat="45.073445" lon="11.134685"><ele>14.0</ele><time>2026-05-04T10:12:26.211Z</time></trkpt><trkpt lat="45.0733233" lon="11.134655"><ele>14.0</ele><time>2026-05-04T10:12:27.212Z</time></trkpt><trkpt lat="45.0732083" lon="11.1346267"><ele>13.999999999999998</ele><time>2026-05-04T10:12:28.207Z</time></trkpt><trkpt lat="45.0731033" lon="11.1345967"><ele>13.999999999999998</ele><time>2026-05-04T10:12:29.207Z</time></trkpt><trkpt lat="45.0730033" lon="11.13457"><ele>14.0</ele><time>2026-05-04T10:12:30.208Z</time></trkpt><trkpt lat="45.0729133" lon="11.13454"><ele>14.0</ele><time>2026-05-04T10:12:31.208Z</time></trkpt><trkpt lat="45.0728217" lon="11.13451"><ele>14.0</ele><time>2026-05-04T10:12:32.208Z</time></trkpt><trkpt lat="45.0727267" lon="11.13448"><ele>13.999999999999998</ele><time>2026-05-04T10:12:33.208Z</time></trkpt><trkpt lat="45.072625" lon="11.13445"><ele>13.999999999999998</ele><time>2026-05-04T10:12:34.211Z</time></trkpt><trkpt lat="45.0725233" lon="11.1344167"><ele>14.0</ele><time>2026-05-04T10:12:35.208Z</time></trkpt><trkpt lat="45.0724283" lon="11.1343833"><ele>14.0</ele><time>2026-05-04T10:12:36.209Z</time></trkpt><trkpt lat="45.0723367" lon="11.13435"><ele>14.000000000000002</ele><time>2026-05-04T10:12:37.211Z</time></trkpt><trkpt lat="45.0722467" lon="11.1343167"><ele>14.0</ele><time>2026-05-04T10:12:38.209Z</time></trkpt><trkpt lat="45.07216" lon="11.13429"><ele>14.0</ele><time>2026-05-04T10:12:39.211Z</time></trkpt><trkpt lat="45.0720733" lon="11.13426"><ele>14.0</ele><time>2026-05-04T10:12:40.209Z</time></trkpt><trkpt lat="45.071995" lon="11.1342233"><ele>14.000000000000002</ele><time>2026-05-04T10:12:41.209Z</time></trkpt><trkpt lat="45.0719267" lon="11.1341817"><ele>14.0</ele><time>2026-05-04T10:12:42.21Z</time></trkpt><trkpt lat="45.0718633" lon="11.1341383"><ele>14.000000000000002</ele><time>2026-05-04T10:12:43.211Z</time></trkpt><trkpt lat="45.0717717" lon="11.134015"><ele>14.0</ele><time>2026-05-04T10:12:45.21Z</time></trkpt><trkpt lat="45.07174" lon="11.133925"><ele>14.0</ele><time>2026-05-04T10:12:46.207Z</time></trkpt><trkpt lat="45.071725" lon="11.13382"><ele>14.0</ele><time>2026-05-04T10:12:47.209Z</time></trkpt><trkpt lat="45.0717" lon="11.1337183"><ele>14.000000000000002</ele><time>2026-05-04T10:12:48.209Z</time></trkpt><trkpt lat="45.071655" lon="11.1336333"><ele>14.0</ele><time>2026-05-04T10:12:49.217Z</time></trkpt><trkpt lat="45.071595" lon="11.1335733"><ele>14.000000000000002</ele><time>2026-05-04T10:12:50.21Z</time></trkpt><trkpt lat="45.0715233" lon="11.13356"><ele>14.0</ele><time>2026-05-04T10:12:51.21Z</time></trkpt><trkpt lat="45.0714533" lon="11.13363"><ele>14.0</ele><time>2026-05-04T10:12:52.207Z</time></trkpt><trkpt lat="45.0714067" lon="11.1337167"><ele>14.0</ele><time>2026-05-04T10:12:53.209Z</time></trkpt><trkpt lat="45.07138" lon="11.1338367"><ele>14.000000000000002</ele><time>2026-05-04T10:12:54.209Z</time></trkpt><trkpt lat="45.0713667" lon="11.1339417"><ele>14.0</ele><time>2026-05-04T10:12:55.21Z</time></trkpt><trkpt lat="45.07136" lon="11.13405"><ele>14.333333333333334</ele><time>2026-05-04T10:12:56.21Z</time></trkpt><trkpt lat="45.0713533" lon="11.1341533"><ele>14.666666666666668</ele><time>2026-05-04T10:12:57.208Z</time></trkpt><trkpt lat="45.071345" lon="11.1342483"><ele>15.0</ele><time>2026-05-04T10:12:58.208Z</time></trkpt><trkpt lat="45.0713367" lon="11.1343367"><ele>15.333333333333332</ele><time>2026-05-04T10:12:59.208Z</time></trkpt><trkpt lat="45.071305" lon="11.134495"><ele>15.666666666666666</ele><time>2026-05-04T10:13:01.207Z</time></trkpt><trkpt lat="45.07128" lon="11.134585"><ele>16.0</ele><time>2026-05-04T10:13:02.213Z</time></trkpt><trkpt lat="45.0712467" lon="11.1346833"><ele>16.0</ele><time>2026-05-04T10:13:03.207Z</time></trkpt><trkpt lat="45.0712033" lon="11.1347867"><ele>16.0</ele><time>2026-05-04T10:13:04.207Z</time></trkpt><trkpt lat="45.0711533" lon="11.1348983"><ele>16.0</ele><time>2026-05-04T10:13:05.207Z</time></trkpt><trkpt lat="45.0710917" lon="11.1350083"><ele>16.0</ele><time>2026-05-04T10:13:06.228Z</time></trkpt><trkpt lat="45.0710283" lon="11.1351183"><ele>16.0</ele><time>2026-05-04T10:13:07.207Z</time></trkpt><trkpt lat="45.0709633" lon="11.1352267"><ele>16.2</ele><time>2026-05-04T10:13:08.212Z</time></trkpt><trkpt lat="45.0708983" lon="11.1353333"><ele>16.400000000000002</ele><time>2026-05-04T10:13:09.207Z</time></trkpt><trkpt lat="45.0708317" lon="11.135445"><ele>16.6</ele><time>2026-05-04T10:13:10.207Z</time></trkpt><trkpt lat="45.0707617" lon="11.1355583"><ele>16.8</ele><time>2026-05-04T10:13:11.207Z</time></trkpt><trkpt lat="45.0706917" lon="11.1356717"><ele>17.0</ele><time>2026-05-04T10:13:12.207Z</time></trkpt><trkpt lat="45.070625" lon="11.1357867"><ele>16.2</ele><time>2026-05-04T10:13:13.219Z</time></trkpt><trkpt lat="45.0705533" lon="11.1359017"><ele>15.399999999999999</ele><time>2026-05-04T10:13:14.206Z</time></trkpt><trkpt lat="45.0704817" lon="11.1360217"><ele>14.600000000000001</ele><time>2026-05-04T10:13:15.206Z</time></trkpt><trkpt lat="45.0704083" lon="11.1361417"><ele>13.8</ele><time>2026-05-04T10:13:16.208Z</time></trkpt><trkpt lat="45.0703317" lon="11.1362667"><ele>13.0</ele><time>2026-05-04T10:13:17.212Z</time></trkpt><trkpt lat="45.0702533" lon="11.136395"><ele>13.0</ele><time>2026-05-04T10:13:18.208Z</time></trkpt><trkpt lat="45.0701733" lon="11.1365267"><ele>13.0</ele><time>2026-05-04T10:13:19.206Z</time></trkpt><trkpt lat="45.0700883" lon="11.1366767"><ele>13.0</ele><time>2026-05-04T10:13:20.207Z</time></trkpt><trkpt lat="45.0699833" lon="11.136855"><ele>13.0</ele><time>2026-05-04T10:13:21.207Z</time></trkpt><trkpt lat="45.0698717" lon="11.137045"><ele>13.0</ele><time>2026-05-04T10:13:22.209Z</time></trkpt><trkpt lat="45.0697567" lon="11.1372217"><ele>13.0</ele><time>2026-05-04T10:13:23.216Z</time></trkpt><trkpt lat="45.0696467" lon="11.1373817"><ele>13.0</ele><time>2026-05-04T10:13:24.208Z</time></trkpt><trkpt lat="45.0695517" lon="11.1375267"><ele>13.0</ele><time>2026-05-04T10:13:25.206Z</time></trkpt><trkpt lat="45.0694667" lon="11.1376567"><ele>13.0</ele><time>2026-05-04T10:13:26.208Z</time></trkpt><trkpt lat="45.0693967" lon="11.13777"><ele>13.0</ele><time>2026-05-04T10:13:27.21Z</time></trkpt><trkpt lat="45.0693333" lon="11.1378633"><ele>13.0</ele><time>2026-05-04T10:13:28.211Z</time></trkpt><trkpt lat="45.0692833" lon="11.1379367"><ele>13.0</ele><time>2026-05-04T10:13:29.207Z</time></trkpt><trkpt lat="45.069235" lon="11.1380133"><ele>13.0</ele><time>2026-05-04T10:13:31.207Z</time></trkpt><trkpt lat="45.0691783" lon="11.1381017"><ele>13.0</ele><time>2026-05-04T10:14:27.208Z</time></trkpt><trkpt lat="45.069125" lon="11.1382083"><ele>13.0</ele><time>2026-05-04T10:14:28.208Z</time></trkpt><trkpt lat="45.069045" lon="11.1383417"><ele>13.0</ele><time>2026-05-04T10:14:29.207Z</time></trkpt><trkpt lat="45.068935" lon="11.1385217"><ele>13.0</ele><time>2026-05-04T10:14:30.212Z</time></trkpt><trkpt lat="45.0688217" lon="11.1387083"><ele>13.0</ele><time>2026-05-04T10:14:31.207Z</time></trkpt><trkpt lat="45.068705" lon="11.1388933"><ele>13.0</ele><time>2026-05-04T10:14:32.207Z</time></trkpt><trkpt lat="45.0685867" lon="11.1390783"><ele>13.0</ele><time>2026-05-04T10:14:33.207Z</time></trkpt><trkpt lat="45.068475" lon="11.139255"><ele>13.0</ele><time>2026-05-04T10:14:34.206Z</time></trkpt><trkpt lat="45.06837" lon="11.1394133"><ele>13.0</ele><time>2026-05-04T10:14:35.213Z</time></trkpt><trkpt lat="45.068275" lon="11.1395633"><ele>13.0</ele><time>2026-05-04T10:14:36.207Z</time></trkpt><trkpt lat="45.0681867" lon="11.1396917"><ele>13.0</ele><time>2026-05-04T10:14:37.209Z</time></trkpt><trkpt lat="45.068105" lon="11.1398167"><ele>13.0</ele><time>2026-05-04T10:14:38.209Z</time></trkpt><trkpt lat="45.068025" lon="11.1399467"><ele>13.0</ele><time>2026-05-04T10:14:39.206Z</time></trkpt><trkpt lat="45.067945" lon="11.140085"><ele>13.0</ele><time>2026-05-04T10:14:40.206Z</time></trkpt><trkpt lat="45.0678583" lon="11.14023"><ele>13.0</ele><time>2026-05-04T10:14:41.206Z</time></trkpt><trkpt lat="45.06777" lon="11.1403717"><ele>13.0</ele><time>2026-05-04T10:14:42.209Z</time></trkpt><trkpt lat="45.0676733" lon="11.1405117"><ele>13.0</ele><time>2026-05-04T10:14:43.206Z</time></trkpt><trkpt lat="45.0675833" lon="11.1406617"><ele>13.25</ele><time>2026-05-04T10:14:44.206Z</time></trkpt><trkpt lat="45.0674883" lon="11.1408117"><ele>13.5</ele><time>2026-05-04T10:14:45.207Z</time></trkpt><trkpt lat="45.0673917" lon="11.1409467"><ele>13.75</ele><time>2026-05-04T10:14:46.207Z</time></trkpt><trkpt lat="45.067295" lon="11.141065"><ele>14.0</ele><time>2026-05-04T10:14:47.211Z</time></trkpt><trkpt lat="45.0671867" lon="11.1411617"><ele>14.0</ele><time>2026-05-04T10:14:48.208Z</time></trkpt><trkpt lat="45.06707" lon="11.1412383"><ele>14.0</ele><time>2026-05-04T10:14:49.207Z</time></trkpt><trkpt lat="45.0669517" lon="11.1412917"><ele>14.0</ele><time>2026-05-04T10:14:50.209Z</time></trkpt><trkpt lat="45.0668367" lon="11.1413217"><ele>14.0</ele><time>2026-05-04T10:14:51.209Z</time></trkpt><trkpt lat="45.0667333" lon="11.1413383"><ele>14.000000000000002</ele><time>2026-05-04T10:14:52.206Z</time></trkpt><trkpt lat="45.066635" lon="11.1413383"><ele>14.0</ele><time>2026-05-04T10:14:53.205Z</time></trkpt><trkpt lat="45.06655" lon="11.1413267"><ele>14.0</ele><time>2026-05-04T10:14:54.21Z</time></trkpt><trkpt lat="45.06648" lon="11.1413117"><ele>14.0</ele><time>2026-05-04T10:14:55.211Z</time></trkpt><trkpt lat="45.0663883" lon="11.1412883"><ele>14.000000000000002</ele><time>2026-05-04T10:14:57.207Z</time></trkpt><trkpt lat="45.06631" lon="11.1412683"><ele>14.0</ele><time>2026-05-04T10:15:00.206Z</time></trkpt><trkpt lat="45.06624" lon="11.1412467"><ele>14.25</ele><time>2026-05-04T10:15:03.207Z</time></trkpt><trkpt lat="45.0661667" lon="11.1412317"><ele>14.5</ele><time>2026-05-04T10:15:06.206Z</time></trkpt><trkpt lat="45.0660783" lon="11.1411983"><ele>14.75</ele><time>2026-05-04T10:15:09.206Z</time></trkpt><trkpt lat="45.0659017" lon="11.141115"><ele>15.0</ele><time>2026-05-04T10:15:11.207Z</time></trkpt><trkpt lat="45.0657483" lon="11.1410567"><ele>15.666666666666668</ele><time>2026-05-04T10:15:12.207Z</time></trkpt><trkpt lat="45.06557" lon="11.1409767"><ele>16.333333333333336</ele><time>2026-05-04T10:15:13.21Z</time></trkpt><trkpt lat="45.065385" lon="11.14089"><ele>17.0</ele><time>2026-05-04T10:15:14.21Z</time></trkpt><trkpt lat="45.0652033" lon="11.1408017"><ele>17.0</ele><time>2026-05-04T10:15:15.207Z</time></trkpt><trkpt lat="45.0650233" lon="11.1407233"><ele>17.0</ele><time>2026-05-04T10:15:16.211Z</time></trkpt><trkpt lat="45.0648517" lon="11.14064"><ele>17.0</ele><time>2026-05-04T10:15:17.207Z</time></trkpt><trkpt lat="45.0646817" lon="11.1405717"><ele>16.333333333333336</ele><time>2026-05-04T10:15:18.205Z</time></trkpt><trkpt lat="45.0645183" lon="11.1405233"><ele>15.666666666666668</ele><time>2026-05-04T10:15:19.209Z</time></trkpt><trkpt lat="45.0643617" lon="11.1405"><ele>15.0</ele><time>2026-05-04T10:15:20.207Z</time></trkpt><trkpt lat="45.0641983" lon="11.1404967"><ele>16.0</ele><time>2026-05-04T10:15:21.208Z</time></trkpt><trkpt lat="45.06402" lon="11.1405167"><ele>17.0</ele><time>2026-05-04T10:15:22.206Z</time></trkpt><trkpt lat="45.0638317" lon="11.140545"><ele>18.0</ele><time>2026-05-04T10:15:23.21Z</time></trkpt><trkpt lat="45.0636383" lon="11.1405783"><ele>18.0</ele><time>2026-05-04T10:15:24.214Z</time></trkpt><trkpt lat="45.0634417" lon="11.1406117"><ele>18.0</ele><time>2026-05-04T10:15:25.213Z</time></trkpt><trkpt lat="45.0632317" lon="11.1406467"><ele>18.0</ele><time>2026-05-04T10:15:26.208Z</time></trkpt><trkpt lat="45.06302" lon="11.1406817"><ele>18.0</ele><time>2026-05-04T10:15:27.211Z</time></trkpt><trkpt lat="45.0628117" lon="11.140715"><ele>18.0</ele><time>2026-05-04T10:15:28.207Z</time></trkpt><trkpt lat="45.0626033" lon="11.1407483"><ele>18.0</ele><time>2026-05-04T10:15:29.208Z</time></trkpt><trkpt lat="45.062395" lon="11.1407767"><ele>18.0</ele><time>2026-05-04T10:15:30.212Z</time></trkpt><trkpt lat="45.062185" lon="11.1408083"><ele>18.0</ele><time>2026-05-04T10:15:31.206Z</time></trkpt><trkpt lat="45.0619783" lon="11.1408383"><ele>18.0</ele><time>2026-05-04T10:15:32.214Z</time></trkpt><trkpt lat="45.0617733" lon="11.1408667"><ele>17.333333333333332</ele><time>2026-05-04T10:15:33.208Z</time></trkpt><trkpt lat="45.0615717" lon="11.140895"><ele>16.666666666666664</ele><time>2026-05-04T10:15:34.206Z</time></trkpt><trkpt lat="45.0613733" lon="11.1409233"><ele>16.0</ele><time>2026-05-04T10:15:35.21Z</time></trkpt><trkpt lat="45.0611767" lon="11.1409517"><ele>16.0</ele><time>2026-05-04T10:15:36.212Z</time></trkpt><trkpt lat="45.0609783" lon="11.140965"><ele>16.0</ele><time>2026-05-04T10:15:37.226Z</time></trkpt><trkpt lat="45.060775" lon="11.14095"><ele>16.0</ele><time>2026-05-04T10:15:38.21Z</time></trkpt><trkpt lat="45.06057" lon="11.1408967"><ele>15.666666666666666</ele><time>2026-05-04T10:15:39.209Z</time></trkpt><trkpt lat="45.0603633" lon="11.14081"><ele>15.333333333333332</ele><time>2026-05-04T10:15:40.217Z</time></trkpt><trkpt lat="45.0601583" lon="11.1406867"><ele>15.0</ele><time>2026-05-04T10:15:41.21Z</time></trkpt><trkpt lat="45.0599517" lon="11.14054"><ele>16.5</ele><time>2026-05-04T10:15:42.213Z</time></trkpt><trkpt lat="45.0597467" lon="11.1403817"><ele>18.0</ele><time>2026-05-04T10:15:43.21Z</time></trkpt><trkpt lat="45.0595517" lon="11.1402167"><ele>18.0</ele><time>2026-05-04T10:15:44.212Z</time></trkpt><trkpt lat="45.0593617" lon="11.1400483"><ele>18.0</ele><time>2026-05-04T10:15:45.213Z</time></trkpt><trkpt lat="45.0591767" lon="11.139875"><ele>18.0</ele><time>2026-05-04T10:15:46.211Z</time></trkpt><trkpt lat="45.059" lon="11.139705"><ele>18.666666666666668</ele><time>2026-05-04T10:15:47.208Z</time></trkpt><trkpt lat="45.0588517" lon="11.139555"><ele>19.333333333333336</ele><time>2026-05-04T10:15:48.207Z</time></trkpt><trkpt lat="45.05873" lon="11.1394333"><ele>20.0</ele><time>2026-05-04T10:15:49.208Z</time></trkpt><trkpt lat="45.058635" lon="11.1393283"><ele>20.0</ele><time>2026-05-04T10:15:50.22Z</time></trkpt><trkpt lat="45.0585583" lon="11.1392367"><ele>20.0</ele><time>2026-05-04T10:15:51.207Z</time></trkpt><trkpt lat="45.0584917" lon="11.1391517"><ele>20.0</ele><time>2026-05-04T10:15:52.215Z</time></trkpt><trkpt lat="45.0584317" lon="11.139075"><ele>20.0</ele><time>2026-05-04T10:15:53.21Z</time></trkpt><trkpt lat="45.0583783" lon="11.1390133"><ele>20.0</ele><time>2026-05-04T10:15:54.207Z</time></trkpt><trkpt lat="45.0582917" lon="11.13892"><ele>20.0</ele><time>2026-05-04T10:15:56.207Z</time></trkpt><trkpt lat="45.0582267" lon="11.138865"><ele>19.4</ele><time>2026-05-04T10:15:58.208Z</time></trkpt><trkpt lat="45.0581733" lon="11.1387967"><ele>18.8</ele><time>2026-05-04T10:16:01.207Z</time></trkpt><trkpt lat="45.0581117" lon="11.1386733"><ele>18.2</ele><time>2026-05-04T10:16:28.209Z</time></trkpt><trkpt lat="45.058025" lon="11.1385617"><ele>17.6</ele><time>2026-05-04T10:17:08.208Z</time></trkpt><trkpt lat="45.0579567" lon="11.1384917"><ele>17.0</ele><time>2026-05-04T10:17:10.213Z</time></trkpt><trkpt lat="45.0578583" lon="11.1383833"><ele>16.999999999999996</ele><time>2026-05-04T10:17:12.207Z</time></trkpt><trkpt lat="45.05781" lon="11.1383217"><ele>17.0</ele><time>2026-05-04T10:17:13.207Z</time></trkpt><trkpt lat="45.057755" lon="11.13825"><ele>17.0</ele><time>2026-05-04T10:17:14.21Z</time></trkpt><trkpt lat="45.0576967" lon="11.1381717"><ele>17.0</ele><time>2026-05-04T10:17:15.21Z</time></trkpt><trkpt lat="45.0576417" lon="11.1381"><ele>17.0</ele><time>2026-05-04T10:17:16.207Z</time></trkpt><trkpt lat="45.0575917" lon="11.13803"><ele>16.999999999999996</ele><time>2026-05-04T10:17:17.206Z</time></trkpt><trkpt lat="45.0575367" lon="11.1379483"><ele>17.0</ele><time>2026-05-04T10:17:18.208Z</time></trkpt><trkpt lat="45.0574767" lon="11.1378567"><ele>16.8</ele><time>2026-05-04T10:17:19.208Z</time></trkpt><trkpt lat="45.0574133" lon="11.1377567"><ele>16.6</ele><time>2026-05-04T10:17:20.209Z</time></trkpt><trkpt lat="45.0573433" lon="11.1376467"><ele>16.400000000000002</ele><time>2026-05-04T10:17:21.208Z</time></trkpt><trkpt lat="45.0572683" lon="11.1375333"><ele>16.2</ele><time>2026-05-04T10:17:22.207Z</time></trkpt><trkpt lat="45.057195" lon="11.1374133"><ele>16.0</ele><time>2026-05-04T10:17:23.215Z</time></trkpt><trkpt lat="45.057125" lon="11.1373"><ele>14.25</ele><time>2026-05-04T10:17:24.212Z</time></trkpt><trkpt lat="45.0570533" lon="11.137185"><ele>12.5</ele><time>2026-05-04T10:17:25.207Z</time></trkpt><trkpt lat="45.0569767" lon="11.137065"><ele>10.75</ele><time>2026-05-04T10:17:26.208Z</time></trkpt><trkpt lat="45.0568983" lon="11.13694"><ele>9.0</ele><time>2026-05-04T10:17:27.21Z</time></trkpt><trkpt lat="45.056815" lon="11.13681"><ele>9.0</ele><time>2026-05-04T10:17:28.209Z</time></trkpt><trkpt lat="45.0567283" lon="11.1366783"><ele>9.0</ele><time>2026-05-04T10:17:29.208Z</time></trkpt><trkpt lat="45.05664" lon="11.1365417"><ele>9.0</ele><time>2026-05-04T10:17:30.207Z</time></trkpt><trkpt lat="45.0565567" lon="11.1364067"><ele>9.0</ele><time>2026-05-04T10:17:31.21Z</time></trkpt><trkpt lat="45.0564683" lon="11.1362633"><ele>8.5</ele><time>2026-05-04T10:17:32.219Z</time></trkpt><trkpt lat="45.056375" lon="11.1361117"><ele>8.0</ele><time>2026-05-04T10:17:33.208Z</time></trkpt><trkpt lat="45.05628" lon="11.1359567"><ele>7.5</ele><time>2026-05-04T10:17:34.207Z</time></trkpt><trkpt lat="45.05618" lon="11.1358017"><ele>7.0</ele><time>2026-05-04T10:17:35.211Z</time></trkpt><trkpt lat="45.0560917" lon="11.1356567"><ele>7.0</ele><time>2026-05-04T10:17:36.209Z</time></trkpt><trkpt lat="45.0559967" lon="11.1355133"><ele>7.0</ele><time>2026-05-04T10:17:37.212Z</time></trkpt><trkpt lat="45.0559067" lon="11.1353667"><ele>7.0</ele><time>2026-05-04T10:17:38.208Z</time></trkpt><trkpt lat="45.055815" lon="11.13522"><ele>7.0</ele><time>2026-05-04T10:17:39.207Z</time></trkpt><trkpt lat="45.0557217" lon="11.1350733"><ele>7.0</ele><time>2026-05-04T10:17:40.21Z</time></trkpt><trkpt lat="45.05563" lon="11.1349283"><ele>7.0</ele><time>2026-05-04T10:17:41.206Z</time></trkpt><trkpt lat="45.0555317" lon="11.1347867"><ele>7.0</ele><time>2026-05-04T10:17:42.206Z</time></trkpt><trkpt lat="45.0554367" lon="11.1346483"><ele>7.0</ele><time>2026-05-04T10:17:43.208Z</time></trkpt><trkpt lat="45.055345" lon="11.1345017"><ele>7.0</ele><time>2026-05-04T10:17:44.207Z</time></trkpt><trkpt lat="45.05525" lon="11.1343583"><ele>7.0</ele><time>2026-05-04T10:17:45.207Z</time></trkpt><trkpt lat="45.0551483" lon="11.1341983"><ele>7.0</ele><time>2026-05-04T10:17:46.215Z</time></trkpt><trkpt lat="45.0550383" lon="11.1340283"><ele>10.666666666666668</ele><time>2026-05-04T10:17:47.21Z</time></trkpt><trkpt lat="45.0549317" lon="11.1338567"><ele>14.333333333333334</ele><time>2026-05-04T10:17:48.214Z</time></trkpt><trkpt lat="45.054825" lon="11.1336867"><ele>18.0</ele><time>2026-05-04T10:17:49.208Z</time></trkpt><trkpt lat="45.05472" lon="11.1335217"><ele>18.0</ele><time>2026-05-04T10:17:50.21Z</time></trkpt><trkpt lat="45.0546217" lon="11.1333633"><ele>18.0</ele><time>2026-05-04T10:17:51.218Z</time></trkpt><trkpt lat="45.054525" lon="11.133205"><ele>18.0</ele><time>2026-05-04T10:17:52.212Z</time></trkpt><trkpt lat="45.0544233" lon="11.13305"><ele>18.0</ele><time>2026-05-04T10:17:53.217Z</time></trkpt><trkpt lat="45.0543233" lon="11.1328983"><ele>18.0</ele><time>2026-05-04T10:17:54.216Z</time></trkpt><trkpt lat="45.0542267" lon="11.13275"><ele>18.0</ele><time>2026-05-04T10:17:55.207Z</time></trkpt><trkpt lat="45.0541233" lon="11.1326067"><ele>18.0</ele><time>2026-05-04T10:17:56.218Z</time></trkpt><trkpt lat="45.0540167" lon="11.13247"><ele>18.0</ele><time>2026-05-04T10:17:57.209Z</time></trkpt><trkpt lat="45.053905" lon="11.1323383"><ele>17.25</ele><time>2026-05-04T10:17:58.206Z</time></trkpt><trkpt lat="45.05379" lon="11.1322083"><ele>16.5</ele><time>2026-05-04T10:17:59.206Z</time></trkpt><trkpt lat="45.0536717" lon="11.1320833"><ele>15.75</ele><time>2026-05-04T10:18:00.206Z</time></trkpt><trkpt lat="45.05355" lon="11.1319633"><ele>15.0</ele><time>2026-05-04T10:18:01.207Z</time></trkpt><trkpt lat="45.0534267" lon="11.1318533"><ele>15.0</ele><time>2026-05-04T10:18:02.218Z</time></trkpt><trkpt lat="45.05331" lon="11.1317533"><ele>15.0</ele><time>2026-05-04T10:18:03.207Z</time></trkpt><trkpt lat="45.05319" lon="11.13166"><ele>15.0</ele><time>2026-05-04T10:18:04.211Z</time></trkpt><trkpt lat="45.0530683" lon="11.1315717"><ele>15.0</ele><time>2026-05-04T10:18:05.212Z</time></trkpt><trkpt lat="45.0529433" lon="11.13149"><ele>14.75</ele><time>2026-05-04T10:18:06.206Z</time></trkpt><trkpt lat="45.0528183" lon="11.1314117"><ele>14.5</ele><time>2026-05-04T10:18:07.206Z</time></trkpt><trkpt lat="45.05269" lon="11.1313383"><ele>14.25</ele><time>2026-05-04T10:18:08.207Z</time></trkpt><trkpt lat="45.0525617" lon="11.13127"><ele>14.0</ele><time>2026-05-04T10:18:09.211Z</time></trkpt><trkpt lat="45.05243" lon="11.13121"><ele>14.0</ele><time>2026-05-04T10:18:10.207Z</time></trkpt><trkpt lat="45.052295" lon="11.1311533"><ele>14.0</ele><time>2026-05-04T10:18:11.207Z</time></trkpt><trkpt lat="45.0521617" lon="11.1311017"><ele>14.0</ele><time>2026-05-04T10:18:12.208Z</time></trkpt><trkpt lat="45.052025" lon="11.131055"><ele>14.0</ele><time>2026-05-04T10:18:13.209Z</time></trkpt><trkpt lat="45.0518883" lon="11.1310133"><ele>14.0</ele><time>2026-05-04T10:18:14.207Z</time></trkpt><trkpt lat="45.0517533" lon="11.130975"><ele>14.0</ele><time>2026-05-04T10:18:15.209Z</time></trkpt><trkpt lat="45.0516183" lon="11.1309433"><ele>14.0</ele><time>2026-05-04T10:18:16.207Z</time></trkpt><trkpt lat="45.0514817" lon="11.1309133"><ele>14.0</ele><time>2026-05-04T10:18:17.207Z</time></trkpt><trkpt lat="45.051345" lon="11.130885"><ele>13.75</ele><time>2026-05-04T10:18:18.208Z</time></trkpt><trkpt lat="45.0512083" lon="11.1308617"><ele>13.5</ele><time>2026-05-04T10:18:19.207Z</time></trkpt><trkpt lat="45.051075" lon="11.1308417"><ele>13.25</ele><time>2026-05-04T10:18:20.208Z</time></trkpt><trkpt lat="45.0509533" lon="11.1308167"><ele>13.0</ele><time>2026-05-04T10:18:21.207Z</time></trkpt><trkpt lat="45.0508383" lon="11.13079"><ele>13.0</ele><time>2026-05-04T10:18:22.208Z</time></trkpt><trkpt lat="45.0507317" lon="11.1307617"><ele>13.0</ele><time>2026-05-04T10:18:23.206Z</time></trkpt><trkpt lat="45.05063" lon="11.1307283"><ele>13.0</ele><time>2026-05-04T10:18:24.212Z</time></trkpt><trkpt lat="45.050535" lon="11.1306867"><ele>13.0</ele><time>2026-05-04T10:18:25.209Z</time></trkpt><trkpt lat="45.0504467" lon="11.130645"><ele>13.0</ele><time>2026-05-04T10:18:26.21Z</time></trkpt><trkpt lat="45.0503667" lon="11.130625"><ele>12.999999999999998</ele><time>2026-05-04T10:18:27.21Z</time></trkpt><trkpt lat="45.05026" lon="11.1306933"><ele>13.0</ele><time>2026-05-04T10:18:29.213Z</time></trkpt><trkpt lat="45.0502383" lon="11.1307783"><ele>13.0</ele><time>2026-05-04T10:18:30.216Z</time></trkpt><trkpt lat="45.05024" lon="11.1308767"><ele>13.0</ele><time>2026-05-04T10:18:31.206Z</time></trkpt><trkpt lat="45.050245" lon="11.1309783"><ele>12.999999999999998</ele><time>2026-05-04T10:18:32.21Z</time></trkpt><trkpt lat="45.05022" lon="11.1310617"><ele>13.0</ele><time>2026-05-04T10:18:33.21Z</time></trkpt><trkpt lat="45.050175" lon="11.1311267"><ele>13.0</ele><time>2026-05-04T10:18:34.206Z</time></trkpt><trkpt lat="45.0501183" lon="11.1311783"><ele>13.0</ele><time>2026-05-04T10:18:35.206Z</time></trkpt><trkpt lat="45.0500067" lon="11.1312217"><ele>13.0</ele><time>2026-05-04T10:18:36.208Z</time></trkpt><trkpt lat="45.049855" lon="11.1312817"><ele>13.0</ele><time>2026-05-04T10:18:37.206Z</time></trkpt><trkpt lat="45.049695" lon="11.1313567"><ele>13.0</ele><time>2026-05-04T10:18:38.207Z</time></trkpt><trkpt lat="45.0495283" lon="11.1314383"><ele>13.0</ele><time>2026-05-04T10:18:39.206Z</time></trkpt><trkpt lat="45.04935" lon="11.131525"><ele>13.0</ele><time>2026-05-04T10:18:40.212Z</time></trkpt><trkpt lat="45.04917" lon="11.131625"><ele>12.0</ele><time>2026-05-04T10:18:41.209Z</time></trkpt><trkpt lat="45.0487983" lon="11.1318567"><ele>11.0</ele><time>2026-05-04T10:18:43.22Z</time></trkpt><trkpt lat="45.0486117" lon="11.131995"><ele>11.0</ele><time>2026-05-04T10:18:44.206Z</time></trkpt><trkpt lat="45.0484317" lon="11.13214"><ele>11.0</ele><time>2026-05-04T10:18:45.21Z</time></trkpt><trkpt lat="45.0482583" lon="11.1322833"><ele>11.0</ele><time>2026-05-04T10:18:46.207Z</time></trkpt><trkpt lat="45.0480933" lon="11.1324217"><ele>11.333333333333332</ele><time>2026-05-04T10:18:47.21Z</time></trkpt><trkpt lat="45.04794" lon="11.1325517"><ele>11.666666666666666</ele><time>2026-05-04T10:18:48.208Z</time></trkpt><trkpt lat="45.0477883" lon="11.1326733"><ele>12.0</ele><time>2026-05-04T10:18:49.205Z</time></trkpt><trkpt lat="45.04763" lon="11.132785"><ele>11.666666666666666</ele><time>2026-05-04T10:18:50.208Z</time></trkpt><trkpt lat="45.0474567" lon="11.1328733"><ele>11.333333333333332</ele><time>2026-05-04T10:18:51.214Z</time></trkpt><trkpt lat="45.0472717" lon="11.1329333"><ele>11.0</ele><time>2026-05-04T10:18:52.209Z</time></trkpt><trkpt lat="45.0470917" lon="11.13297"><ele>11.0</ele><time>2026-05-04T10:18:53.206Z</time></trkpt><trkpt lat="45.0469183" lon="11.132995"><ele>11.0</ele><time>2026-05-04T10:18:54.211Z</time></trkpt><trkpt lat="45.0467533" lon="11.13303"><ele>11.0</ele><time>2026-05-04T10:18:55.208Z</time></trkpt><trkpt lat="45.046595" lon="11.1331033"><ele>11.0</ele><time>2026-05-04T10:18:56.219Z</time></trkpt><trkpt lat="45.0464483" lon="11.1332183"><ele>11.0</ele><time>2026-05-04T10:18:57.207Z</time></trkpt><trkpt lat="45.0463133" lon="11.1333433"><ele>11.0</ele><time>2026-05-04T10:18:58.209Z</time></trkpt><trkpt lat="45.0461867" lon="11.1334533"><ele>11.0</ele><time>2026-05-04T10:18:59.206Z</time></trkpt><trkpt lat="45.0460517" lon="11.1335367"><ele>11.0</ele><time>2026-05-04T10:19:00.206Z</time></trkpt><trkpt lat="45.0458967" lon="11.13357"><ele>11.0</ele><time>2026-05-04T10:19:01.208Z</time></trkpt><trkpt lat="45.0457183" lon="11.1335633"><ele>11.0</ele><time>2026-05-04T10:19:02.208Z</time></trkpt><trkpt lat="45.0455367" lon="11.13354"><ele>11.0</ele><time>2026-05-04T10:19:03.207Z</time></trkpt><trkpt lat="45.045355" lon="11.1335267"><ele>11.0</ele><time>2026-05-04T10:19:04.21Z</time></trkpt><trkpt lat="45.0451717" lon="11.133545"><ele>11.0</ele><time>2026-05-04T10:19:05.214Z</time></trkpt><trkpt lat="45.0449817" lon="11.1335967"><ele>11.0</ele><time>2026-05-04T10:19:06.206Z</time></trkpt><trkpt lat="45.0447817" lon="11.133685"><ele>11.0</ele><time>2026-05-04T10:19:07.205Z</time></trkpt><trkpt lat="45.04457" lon="11.1338"><ele>11.0</ele><time>2026-05-04T10:19:08.206Z</time></trkpt><trkpt lat="45.0443483" lon="11.13393"><ele>11.0</ele><time>2026-05-04T10:19:09.217Z</time></trkpt><trkpt lat="45.0441133" lon="11.1340767"><ele>11.5</ele><time>2026-05-04T10:19:10.206Z</time></trkpt><trkpt lat="45.0438717" lon="11.1342267"><ele>12.0</ele><time>2026-05-04T10:19:11.212Z</time></trkpt><trkpt lat="45.04363" lon="11.134375"><ele>12.0</ele><time>2026-05-04T10:19:12.206Z</time></trkpt><trkpt lat="45.04339" lon="11.1345183"><ele>12.0</ele><time>2026-05-04T10:19:13.219Z</time></trkpt><trkpt lat="45.0431517" lon="11.13466"><ele>12.0</ele><time>2026-05-04T10:19:14.209Z</time></trkpt><trkpt lat="45.04292" lon="11.1348017"><ele>12.0</ele><time>2026-05-04T10:19:15.22Z</time></trkpt><trkpt lat="45.0426967" lon="11.1349417"><ele>12.0</ele><time>2026-05-04T10:19:16.214Z</time></trkpt><trkpt lat="45.0424733" lon="11.1350767"><ele>12.0</ele><time>2026-05-04T10:19:17.213Z</time></trkpt><trkpt lat="45.04225" lon="11.1352133"><ele>11.5</ele><time>2026-05-04T10:19:18.207Z</time></trkpt><trkpt lat="45.042025" lon="11.1353517"><ele>11.0</ele><time>2026-05-04T10:19:19.207Z</time></trkpt><trkpt lat="45.0417967" lon="11.1355067"><ele>11.5</ele><time>2026-05-04T10:19:20.211Z</time></trkpt><trkpt lat="45.041565" lon="11.13568"><ele>12.0</ele><time>2026-05-04T10:19:21.21Z</time></trkpt><trkpt lat="45.0413283" lon="11.1358717"><ele>12.0</ele><time>2026-05-04T10:19:22.207Z</time></trkpt><trkpt lat="45.0410883" lon="11.1360717"><ele>12.0</ele><time>2026-05-04T10:19:23.21Z</time></trkpt><trkpt lat="45.04085" lon="11.136275"><ele>12.0</ele><time>2026-05-04T10:19:24.208Z</time></trkpt><trkpt lat="45.0406117" lon="11.13648"><ele>12.0</ele><time>2026-05-04T10:19:25.215Z</time></trkpt><trkpt lat="45.040375" lon="11.1366833"><ele>12.0</ele><time>2026-05-04T10:19:26.207Z</time></trkpt><trkpt lat="45.04014" lon="11.13688"><ele>12.0</ele><time>2026-05-04T10:19:27.207Z</time></trkpt><trkpt lat="45.0399083" lon="11.137075"><ele>12.0</ele><time>2026-05-04T10:19:28.211Z</time></trkpt><trkpt lat="45.0396783" lon="11.1372683"><ele>12.0</ele><time>2026-05-04T10:19:29.209Z</time></trkpt><trkpt lat="45.0394467" lon="11.1374567"><ele>12.0</ele><time>2026-05-04T10:19:30.215Z</time></trkpt><trkpt lat="45.0392167" lon="11.1376417"><ele>12.0</ele><time>2026-05-04T10:19:31.205Z</time></trkpt><trkpt lat="45.0389867" lon="11.13782"><ele>12.0</ele><time>2026-05-04T10:19:32.208Z</time></trkpt><trkpt lat="45.03876" lon="11.1379933"><ele>12.0</ele><time>2026-05-04T10:19:33.207Z</time></trkpt><trkpt lat="45.0385317" lon="11.138165"><ele>12.0</ele><time>2026-05-04T10:19:34.206Z</time></trkpt><trkpt lat="45.0383083" lon="11.1383333"><ele>12.0</ele><time>2026-05-04T10:19:35.214Z</time></trkpt><trkpt lat="45.03809" lon="11.1384983"><ele>12.0</ele><time>2026-05-04T10:19:36.206Z</time></trkpt><trkpt lat="45.0378817" lon="11.1386567"><ele>12.0</ele><time>2026-05-04T10:19:37.209Z</time></trkpt><trkpt lat="45.0376833" lon="11.1388067"><ele>12.0</ele><time>2026-05-04T10:19:38.209Z</time></trkpt><trkpt lat="45.0374933" lon="11.1389517"><ele>12.0</ele><time>2026-05-04T10:19:39.206Z</time></trkpt><trkpt lat="45.0373083" lon="11.1390933"><ele>12.0</ele><time>2026-05-04T10:19:40.208Z</time></trkpt><trkpt lat="45.0371283" lon="11.1392317"><ele>12.0</ele><time>2026-05-04T10:19:41.207Z</time></trkpt><trkpt lat="45.0369483" lon="11.1393683"><ele>12.0</ele><time>2026-05-04T10:19:42.207Z</time></trkpt><trkpt lat="45.0367683" lon="11.1395033"><ele>12.0</ele><time>2026-05-04T10:19:43.207Z</time></trkpt><trkpt lat="45.0365883" lon="11.13964"><ele>12.0</ele><time>2026-05-04T10:19:44.207Z</time></trkpt><trkpt lat="45.0364083" lon="11.139775"><ele>12.0</ele><time>2026-05-04T10:19:45.209Z</time></trkpt><trkpt lat="45.0362317" lon="11.1399067"><ele>12.0</ele><time>2026-05-04T10:19:46.209Z</time></trkpt><trkpt lat="45.0360617" lon="11.1400317"><ele>12.0</ele><time>2026-05-04T10:19:47.207Z</time></trkpt><trkpt lat="45.0359017" lon="11.14015"><ele>12.0</ele><time>2026-05-04T10:19:48.208Z</time></trkpt><trkpt lat="45.0357483" lon="11.1402567"><ele>12.0</ele><time>2026-05-04T10:19:49.207Z</time></trkpt><trkpt lat="45.0356067" lon="11.1403567"><ele>11.5</ele><time>2026-05-04T10:19:50.207Z</time></trkpt><trkpt lat="45.0354717" lon="11.1404533"><ele>11.0</ele><time>2026-05-04T10:19:51.208Z</time></trkpt><trkpt lat="45.0353467" lon="11.1405383"><ele>10.5</ele><time>2026-05-04T10:19:52.206Z</time></trkpt><trkpt lat="45.0352333" lon="11.1406083"><ele>10.0</ele><time>2026-05-04T10:19:53.208Z</time></trkpt><trkpt lat="45.0351333" lon="11.140655"><ele>10.0</ele><time>2026-05-04T10:19:54.207Z</time></trkpt><trkpt lat="45.0350483" lon="11.140675"><ele>10.0</ele><time>2026-05-04T10:19:55.207Z</time></trkpt><trkpt lat="45.03498" lon="11.1406783"><ele>10.0</ele><time>2026-05-04T10:19:56.21Z</time></trkpt><trkpt lat="45.03488" lon="11.1406217"><ele>10.0</ele><time>2026-05-04T10:19:58.209Z</time></trkpt><trkpt lat="45.0348483" lon="11.1405417"><ele>10.0</ele><time>2026-05-04T10:19:59.208Z</time></trkpt><trkpt lat="45.0348383" lon="11.14042"><ele>10.0</ele><time>2026-05-04T10:20:00.212Z</time></trkpt><trkpt lat="45.0348267" lon="11.1402917"><ele>10.0</ele><time>2026-05-04T10:20:01.207Z</time></trkpt><trkpt lat="45.0348183" lon="11.14014"><ele>10.0</ele><time>2026-05-04T10:20:02.217Z</time></trkpt><trkpt lat="45.0348067" lon="11.1400033"><ele>10.0</ele><time>2026-05-04T10:20:03.207Z</time></trkpt><trkpt lat="45.034805" lon="11.1398783"><ele>10.0</ele><time>2026-05-04T10:20:04.207Z</time></trkpt><trkpt lat="45.0348033" lon="11.1397767"><ele>10.0</ele><time>2026-05-04T10:20:05.208Z</time></trkpt><trkpt lat="45.034775" lon="11.1396933"><ele>10.0</ele><time>2026-05-04T10:20:06.212Z</time></trkpt><trkpt lat="45.0347217" lon="11.139635"><ele>10.0</ele><time>2026-05-04T10:20:07.207Z</time></trkpt><trkpt lat="45.03465" lon="11.13961"><ele>10.0</ele><time>2026-05-04T10:20:08.22Z</time></trkpt><trkpt lat="45.0345517" lon="11.1396167"><ele>10.0</ele><time>2026-05-04T10:20:09.206Z</time></trkpt><trkpt lat="45.0344167" lon="11.1396317"><ele>10.0</ele><time>2026-05-04T10:20:10.208Z</time></trkpt><trkpt lat="45.034245" lon="11.1396483"><ele>10.0</ele><time>2026-05-04T10:20:11.207Z</time></trkpt><trkpt lat="45.0340767" lon="11.1396483"><ele>10.0</ele><time>2026-05-04T10:20:12.208Z</time></trkpt><trkpt lat="45.0339133" lon="11.1396467"><ele>10.0</ele><time>2026-05-04T10:20:13.207Z</time></trkpt><trkpt lat="45.03376" lon="11.139645"><ele>10.0</ele><time>2026-05-04T10:20:14.215Z</time></trkpt><trkpt lat="45.0336067" lon="11.139655"><ele>10.0</ele><time>2026-05-04T10:20:15.207Z</time></trkpt><trkpt lat="45.033445" lon="11.139705"><ele>10.0</ele><time>2026-05-04T10:20:16.211Z</time></trkpt><trkpt lat="45.0332717" lon="11.139795"><ele>11.0</ele><time>2026-05-04T10:20:17.206Z</time></trkpt><trkpt lat="45.0330883" lon="11.1399133"><ele>12.0</ele><time>2026-05-04T10:20:18.206Z</time></trkpt><trkpt lat="45.0329083" lon="11.1400383"><ele>13.0</ele><time>2026-05-04T10:20:19.208Z</time></trkpt><trkpt lat="45.03274" lon="11.1401517"><ele>13.0</ele><time>2026-05-04T10:20:20.212Z</time></trkpt><trkpt lat="45.0325817" lon="11.14026"><ele>13.0</ele><time>2026-05-04T10:20:21.21Z</time></trkpt><trkpt lat="45.0324317" lon="11.1403633"><ele>13.0</ele><time>2026-05-04T10:20:22.207Z</time></trkpt><trkpt lat="45.0322833" lon="11.1404567"><ele>12.333333333333332</ele><time>2026-05-04T10:20:23.209Z</time></trkpt><trkpt lat="45.03213" lon="11.1405233"><ele>11.666666666666666</ele><time>2026-05-04T10:20:24.212Z</time></trkpt><trkpt lat="45.03197" lon="11.1405467"><ele>11.0</ele><time>2026-05-04T10:20:25.211Z</time></trkpt><trkpt lat="45.031805" lon="11.1405267"><ele>11.0</ele><time>2026-05-04T10:20:26.215Z</time></trkpt><trkpt lat="45.0316433" lon="11.1404683"><ele>11.0</ele><time>2026-05-04T10:20:27.21Z</time></trkpt><trkpt lat="45.0314867" lon="11.1403883"><ele>11.0</ele><time>2026-05-04T10:20:28.207Z</time></trkpt><trkpt lat="45.0313333" lon="11.1403017"><ele>10.75</ele><time>2026-05-04T10:20:29.207Z</time></trkpt><trkpt lat="45.031185" lon="11.14022"><ele>10.5</ele><time>2026-05-04T10:20:30.207Z</time></trkpt><trkpt lat="45.031045" lon="11.1401567"><ele>10.25</ele><time>2026-05-04T10:20:31.207Z</time></trkpt><trkpt lat="45.0309133" lon="11.1401217"><ele>10.0</ele><time>2026-05-04T10:20:32.21Z</time></trkpt><trkpt lat="45.0307767" lon="11.14012"><ele>10.0</ele><time>2026-05-04T10:20:33.213Z</time></trkpt><trkpt lat="45.0306433" lon="11.14011"><ele>10.0</ele><time>2026-05-04T10:20:34.209Z</time></trkpt><trkpt lat="45.0305" lon="11.1400583"><ele>10.0</ele><time>2026-05-04T10:20:35.207Z</time></trkpt><trkpt lat="45.03034" lon="11.139985"><ele>10.0</ele><time>2026-05-04T10:20:36.206Z</time></trkpt><trkpt lat="45.0301667" lon="11.1399017"><ele>10.0</ele><time>2026-05-04T10:20:37.215Z</time></trkpt><trkpt lat="45.02999" lon="11.13982"><ele>10.0</ele><time>2026-05-04T10:20:38.209Z</time></trkpt><trkpt lat="45.0298117" lon="11.1397333"><ele>9.333333333333334</ele><time>2026-05-04T10:20:39.209Z</time></trkpt><trkpt lat="45.029635" lon="11.13965"><ele>8.666666666666666</ele><time>2026-05-04T10:20:40.213Z</time></trkpt><trkpt lat="45.0294617" lon="11.13957"><ele>8.0</ele><time>2026-05-04T10:20:41.206Z</time></trkpt><trkpt lat="45.0293017" lon="11.1394967"><ele>8.0</ele><time>2026-05-04T10:20:42.208Z</time></trkpt><trkpt lat="45.02916" lon="11.139435"><ele>8.0</ele><time>2026-05-04T10:20:43.207Z</time></trkpt><trkpt lat="45.0290233" lon="11.1394067"><ele>8.0</ele><time>2026-05-04T10:20:44.212Z</time></trkpt><trkpt lat="45.0288833" lon="11.1394267"><ele>8.0</ele><time>2026-05-04T10:20:45.206Z</time></trkpt><trkpt lat="45.0287483" lon="11.139495"><ele>9.0</ele><time>2026-05-04T10:20:46.212Z</time></trkpt><trkpt lat="45.02863" lon="11.1396117"><ele>10.0</ele><time>2026-05-04T10:20:47.207Z</time></trkpt><trkpt lat="45.0285283" lon="11.1397733"><ele>11.0</ele><time>2026-05-04T10:20:48.207Z</time></trkpt><trkpt lat="45.02844" lon="11.139975"><ele>11.0</ele><time>2026-05-04T10:20:49.207Z</time></trkpt><trkpt lat="45.028365" lon="11.1402033"><ele>11.0</ele><time>2026-05-04T10:20:50.213Z</time></trkpt><trkpt lat="45.0282933" lon="11.140435"><ele>11.0</ele><time>2026-05-04T10:20:51.208Z</time></trkpt><trkpt lat="45.028225" lon="11.1406483"><ele>11.25</ele><time>2026-05-04T10:20:52.208Z</time></trkpt><trkpt lat="45.028145" lon="11.1408317"><ele>11.5</ele><time>2026-05-04T10:20:53.208Z</time></trkpt><trkpt lat="45.02804" lon="11.1409783"><ele>11.75</ele><time>2026-05-04T10:20:54.207Z</time></trkpt><trkpt lat="45.0279133" lon="11.14109"><ele>12.0</ele><time>2026-05-04T10:20:55.208Z</time></trkpt><trkpt lat="45.0277633" lon="11.1411633"><ele>12.0</ele><time>2026-05-04T10:20:56.211Z</time></trkpt><trkpt lat="45.0275967" lon="11.1411883"><ele>12.0</ele><time>2026-05-04T10:20:57.21Z</time></trkpt><trkpt lat="45.0274067" lon="11.141165"><ele>12.0</ele><time>2026-05-04T10:20:58.206Z</time></trkpt><trkpt lat="45.0272067" lon="11.1411067"><ele>12.333333333333332</ele><time>2026-05-04T10:20:59.208Z</time></trkpt><trkpt lat="45.0270017" lon="11.14103"><ele>12.666666666666666</ele><time>2026-05-04T10:21:00.216Z</time></trkpt><trkpt lat="45.0268" lon="11.140955"><ele>13.0</ele><time>2026-05-04T10:21:01.208Z</time></trkpt><trkpt lat="45.0266067" lon="11.1408817"><ele>12.333333333333332</ele><time>2026-05-04T10:21:02.212Z</time></trkpt><trkpt lat="45.02642" lon="11.1408133"><ele>11.666666666666666</ele><time>2026-05-04T10:21:03.21Z</time></trkpt><trkpt lat="45.0262467" lon="11.1407367"><ele>11.0</ele><time>2026-05-04T10:21:04.216Z</time></trkpt><trkpt lat="45.0260867" lon="11.1406467"><ele>10.75</ele><time>2026-05-04T10:21:05.212Z</time></trkpt><trkpt lat="45.0259417" lon="11.14055"><ele>10.5</ele><time>2026-05-04T10:21:06.207Z</time></trkpt><trkpt lat="45.0258067" lon="11.140465"><ele>10.25</ele><time>2026-05-04T10:21:07.206Z</time></trkpt><trkpt lat="45.0256833" lon="11.1404"><ele>10.0</ele><time>2026-05-04T10:21:08.209Z</time></trkpt><trkpt lat="45.02556" lon="11.1403683"><ele>9.5</ele><time>2026-05-04T10:21:09.21Z</time></trkpt><trkpt lat="45.025435" lon="11.140375"><ele>9.0</ele><time>2026-05-04T10:21:10.21Z</time></trkpt><trkpt lat="45.0253067" lon="11.14042"><ele>8.5</ele><time>2026-05-04T10:21:11.213Z</time></trkpt><trkpt lat="45.0251767" lon="11.140485"><ele>8.0</ele><time>2026-05-04T10:21:12.213Z</time></trkpt><trkpt lat="45.025045" lon="11.140555"><ele>8.666666666666666</ele><time>2026-05-04T10:21:13.207Z</time></trkpt><trkpt lat="45.0249117" lon="11.14062"><ele>9.333333333333334</ele><time>2026-05-04T10:21:14.209Z</time></trkpt><trkpt lat="45.024775" lon="11.1406833"><ele>10.0</ele><time>2026-05-04T10:21:15.208Z</time></trkpt><trkpt lat="45.0244767" lon="11.1408117"><ele>10.0</ele><time>2026-05-04T10:21:17.209Z</time></trkpt><trkpt lat="45.0243167" lon="11.140875"><ele>10.0</ele><time>2026-05-04T10:21:18.209Z</time></trkpt><trkpt lat="45.024155" lon="11.14094"><ele>10.0</ele><time>2026-05-04T10:21:19.209Z</time></trkpt><trkpt lat="45.02399" lon="11.14101"><ele>9.5</ele><time>2026-05-04T10:21:20.208Z</time></trkpt><trkpt lat="45.0236483" lon="11.1411583"><ele>9.0</ele><time>2026-05-04T10:21:22.209Z</time></trkpt><trkpt lat="45.0234683" lon="11.14124"><ele>9.666666666666666</ele><time>2026-05-04T10:21:23.215Z</time></trkpt><trkpt lat="45.0232717" lon="11.141325"><ele>10.333333333333332</ele><time>2026-05-04T10:21:24.209Z</time></trkpt><trkpt lat="45.0230767" lon="11.1414067"><ele>11.0</ele><time>2026-05-04T10:21:25.21Z</time></trkpt><trkpt lat="45.022875" lon="11.1414933"><ele>11.333333333333332</ele><time>2026-05-04T10:21:26.213Z</time></trkpt><trkpt lat="45.02267" lon="11.1415783"><ele>11.666666666666666</ele><time>2026-05-04T10:21:27.209Z</time></trkpt><trkpt lat="45.022465" lon="11.1416733"><ele>12.0</ele><time>2026-05-04T10:21:28.215Z</time></trkpt><trkpt lat="45.0222633" lon="11.1417683"><ele>12.0</ele><time>2026-05-04T10:21:29.208Z</time></trkpt><trkpt lat="45.0220683" lon="11.1418633"><ele>12.0</ele><time>2026-05-04T10:21:30.207Z</time></trkpt><trkpt lat="45.0218833" lon="11.1419567"><ele>12.0</ele><time>2026-05-04T10:21:31.206Z</time></trkpt><trkpt lat="45.021705" lon="11.1420467"><ele>11.666666666666666</ele><time>2026-05-04T10:21:32.209Z</time></trkpt><trkpt lat="45.0215367" lon="11.142135"><ele>11.333333333333332</ele><time>2026-05-04T10:21:33.207Z</time></trkpt><trkpt lat="45.0213833" lon="11.1422267"><ele>11.0</ele><time>2026-05-04T10:21:34.208Z</time></trkpt><trkpt lat="45.0212433" lon="11.1423383"><ele>11.0</ele><time>2026-05-04T10:21:35.208Z</time></trkpt><trkpt lat="45.0211117" lon="11.1424867"><ele>11.0</ele><time>2026-05-04T10:21:36.207Z</time></trkpt><trkpt lat="45.02099" lon="11.1426683"><ele>11.0</ele><time>2026-05-04T10:21:37.207Z</time></trkpt><trkpt lat="45.0208783" lon="11.1428783"><ele>11.0</ele><time>2026-05-04T10:21:38.21Z</time></trkpt><trkpt lat="45.020775" lon="11.14311"><ele>11.0</ele><time>2026-05-04T10:21:39.212Z</time></trkpt><trkpt lat="45.0206767" lon="11.1433667"><ele>11.0</ele><time>2026-05-04T10:21:40.212Z</time></trkpt><trkpt lat="45.020585" lon="11.1436483"><ele>11.0</ele><time>2026-05-04T10:21:41.205Z</time></trkpt><trkpt lat="45.0204933" lon="11.1439417"><ele>11.0</ele><time>2026-05-04T10:21:42.205Z</time></trkpt><trkpt lat="45.0204017" lon="11.1442433"><ele>11.0</ele><time>2026-05-04T10:21:43.206Z</time></trkpt><trkpt lat="45.0203117" lon="11.1445467"><ele>11.0</ele><time>2026-05-04T10:21:44.209Z</time></trkpt><trkpt lat="45.02022" lon="11.14485"><ele>10.5</ele><time>2026-05-04T10:21:45.206Z</time></trkpt><trkpt lat="45.0201267" lon="11.1451483"><ele>10.0</ele><time>2026-05-04T10:21:46.205Z</time></trkpt><trkpt lat="45.0200333" lon="11.14544"><ele>10.0</ele><time>2026-05-04T10:21:47.207Z</time></trkpt><trkpt lat="45.0199417" lon="11.1457267"><ele>10.0</ele><time>2026-05-04T10:21:48.212Z</time></trkpt><trkpt lat="45.0198583" lon="11.1460017"><ele>10.0</ele><time>2026-05-04T10:21:49.213Z</time></trkpt><trkpt lat="45.019785" lon="11.146255"><ele>10.0</ele><time>2026-05-04T10:21:50.207Z</time></trkpt><trkpt lat="45.0197233" lon="11.1464767"><ele>10.0</ele><time>2026-05-04T10:21:51.209Z</time></trkpt><trkpt lat="45.019665" lon="11.1466767"><ele>10.0</ele><time>2026-05-04T10:21:52.21Z</time></trkpt><trkpt lat="45.0195933" lon="11.1468633"><ele>9.666666666666668</ele><time>2026-05-04T10:21:53.209Z</time></trkpt><trkpt lat="45.0195033" lon="11.1470317"><ele>9.333333333333334</ele><time>2026-05-04T10:21:54.21Z</time></trkpt><trkpt lat="45.019385" lon="11.1471733"><ele>9.0</ele><time>2026-05-04T10:21:55.208Z</time></trkpt><trkpt lat="45.01924" lon="11.1472767"><ele>9.333333333333334</ele><time>2026-05-04T10:21:56.21Z</time></trkpt><trkpt lat="45.0190667" lon="11.14735"><ele>9.666666666666668</ele><time>2026-05-04T10:21:57.207Z</time></trkpt><trkpt lat="45.018875" lon="11.147415"><ele>10.0</ele><time>2026-05-04T10:21:58.213Z</time></trkpt><trkpt lat="45.0186833" lon="11.147475"><ele>10.0</ele><time>2026-05-04T10:21:59.21Z</time></trkpt><trkpt lat="45.0184883" lon="11.1475367"><ele>10.0</ele><time>2026-05-04T10:22:00.212Z</time></trkpt><trkpt lat="45.0182933" lon="11.1476033"><ele>10.0</ele><time>2026-05-04T10:22:01.209Z</time></trkpt><trkpt lat="45.018095" lon="11.147665"><ele>10.0</ele><time>2026-05-04T10:22:02.214Z</time></trkpt><trkpt lat="45.01789" lon="11.1477067"><ele>10.0</ele><time>2026-05-04T10:22:03.213Z</time></trkpt><trkpt lat="45.01768" lon="11.14772"><ele>10.0</ele><time>2026-05-04T10:22:04.228Z</time></trkpt><trkpt lat="45.0174667" lon="11.14772"><ele>10.333333333333334</ele><time>2026-05-04T10:22:05.207Z</time></trkpt><trkpt lat="45.017265" lon="11.1477117"><ele>10.666666666666666</ele><time>2026-05-04T10:22:06.208Z</time></trkpt><trkpt lat="45.0170717" lon="11.1477033"><ele>11.0</ele><time>2026-05-04T10:22:07.207Z</time></trkpt><trkpt lat="45.0168817" lon="11.147695"><ele>11.0</ele><time>2026-05-04T10:22:08.217Z</time></trkpt><trkpt lat="45.0166917" lon="11.1476883"><ele>11.0</ele><time>2026-05-04T10:22:09.209Z</time></trkpt><trkpt lat="45.0165" lon="11.1476933"><ele>11.0</ele><time>2026-05-04T10:22:10.206Z</time></trkpt><trkpt lat="45.0163033" lon="11.1477217"><ele>10.666666666666666</ele><time>2026-05-04T10:22:11.206Z</time></trkpt><trkpt lat="45.0161067" lon="11.1477667"><ele>10.333333333333334</ele><time>2026-05-04T10:22:12.209Z</time></trkpt><trkpt lat="45.0159067" lon="11.14781"><ele>10.0</ele><time>2026-05-04T10:22:13.208Z</time></trkpt><trkpt lat="45.0156917" lon="11.1478283"><ele>9.5</ele><time>2026-05-04T10:22:14.209Z</time></trkpt><trkpt lat="45.0154617" lon="11.147825"><ele>9.0</ele><time>2026-05-04T10:22:15.21Z</time></trkpt><trkpt lat="45.0152217" lon="11.1478133"><ele>9.0</ele><time>2026-05-04T10:22:16.206Z</time></trkpt><trkpt lat="45.0149767" lon="11.1477983"><ele>9.0</ele><time>2026-05-04T10:22:17.211Z</time></trkpt><trkpt lat="45.0147317" lon="11.1477867"><ele>9.0</ele><time>2026-05-04T10:22:18.208Z</time></trkpt><trkpt lat="45.0144917" lon="11.147775"><ele>9.0</ele><time>2026-05-04T10:22:19.209Z</time></trkpt><trkpt lat="45.0142667" lon="11.1477617"><ele>9.0</ele><time>2026-05-04T10:22:20.208Z</time></trkpt><trkpt lat="45.014055" lon="11.14775"><ele>9.0</ele><time>2026-05-04T10:22:21.219Z</time></trkpt><trkpt lat="45.0138567" lon="11.14774"><ele>9.0</ele><time>2026-05-04T10:22:22.208Z</time></trkpt><trkpt lat="45.013665" lon="11.14773"><ele>9.0</ele><time>2026-05-04T10:22:23.21Z</time></trkpt><trkpt lat="45.01348" lon="11.1477233"><ele>9.0</ele><time>2026-05-04T10:22:24.21Z</time></trkpt><trkpt lat="45.0133033" lon="11.1477167"><ele>9.0</ele><time>2026-05-04T10:22:25.206Z</time></trkpt><trkpt lat="45.013125" lon="11.147715"><ele>9.333333333333334</ele><time>2026-05-04T10:22:26.211Z</time></trkpt><trkpt lat="45.01295" lon="11.14773"><ele>9.666666666666668</ele><time>2026-05-04T10:22:27.209Z</time></trkpt><trkpt lat="45.0127733" lon="11.1477767"><ele>10.0</ele><time>2026-05-04T10:22:28.211Z</time></trkpt><trkpt lat="45.0125933" lon="11.1478483"><ele>9.666666666666668</ele><time>2026-05-04T10:22:29.209Z</time></trkpt><trkpt lat="45.01241" lon="11.1479383"><ele>9.333333333333334</ele><time>2026-05-04T10:22:30.212Z</time></trkpt><trkpt lat="45.0122217" lon="11.1480417"><ele>9.0</ele><time>2026-05-04T10:22:31.206Z</time></trkpt><trkpt lat="45.0120267" lon="11.1481533"><ele>9.0</ele><time>2026-05-04T10:22:32.207Z</time></trkpt><trkpt lat="45.0118233" lon="11.1482717"><ele>9.0</ele><time>2026-05-04T10:22:33.207Z</time></trkpt><trkpt lat="45.0116133" lon="11.1483867"><ele>9.0</ele><time>2026-05-04T10:22:34.211Z</time></trkpt><trkpt lat="45.0114" lon="11.1484883"><ele>9.0</ele><time>2026-05-04T10:22:35.208Z</time></trkpt><trkpt lat="45.01118" lon="11.1485783"><ele>9.0</ele><time>2026-05-04T10:22:36.207Z</time></trkpt><trkpt lat="45.0109617" lon="11.1486617"><ele>9.0</ele><time>2026-05-04T10:22:37.208Z</time></trkpt><trkpt lat="45.0107433" lon="11.148745"><ele>9.0</ele><time>2026-05-04T10:22:38.21Z</time></trkpt><trkpt lat="45.010535" lon="11.1488233"><ele>9.0</ele><time>2026-05-04T10:22:39.208Z</time></trkpt><trkpt lat="45.0103383" lon="11.1488983"><ele>9.0</ele><time>2026-05-04T10:22:40.211Z</time></trkpt><trkpt lat="45.01015" lon="11.1489717"><ele>9.0</ele><time>2026-05-04T10:22:41.213Z</time></trkpt><trkpt lat="45.0099667" lon="11.149045"><ele>9.0</ele><time>2026-05-04T10:22:42.209Z</time></trkpt><trkpt lat="45.0097867" lon="11.1491183"><ele>9.0</ele><time>2026-05-04T10:22:43.207Z</time></trkpt><trkpt lat="45.0096067" lon="11.1492"><ele>9.0</ele><time>2026-05-04T10:22:44.217Z</time></trkpt><trkpt lat="45.0094267" lon="11.1492933"><ele>9.0</ele><time>2026-05-04T10:22:45.206Z</time></trkpt><trkpt lat="45.0092483" lon="11.1493917"><ele>9.333333333333334</ele><time>2026-05-04T10:22:46.207Z</time></trkpt><trkpt lat="45.0090717" lon="11.1494933"><ele>9.666666666666668</ele><time>2026-05-04T10:22:47.214Z</time></trkpt><trkpt lat="45.008895" lon="11.1495933"><ele>10.0</ele><time>2026-05-04T10:22:48.215Z</time></trkpt><trkpt lat="45.00872" lon="11.14969"><ele>10.0</ele><time>2026-05-04T10:22:49.214Z</time></trkpt><trkpt lat="45.0085483" lon="11.1497833"><ele>10.0</ele><time>2026-05-04T10:22:50.219Z</time></trkpt><trkpt lat="45.00838" lon="11.149875"><ele>10.0</ele><time>2026-05-04T10:22:51.21Z</time></trkpt><trkpt lat="45.0082133" lon="11.1499633"><ele>9.333333333333334</ele><time>2026-05-04T10:22:52.209Z</time></trkpt><trkpt lat="45.00805" lon="11.150045"><ele>8.666666666666666</ele><time>2026-05-04T10:22:53.207Z</time></trkpt><trkpt lat="45.0078883" lon="11.1501117"><ele>8.0</ele><time>2026-05-04T10:22:54.207Z</time></trkpt><trkpt lat="45.00773" lon="11.1501533"><ele>8.0</ele><time>2026-05-04T10:22:55.214Z</time></trkpt><trkpt lat="45.0075817" lon="11.150185"><ele>8.0</ele><time>2026-05-04T10:22:56.207Z</time></trkpt><trkpt lat="45.0074433" lon="11.15021"><ele>8.0</ele><time>2026-05-04T10:22:57.213Z</time></trkpt><trkpt lat="45.007315" lon="11.150235"><ele>8.0</ele><time>2026-05-04T10:22:58.206Z</time></trkpt><trkpt lat="45.0071933" lon="11.1502583"><ele>8.4</ele><time>2026-05-04T10:22:59.209Z</time></trkpt><trkpt lat="45.007085" lon="11.15028"><ele>8.8</ele><time>2026-05-04T10:23:00.207Z</time></trkpt><trkpt lat="45.0069867" lon="11.1502983"><ele>9.2</ele><time>2026-05-04T10:23:01.213Z</time></trkpt><trkpt lat="45.0068967" lon="11.1503117"><ele>9.6</ele><time>2026-05-04T10:23:02.207Z</time></trkpt><trkpt lat="45.006815" lon="11.150325"><ele>10.0</ele><time>2026-05-04T10:23:03.213Z</time></trkpt><trkpt lat="45.0067367" lon="11.1503367"><ele>10.0</ele><time>2026-05-04T10:23:04.207Z</time></trkpt><trkpt lat="45.0066617" lon="11.1503483"><ele>10.0</ele><time>2026-05-04T10:23:05.207Z</time></trkpt><trkpt lat="45.0065833" lon="11.1503617"><ele>10.0</ele><time>2026-05-04T10:23:06.21Z</time></trkpt><trkpt lat="45.006505" lon="11.1503783"><ele>10.0</ele><time>2026-05-04T10:23:07.208Z</time></trkpt><trkpt lat="45.0064217" lon="11.1504017"><ele>10.0</ele><time>2026-05-04T10:23:08.208Z</time></trkpt><trkpt lat="45.0063317" lon="11.1504167"><ele>10.0</ele><time>2026-05-04T10:23:09.211Z</time></trkpt><trkpt lat="45.0062383" lon="11.15043"><ele>9.833333333333334</ele><time>2026-05-04T10:23:10.211Z</time></trkpt><trkpt lat="45.006145" lon="11.15045"><ele>9.666666666666668</ele><time>2026-05-04T10:23:11.208Z</time></trkpt><trkpt lat="45.0060533" lon="11.1504733"><ele>9.5</ele><time>2026-05-04T10:23:12.214Z</time></trkpt><trkpt lat="45.0059683" lon="11.15049"><ele>9.333333333333334</ele><time>2026-05-04T10:23:13.207Z</time></trkpt><trkpt lat="45.00589" lon="11.1505017"><ele>9.166666666666666</ele><time>2026-05-04T10:23:14.208Z</time></trkpt><trkpt lat="45.0058233" lon="11.1505067"><ele>9.0</ele><time>2026-05-04T10:23:15.211Z</time></trkpt><trkpt lat="45.00574" lon="11.1505017"><ele>9.4</ele><time>2026-05-04T10:23:17.208Z</time></trkpt><trkpt lat="45.0056767" lon="11.1505117"><ele>9.8</ele><time>2026-05-04T10:23:19.209Z</time></trkpt><trkpt lat="45.0056017" lon="11.15062"><ele>10.200000000000001</ele><time>2026-05-04T10:23:21.207Z</time></trkpt><trkpt lat="45.0055583" lon="11.1507867"><ele>10.600000000000001</ele><time>2026-05-04T10:23:23.209Z</time></trkpt><trkpt lat="45.0055317" lon="11.1508933"><ele>11.0</ele><time>2026-05-04T10:23:24.206Z</time></trkpt><trkpt lat="45.0055033" lon="11.1510117"><ele>11.0</ele><time>2026-05-04T10:23:25.215Z</time></trkpt><trkpt lat="45.0054833" lon="11.1511433"><ele>11.0</ele><time>2026-05-04T10:23:26.212Z</time></trkpt><trkpt lat="45.0054633" lon="11.15127"><ele>11.0</ele><time>2026-05-04T10:23:27.215Z</time></trkpt><trkpt lat="45.0054417" lon="11.151395"><ele>11.0</ele><time>2026-05-04T10:23:28.208Z</time></trkpt><trkpt lat="45.0054167" lon="11.15152"><ele>11.0</ele><time>2026-05-04T10:23:29.207Z</time></trkpt><trkpt lat="45.00539" lon="11.1516433"><ele>11.0</ele><time>2026-05-04T10:23:30.208Z</time></trkpt><trkpt lat="45.0053667" lon="11.15177"><ele>11.0</ele><time>2026-05-04T10:23:31.206Z</time></trkpt><trkpt lat="45.0053467" lon="11.1518983"><ele>11.0</ele><time>2026-05-04T10:23:32.217Z</time></trkpt><trkpt lat="45.0053283" lon="11.152025"><ele>11.0</ele><time>2026-05-04T10:23:33.211Z</time></trkpt><trkpt lat="45.0053083" lon="11.1521433"><ele>11.0</ele><time>2026-05-04T10:23:34.206Z</time></trkpt><trkpt lat="45.00529" lon="11.1522617"><ele>11.0</ele><time>2026-05-04T10:23:35.208Z</time></trkpt><trkpt lat="45.00527" lon="11.1523767"><ele>11.0</ele><time>2026-05-04T10:23:36.207Z</time></trkpt><trkpt lat="45.00525" lon="11.1524983"><ele>11.0</ele><time>2026-05-04T10:23:37.207Z</time></trkpt><trkpt lat="45.0052333" lon="11.1526217"><ele>11.0</ele><time>2026-05-04T10:23:38.212Z</time></trkpt><trkpt lat="45.005215" lon="11.1527467"><ele>11.0</ele><time>2026-05-04T10:23:39.208Z</time></trkpt><trkpt lat="45.0051933" lon="11.1528733"><ele>11.0</ele><time>2026-05-04T10:23:40.21Z</time></trkpt><trkpt lat="45.0051667" lon="11.1530067"><ele>11.0</ele><time>2026-05-04T10:23:41.206Z</time></trkpt><trkpt lat="45.0051417" lon="11.1531533"><ele>11.0</ele><time>2026-05-04T10:23:42.207Z</time></trkpt><trkpt lat="45.0051167" lon="11.1533133"><ele>11.0</ele><time>2026-05-04T10:23:43.208Z</time></trkpt><trkpt lat="45.0050917" lon="11.153485"><ele>11.0</ele><time>2026-05-04T10:23:44.227Z</time></trkpt><trkpt lat="45.0050667" lon="11.153665"><ele>10.75</ele><time>2026-05-04T10:23:45.207Z</time></trkpt><trkpt lat="45.0050433" lon="11.1538483"><ele>10.5</ele><time>2026-05-04T10:23:46.207Z</time></trkpt><trkpt lat="45.0050217" lon="11.15403"><ele>10.25</ele><time>2026-05-04T10:23:47.207Z</time></trkpt><trkpt lat="45.0049983" lon="11.1542033"><ele>10.0</ele><time>2026-05-04T10:23:48.209Z</time></trkpt><trkpt lat="45.004975" lon="11.1543717"><ele>10.0</ele><time>2026-05-04T10:23:49.208Z</time></trkpt><trkpt lat="45.004955" lon="11.15453"><ele>10.0</ele><time>2026-05-04T10:23:50.209Z</time></trkpt><trkpt lat="45.004935" lon="11.154685"><ele>10.0</ele><time>2026-05-04T10:23:51.207Z</time></trkpt><trkpt lat="45.0049133" lon="11.15483"><ele>10.0</ele><time>2026-05-04T10:23:52.21Z</time></trkpt><trkpt lat="45.0048917" lon="11.1549717"><ele>10.0</ele><time>2026-05-04T10:23:53.208Z</time></trkpt><trkpt lat="45.00487" lon="11.1551067"><ele>10.0</ele><time>2026-05-04T10:23:54.207Z</time></trkpt><trkpt lat="45.0048483" lon="11.1552133"><ele>10.0</ele><time>2026-05-04T10:23:55.207Z</time></trkpt><trkpt lat="45.0048283" lon="11.1553067"><ele>10.0</ele><time>2026-05-04T10:23:56.207Z</time></trkpt><trkpt lat="45.00481" lon="11.1554133"><ele>10.0</ele><time>2026-05-04T10:23:57.207Z</time></trkpt><trkpt lat="45.0047967" lon="11.15551"><ele>10.0</ele><time>2026-05-04T10:23:58.21Z</time></trkpt><trkpt lat="45.004775" lon="11.1556267"><ele>10.0</ele><time>2026-05-04T10:24:00.206Z</time></trkpt><trkpt lat="45.0047017" lon="11.1556867"><ele>10.0</ele><time>2026-05-04T10:24:04.208Z</time></trkpt><trkpt lat="45.0046167" lon="11.155685"><ele>10.0</ele><time>2026-05-04T10:24:06.216Z</time></trkpt><trkpt lat="45.004495" lon="11.1556567"><ele>10.0</ele><time>2026-05-04T10:24:08.213Z</time></trkpt><trkpt lat="45.0043633" lon="11.15563"><ele>10.0</ele><time>2026-05-04T10:24:10.208Z</time></trkpt><trkpt lat="45.0042767" lon="11.1556117"><ele>10.0</ele><time>2026-05-04T10:24:11.214Z</time></trkpt><trkpt lat="45.0041967" lon="11.15559"><ele>9.666666666666668</ele><time>2026-05-04T10:24:12.207Z</time></trkpt><trkpt lat="45.00412" lon="11.1555733"><ele>9.333333333333334</ele><time>2026-05-04T10:24:13.216Z</time></trkpt><trkpt lat="45.0040533" lon="11.15556"><ele>9.0</ele><time>2026-05-04T10:24:14.214Z</time></trkpt><trkpt lat="45.0039767" lon="11.155545"><ele>8.666666666666666</ele><time>2026-05-04T10:24:15.215Z</time></trkpt><trkpt lat="45.003885" lon="11.1555283"><ele>8.333333333333332</ele><time>2026-05-04T10:24:16.208Z</time></trkpt><trkpt lat="45.0038017" lon="11.1555133"><ele>8.0</ele><time>2026-05-04T10:24:17.212Z</time></trkpt><trkpt lat="45.0037167" lon="11.155495"><ele>7.999999999999999</ele><time>2026-05-04T10:24:18.212Z</time></trkpt><trkpt lat="45.0036317" lon="11.1554767"><ele>8.0</ele><time>2026-05-04T10:24:19.207Z</time></trkpt><trkpt lat="45.0035467" lon="11.1554517"><ele>8.0</ele><time>2026-05-04T10:24:20.214Z</time></trkpt><trkpt lat="45.0034567" lon="11.1554267"><ele>8.0</ele><time>2026-05-04T10:24:21.21Z</time></trkpt><trkpt lat="45.0033783" lon="11.1554017"><ele>7.999999999999999</ele><time>2026-05-04T10:24:22.208Z</time></trkpt><trkpt lat="45.003285" lon="11.15537"><ele>8.0</ele><time>2026-05-04T10:24:23.207Z</time></trkpt><trkpt lat="45.0032" lon="11.1553417"><ele>8.4</ele><time>2026-05-04T10:24:24.213Z</time></trkpt><trkpt lat="45.0031117" lon="11.1553067"><ele>8.8</ele><time>2026-05-04T10:24:25.206Z</time></trkpt><trkpt lat="45.00302" lon="11.15527"><ele>9.2</ele><time>2026-05-04T10:24:26.208Z</time></trkpt><trkpt lat="45.0029333" lon="11.1552367"><ele>9.6</ele><time>2026-05-04T10:24:27.21Z</time></trkpt><trkpt lat="45.0028467" lon="11.1552067"><ele>10.0</ele><time>2026-05-04T10:24:28.208Z</time></trkpt><trkpt lat="45.0027567" lon="11.155175"><ele>10.0</ele><time>2026-05-04T10:24:29.207Z</time></trkpt><trkpt lat="45.002665" lon="11.1551433"><ele>10.0</ele><time>2026-05-04T10:24:30.207Z</time></trkpt><trkpt lat="45.0025717" lon="11.1551117"><ele>10.0</ele><time>2026-05-04T10:24:31.207Z</time></trkpt><trkpt lat="45.002475" lon="11.1550833"><ele>10.0</ele><time>2026-05-04T10:24:32.211Z</time></trkpt><trkpt lat="45.0023783" lon="11.1550583"><ele>10.0</ele><time>2026-05-04T10:24:33.214Z</time></trkpt><trkpt lat="45.0022867" lon="11.15504"><ele>9.8</ele><time>2026-05-04T10:24:34.207Z</time></trkpt><trkpt lat="45.0021967" lon="11.1550217"><ele>9.6</ele><time>2026-05-04T10:24:35.215Z</time></trkpt><trkpt lat="45.0021" lon="11.1550017"><ele>9.4</ele><time>2026-05-04T10:24:36.215Z</time></trkpt><trkpt lat="45.0020017" lon="11.15498"><ele>9.2</ele><time>2026-05-04T10:24:37.207Z</time></trkpt><trkpt lat="45.0019117" lon="11.154965"><ele>9.0</ele><time>2026-05-04T10:24:38.214Z</time></trkpt><trkpt lat="45.0018183" lon="11.1549483"><ele>9.0</ele><time>2026-05-04T10:24:39.211Z</time></trkpt><trkpt lat="45.001725" lon="11.15493"><ele>9.0</ele><time>2026-05-04T10:24:40.212Z</time></trkpt><trkpt lat="45.00164" lon="11.1549133"><ele>9.0</ele><time>2026-05-04T10:24:41.212Z</time></trkpt><trkpt lat="45.00156" lon="11.1548983"><ele>9.0</ele><time>2026-05-04T10:24:42.211Z</time></trkpt><trkpt lat="45.0014883" lon="11.1548883"><ele>9.0</ele><time>2026-05-04T10:24:43.208Z</time></trkpt><trkpt lat="45.0014217" lon="11.1548817"><ele>9.0</ele><time>2026-05-04T10:24:44.21Z</time></trkpt><trkpt lat="45.001345" lon="11.1548833"><ele>9.166666666666666</ele><time>2026-05-04T10:24:45.213Z</time></trkpt><trkpt lat="45.0012567" lon="11.1548917"><ele>9.333333333333334</ele><time>2026-05-04T10:24:46.212Z</time></trkpt><trkpt lat="45.0011717" lon="11.15491"><ele>9.5</ele><time>2026-05-04T10:24:47.207Z</time></trkpt><trkpt lat="45.0011" lon="11.1549283"><ele>9.666666666666668</ele><time>2026-05-04T10:24:48.21Z</time></trkpt><trkpt lat="45.0010267" lon="11.1549483"><ele>9.833333333333334</ele><time>2026-05-04T10:24:49.207Z</time></trkpt><trkpt lat="45.000955" lon="11.15497"><ele>10.0</ele><time>2026-05-04T10:24:50.214Z</time></trkpt><trkpt lat="45.0008783" lon="11.1549917"><ele>10.4</ele><time>2026-05-04T10:24:51.219Z</time></trkpt><trkpt lat="45.0007933" lon="11.155015"><ele>10.8</ele><time>2026-05-04T10:24:52.214Z</time></trkpt><trkpt lat="45.0006967" lon="11.155035"><ele>11.2</ele><time>2026-05-04T10:24:53.21Z</time></trkpt><trkpt lat="45.0005933" lon="11.1550583"><ele>11.6</ele><time>2026-05-04T10:24:54.213Z</time></trkpt><trkpt lat="45.0004883" lon="11.1550833"><ele>12.0</ele><time>2026-05-04T10:24:55.211Z</time></trkpt><trkpt lat="45.0003833" lon="11.1551067"><ele>12.0</ele><time>2026-05-04T10:24:56.217Z</time></trkpt><trkpt lat="45.0002833" lon="11.1551317"><ele>12.0</ele><time>2026-05-04T10:24:57.211Z</time></trkpt><trkpt lat="45.00018" lon="11.15516"><ele>12.0</ele><time>2026-05-04T10:24:58.206Z</time></trkpt><trkpt lat="45.0000733" lon="11.155185"><ele>12.0</ele><time>2026-05-04T10:24:59.208Z</time></trkpt><trkpt lat="44.9999783" lon="11.1552083"><ele>12.0</ele><time>2026-05-04T10:25:00.211Z</time></trkpt><trkpt lat="44.9998917" lon="11.1552317"><ele>12.0</ele><time>2026-05-04T10:25:01.207Z</time></trkpt><trkpt lat="44.9998083" lon="11.1552533"><ele>12.0</ele><time>2026-05-04T10:25:02.213Z</time></trkpt><trkpt lat="44.9997333" lon="11.15527"><ele>12.0</ele><time>2026-05-04T10:25:03.216Z</time></trkpt><trkpt lat="44.9996583" lon="11.1552867"><ele>12.0</ele><time>2026-05-04T10:25:04.208Z</time></trkpt><trkpt lat="44.9995783" lon="11.1553117"><ele>12.0</ele><time>2026-05-04T10:25:05.214Z</time></trkpt><trkpt lat="44.9994867" lon="11.1553367"><ele>12.0</ele><time>2026-05-04T10:25:06.208Z</time></trkpt><trkpt lat="44.9993883" lon="11.1553617"><ele>12.0</ele><time>2026-05-04T10:25:07.214Z</time></trkpt><trkpt lat="44.9993033" lon="11.1553783"><ele>12.0</ele><time>2026-05-04T10:25:08.209Z</time></trkpt><trkpt lat="44.9991633" lon="11.1553983"><ele>12.0</ele><time>2026-05-04T10:25:10.219Z</time></trkpt><trkpt lat="44.99909" lon="11.1554017"><ele>12.0</ele><time>2026-05-04T10:25:11.209Z</time></trkpt><trkpt lat="44.9990183" lon="11.1553983"><ele>12.0</ele><time>2026-05-04T10:25:12.207Z</time></trkpt><trkpt lat="44.9989367" lon="11.155385"><ele>11.666666666666666</ele><time>2026-05-04T10:25:13.21Z</time></trkpt><trkpt lat="44.9988483" lon="11.15536"><ele>11.333333333333334</ele><time>2026-05-04T10:25:14.213Z</time></trkpt><trkpt lat="44.9987583" lon="11.1553333"><ele>11.0</ele><time>2026-05-04T10:25:15.21Z</time></trkpt><trkpt lat="44.9986717" lon="11.1553033"><ele>10.666666666666668</ele><time>2026-05-04T10:25:16.209Z</time></trkpt><trkpt lat="44.9985833" lon="11.1552733"><ele>10.333333333333334</ele><time>2026-05-04T10:25:17.208Z</time></trkpt><trkpt lat="44.9985017" lon="11.1552467"><ele>10.0</ele><time>2026-05-04T10:25:18.21Z</time></trkpt><trkpt lat="44.9984083" lon="11.1552167"><ele>10.2</ele><time>2026-05-04T10:25:19.209Z</time></trkpt><trkpt lat="44.998315" lon="11.1551883"><ele>10.4</ele><time>2026-05-04T10:25:20.209Z</time></trkpt><trkpt lat="44.9982167" lon="11.1551567"><ele>10.600000000000001</ele><time>2026-05-04T10:25:21.216Z</time></trkpt><trkpt lat="44.998115" lon="11.1551217"><ele>10.8</ele><time>2026-05-04T10:25:22.211Z</time></trkpt><trkpt lat="44.9980217" lon="11.1550883"><ele>11.0</ele><time>2026-05-04T10:25:23.219Z</time></trkpt><trkpt lat="44.99793" lon="11.15506"><ele>11.0</ele><time>2026-05-04T10:25:24.217Z</time></trkpt><trkpt lat="44.9978433" lon="11.1550283"><ele>11.0</ele><time>2026-05-04T10:25:25.207Z</time></trkpt><trkpt lat="44.9977617" lon="11.1549983"><ele>11.0</ele><time>2026-05-04T10:25:26.217Z</time></trkpt><trkpt lat="44.9976833" lon="11.1549717"><ele>11.0</ele><time>2026-05-04T10:25:27.207Z</time></trkpt><trkpt lat="44.9976" lon="11.1549433"><ele>11.0</ele><time>2026-05-04T10:25:28.212Z</time></trkpt><trkpt lat="44.997515" lon="11.1549133"><ele>11.0</ele><time>2026-05-04T10:25:29.206Z</time></trkpt><trkpt lat="44.997445" lon="11.1548883"><ele>10.600000000000001</ele><time>2026-05-04T10:25:30.211Z</time></trkpt><trkpt lat="44.9973583" lon="11.1548483"><ele>10.200000000000001</ele><time>2026-05-04T10:25:32.206Z</time></trkpt><trkpt lat="44.99729" lon="11.1547633"><ele>9.8</ele><time>2026-05-04T10:25:35.209Z</time></trkpt><trkpt lat="44.9972417" lon="11.154605"><ele>9.4</ele><time>2026-05-04T10:25:37.208Z</time></trkpt><trkpt lat="44.99721" lon="11.1545017"><ele>9.0</ele><time>2026-05-04T10:25:38.207Z</time></trkpt><trkpt lat="44.997175" lon="11.1544"><ele>9.0</ele><time>2026-05-04T10:25:39.211Z</time></trkpt><trkpt lat="44.9971317" lon="11.1542917"><ele>9.0</ele><time>2026-05-04T10:25:40.208Z</time></trkpt><trkpt lat="44.9970867" lon="11.154185"><ele>9.0</ele><time>2026-05-04T10:25:41.205Z</time></trkpt><trkpt lat="44.9970417" lon="11.15409"><ele>9.0</ele><time>2026-05-04T10:25:42.206Z</time></trkpt><trkpt lat="44.9970017" lon="11.1539967"><ele>9.0</ele><time>2026-05-04T10:25:43.206Z</time></trkpt><trkpt lat="44.9969583" lon="11.1538933"><ele>9.0</ele><time>2026-05-04T10:25:44.215Z</time></trkpt><trkpt lat="44.9969133" lon="11.15379"><ele>9.0</ele><time>2026-05-04T10:25:45.215Z</time></trkpt><trkpt lat="44.996865" lon="11.1536833"><ele>9.0</ele><time>2026-05-04T10:25:46.211Z</time></trkpt><trkpt lat="44.9968117" lon="11.1535667"><ele>9.0</ele><time>2026-05-04T10:25:47.207Z</time></trkpt><trkpt lat="44.9967583" lon="11.15345"><ele>9.0</ele><time>2026-05-04T10:25:48.207Z</time></trkpt><trkpt lat="44.9967117" lon="11.1533467"><ele>9.0</ele><time>2026-05-04T10:25:49.206Z</time></trkpt><trkpt lat="44.996665" lon="11.1532383"><ele>9.2</ele><time>2026-05-04T10:25:50.207Z</time></trkpt><trkpt lat="44.99662" lon="11.15314"><ele>9.4</ele><time>2026-05-04T10:25:51.206Z</time></trkpt><trkpt lat="44.996575" lon="11.15304"><ele>9.6</ele><time>2026-05-04T10:25:52.207Z</time></trkpt><trkpt lat="44.996525" lon="11.1529333"><ele>9.8</ele><time>2026-05-04T10:25:53.214Z</time></trkpt><trkpt lat="44.99647" lon="11.1528133"><ele>10.0</ele><time>2026-05-04T10:25:54.207Z</time></trkpt><trkpt lat="44.9964117" lon="11.15269"><ele>10.0</ele><time>2026-05-04T10:25:55.208Z</time></trkpt><trkpt lat="44.9963567" lon="11.1525767"><ele>10.0</ele><time>2026-05-04T10:25:56.209Z</time></trkpt><trkpt lat="44.9962967" lon="11.1524583"><ele>10.0</ele><time>2026-05-04T10:25:57.207Z</time></trkpt><trkpt lat="44.99624" lon="11.1523383"><ele>10.0</ele><time>2026-05-04T10:25:58.214Z</time></trkpt><trkpt lat="44.9961867" lon="11.1522317"><ele>10.0</ele><time>2026-05-04T10:25:59.206Z</time></trkpt><trkpt lat="44.9961367" lon="11.1521317"><ele>9.8</ele><time>2026-05-04T10:26:00.207Z</time></trkpt><trkpt lat="44.9960817" lon="11.152025"><ele>9.6</ele><time>2026-05-04T10:26:01.209Z</time></trkpt><trkpt lat="44.9960317" lon="11.151925"><ele>9.4</ele><time>2026-05-04T10:26:02.209Z</time></trkpt><trkpt lat="44.9959817" lon="11.1518283"><ele>9.2</ele><time>2026-05-04T10:26:03.213Z</time></trkpt><trkpt lat="44.995925" lon="11.1517283"><ele>9.0</ele><time>2026-05-04T10:26:04.207Z</time></trkpt><trkpt lat="44.99586" lon="11.1516283"><ele>9.2</ele><time>2026-05-04T10:26:05.224Z</time></trkpt><trkpt lat="44.9957917" lon="11.1515233"><ele>9.4</ele><time>2026-05-04T10:26:06.207Z</time></trkpt><trkpt lat="44.9957183" lon="11.1514167"><ele>9.6</ele><time>2026-05-04T10:26:07.209Z</time></trkpt><trkpt lat="44.9956367" lon="11.1513"><ele>9.8</ele><time>2026-05-04T10:26:08.207Z</time></trkpt><trkpt lat="44.99555" lon="11.15118"><ele>10.0</ele><time>2026-05-04T10:26:09.206Z</time></trkpt><trkpt lat="44.9954733" lon="11.1510733"><ele>10.0</ele><time>2026-05-04T10:26:10.208Z</time></trkpt><trkpt lat="44.9954" lon="11.1509783"><ele>10.0</ele><time>2026-05-04T10:26:11.207Z</time></trkpt><trkpt lat="44.99533" lon="11.1508917"><ele>10.0</ele><time>2026-05-04T10:26:12.208Z</time></trkpt><trkpt lat="44.9952633" lon="11.150805"><ele>10.0</ele><time>2026-05-04T10:26:13.209Z</time></trkpt><trkpt lat="44.9952033" lon="11.1507283"><ele>10.0</ele><time>2026-05-04T10:26:14.207Z</time></trkpt><trkpt lat="44.995135" lon="11.150645"><ele>10.0</ele><time>2026-05-04T10:26:15.206Z</time></trkpt><trkpt lat="44.9950583" lon="11.1505517"><ele>10.0</ele><time>2026-05-04T10:26:16.211Z</time></trkpt><trkpt lat="44.994975" lon="11.1504517"><ele>10.0</ele><time>2026-05-04T10:26:17.212Z</time></trkpt><trkpt lat="44.994885" lon="11.1503483"><ele>10.0</ele><time>2026-05-04T10:26:18.209Z</time></trkpt><trkpt lat="44.9947917" lon="11.150245"><ele>10.0</ele><time>2026-05-04T10:26:19.207Z</time></trkpt><trkpt lat="44.9946983" lon="11.1501367"><ele>10.2</ele><time>2026-05-04T10:26:20.21Z</time></trkpt><trkpt lat="44.9946117" lon="11.150035"><ele>10.4</ele><time>2026-05-04T10:26:21.207Z</time></trkpt><trkpt lat="44.99453" lon="11.1499483"><ele>10.600000000000001</ele><time>2026-05-04T10:26:22.207Z</time></trkpt><trkpt lat="44.99445" lon="11.1498717"><ele>10.8</ele><time>2026-05-04T10:26:23.208Z</time></trkpt><trkpt lat="44.9943633" lon="11.149795"><ele>11.0</ele><time>2026-05-04T10:26:24.207Z</time></trkpt><trkpt lat="44.9942717" lon="11.14971"><ele>11.0</ele><time>2026-05-04T10:26:25.209Z</time></trkpt><trkpt lat="44.9941817" lon="11.14963"><ele>11.0</ele><time>2026-05-04T10:26:26.207Z</time></trkpt><trkpt lat="44.994095" lon="11.1495467"><ele>11.0</ele><time>2026-05-04T10:26:27.206Z</time></trkpt><trkpt lat="44.99401" lon="11.1494633"><ele>11.0</ele><time>2026-05-04T10:26:28.206Z</time></trkpt><trkpt lat="44.9939317" lon="11.1493783"><ele>11.0</ele><time>2026-05-04T10:26:29.211Z</time></trkpt><trkpt lat="44.9938633" lon="11.1493033"><ele>11.0</ele><time>2026-05-04T10:26:30.21Z</time></trkpt><trkpt lat="44.9938017" lon="11.14924"><ele>11.0</ele><time>2026-05-04T10:26:31.209Z</time></trkpt><trkpt lat="44.9937383" lon="11.14918"><ele>11.0</ele><time>2026-05-04T10:26:32.208Z</time></trkpt><trkpt lat="44.9936667" lon="11.1491117"><ele>11.0</ele><time>2026-05-04T10:26:33.22Z</time></trkpt><trkpt lat="44.993595" lon="11.14904"><ele>11.0</ele><time>2026-05-04T10:26:34.21Z</time></trkpt><trkpt lat="44.9935333" lon="11.14897"><ele>11.0</ele><time>2026-05-04T10:26:35.207Z</time></trkpt><trkpt lat="44.993475" lon="11.1488983"><ele>11.0</ele><time>2026-05-04T10:26:36.207Z</time></trkpt><trkpt lat="44.9934233" lon="11.148835"><ele>11.0</ele><time>2026-05-04T10:26:37.214Z</time></trkpt><trkpt lat="44.9933367" lon="11.1487383"><ele>11.0</ele><time>2026-05-04T10:26:39.21Z</time></trkpt><trkpt lat="44.993275" lon="11.148675"><ele>11.0</ele><time>2026-05-04T10:26:41.207Z</time></trkpt><trkpt lat="44.99322" lon="11.1485583"><ele>11.0</ele><time>2026-05-04T10:26:43.209Z</time></trkpt><trkpt lat="44.9931733" lon="11.1484433"><ele>11.0</ele><time>2026-05-04T10:26:44.207Z</time></trkpt><trkpt lat="44.99311" lon="11.1482917"><ele>10.666666666666666</ele><time>2026-05-04T10:26:45.212Z</time></trkpt><trkpt lat="44.9930417" lon="11.14812"><ele>10.333333333333334</ele><time>2026-05-04T10:26:46.206Z</time></trkpt><trkpt lat="44.9929633" lon="11.1479133"><ele>10.0</ele><time>2026-05-04T10:26:47.208Z</time></trkpt><trkpt lat="44.9928817" lon="11.1476983"><ele>10.0</ele><time>2026-05-04T10:26:48.212Z</time></trkpt><trkpt lat="44.9928" lon="11.1474583"><ele>10.0</ele><time>2026-05-04T10:26:49.207Z</time></trkpt><trkpt lat="44.992725" lon="11.14721"><ele>10.0</ele><time>2026-05-04T10:26:50.206Z</time></trkpt><trkpt lat="44.9926567" lon="11.1469583"><ele>10.0</ele><time>2026-05-04T10:26:51.207Z</time></trkpt><trkpt lat="44.992595" lon="11.1466983"><ele>10.0</ele><time>2026-05-04T10:26:52.209Z</time></trkpt><trkpt lat="44.9925417" lon="11.146435"><ele>10.0</ele><time>2026-05-04T10:26:53.207Z</time></trkpt><trkpt lat="44.9924933" lon="11.1461683"><ele>10.0</ele><time>2026-05-04T10:26:54.214Z</time></trkpt><trkpt lat="44.9924483" lon="11.1459"><ele>10.0</ele><time>2026-05-04T10:26:55.211Z</time></trkpt><trkpt lat="44.9924017" lon="11.14563"><ele>10.0</ele><time>2026-05-04T10:26:56.219Z</time></trkpt><trkpt lat="44.992355" lon="11.1453633"><ele>10.666666666666668</ele><time>2026-05-04T10:26:57.21Z</time></trkpt><trkpt lat="44.99231" lon="11.1451017"><ele>11.333333333333334</ele><time>2026-05-04T10:26:58.212Z</time></trkpt><trkpt lat="44.9922683" lon="11.1448583"><ele>12.0</ele><time>2026-05-04T10:26:59.208Z</time></trkpt><trkpt lat="44.9922267" lon="11.1446333"><ele>12.5</ele><time>2026-05-04T10:27:00.207Z</time></trkpt><trkpt lat="44.9921917" lon="11.1444267"><ele>13.0</ele><time>2026-05-04T10:27:01.21Z</time></trkpt><trkpt lat="44.9921633" lon="11.1442267"><ele>13.5</ele><time>2026-05-04T10:27:02.207Z</time></trkpt><trkpt lat="44.9921483" lon="11.1440283"><ele>14.0</ele><time>2026-05-04T10:27:03.211Z</time></trkpt><trkpt lat="44.9921583" lon="11.1438217"><ele>14.0</ele><time>2026-05-04T10:27:04.209Z</time></trkpt><trkpt lat="44.99219" lon="11.1436017"><ele>14.0</ele><time>2026-05-04T10:27:05.209Z</time></trkpt><trkpt lat="44.99223" lon="11.1434133"><ele>14.0</ele><time>2026-05-04T10:27:06.21Z</time></trkpt><trkpt lat="44.9922717" lon="11.1432483"><ele>14.0</ele><time>2026-05-04T10:27:07.207Z</time></trkpt><trkpt lat="44.992315" lon="11.1431133"><ele>14.000000000000002</ele><time>2026-05-04T10:27:08.208Z</time></trkpt><trkpt lat="44.992365" lon="11.14301"><ele>14.0</ele><time>2026-05-04T10:27:09.207Z</time></trkpt><trkpt lat="44.99242" lon="11.14294"><ele>14.0</ele><time>2026-05-04T10:27:10.208Z</time></trkpt><trkpt lat="44.992495" lon="11.1428917"><ele>14.0</ele><time>2026-05-04T10:27:12.207Z</time></trkpt><trkpt lat="44.9925383" lon="11.1428017"><ele>14.000000000000002</ele><time>2026-05-04T10:27:14.207Z</time></trkpt><trkpt lat="44.9925467" lon="11.1427"><ele>14.0</ele><time>2026-05-04T10:27:15.207Z</time></trkpt><trkpt lat="44.9925333" lon="11.1425417"><ele>13.333333333333334</ele><time>2026-05-04T10:27:16.209Z</time></trkpt><trkpt lat="44.99253" lon="11.1423633"><ele>12.666666666666668</ele><time>2026-05-04T10:27:17.211Z</time></trkpt><trkpt lat="44.99255" lon="11.142145"><ele>12.0</ele><time>2026-05-04T10:27:18.208Z</time></trkpt><trkpt lat="44.9925917" lon="11.1418983"><ele>12.0</ele><time>2026-05-04T10:27:19.207Z</time></trkpt><trkpt lat="44.9926333" lon="11.1416433"><ele>12.0</ele><time>2026-05-04T10:27:20.215Z</time></trkpt><trkpt lat="44.9926667" lon="11.14138"><ele>12.0</ele><time>2026-05-04T10:27:21.207Z</time></trkpt><trkpt lat="44.9926917" lon="11.1411167"><ele>12.0</ele><time>2026-05-04T10:27:22.21Z</time></trkpt><trkpt lat="44.9927133" lon="11.1408583"><ele>12.0</ele><time>2026-05-04T10:27:23.212Z</time></trkpt><trkpt lat="44.9927267" lon="11.140605"><ele>12.0</ele><time>2026-05-04T10:27:24.206Z</time></trkpt><trkpt lat="44.9927333" lon="11.1403533"><ele>12.0</ele><time>2026-05-04T10:27:25.209Z</time></trkpt><trkpt lat="44.9927333" lon="11.14011"><ele>12.0</ele><time>2026-05-04T10:27:26.211Z</time></trkpt><trkpt lat="44.992725" lon="11.1398817"><ele>12.0</ele><time>2026-05-04T10:27:27.21Z</time></trkpt><trkpt lat="44.9926967" lon="11.1396733"><ele>12.0</ele><time>2026-05-04T10:27:28.209Z</time></trkpt><trkpt lat="44.9926433" lon="11.13948"><ele>12.0</ele><time>2026-05-04T10:27:29.213Z</time></trkpt><trkpt lat="44.992555" lon="11.139315"><ele>12.0</ele><time>2026-05-04T10:27:30.207Z</time></trkpt><trkpt lat="44.992455" lon="11.139175"><ele>12.0</ele><time>2026-05-04T10:27:31.207Z</time></trkpt><trkpt lat="44.9923633" lon="11.1390367"><ele>12.0</ele><time>2026-05-04T10:27:32.208Z</time></trkpt><trkpt lat="44.9922817" lon="11.1388783"><ele>12.0</ele><time>2026-05-04T10:27:33.207Z</time></trkpt><trkpt lat="44.99223" lon="11.1386933"><ele>12.0</ele><time>2026-05-04T10:27:34.207Z</time></trkpt><trkpt lat="44.9922033" lon="11.1385"><ele>12.0</ele><time>2026-05-04T10:27:35.21Z</time></trkpt><trkpt lat="44.9921733" lon="11.13831"><ele>12.0</ele><time>2026-05-04T10:27:36.209Z</time></trkpt><trkpt lat="44.9921117" lon="11.1381283"><ele>12.0</ele><time>2026-05-04T10:27:37.212Z</time></trkpt><trkpt lat="44.9920183" lon="11.13796"><ele>12.0</ele><time>2026-05-04T10:27:38.208Z</time></trkpt><trkpt lat="44.991895" lon="11.137795"><ele>12.0</ele><time>2026-05-04T10:27:39.206Z</time></trkpt><trkpt lat="44.9917467" lon="11.1376233"><ele>12.0</ele><time>2026-05-04T10:27:40.212Z</time></trkpt><trkpt lat="44.9915717" lon="11.137435"><ele>12.0</ele><time>2026-05-04T10:27:41.215Z</time></trkpt><trkpt lat="44.9913817" lon="11.13723"><ele>12.5</ele><time>2026-05-04T10:27:42.211Z</time></trkpt><trkpt lat="44.9911767" lon="11.1370083"><ele>13.0</ele><time>2026-05-04T10:27:43.208Z</time></trkpt><trkpt lat="44.9909583" lon="11.1367717"><ele>12.0</ele><time>2026-05-04T10:27:44.207Z</time></trkpt><trkpt lat="44.9907333" lon="11.1365283"><ele>11.0</ele><time>2026-05-04T10:27:45.209Z</time></trkpt><trkpt lat="44.9905067" lon="11.136285"><ele>11.0</ele><time>2026-05-04T10:27:46.207Z</time></trkpt><trkpt lat="44.9902817" lon="11.1360483"><ele>11.0</ele><time>2026-05-04T10:27:47.208Z</time></trkpt><trkpt lat="44.99007" lon="11.135825"><ele>11.0</ele><time>2026-05-04T10:27:48.212Z</time></trkpt><trkpt lat="44.9898633" lon="11.1356167"><ele>11.0</ele><time>2026-05-04T10:27:49.214Z</time></trkpt><trkpt lat="44.989665" lon="11.1354233"><ele>11.0</ele><time>2026-05-04T10:27:50.211Z</time></trkpt><trkpt lat="44.9894767" lon="11.13524"><ele>11.0</ele><time>2026-05-04T10:27:51.207Z</time></trkpt><trkpt lat="44.9892967" lon="11.1350667"><ele>11.0</ele><time>2026-05-04T10:27:52.206Z</time></trkpt><trkpt lat="44.989125" lon="11.1349067"><ele>11.0</ele><time>2026-05-04T10:27:53.213Z</time></trkpt><trkpt lat="44.9889567" lon="11.1347517"><ele>11.0</ele><time>2026-05-04T10:27:54.214Z</time></trkpt><trkpt lat="44.98879" lon="11.1345967"><ele>11.0</ele><time>2026-05-04T10:27:55.211Z</time></trkpt><trkpt lat="44.9886217" lon="11.1344417"><ele>11.0</ele><time>2026-05-04T10:27:56.21Z</time></trkpt><trkpt lat="44.988455" lon="11.1342867"><ele>11.0</ele><time>2026-05-04T10:27:57.21Z</time></trkpt><trkpt lat="44.98829" lon="11.1341333"><ele>11.0</ele><time>2026-05-04T10:27:58.213Z</time></trkpt><trkpt lat="44.9881233" lon="11.13398"><ele>11.0</ele><time>2026-05-04T10:27:59.211Z</time></trkpt><trkpt lat="44.9879583" lon="11.133825"><ele>11.0</ele><time>2026-05-04T10:28:00.211Z</time></trkpt><trkpt lat="44.9877933" lon="11.13367"><ele>11.0</ele><time>2026-05-04T10:28:01.211Z</time></trkpt><trkpt lat="44.9876267" lon="11.133515"><ele>10.666666666666666</ele><time>2026-05-04T10:28:02.211Z</time></trkpt><trkpt lat="44.9874617" lon="11.1333633"><ele>10.333333333333334</ele><time>2026-05-04T10:28:03.207Z</time></trkpt><trkpt lat="44.9872933" lon="11.1332117"><ele>10.0</ele><time>2026-05-04T10:28:04.208Z</time></trkpt><trkpt lat="44.987125" lon="11.1330583"><ele>9.666666666666668</ele><time>2026-05-04T10:28:05.219Z</time></trkpt><trkpt lat="44.9869567" lon="11.1329083"><ele>9.333333333333334</ele><time>2026-05-04T10:28:06.209Z</time></trkpt><trkpt lat="44.98679" lon="11.1327567"><ele>9.0</ele><time>2026-05-04T10:28:07.207Z</time></trkpt><trkpt lat="44.9866267" lon="11.132605"><ele>9.0</ele><time>2026-05-04T10:28:08.212Z</time></trkpt><trkpt lat="44.9864633" lon="11.1324517"><ele>9.0</ele><time>2026-05-04T10:28:09.209Z</time></trkpt><trkpt lat="44.9862983" lon="11.1322967"><ele>9.0</ele><time>2026-05-04T10:28:10.207Z</time></trkpt><trkpt lat="44.9861317" lon="11.1321433"><ele>9.0</ele><time>2026-05-04T10:28:11.21Z</time></trkpt><trkpt lat="44.985965" lon="11.1319883"><ele>9.0</ele><time>2026-05-04T10:28:12.208Z</time></trkpt><trkpt lat="44.9857933" lon="11.13183"><ele>9.0</ele><time>2026-05-04T10:28:13.225Z</time></trkpt><trkpt lat="44.9856233" lon="11.1316717"><ele>9.333333333333334</ele><time>2026-05-04T10:28:14.214Z</time></trkpt><trkpt lat="44.9854533" lon="11.13151"><ele>9.666666666666668</ele><time>2026-05-04T10:28:15.207Z</time></trkpt><trkpt lat="44.9852833" lon="11.1313467"><ele>10.0</ele><time>2026-05-04T10:28:16.21Z</time></trkpt><trkpt lat="44.98511" lon="11.1311833"><ele>9.666666666666668</ele><time>2026-05-04T10:28:17.213Z</time></trkpt><trkpt lat="44.984935" lon="11.1310217"><ele>9.333333333333334</ele><time>2026-05-04T10:28:18.213Z</time></trkpt><trkpt lat="44.984755" lon="11.1308567"><ele>9.0</ele><time>2026-05-04T10:28:19.209Z</time></trkpt><trkpt lat="44.9845683" lon="11.1306867"><ele>9.0</ele><time>2026-05-04T10:28:20.21Z</time></trkpt><trkpt lat="44.9843783" lon="11.1305133"><ele>9.0</ele><time>2026-05-04T10:28:21.216Z</time></trkpt><trkpt lat="44.9841867" lon="11.13033"><ele>10.0</ele><time>2026-05-04T10:28:22.21Z</time></trkpt><trkpt lat="44.98399" lon="11.130145"><ele>11.0</ele><time>2026-05-04T10:28:23.217Z</time></trkpt><trkpt lat="44.9837883" lon="11.12996"><ele>10.5</ele><time>2026-05-04T10:28:24.207Z</time></trkpt><trkpt lat="44.983585" lon="11.129775"><ele>10.0</ele><time>2026-05-04T10:28:25.208Z</time></trkpt><trkpt lat="44.9833817" lon="11.1295883"><ele>10.5</ele><time>2026-05-04T10:28:26.208Z</time></trkpt><trkpt lat="44.98318" lon="11.1293983"><ele>11.0</ele><time>2026-05-04T10:28:27.214Z</time></trkpt><trkpt lat="44.9829783" lon="11.12921"><ele>12.0</ele><time>2026-05-04T10:28:28.209Z</time></trkpt><trkpt lat="44.9827767" lon="11.1290233"><ele>13.0</ele><time>2026-05-04T10:28:29.21Z</time></trkpt><trkpt lat="44.9825783" lon="11.1288383"><ele>12.0</ele><time>2026-05-04T10:28:30.207Z</time></trkpt><trkpt lat="44.9823817" lon="11.1286533"><ele>11.0</ele><time>2026-05-04T10:28:31.206Z</time></trkpt><trkpt lat="44.98219" lon="11.1284733"><ele>11.0</ele><time>2026-05-04T10:28:32.21Z</time></trkpt><trkpt lat="44.982" lon="11.1283"><ele>11.0</ele><time>2026-05-04T10:28:33.206Z</time></trkpt><trkpt lat="44.9818083" lon="11.128125"><ele>10.666666666666666</ele><time>2026-05-04T10:28:34.207Z</time></trkpt><trkpt lat="44.98162" lon="11.1279517"><ele>10.333333333333334</ele><time>2026-05-04T10:28:35.206Z</time></trkpt><trkpt lat="44.9814433" lon="11.1277883"><ele>10.0</ele><time>2026-05-04T10:28:36.206Z</time></trkpt><trkpt lat="44.9812767" lon="11.1276317"><ele>10.0</ele><time>2026-05-04T10:28:37.21Z</time></trkpt><trkpt lat="44.9811167" lon="11.1274833"><ele>10.0</ele><time>2026-05-04T10:28:38.207Z</time></trkpt><trkpt lat="44.98096" lon="11.127335"><ele>10.0</ele><time>2026-05-04T10:28:39.208Z</time></trkpt><trkpt lat="44.9808033" lon="11.1271867"><ele>10.333333333333334</ele><time>2026-05-04T10:28:40.209Z</time></trkpt><trkpt lat="44.9806467" lon="11.1270383"><ele>10.666666666666666</ele><time>2026-05-04T10:28:41.207Z</time></trkpt><trkpt lat="44.9804883" lon="11.126895"><ele>11.0</ele><time>2026-05-04T10:28:42.211Z</time></trkpt><trkpt lat="44.98033" lon="11.1267483"><ele>11.0</ele><time>2026-05-04T10:28:43.206Z</time></trkpt><trkpt lat="44.9801683" lon="11.1265983"><ele>11.0</ele><time>2026-05-04T10:28:44.212Z</time></trkpt><trkpt lat="44.979995" lon="11.12644"><ele>11.0</ele><time>2026-05-04T10:28:45.21Z</time></trkpt><trkpt lat="44.97981" lon="11.1262683"><ele>11.666666666666666</ele><time>2026-05-04T10:28:46.209Z</time></trkpt><trkpt lat="44.9796217" lon="11.126095"><ele>12.333333333333332</ele><time>2026-05-04T10:28:47.206Z</time></trkpt><trkpt lat="44.9794433" lon="11.1259317"><ele>13.0</ele><time>2026-05-04T10:28:48.208Z</time></trkpt><trkpt lat="44.9792817" lon="11.1257833"><ele>13.0</ele><time>2026-05-04T10:28:49.212Z</time></trkpt><trkpt lat="44.9791367" lon="11.1256533"><ele>13.0</ele><time>2026-05-04T10:28:50.214Z</time></trkpt><trkpt lat="44.97901" lon="11.1255317"><ele>13.0</ele><time>2026-05-04T10:28:51.213Z</time></trkpt><trkpt lat="44.978885" lon="11.1254133"><ele>13.0</ele><time>2026-05-04T10:28:52.209Z</time></trkpt><trkpt lat="44.9787683" lon="11.125305"><ele>13.0</ele><time>2026-05-04T10:28:53.212Z</time></trkpt><trkpt lat="44.97866" lon="11.1252133"><ele>13.0</ele><time>2026-05-04T10:28:54.211Z</time></trkpt><trkpt lat="44.9785417" lon="11.1251517"><ele>13.0</ele><time>2026-05-04T10:28:55.208Z</time></trkpt><trkpt lat="44.9784117" lon="11.1251267"><ele>13.0</ele><time>2026-05-04T10:28:56.212Z</time></trkpt><trkpt lat="44.9782717" lon="11.1251283"><ele>13.0</ele><time>2026-05-04T10:28:57.212Z</time></trkpt><trkpt lat="44.9781167" lon="11.1251383"><ele>13.0</ele><time>2026-05-04T10:28:58.209Z</time></trkpt><trkpt lat="44.9779583" lon="11.1251517"><ele>13.0</ele><time>2026-05-04T10:28:59.207Z</time></trkpt><trkpt lat="44.9778083" lon="11.1251683"><ele>13.0</ele><time>2026-05-04T10:29:00.206Z</time></trkpt><trkpt lat="44.9776533" lon="11.125185"><ele>13.0</ele><time>2026-05-04T10:29:01.206Z</time></trkpt><trkpt lat="44.9775083" lon="11.1251983"><ele>13.166666666666666</ele><time>2026-05-04T10:29:02.208Z</time></trkpt><trkpt lat="44.9773917" lon="11.125205"><ele>13.333333333333332</ele><time>2026-05-04T10:29:03.211Z</time></trkpt><trkpt lat="44.9773017" lon="11.1252233"><ele>13.5</ele><time>2026-05-04T10:29:04.207Z</time></trkpt><trkpt lat="44.977235" lon="11.125255"><ele>13.666666666666668</ele><time>2026-05-04T10:29:05.206Z</time></trkpt><trkpt lat="44.97718" lon="11.1253117"><ele>13.833333333333334</ele><time>2026-05-04T10:29:06.206Z</time></trkpt><trkpt lat="44.9771417" lon="11.1254217"><ele>14.0</ele><time>2026-05-04T10:29:07.207Z</time></trkpt><trkpt lat="44.9771033" lon="11.125585"><ele>14.0</ele><time>2026-05-04T10:29:08.213Z</time></trkpt><trkpt lat="44.9770667" lon="11.125805"><ele>14.0</ele><time>2026-05-04T10:29:09.206Z</time></trkpt><trkpt lat="44.9770283" lon="11.1260083"><ele>14.0</ele><time>2026-05-04T10:29:10.207Z</time></trkpt><trkpt lat="44.9769867" lon="11.1261833"><ele>14.0</ele><time>2026-05-04T10:29:11.207Z</time></trkpt><trkpt lat="44.9769467" lon="11.1263433"><ele>14.0</ele><time>2026-05-04T10:29:12.209Z</time></trkpt><trkpt lat="44.9769133" lon="11.1264917"><ele>13.999999999999998</ele><time>2026-05-04T10:29:13.208Z</time></trkpt><trkpt lat="44.976885" lon="11.126625"><ele>13.999999999999998</ele><time>2026-05-04T10:29:14.209Z</time></trkpt><trkpt lat="44.9768583" lon="11.12674"><ele>14.0</ele><time>2026-05-04T10:29:15.207Z</time></trkpt><trkpt lat="44.97684" lon="11.12684"><ele>14.0</ele><time>2026-05-04T10:29:16.207Z</time></trkpt><trkpt lat="44.976865" lon="11.1269783"><ele>13.833333333333334</ele><time>2026-05-04T10:29:18.231Z</time></trkpt><trkpt lat="44.9769717" lon="11.1269983"><ele>13.666666666666668</ele><time>2026-05-04T10:29:20.213Z</time></trkpt><trkpt lat="44.9770383" lon="11.1269683"><ele>13.5</ele><time>2026-05-04T10:29:21.21Z</time></trkpt><trkpt lat="44.9771017" lon="11.1269083"><ele>13.333333333333332</ele><time>2026-05-04T10:29:22.207Z</time></trkpt><trkpt lat="44.9771483" lon="11.1268233"><ele>13.166666666666666</ele><time>2026-05-04T10:29:23.209Z</time></trkpt><trkpt lat="44.97717" lon="11.1267317"><ele>13.0</ele><time>2026-05-04T10:29:24.213Z</time></trkpt><trkpt lat="44.9771583" lon="11.1266067"><ele>13.2</ele><time>2026-05-04T10:29:25.21Z</time></trkpt><trkpt lat="44.9771317" lon="11.1264667"><ele>13.4</ele><time>2026-05-04T10:29:26.212Z</time></trkpt><trkpt lat="44.9771117" lon="11.1263367"><ele>13.599999999999998</ele><time>2026-05-04T10:29:27.212Z</time></trkpt><trkpt lat="44.9770933" lon="11.12621"><ele>13.799999999999999</ele><time>2026-05-04T10:29:28.213Z</time></trkpt><trkpt lat="44.9770733" lon="11.1260783"><ele>14.0</ele><time>2026-05-04T10:29:29.21Z</time></trkpt><trkpt lat="44.97705" lon="11.125935"><ele>14.0</ele><time>2026-05-04T10:29:30.213Z</time></trkpt><trkpt lat="44.9770233" lon="11.1257967"><ele>14.0</ele><time>2026-05-04T10:29:31.207Z</time></trkpt><trkpt lat="44.977" lon="11.12566"><ele>14.0</ele><time>2026-05-04T10:29:32.215Z</time></trkpt><trkpt lat="44.976975" lon="11.1255233"><ele>14.0</ele><time>2026-05-04T10:29:33.208Z</time></trkpt><trkpt lat="44.97688" lon="11.1248267"><ele>14.0</ele><time>2026-05-04T10:29:38.208Z</time></trkpt><trkpt lat="44.97727" lon="11.1247467"><ele>14.0</ele><time>2026-05-04T10:29:39.207Z</time></trkpt><trkpt lat="44.97754" lon="11.124725"><ele>14.0</ele><time>2026-05-04T10:29:40.208Z</time></trkpt><trkpt lat="44.97768" lon="11.1246717"><ele>14.0</ele><time>2026-05-04T10:29:41.207Z</time></trkpt><trkpt lat="44.97783" lon="11.1246733"><ele>14.0</ele><time>2026-05-04T10:29:42.208Z</time></trkpt><trkpt lat="44.9780167" lon="11.1247133"><ele>14.0</ele><time>2026-05-04T10:29:43.207Z</time></trkpt><trkpt lat="44.97823" lon="11.1247467"><ele>14.0</ele><time>2026-05-04T10:29:44.208Z</time></trkpt><trkpt lat="44.978435" lon="11.1247617"><ele>14.0</ele><time>2026-05-04T10:29:45.207Z</time></trkpt><trkpt lat="44.97862" lon="11.124755"><ele>13.799999999999999</ele><time>2026-05-04T10:29:46.208Z</time></trkpt><trkpt lat="44.97877" lon="11.124745"><ele>13.599999999999998</ele><time>2026-05-04T10:29:47.207Z</time></trkpt><trkpt lat="44.9788933" lon="11.124735"><ele>13.4</ele><time>2026-05-04T10:29:48.216Z</time></trkpt><trkpt lat="44.9789833" lon="11.1247333"><ele>13.2</ele><time>2026-05-04T10:29:49.207Z</time></trkpt><trkpt lat="44.9790517" lon="11.1247233"><ele>13.0</ele><time>2026-05-04T10:29:50.208Z</time></trkpt><trkpt lat="44.979115" lon="11.124665"><ele>13.0</ele><time>2026-05-04T10:29:52.206Z</time></trkpt><trkpt lat="44.9790617" lon="11.1246067"><ele>13.0</ele><time>2026-05-04T10:29:54.207Z</time></trkpt><trkpt lat="44.978955" lon="11.1246567"><ele>13.0</ele><time>2026-05-04T10:29:56.209Z</time></trkpt><trkpt lat="44.9788733" lon="11.1246967"><ele>13.0</ele><time>2026-05-04T10:29:57.207Z</time></trkpt><trkpt lat="44.9787417" lon="11.1247067"><ele>13.0</ele><time>2026-05-04T10:29:58.207Z</time></trkpt><trkpt lat="44.9786017" lon="11.1247117"><ele>13.0</ele><time>2026-05-04T10:29:59.207Z</time></trkpt><trkpt lat="44.97846" lon="11.124715"><ele>13.0</ele><time>2026-05-04T10:30:00.208Z</time></trkpt><trkpt lat="44.97833" lon="11.1247183"><ele>13.0</ele><time>2026-05-04T10:30:01.209Z</time></trkpt><trkpt lat="44.9782117" lon="11.124705"><ele>13.0</ele><time>2026-05-04T10:30:02.209Z</time></trkpt><trkpt lat="44.9781117" lon="11.1246617"><ele>13.166666666666666</ele><time>2026-05-04T10:30:03.209Z</time></trkpt><trkpt lat="44.9780217" lon="11.1246033"><ele>13.333333333333332</ele><time>2026-05-04T10:30:04.209Z</time></trkpt><trkpt lat="44.977935" lon="11.12454"><ele>13.5</ele><time>2026-05-04T10:30:05.213Z</time></trkpt><trkpt lat="44.9778617" lon="11.1244833"><ele>13.666666666666668</ele><time>2026-05-04T10:30:06.21Z</time></trkpt><trkpt lat="44.9777967" lon="11.1244317"><ele>13.833333333333334</ele><time>2026-05-04T10:30:07.211Z</time></trkpt><trkpt lat="44.97774" lon="11.1243833"><ele>14.0</ele><time>2026-05-04T10:30:08.209Z</time></trkpt><trkpt lat="44.9776483" lon="11.1243"><ele>14.000000000000002</ele><time>2026-05-04T10:30:10.208Z</time></trkpt><trkpt lat="44.9775767" lon="11.1242133"><ele>14.0</ele><time>2026-05-04T10:30:12.213Z</time></trkpt><trkpt lat="44.9775117" lon="11.12413"><ele>14.0</ele><time>2026-05-04T10:30:14.211Z</time></trkpt><trkpt lat="44.9774433" lon="11.1240683"><ele>14.0</ele><time>2026-05-04T10:30:16.21Z</time></trkpt><trkpt lat="44.9773583" lon="11.1239833"><ele>14.000000000000002</ele><time>2026-05-04T10:30:18.208Z</time></trkpt><trkpt lat="44.9773" lon="11.123925"><ele>14.0</ele><time>2026-05-04T10:30:19.208Z</time></trkpt><trkpt lat="44.9772367" lon="11.1238567"><ele>14.333333333333334</ele><time>2026-05-04T10:30:20.209Z</time></trkpt><trkpt lat="44.9771733" lon="11.1237967"><ele>14.666666666666668</ele><time>2026-05-04T10:30:21.206Z</time></trkpt><trkpt lat="44.9771067" lon="11.1237333"><ele>15.0</ele><time>2026-05-04T10:30:22.207Z</time></trkpt><trkpt lat="44.9770317" lon="11.12366"><ele>15.333333333333332</ele><time>2026-05-04T10:30:23.207Z</time></trkpt><trkpt lat="44.9769517" lon="11.123585"><ele>15.666666666666666</ele><time>2026-05-04T10:30:24.207Z</time></trkpt><trkpt lat="44.9768733" lon="11.1235083"><ele>16.0</ele><time>2026-05-04T10:30:25.213Z</time></trkpt><trkpt lat="44.9767983" lon="11.123435"><ele>16.0</ele><time>2026-05-04T10:30:26.207Z</time></trkpt><trkpt lat="44.976725" lon="11.123365"><ele>16.0</ele><time>2026-05-04T10:30:27.207Z</time></trkpt><trkpt lat="44.9766533" lon="11.1232917"><ele>16.0</ele><time>2026-05-04T10:30:28.211Z</time></trkpt><trkpt lat="44.976575" lon="11.123225"><ele>16.0</ele><time>2026-05-04T10:30:29.214Z</time></trkpt><trkpt lat="44.9764933" lon="11.123155"><ele>16.0</ele><time>2026-05-04T10:30:30.207Z</time></trkpt><trkpt lat="44.976415" lon="11.1230783"><ele>15.600000000000001</ele><time>2026-05-04T10:30:31.211Z</time></trkpt><trkpt lat="44.97633" lon="11.1229967"><ele>15.200000000000001</ele><time>2026-05-04T10:30:32.218Z</time></trkpt><trkpt lat="44.9762383" lon="11.1229217"><ele>14.799999999999999</ele><time>2026-05-04T10:30:33.207Z</time></trkpt><trkpt lat="44.97614" lon="11.1228383"><ele>14.399999999999999</ele><time>2026-05-04T10:30:34.212Z</time></trkpt><trkpt lat="44.9760467" lon="11.1227567"><ele>14.0</ele><time>2026-05-04T10:30:35.207Z</time></trkpt><trkpt lat="44.975955" lon="11.1226717"><ele>14.000000000000002</ele><time>2026-05-04T10:30:36.207Z</time></trkpt><trkpt lat="44.975865" lon="11.1225883"><ele>14.0</ele><time>2026-05-04T10:30:37.211Z</time></trkpt><trkpt lat="44.975785" lon="11.1225133"><ele>14.0</ele><time>2026-05-04T10:30:38.212Z</time></trkpt><trkpt lat="44.9757183" lon="11.1224483"><ele>14.0</ele><time>2026-05-04T10:30:39.215Z</time></trkpt><trkpt lat="44.9756633" lon="11.1223933"><ele>14.000000000000002</ele><time>2026-05-04T10:30:40.207Z</time></trkpt><trkpt lat="44.97561" lon="11.1222867"><ele>14.0</ele><time>2026-05-04T10:30:42.207Z</time></trkpt><trkpt lat="44.9756717" lon="11.1220983"><ele>14.2</ele><time>2026-05-04T10:30:44.209Z</time></trkpt><trkpt lat="44.97573" lon="11.1219717"><ele>14.399999999999999</ele><time>2026-05-04T10:30:45.207Z</time></trkpt><trkpt lat="44.97579" lon="11.1218533"><ele>14.6</ele><time>2026-05-04T10:30:46.205Z</time></trkpt><trkpt lat="44.9758483" lon="11.1217317"><ele>14.8</ele><time>2026-05-04T10:30:47.209Z</time></trkpt><trkpt lat="44.9759033" lon="11.1216033"><ele>15.0</ele><time>2026-05-04T10:30:48.207Z</time></trkpt><trkpt lat="44.9759617" lon="11.1214717"><ele>14.4</ele><time>2026-05-04T10:30:49.207Z</time></trkpt><trkpt lat="44.9760167" lon="11.1213417"><ele>13.8</ele><time>2026-05-04T10:30:50.208Z</time></trkpt><trkpt lat="44.9760717" lon="11.1212133"><ele>13.2</ele><time>2026-05-04T10:30:51.206Z</time></trkpt><trkpt lat="44.9761233" lon="11.1210883"><ele>12.6</ele><time>2026-05-04T10:30:52.207Z</time></trkpt><trkpt lat="44.9761783" lon="11.1209633"><ele>12.0</ele><time>2026-05-04T10:30:53.213Z</time></trkpt><trkpt lat="44.97623" lon="11.1208433"><ele>12.2</ele><time>2026-05-04T10:30:54.205Z</time></trkpt><trkpt lat="44.9762867" lon="11.120725"><ele>12.399999999999999</ele><time>2026-05-04T10:30:55.208Z</time></trkpt><trkpt lat="44.97634" lon="11.120605"><ele>12.600000000000001</ele><time>2026-05-04T10:30:56.208Z</time></trkpt><trkpt lat="44.976395" lon="11.12048"><ele>12.8</ele><time>2026-05-04T10:30:57.208Z</time></trkpt><trkpt lat="44.9764483" lon="11.1203533"><ele>13.0</ele><time>2026-05-04T10:30:58.21Z</time></trkpt><trkpt lat="44.9765033" lon="11.1202233"><ele>12.999999999999998</ele><time>2026-05-04T10:30:59.207Z</time></trkpt><trkpt lat="44.9765567" lon="11.1201"><ele>13.0</ele><time>2026-05-04T10:31:00.207Z</time></trkpt><trkpt lat="44.97661" lon="11.1199917"><ele>13.0</ele><time>2026-05-04T10:31:01.208Z</time></trkpt><trkpt lat="44.97667" lon="11.1199083"><ele>13.0</ele><time>2026-05-04T10:31:02.209Z</time></trkpt><trkpt lat="44.9767433" lon="11.1198567"><ele>12.999999999999998</ele><time>2026-05-04T10:31:03.208Z</time></trkpt><trkpt lat="44.97682" lon="11.1198333"><ele>13.0</ele><time>2026-05-04T10:31:04.207Z</time></trkpt><trkpt lat="44.9769" lon="11.119835"><ele>13.333333333333332</ele><time>2026-05-04T10:31:05.208Z</time></trkpt><trkpt lat="44.9769717" lon="11.1198467"><ele>13.666666666666666</ele><time>2026-05-04T10:31:06.209Z</time></trkpt><trkpt lat="44.977035" lon="11.119865"><ele>14.0</ele><time>2026-05-04T10:31:07.209Z</time></trkpt><trkpt lat="44.97715" lon="11.1199"><ele>14.333333333333332</ele><time>2026-05-04T10:31:09.21Z</time></trkpt><trkpt lat="44.9772483" lon="11.11993"><ele>14.666666666666666</ele><time>2026-05-04T10:31:11.209Z</time></trkpt><trkpt lat="44.977335" lon="11.119965"><ele>15.0</ele><time>2026-05-04T10:31:13.215Z</time></trkpt><trkpt lat="44.97741" lon="11.12"><ele>15.0</ele><time>2026-05-04T10:31:15.207Z</time></trkpt><trkpt lat="44.9774217" lon="11.1201267"><ele>15.0</ele><time>2026-05-04T10:31:18.21Z</time></trkpt><trkpt lat="44.9773917" lon="11.1202083"><ele>15.0</ele><time>2026-05-04T10:31:20.208Z</time></trkpt><trkpt lat="44.97736" lon="11.1203183"><ele>15.0</ele><time>2026-05-04T10:31:23.218Z</time></trkpt><trkpt lat="44.977325" lon="11.1204033"><ele>15.0</ele><time>2026-05-04T10:31:25.207Z</time></trkpt><trkpt lat="44.97728" lon="11.1204833"><ele>15.0</ele><time>2026-05-04T10:31:27.207Z</time></trkpt><trkpt lat="44.9772283" lon="11.1204183"><ele>15.0</ele><time>2026-05-04T10:31:34.209Z</time></trkpt><trkpt lat="44.9772333" lon="11.12031"><ele>15.0</ele><time>2026-05-04T10:31:38.209Z</time></trkpt></trkseg></trk></gpx>